<?xml version="1.0" encoding="UTF-8" standalone="no" ?>
<gpx xmlns="http://www.topografix.com/GPX/1/1" xmlns:xsi="http://www.w3.org/2001/XMLSchema-instance" xsi:schemaLocation="http://www.topografix.com/GPX/1/1 http://www.topografix.com/GPX/1/1/gpx.xsd" version="1.1" creator="VisuGPX - https://www.visugpx.com">
  <metadata>
    <name>Pic de Néouvielle</name>
    <desc><![CDATA[Sortie CAF du 05/05/2019 : Pic de Néouvielle depuis le parking de la cabane d'Artigusse]]></desc>
  </metadata>
  <trk>
    <name><![CDATA[20190506214708-chkVa]]></name>
    <trkseg>
      <trkpt lat="42.81935" lon="0.18811">
        <ele>1656</ele>
        <time>2019-05-05T07:21:01.000Z</time>
      </trkpt>
      <trkpt lat="42.81935" lon="0.18811">
        <ele>1656</ele>
        <time>2019-05-05T07:21:01.000Z</time>
      </trkpt>
      <trkpt lat="42.81937" lon="0.18809">
        <ele>1655.8000488281</ele>
        <time>2019-05-05T07:21:02.000Z</time>
      </trkpt>
      <trkpt lat="42.81942" lon="0.188">
        <ele>1654.8000488281</ele>
        <time>2019-05-05T07:21:12.000Z</time>
      </trkpt>
      <trkpt lat="42.81955" lon="0.18794">
        <ele>1651.1999511719</ele>
        <time>2019-05-05T07:21:25.000Z</time>
      </trkpt>
      <trkpt lat="42.81959" lon="0.18793">
        <ele>1650.1999511719</ele>
        <time>2019-05-05T07:21:30.000Z</time>
      </trkpt>
      <trkpt lat="42.8196" lon="0.18793">
        <ele>1650</ele>
        <time>2019-05-05T07:21:31.000Z</time>
      </trkpt>
      <trkpt lat="42.8196" lon="0.18793">
        <ele>1649.8000488281</ele>
        <time>2019-05-05T07:21:32.000Z</time>
      </trkpt>
      <trkpt lat="42.81961" lon="0.18793">
        <ele>1649.5999755859</ele>
        <time>2019-05-05T07:21:33.000Z</time>
      </trkpt>
      <trkpt lat="42.81961" lon="0.18793">
        <ele>1649.4000244141</ele>
        <time>2019-05-05T07:21:34.000Z</time>
      </trkpt>
      <trkpt lat="42.81961" lon="0.18793">
        <ele>1649.5999755859</ele>
        <time>2019-05-05T07:21:35.000Z</time>
      </trkpt>
      <trkpt lat="42.81959" lon="0.18792">
        <ele>1650.4000244141</ele>
        <time>2019-05-05T07:21:36.000Z</time>
      </trkpt>
      <trkpt lat="42.81958" lon="0.18791">
        <ele>1650.8000488281</ele>
        <time>2019-05-05T07:21:38.000Z</time>
      </trkpt>
      <trkpt lat="42.81957" lon="0.1879">
        <ele>1651.1999511719</ele>
        <time>2019-05-05T07:21:39.000Z</time>
      </trkpt>
      <trkpt lat="42.81955" lon="0.18787">
        <ele>1652.1999511719</ele>
        <time>2019-05-05T07:21:41.000Z</time>
      </trkpt>
      <trkpt lat="42.81954" lon="0.18785">
        <ele>1652.8000488281</ele>
        <time>2019-05-05T07:21:43.000Z</time>
      </trkpt>
      <trkpt lat="42.81954" lon="0.18784">
        <ele>1653</ele>
        <time>2019-05-05T07:21:44.000Z</time>
      </trkpt>
      <trkpt lat="42.81951" lon="0.1878">
        <ele>1654.5999755859</ele>
        <time>2019-05-05T07:21:48.000Z</time>
      </trkpt>
      <trkpt lat="42.81941" lon="0.18766">
        <ele>1659.8000488281</ele>
        <time>2019-05-05T07:21:58.000Z</time>
      </trkpt>
      <trkpt lat="42.81932" lon="0.18749">
        <ele>1665</ele>
        <time>2019-05-05T07:22:14.000Z</time>
      </trkpt>
      <trkpt lat="42.81933" lon="0.18742">
        <ele>1666</ele>
        <time>2019-05-05T07:22:22.000Z</time>
      </trkpt>
      <trkpt lat="42.81941" lon="0.18717">
        <ele>1666.5999755859</ele>
        <time>2019-05-05T07:22:40.000Z</time>
      </trkpt>
      <trkpt lat="42.81945" lon="0.18694">
        <ele>1671.1999511719</ele>
        <time>2019-05-05T07:22:55.000Z</time>
      </trkpt>
      <trkpt lat="42.81947" lon="0.18681">
        <ele>1674.5999755859</ele>
        <time>2019-05-05T07:23:08.000Z</time>
      </trkpt>
      <trkpt lat="42.81962" lon="0.18625">
        <ele>1680.1999511719</ele>
        <time>2019-05-05T07:23:47.000Z</time>
      </trkpt>
      <trkpt lat="42.81971" lon="0.18613">
        <ele>1678.8000488281</ele>
        <time>2019-05-05T07:23:58.000Z</time>
      </trkpt>
      <trkpt lat="42.81978" lon="0.18603">
        <ele>1677.1999511719</ele>
        <time>2019-05-05T07:24:08.000Z</time>
      </trkpt>
      <trkpt lat="42.82003" lon="0.18558">
        <ele>1667.4000244141</ele>
        <time>2019-05-05T07:24:45.000Z</time>
      </trkpt>
      <trkpt lat="42.82004" lon="0.18557">
        <ele>1666.4000244141</ele>
        <time>2019-05-05T07:24:46.000Z</time>
      </trkpt>
      <trkpt lat="42.8202" lon="0.18537">
        <ele>1671</ele>
        <time>2019-05-05T07:25:07.000Z</time>
      </trkpt>
      <trkpt lat="42.82026" lon="0.18531">
        <ele>1673.5999755859</ele>
        <time>2019-05-05T07:25:13.000Z</time>
      </trkpt>
      <trkpt lat="42.82026" lon="0.18526">
        <ele>1674.8000488281</ele>
        <time>2019-05-05T07:25:20.000Z</time>
      </trkpt>
      <trkpt lat="42.82022" lon="0.1853">
        <ele>1673.4000244141</ele>
        <time>2019-05-05T07:25:29.000Z</time>
      </trkpt>
      <trkpt lat="42.82024" lon="0.18527">
        <ele>1674.4000244141</ele>
        <time>2019-05-05T07:25:32.000Z</time>
      </trkpt>
      <trkpt lat="42.82026" lon="0.18524">
        <ele>1675.4000244141</ele>
        <time>2019-05-05T07:25:35.000Z</time>
      </trkpt>
      <trkpt lat="42.82029" lon="0.18516">
        <ele>1678.1999511719</ele>
        <time>2019-05-05T07:25:43.000Z</time>
      </trkpt>
      <trkpt lat="42.82035" lon="0.18501">
        <ele>1683</ele>
        <time>2019-05-05T07:25:54.000Z</time>
      </trkpt>
      <trkpt lat="42.82036" lon="0.18483">
        <ele>1685.5999755859</ele>
        <time>2019-05-05T07:26:07.000Z</time>
      </trkpt>
      <trkpt lat="42.82036" lon="0.18479">
        <ele>1685.5999755859</ele>
        <time>2019-05-05T07:26:10.000Z</time>
      </trkpt>
      <trkpt lat="42.82038" lon="0.18474">
        <ele>1685</ele>
        <time>2019-05-05T07:26:14.000Z</time>
      </trkpt>
      <trkpt lat="42.82044" lon="0.18464">
        <ele>1683.5999755859</ele>
        <time>2019-05-05T07:26:26.000Z</time>
      </trkpt>
      <trkpt lat="42.82048" lon="0.18456">
        <ele>1684.8000488281</ele>
        <time>2019-05-05T07:26:46.000Z</time>
      </trkpt>
      <trkpt lat="42.82074" lon="0.18433">
        <ele>1687.1999511719</ele>
        <time>2019-05-05T07:27:26.000Z</time>
      </trkpt>
      <trkpt lat="42.82076" lon="0.18432">
        <ele>1687</ele>
        <time>2019-05-05T07:27:28.000Z</time>
      </trkpt>
      <trkpt lat="42.82085" lon="0.18421">
        <ele>1688</ele>
        <time>2019-05-05T07:27:45.000Z</time>
      </trkpt>
      <trkpt lat="42.82094" lon="0.18418">
        <ele>1690.8000488281</ele>
        <time>2019-05-05T07:27:58.000Z</time>
      </trkpt>
      <trkpt lat="42.82115" lon="0.18398">
        <ele>1704.4000244141</ele>
        <time>2019-05-05T07:28:29.000Z</time>
      </trkpt>
      <trkpt lat="42.82136" lon="0.18398">
        <ele>1706</ele>
        <time>2019-05-05T07:28:48.000Z</time>
      </trkpt>
      <trkpt lat="42.82144" lon="0.18393">
        <ele>1706.1999511719</ele>
        <time>2019-05-05T07:28:56.000Z</time>
      </trkpt>
      <trkpt lat="42.82142" lon="0.18389">
        <ele>1705.5999755859</ele>
        <time>2019-05-05T07:28:58.000Z</time>
      </trkpt>
      <trkpt lat="42.82137" lon="0.1837">
        <ele>1706.8000488281</ele>
        <time>2019-05-05T07:29:14.000Z</time>
      </trkpt>
      <trkpt lat="42.8214" lon="0.18367">
        <ele>1708.1999511719</ele>
        <time>2019-05-05T07:29:24.000Z</time>
      </trkpt>
      <trkpt lat="42.82139" lon="0.18358">
        <ele>1711.1999511719</ele>
        <time>2019-05-05T07:29:32.000Z</time>
      </trkpt>
      <trkpt lat="42.82128" lon="0.1834">
        <ele>1716.5999755859</ele>
        <time>2019-05-05T07:29:47.000Z</time>
      </trkpt>
      <trkpt lat="42.82124" lon="0.18322">
        <ele>1720.5999755859</ele>
        <time>2019-05-05T07:30:03.000Z</time>
      </trkpt>
      <trkpt lat="42.82121" lon="0.18313">
        <ele>1722</ele>
        <time>2019-05-05T07:30:13.000Z</time>
      </trkpt>
      <trkpt lat="42.82117" lon="0.18273">
        <ele>1730</ele>
        <time>2019-05-05T07:30:54.000Z</time>
      </trkpt>
      <trkpt lat="42.82118" lon="0.1824">
        <ele>1738.1999511719</ele>
        <time>2019-05-05T07:31:19.000Z</time>
      </trkpt>
      <trkpt lat="42.8212" lon="0.18232">
        <ele>1738.4000244141</ele>
        <time>2019-05-05T07:31:27.000Z</time>
      </trkpt>
      <trkpt lat="42.82122" lon="0.18229">
        <ele>1738.4000244141</ele>
        <time>2019-05-05T07:31:32.000Z</time>
      </trkpt>
      <trkpt lat="42.82125" lon="0.18225">
        <ele>1737.8000488281</ele>
        <time>2019-05-05T07:31:37.000Z</time>
      </trkpt>
      <trkpt lat="42.82128" lon="0.18199">
        <ele>1741.4000244141</ele>
        <time>2019-05-05T07:32:09.000Z</time>
      </trkpt>
      <trkpt lat="42.82126" lon="0.18192">
        <ele>1743.4000244141</ele>
        <time>2019-05-05T07:32:14.000Z</time>
      </trkpt>
      <trkpt lat="42.82114" lon="0.18182">
        <ele>1749.1999511719</ele>
        <time>2019-05-05T07:33:31.000Z</time>
      </trkpt>
      <trkpt lat="42.82104" lon="0.18123">
        <ele>1762.5999755859</ele>
        <time>2019-05-05T07:34:06.000Z</time>
      </trkpt>
      <trkpt lat="42.8211" lon="0.18098">
        <ele>1762.8000488281</ele>
        <time>2019-05-05T07:34:22.000Z</time>
      </trkpt>
      <trkpt lat="42.82117" lon="0.18059">
        <ele>1764.1999511719</ele>
        <time>2019-05-05T07:34:48.000Z</time>
      </trkpt>
      <trkpt lat="42.8212" lon="0.18046">
        <ele>1764.4000244141</ele>
        <time>2019-05-05T07:34:57.000Z</time>
      </trkpt>
      <trkpt lat="42.82123" lon="0.18037">
        <ele>1764</ele>
        <time>2019-05-05T07:35:04.000Z</time>
      </trkpt>
      <trkpt lat="42.8212" lon="0.18004">
        <ele>1766.1999511719</ele>
        <time>2019-05-05T07:35:23.000Z</time>
      </trkpt>
      <trkpt lat="42.8212" lon="0.18002">
        <ele>1766.4000244141</ele>
        <time>2019-05-05T07:35:24.000Z</time>
      </trkpt>
      <trkpt lat="42.8212" lon="0.18">
        <ele>1766.4000244141</ele>
        <time>2019-05-05T07:35:25.000Z</time>
      </trkpt>
      <trkpt lat="42.82121" lon="0.1799">
        <ele>1766.4000244141</ele>
        <time>2019-05-05T07:35:31.000Z</time>
      </trkpt>
      <trkpt lat="42.82122" lon="0.17988">
        <ele>1766.4000244141</ele>
        <time>2019-05-05T07:35:32.000Z</time>
      </trkpt>
      <trkpt lat="42.82121" lon="0.17987">
        <ele>1766.5999755859</ele>
        <time>2019-05-05T07:35:33.000Z</time>
      </trkpt>
      <trkpt lat="42.82122" lon="0.17986">
        <ele>1766.4000244141</ele>
        <time>2019-05-05T07:35:34.000Z</time>
      </trkpt>
      <trkpt lat="42.82124" lon="0.1798">
        <ele>1766</ele>
        <time>2019-05-05T07:35:38.000Z</time>
      </trkpt>
      <trkpt lat="42.82125" lon="0.17976">
        <ele>1766.1999511719</ele>
        <time>2019-05-05T07:35:41.000Z</time>
      </trkpt>
      <trkpt lat="42.82126" lon="0.17973">
        <ele>1766.1999511719</ele>
        <time>2019-05-05T07:35:43.000Z</time>
      </trkpt>
      <trkpt lat="42.82123" lon="0.17961">
        <ele>1768</ele>
        <time>2019-05-05T07:35:49.000Z</time>
      </trkpt>
      <trkpt lat="42.82115" lon="0.17943">
        <ele>1771</ele>
        <time>2019-05-05T07:35:58.000Z</time>
      </trkpt>
      <trkpt lat="42.82103" lon="0.17914">
        <ele>1776</ele>
        <time>2019-05-05T07:36:16.000Z</time>
      </trkpt>
      <trkpt lat="42.8211" lon="0.17906">
        <ele>1774.1999511719</ele>
        <time>2019-05-05T07:36:23.000Z</time>
      </trkpt>
      <trkpt lat="42.82106" lon="0.17894">
        <ele>1775.8000488281</ele>
        <time>2019-05-05T07:36:30.000Z</time>
      </trkpt>
      <trkpt lat="42.82108" lon="0.17888">
        <ele>1775.1999511719</ele>
        <time>2019-05-05T07:36:35.000Z</time>
      </trkpt>
      <trkpt lat="42.82111" lon="0.17872">
        <ele>1773.5999755859</ele>
        <time>2019-05-05T07:36:45.000Z</time>
      </trkpt>
      <trkpt lat="42.8212" lon="0.17856">
        <ele>1769.1999511719</ele>
        <time>2019-05-05T07:36:55.000Z</time>
      </trkpt>
      <trkpt lat="42.82126" lon="0.1784">
        <ele>1766</ele>
        <time>2019-05-05T07:37:05.000Z</time>
      </trkpt>
      <trkpt lat="42.8213" lon="0.17824">
        <ele>1763</ele>
        <time>2019-05-05T07:37:16.000Z</time>
      </trkpt>
      <trkpt lat="42.82126" lon="0.17776">
        <ele>1760.5999755859</ele>
        <time>2019-05-05T07:37:45.000Z</time>
      </trkpt>
      <trkpt lat="42.82127" lon="0.17775">
        <ele>1760.4000244141</ele>
        <time>2019-05-05T07:37:46.000Z</time>
      </trkpt>
      <trkpt lat="42.82126" lon="0.17773">
        <ele>1760.4000244141</ele>
        <time>2019-05-05T07:37:47.000Z</time>
      </trkpt>
      <trkpt lat="42.82125" lon="0.17768">
        <ele>1760.4000244141</ele>
        <time>2019-05-05T07:37:51.000Z</time>
      </trkpt>
      <trkpt lat="42.82124" lon="0.17762">
        <ele>1760.5999755859</ele>
        <time>2019-05-05T07:37:56.000Z</time>
      </trkpt>
      <trkpt lat="42.82125" lon="0.17754">
        <ele>1759.5999755859</ele>
        <time>2019-05-05T07:38:04.000Z</time>
      </trkpt>
      <trkpt lat="42.82121" lon="0.17744">
        <ele>1760.8000488281</ele>
        <time>2019-05-05T07:38:13.000Z</time>
      </trkpt>
      <trkpt lat="42.82118" lon="0.17746">
        <ele>1762.4000244141</ele>
        <time>2019-05-05T07:38:20.000Z</time>
      </trkpt>
      <trkpt lat="42.82108" lon="0.17752">
        <ele>1766.4000244141</ele>
        <time>2019-05-05T07:38:33.000Z</time>
      </trkpt>
      <trkpt lat="42.821" lon="0.1776">
        <ele>1770.1999511719</ele>
        <time>2019-05-05T07:38:56.000Z</time>
      </trkpt>
      <trkpt lat="42.82104" lon="0.17748">
        <ele>1768.1999511719</ele>
        <time>2019-05-05T07:39:18.000Z</time>
      </trkpt>
      <trkpt lat="42.82106" lon="0.17746">
        <ele>1767.1999511719</ele>
        <time>2019-05-05T07:39:22.000Z</time>
      </trkpt>
      <trkpt lat="42.82108" lon="0.17741">
        <ele>1765.8000488281</ele>
        <time>2019-05-05T07:39:32.000Z</time>
      </trkpt>
      <trkpt lat="42.82112" lon="0.17735">
        <ele>1763.8000488281</ele>
        <time>2019-05-05T07:39:40.000Z</time>
      </trkpt>
      <trkpt lat="42.82113" lon="0.17732">
        <ele>1763.5999755859</ele>
        <time>2019-05-05T07:39:44.000Z</time>
      </trkpt>
      <trkpt lat="42.82126" lon="0.17723">
        <ele>1760.1999511719</ele>
        <time>2019-05-05T07:39:59.000Z</time>
      </trkpt>
      <trkpt lat="42.82131" lon="0.17716">
        <ele>1759</ele>
        <time>2019-05-05T07:40:15.000Z</time>
      </trkpt>
      <trkpt lat="42.82135" lon="0.17714">
        <ele>1758.1999511719</ele>
        <time>2019-05-05T07:40:18.000Z</time>
      </trkpt>
      <trkpt lat="42.8214" lon="0.1771">
        <ele>1757.1999511719</ele>
        <time>2019-05-05T07:40:23.000Z</time>
      </trkpt>
      <trkpt lat="42.82146" lon="0.17699">
        <ele>1759.5999755859</ele>
        <time>2019-05-05T07:40:34.000Z</time>
      </trkpt>
      <trkpt lat="42.8215" lon="0.17691">
        <ele>1761.4000244141</ele>
        <time>2019-05-05T07:40:43.000Z</time>
      </trkpt>
      <trkpt lat="42.82156" lon="0.17684">
        <ele>1760.8000488281</ele>
        <time>2019-05-05T07:40:51.000Z</time>
      </trkpt>
      <trkpt lat="42.82141" lon="0.17684">
        <ele>1766.8000488281</ele>
        <time>2019-05-05T07:41:13.000Z</time>
      </trkpt>
      <trkpt lat="42.82139" lon="0.17685">
        <ele>1767</ele>
        <time>2019-05-05T07:41:14.000Z</time>
      </trkpt>
      <trkpt lat="42.82127" lon="0.17697">
        <ele>1766.1999511719</ele>
        <time>2019-05-05T07:41:29.000Z</time>
      </trkpt>
      <trkpt lat="42.8212" lon="0.17704">
        <ele>1765.5999755859</ele>
        <time>2019-05-05T07:41:41.000Z</time>
      </trkpt>
      <trkpt lat="42.82085" lon="0.17721">
        <ele>1774.4000244141</ele>
        <time>2019-05-05T07:42:43.000Z</time>
      </trkpt>
      <trkpt lat="42.82084" lon="0.1772">
        <ele>1774.8000488281</ele>
        <time>2019-05-05T07:42:45.000Z</time>
      </trkpt>
      <trkpt lat="42.82084" lon="0.1772">
        <ele>1775</ele>
        <time>2019-05-05T07:42:46.000Z</time>
      </trkpt>
      <trkpt lat="42.82084" lon="0.17718">
        <ele>1774.8000488281</ele>
        <time>2019-05-05T07:42:49.000Z</time>
      </trkpt>
      <trkpt lat="42.82084" lon="0.17717">
        <ele>1774.8000488281</ele>
        <time>2019-05-05T07:42:50.000Z</time>
      </trkpt>
      <trkpt lat="42.82084" lon="0.17717">
        <ele>1774.5999755859</ele>
        <time>2019-05-05T07:42:51.000Z</time>
      </trkpt>
      <trkpt lat="42.82084" lon="0.17716">
        <ele>1774.4000244141</ele>
        <time>2019-05-05T07:42:53.000Z</time>
      </trkpt>
      <trkpt lat="42.82084" lon="0.17715">
        <ele>1774.4000244141</ele>
        <time>2019-05-05T07:42:54.000Z</time>
      </trkpt>
      <trkpt lat="42.82084" lon="0.17713">
        <ele>1774.1999511719</ele>
        <time>2019-05-05T07:42:56.000Z</time>
      </trkpt>
      <trkpt lat="42.82084" lon="0.17712">
        <ele>1774.1999511719</ele>
        <time>2019-05-05T07:42:57.000Z</time>
      </trkpt>
      <trkpt lat="42.82085" lon="0.17711">
        <ele>1774</ele>
        <time>2019-05-05T07:42:58.000Z</time>
      </trkpt>
      <trkpt lat="42.82085" lon="0.17711">
        <ele>1774.1999511719</ele>
        <time>2019-05-05T07:42:59.000Z</time>
      </trkpt>
      <trkpt lat="42.82086" lon="0.1771">
        <ele>1774.4000244141</ele>
        <time>2019-05-05T07:43:00.000Z</time>
      </trkpt>
      <trkpt lat="42.8209" lon="0.17706">
        <ele>1773.4000244141</ele>
        <time>2019-05-05T07:43:06.000Z</time>
      </trkpt>
      <trkpt lat="42.82091" lon="0.17706">
        <ele>1773.1999511719</ele>
        <time>2019-05-05T07:43:08.000Z</time>
      </trkpt>
      <trkpt lat="42.82092" lon="0.17703">
        <ele>1774.1999511719</ele>
        <time>2019-05-05T07:43:11.000Z</time>
      </trkpt>
      <trkpt lat="42.82094" lon="0.17696">
        <ele>1776.1999511719</ele>
        <time>2019-05-05T07:43:18.000Z</time>
      </trkpt>
      <trkpt lat="42.82095" lon="0.17695">
        <ele>1776.5999755859</ele>
        <time>2019-05-05T07:43:19.000Z</time>
      </trkpt>
      <trkpt lat="42.82095" lon="0.17694">
        <ele>1776.4000244141</ele>
        <time>2019-05-05T07:43:20.000Z</time>
      </trkpt>
      <trkpt lat="42.82097" lon="0.17693">
        <ele>1776.5999755859</ele>
        <time>2019-05-05T07:43:22.000Z</time>
      </trkpt>
      <trkpt lat="42.82099" lon="0.17691">
        <ele>1776.5999755859</ele>
        <time>2019-05-05T07:43:24.000Z</time>
      </trkpt>
      <trkpt lat="42.82106" lon="0.17688">
        <ele>1776</ele>
        <time>2019-05-05T07:43:32.000Z</time>
      </trkpt>
      <trkpt lat="42.82109" lon="0.17685">
        <ele>1775.8000488281</ele>
        <time>2019-05-05T07:43:36.000Z</time>
      </trkpt>
      <trkpt lat="42.82113" lon="0.17681">
        <ele>1776.5999755859</ele>
        <time>2019-05-05T07:43:41.000Z</time>
      </trkpt>
      <trkpt lat="42.82114" lon="0.1768">
        <ele>1776.5999755859</ele>
        <time>2019-05-05T07:43:42.000Z</time>
      </trkpt>
      <trkpt lat="42.82115" lon="0.17677">
        <ele>1777.1999511719</ele>
        <time>2019-05-05T07:43:46.000Z</time>
      </trkpt>
      <trkpt lat="42.82119" lon="0.17672">
        <ele>1777.8000488281</ele>
        <time>2019-05-05T07:43:52.000Z</time>
      </trkpt>
      <trkpt lat="42.82119" lon="0.17672">
        <ele>1778</ele>
        <time>2019-05-05T07:44:05.000Z</time>
      </trkpt>
      <trkpt lat="42.8212" lon="0.17671">
        <ele>1778</ele>
        <time>2019-05-05T07:44:07.000Z</time>
      </trkpt>
      <trkpt lat="42.8212" lon="0.17667">
        <ele>1779.5999755859</ele>
        <time>2019-05-05T07:44:11.000Z</time>
      </trkpt>
      <trkpt lat="42.82122" lon="0.17665">
        <ele>1779.8000488281</ele>
        <time>2019-05-05T07:44:14.000Z</time>
      </trkpt>
      <trkpt lat="42.82121" lon="0.17659">
        <ele>1782.1999511719</ele>
        <time>2019-05-05T07:44:20.000Z</time>
      </trkpt>
      <trkpt lat="42.82122" lon="0.17657">
        <ele>1782</ele>
        <time>2019-05-05T07:44:23.000Z</time>
      </trkpt>
      <trkpt lat="42.82124" lon="0.17651">
        <ele>1782.4000244141</ele>
        <time>2019-05-05T07:44:32.000Z</time>
      </trkpt>
      <trkpt lat="42.82126" lon="0.17647">
        <ele>1782.8000488281</ele>
        <time>2019-05-05T07:44:37.000Z</time>
      </trkpt>
      <trkpt lat="42.82125" lon="0.17643">
        <ele>1784</ele>
        <time>2019-05-05T07:44:41.000Z</time>
      </trkpt>
      <trkpt lat="42.82121" lon="0.17648">
        <ele>1784.5999755859</ele>
        <time>2019-05-05T07:44:52.000Z</time>
      </trkpt>
      <trkpt lat="42.82118" lon="0.17652">
        <ele>1785.4000244141</ele>
        <time>2019-05-05T07:45:00.000Z</time>
      </trkpt>
      <trkpt lat="42.82117" lon="0.17654">
        <ele>1785.4000244141</ele>
        <time>2019-05-05T07:45:02.000Z</time>
      </trkpt>
      <trkpt lat="42.82115" lon="0.17656">
        <ele>1785.5999755859</ele>
        <time>2019-05-05T07:45:05.000Z</time>
      </trkpt>
      <trkpt lat="42.82114" lon="0.17658">
        <ele>1785</ele>
        <time>2019-05-05T07:45:08.000Z</time>
      </trkpt>
      <trkpt lat="42.82112" lon="0.17659">
        <ele>1785</ele>
        <time>2019-05-05T07:45:11.000Z</time>
      </trkpt>
      <trkpt lat="42.82111" lon="0.17659">
        <ele>1785.4000244141</ele>
        <time>2019-05-05T07:45:12.000Z</time>
      </trkpt>
      <trkpt lat="42.8211" lon="0.1766">
        <ele>1785.4000244141</ele>
        <time>2019-05-05T07:45:14.000Z</time>
      </trkpt>
      <trkpt lat="42.8211" lon="0.17661">
        <ele>1785</ele>
        <time>2019-05-05T07:45:16.000Z</time>
      </trkpt>
      <trkpt lat="42.8211" lon="0.17662">
        <ele>1784.5999755859</ele>
        <time>2019-05-05T07:45:17.000Z</time>
      </trkpt>
      <trkpt lat="42.82107" lon="0.17663">
        <ele>1785.1999511719</ele>
        <time>2019-05-05T07:45:22.000Z</time>
      </trkpt>
      <trkpt lat="42.82107" lon="0.17663">
        <ele>1785.4000244141</ele>
        <time>2019-05-05T07:45:24.000Z</time>
      </trkpt>
      <trkpt lat="42.82107" lon="0.17662">
        <ele>1785.5999755859</ele>
        <time>2019-05-05T07:45:27.000Z</time>
      </trkpt>
      <trkpt lat="42.82108" lon="0.17662">
        <ele>1785.1999511719</ele>
        <time>2019-05-05T07:45:28.000Z</time>
      </trkpt>
      <trkpt lat="42.82108" lon="0.17656">
        <ele>1787.8000488281</ele>
        <time>2019-05-05T07:45:37.000Z</time>
      </trkpt>
      <trkpt lat="42.82108" lon="0.17654">
        <ele>1788.4000244141</ele>
        <time>2019-05-05T07:45:39.000Z</time>
      </trkpt>
      <trkpt lat="42.82108" lon="0.17651">
        <ele>1789.5999755859</ele>
        <time>2019-05-05T07:45:44.000Z</time>
      </trkpt>
      <trkpt lat="42.82107" lon="0.17648">
        <ele>1790.8000488281</ele>
        <time>2019-05-05T07:45:49.000Z</time>
      </trkpt>
      <trkpt lat="42.82106" lon="0.17646">
        <ele>1791.5999755859</ele>
        <time>2019-05-05T07:45:54.000Z</time>
      </trkpt>
      <trkpt lat="42.82103" lon="0.17644">
        <ele>1793.4000244141</ele>
        <time>2019-05-05T07:46:01.000Z</time>
      </trkpt>
      <trkpt lat="42.82102" lon="0.17643">
        <ele>1794.1999511719</ele>
        <time>2019-05-05T07:46:07.000Z</time>
      </trkpt>
      <trkpt lat="42.821" lon="0.17641">
        <ele>1795.5999755859</ele>
        <time>2019-05-05T07:46:13.000Z</time>
      </trkpt>
      <trkpt lat="42.821" lon="0.17641">
        <ele>1795.8000488281</ele>
        <time>2019-05-05T07:46:17.000Z</time>
      </trkpt>
      <trkpt lat="42.82102" lon="0.17639">
        <ele>1795.1999511719</ele>
        <time>2019-05-05T07:46:23.000Z</time>
      </trkpt>
      <trkpt lat="42.82105" lon="0.17636">
        <ele>1795</ele>
        <time>2019-05-05T07:46:27.000Z</time>
      </trkpt>
      <trkpt lat="42.82108" lon="0.17634">
        <ele>1794.1999511719</ele>
        <time>2019-05-05T07:46:31.000Z</time>
      </trkpt>
      <trkpt lat="42.82109" lon="0.17631">
        <ele>1793.8000488281</ele>
        <time>2019-05-05T07:46:35.000Z</time>
      </trkpt>
      <trkpt lat="42.8211" lon="0.17631">
        <ele>1793.5999755859</ele>
        <time>2019-05-05T07:46:36.000Z</time>
      </trkpt>
      <trkpt lat="42.82116" lon="0.17626">
        <ele>1792.4000244141</ele>
        <time>2019-05-05T07:46:44.000Z</time>
      </trkpt>
      <trkpt lat="42.82121" lon="0.17625">
        <ele>1790.1999511719</ele>
        <time>2019-05-05T07:46:53.000Z</time>
      </trkpt>
      <trkpt lat="42.82123" lon="0.17622">
        <ele>1791</ele>
        <time>2019-05-05T07:46:56.000Z</time>
      </trkpt>
      <trkpt lat="42.82126" lon="0.17609">
        <ele>1795.8000488281</ele>
        <time>2019-05-05T07:47:05.000Z</time>
      </trkpt>
      <trkpt lat="42.8213" lon="0.17594">
        <ele>1800.4000244141</ele>
        <time>2019-05-05T07:47:15.000Z</time>
      </trkpt>
      <trkpt lat="42.82132" lon="0.1759">
        <ele>1801.1999511719</ele>
        <time>2019-05-05T07:47:18.000Z</time>
      </trkpt>
      <trkpt lat="42.82168" lon="0.17557">
        <ele>1791.1999511719</ele>
        <time>2019-05-05T07:48:01.000Z</time>
      </trkpt>
      <trkpt lat="42.82172" lon="0.17556">
        <ele>1789.4000244141</ele>
        <time>2019-05-05T07:48:04.000Z</time>
      </trkpt>
      <trkpt lat="42.82175" lon="0.17555">
        <ele>1789.5999755859</ele>
        <time>2019-05-05T07:48:06.000Z</time>
      </trkpt>
      <trkpt lat="42.82178" lon="0.17553">
        <ele>1790.1999511719</ele>
        <time>2019-05-05T07:48:09.000Z</time>
      </trkpt>
      <trkpt lat="42.82179" lon="0.1755">
        <ele>1790.8000488281</ele>
        <time>2019-05-05T07:48:11.000Z</time>
      </trkpt>
      <trkpt lat="42.8219" lon="0.17537">
        <ele>1792.8000488281</ele>
        <time>2019-05-05T07:48:23.000Z</time>
      </trkpt>
      <trkpt lat="42.82194" lon="0.1753">
        <ele>1794.8000488281</ele>
        <time>2019-05-05T07:48:29.000Z</time>
      </trkpt>
      <trkpt lat="42.82215" lon="0.17522">
        <ele>1794.4000244141</ele>
        <time>2019-05-05T07:48:51.000Z</time>
      </trkpt>
      <trkpt lat="42.82229" lon="0.17515">
        <ele>1794.4000244141</ele>
        <time>2019-05-05T07:49:07.000Z</time>
      </trkpt>
      <trkpt lat="42.82221" lon="0.17496">
        <ele>1801.4000244141</ele>
        <time>2019-05-05T07:49:24.000Z</time>
      </trkpt>
      <trkpt lat="42.82208" lon="0.17504">
        <ele>1802.5999755859</ele>
        <time>2019-05-05T07:49:38.000Z</time>
      </trkpt>
      <trkpt lat="42.82191" lon="0.17511">
        <ele>1802.8000488281</ele>
        <time>2019-05-05T07:49:53.000Z</time>
      </trkpt>
      <trkpt lat="42.8219" lon="0.17505">
        <ele>1805</ele>
        <time>2019-05-05T07:50:11.000Z</time>
      </trkpt>
      <trkpt lat="42.82187" lon="0.175">
        <ele>1807.5999755859</ele>
        <time>2019-05-05T07:50:21.000Z</time>
      </trkpt>
      <trkpt lat="42.82193" lon="0.17497">
        <ele>1808</ele>
        <time>2019-05-05T07:50:28.000Z</time>
      </trkpt>
      <trkpt lat="42.82204" lon="0.17484">
        <ele>1809.5999755859</ele>
        <time>2019-05-05T07:50:46.000Z</time>
      </trkpt>
      <trkpt lat="42.82224" lon="0.17475">
        <ele>1806</ele>
        <time>2019-05-05T07:51:07.000Z</time>
      </trkpt>
      <trkpt lat="42.8223" lon="0.17471">
        <ele>1805</ele>
        <time>2019-05-05T07:51:12.000Z</time>
      </trkpt>
      <trkpt lat="42.82238" lon="0.1745">
        <ele>1810</ele>
        <time>2019-05-05T07:51:32.000Z</time>
      </trkpt>
      <trkpt lat="42.82238" lon="0.17443">
        <ele>1812.8000488281</ele>
        <time>2019-05-05T07:51:43.000Z</time>
      </trkpt>
      <trkpt lat="42.82237" lon="0.17426">
        <ele>1818.1999511719</ele>
        <time>2019-05-05T07:51:58.000Z</time>
      </trkpt>
      <trkpt lat="42.82239" lon="0.17422">
        <ele>1818.4000244141</ele>
        <time>2019-05-05T07:52:02.000Z</time>
      </trkpt>
      <trkpt lat="42.8224" lon="0.17421">
        <ele>1818.5999755859</ele>
        <time>2019-05-05T07:52:04.000Z</time>
      </trkpt>
      <trkpt lat="42.82241" lon="0.17418">
        <ele>1819</ele>
        <time>2019-05-05T07:52:06.000Z</time>
      </trkpt>
      <trkpt lat="42.82241" lon="0.17416">
        <ele>1819.4000244141</ele>
        <time>2019-05-05T07:52:07.000Z</time>
      </trkpt>
      <trkpt lat="42.82245" lon="0.17411">
        <ele>1819.1999511719</ele>
        <time>2019-05-05T07:52:11.000Z</time>
      </trkpt>
      <trkpt lat="42.82247" lon="0.17407">
        <ele>1819.4000244141</ele>
        <time>2019-05-05T07:52:14.000Z</time>
      </trkpt>
      <trkpt lat="42.82247" lon="0.17406">
        <ele>1819.8000488281</ele>
        <time>2019-05-05T07:52:15.000Z</time>
      </trkpt>
      <trkpt lat="42.8225" lon="0.17398">
        <ele>1820.8000488281</ele>
        <time>2019-05-05T07:52:21.000Z</time>
      </trkpt>
      <trkpt lat="42.82251" lon="0.17392">
        <ele>1822</ele>
        <time>2019-05-05T07:52:25.000Z</time>
      </trkpt>
      <trkpt lat="42.82251" lon="0.17374">
        <ele>1827.4000244141</ele>
        <time>2019-05-05T07:52:40.000Z</time>
      </trkpt>
      <trkpt lat="42.82254" lon="0.17371">
        <ele>1826.8000488281</ele>
        <time>2019-05-05T07:52:44.000Z</time>
      </trkpt>
      <trkpt lat="42.82263" lon="0.17357">
        <ele>1831.8000488281</ele>
        <time>2019-05-05T07:52:57.000Z</time>
      </trkpt>
      <trkpt lat="42.82262" lon="0.17351">
        <ele>1833.1999511719</ele>
        <time>2019-05-05T07:53:00.000Z</time>
      </trkpt>
      <trkpt lat="42.8226" lon="0.17341">
        <ele>1835.8000488281</ele>
        <time>2019-05-05T07:53:06.000Z</time>
      </trkpt>
      <trkpt lat="42.82261" lon="0.17337">
        <ele>1837.1999511719</ele>
        <time>2019-05-05T07:53:10.000Z</time>
      </trkpt>
      <trkpt lat="42.82263" lon="0.17315">
        <ele>1844.1999511719</ele>
        <time>2019-05-05T07:53:29.000Z</time>
      </trkpt>
      <trkpt lat="42.82273" lon="0.17294">
        <ele>1841.8000488281</ele>
        <time>2019-05-05T07:54:07.000Z</time>
      </trkpt>
      <trkpt lat="42.82275" lon="0.17287">
        <ele>1844.1999511719</ele>
        <time>2019-05-05T07:54:15.000Z</time>
      </trkpt>
      <trkpt lat="42.82283" lon="0.17239">
        <ele>1861</ele>
        <time>2019-05-05T07:54:56.000Z</time>
      </trkpt>
      <trkpt lat="42.82303" lon="0.17189">
        <ele>1854.5999755859</ele>
        <time>2019-05-05T07:56:24.000Z</time>
      </trkpt>
      <trkpt lat="42.82307" lon="0.17178">
        <ele>1855.4000244141</ele>
        <time>2019-05-05T07:56:50.000Z</time>
      </trkpt>
      <trkpt lat="42.82314" lon="0.1717">
        <ele>1849.8000488281</ele>
        <time>2019-05-05T07:57:01.000Z</time>
      </trkpt>
      <trkpt lat="42.82328" lon="0.17136">
        <ele>1844.1999511719</ele>
        <time>2019-05-05T07:57:43.000Z</time>
      </trkpt>
      <trkpt lat="42.82341" lon="0.17101">
        <ele>1844.4000244141</ele>
        <time>2019-05-05T07:58:10.000Z</time>
      </trkpt>
      <trkpt lat="42.82343" lon="0.17099">
        <ele>1844.8000488281</ele>
        <time>2019-05-05T07:58:12.000Z</time>
      </trkpt>
      <trkpt lat="42.82344" lon="0.17097">
        <ele>1845.1999511719</ele>
        <time>2019-05-05T07:58:14.000Z</time>
      </trkpt>
      <trkpt lat="42.82346" lon="0.17091">
        <ele>1847.1999511719</ele>
        <time>2019-05-05T07:58:18.000Z</time>
      </trkpt>
      <trkpt lat="42.82349" lon="0.17085">
        <ele>1848</ele>
        <time>2019-05-05T07:58:22.000Z</time>
      </trkpt>
      <trkpt lat="42.82353" lon="0.17084">
        <ele>1847.5999755859</ele>
        <time>2019-05-05T07:58:25.000Z</time>
      </trkpt>
      <trkpt lat="42.82354" lon="0.17083">
        <ele>1847.5999755859</ele>
        <time>2019-05-05T07:58:28.000Z</time>
      </trkpt>
      <trkpt lat="42.82354" lon="0.17084">
        <ele>1847.1999511719</ele>
        <time>2019-05-05T07:58:31.000Z</time>
      </trkpt>
      <trkpt lat="42.82353" lon="0.17084">
        <ele>1847.4000244141</ele>
        <time>2019-05-05T07:58:33.000Z</time>
      </trkpt>
      <trkpt lat="42.82357" lon="0.17078">
        <ele>1848.5999755859</ele>
        <time>2019-05-05T07:58:53.000Z</time>
      </trkpt>
      <trkpt lat="42.82363" lon="0.17072">
        <ele>1849</ele>
        <time>2019-05-05T07:59:01.000Z</time>
      </trkpt>
      <trkpt lat="42.82375" lon="0.17047">
        <ele>1845.1999511719</ele>
        <time>2019-05-05T07:59:23.000Z</time>
      </trkpt>
      <trkpt lat="42.82382" lon="0.17038">
        <ele>1847.4000244141</ele>
        <time>2019-05-05T07:59:31.000Z</time>
      </trkpt>
      <trkpt lat="42.82383" lon="0.17037">
        <ele>1847.5999755859</ele>
        <time>2019-05-05T07:59:33.000Z</time>
      </trkpt>
      <trkpt lat="42.82383" lon="0.17036">
        <ele>1848.1999511719</ele>
        <time>2019-05-05T07:59:35.000Z</time>
      </trkpt>
      <trkpt lat="42.82383" lon="0.17035">
        <ele>1848.4000244141</ele>
        <time>2019-05-05T07:59:36.000Z</time>
      </trkpt>
      <trkpt lat="42.82384" lon="0.17035">
        <ele>1848.5999755859</ele>
        <time>2019-05-05T07:59:37.000Z</time>
      </trkpt>
      <trkpt lat="42.82385" lon="0.17033">
        <ele>1848.8000488281</ele>
        <time>2019-05-05T07:59:39.000Z</time>
      </trkpt>
      <trkpt lat="42.82388" lon="0.1703">
        <ele>1850</ele>
        <time>2019-05-05T07:59:43.000Z</time>
      </trkpt>
      <trkpt lat="42.82392" lon="0.17022">
        <ele>1854.4000244141</ele>
        <time>2019-05-05T07:59:52.000Z</time>
      </trkpt>
      <trkpt lat="42.82396" lon="0.17013">
        <ele>1856.5999755859</ele>
        <time>2019-05-05T08:00:05.000Z</time>
      </trkpt>
      <trkpt lat="42.82396" lon="0.17013">
        <ele>1856</ele>
        <time>2019-05-05T08:00:09.000Z</time>
      </trkpt>
      <trkpt lat="42.824" lon="0.17009">
        <ele>1853.5999755859</ele>
        <time>2019-05-05T08:00:16.000Z</time>
      </trkpt>
      <trkpt lat="42.82401" lon="0.17009">
        <ele>1853</ele>
        <time>2019-05-05T08:00:17.000Z</time>
      </trkpt>
      <trkpt lat="42.82402" lon="0.17007">
        <ele>1852</ele>
        <time>2019-05-05T08:00:20.000Z</time>
      </trkpt>
      <trkpt lat="42.82403" lon="0.17006">
        <ele>1851.8000488281</ele>
        <time>2019-05-05T08:00:21.000Z</time>
      </trkpt>
      <trkpt lat="42.82404" lon="0.17005">
        <ele>1851</ele>
        <time>2019-05-05T08:00:23.000Z</time>
      </trkpt>
      <trkpt lat="42.82405" lon="0.17004">
        <ele>1850.1999511719</ele>
        <time>2019-05-05T08:00:24.000Z</time>
      </trkpt>
      <trkpt lat="42.82405" lon="0.17002">
        <ele>1850.5999755859</ele>
        <time>2019-05-05T08:00:25.000Z</time>
      </trkpt>
      <trkpt lat="42.8241" lon="0.16996">
        <ele>1848</ele>
        <time>2019-05-05T08:00:32.000Z</time>
      </trkpt>
      <trkpt lat="42.82415" lon="0.1699">
        <ele>1845.1999511719</ele>
        <time>2019-05-05T08:00:39.000Z</time>
      </trkpt>
      <trkpt lat="42.82417" lon="0.16988">
        <ele>1843.1999511719</ele>
        <time>2019-05-05T08:00:42.000Z</time>
      </trkpt>
      <trkpt lat="42.82427" lon="0.16981">
        <ele>1841.5999755859</ele>
        <time>2019-05-05T08:00:56.000Z</time>
      </trkpt>
      <trkpt lat="42.82431" lon="0.16978">
        <ele>1844</ele>
        <time>2019-05-05T08:01:04.000Z</time>
      </trkpt>
      <trkpt lat="42.82432" lon="0.16977">
        <ele>1844.4000244141</ele>
        <time>2019-05-05T08:01:05.000Z</time>
      </trkpt>
      <trkpt lat="42.82435" lon="0.16972">
        <ele>1846</ele>
        <time>2019-05-05T08:01:11.000Z</time>
      </trkpt>
      <trkpt lat="42.82445" lon="0.1696">
        <ele>1845.1999511719</ele>
        <time>2019-05-05T08:01:23.000Z</time>
      </trkpt>
      <trkpt lat="42.82451" lon="0.16959">
        <ele>1844.8000488281</ele>
        <time>2019-05-05T08:01:28.000Z</time>
      </trkpt>
      <trkpt lat="42.82451" lon="0.1696">
        <ele>1844.5999755859</ele>
        <time>2019-05-05T08:01:36.000Z</time>
      </trkpt>
      <trkpt lat="42.82451" lon="0.1696">
        <ele>1844.4000244141</ele>
        <time>2019-05-05T08:01:41.000Z</time>
      </trkpt>
      <trkpt lat="42.82452" lon="0.16961">
        <ele>1843.8000488281</ele>
        <time>2019-05-05T08:01:46.000Z</time>
      </trkpt>
      <trkpt lat="42.82459" lon="0.1696">
        <ele>1843</ele>
        <time>2019-05-05T08:01:53.000Z</time>
      </trkpt>
      <trkpt lat="42.82463" lon="0.16961">
        <ele>1842.4000244141</ele>
        <time>2019-05-05T08:01:56.000Z</time>
      </trkpt>
      <trkpt lat="42.8247" lon="0.1697">
        <ele>1841</ele>
        <time>2019-05-05T08:02:05.000Z</time>
      </trkpt>
      <trkpt lat="42.82486" lon="0.16972">
        <ele>1838.5999755859</ele>
        <time>2019-05-05T08:02:29.000Z</time>
      </trkpt>
      <trkpt lat="42.82488" lon="0.16926">
        <ele>1849.8000488281</ele>
        <time>2019-05-05T08:03:01.000Z</time>
      </trkpt>
      <trkpt lat="42.82499" lon="0.16883">
        <ele>1851.4000244141</ele>
        <time>2019-05-05T08:04:15.000Z</time>
      </trkpt>
      <trkpt lat="42.82507" lon="0.16884">
        <ele>1848.5999755859</ele>
        <time>2019-05-05T08:04:21.000Z</time>
      </trkpt>
      <trkpt lat="42.82516" lon="0.1689">
        <ele>1850.5999755859</ele>
        <time>2019-05-05T08:04:28.000Z</time>
      </trkpt>
      <trkpt lat="42.82522" lon="0.16891">
        <ele>1851.8000488281</ele>
        <time>2019-05-05T08:04:33.000Z</time>
      </trkpt>
      <trkpt lat="42.82529" lon="0.16893">
        <ele>1853</ele>
        <time>2019-05-05T08:04:39.000Z</time>
      </trkpt>
      <trkpt lat="42.82537" lon="0.16895">
        <ele>1854</ele>
        <time>2019-05-05T08:04:45.000Z</time>
      </trkpt>
      <trkpt lat="42.82542" lon="0.16897">
        <ele>1855</ele>
        <time>2019-05-05T08:04:49.000Z</time>
      </trkpt>
      <trkpt lat="42.82545" lon="0.16897">
        <ele>1855.4000244141</ele>
        <time>2019-05-05T08:04:51.000Z</time>
      </trkpt>
      <trkpt lat="42.82548" lon="0.16899">
        <ele>1856</ele>
        <time>2019-05-05T08:04:54.000Z</time>
      </trkpt>
      <trkpt lat="42.82558" lon="0.16902">
        <ele>1857.4000244141</ele>
        <time>2019-05-05T08:05:02.000Z</time>
      </trkpt>
      <trkpt lat="42.82565" lon="0.16904">
        <ele>1858.4000244141</ele>
        <time>2019-05-05T08:05:07.000Z</time>
      </trkpt>
      <trkpt lat="42.82576" lon="0.16906">
        <ele>1860.1999511719</ele>
        <time>2019-05-05T08:05:17.000Z</time>
      </trkpt>
      <trkpt lat="42.82584" lon="0.16899">
        <ele>1861.1999511719</ele>
        <time>2019-05-05T08:05:25.000Z</time>
      </trkpt>
      <trkpt lat="42.82585" lon="0.16898">
        <ele>1861.1999511719</ele>
        <time>2019-05-05T08:05:26.000Z</time>
      </trkpt>
      <trkpt lat="42.82588" lon="0.16894">
        <ele>1861.4000244141</ele>
        <time>2019-05-05T08:05:29.000Z</time>
      </trkpt>
      <trkpt lat="42.82614" lon="0.16845">
        <ele>1860</ele>
        <time>2019-05-05T08:06:02.000Z</time>
      </trkpt>
      <trkpt lat="42.82637" lon="0.16844">
        <ele>1863.8000488281</ele>
        <time>2019-05-05T08:06:21.000Z</time>
      </trkpt>
      <trkpt lat="42.8264" lon="0.16844">
        <ele>1864.4000244141</ele>
        <time>2019-05-05T08:06:24.000Z</time>
      </trkpt>
      <trkpt lat="42.82641" lon="0.16845">
        <ele>1864.4000244141</ele>
        <time>2019-05-05T08:06:25.000Z</time>
      </trkpt>
      <trkpt lat="42.82642" lon="0.16846">
        <ele>1865</ele>
        <time>2019-05-05T08:06:28.000Z</time>
      </trkpt>
      <trkpt lat="42.82644" lon="0.16848">
        <ele>1865.8000488281</ele>
        <time>2019-05-05T08:06:30.000Z</time>
      </trkpt>
      <trkpt lat="42.82645" lon="0.16849">
        <ele>1866</ele>
        <time>2019-05-05T08:06:31.000Z</time>
      </trkpt>
      <trkpt lat="42.82652" lon="0.1686">
        <ele>1869.4000244141</ele>
        <time>2019-05-05T08:06:41.000Z</time>
      </trkpt>
      <trkpt lat="42.82658" lon="0.16865">
        <ele>1871.4000244141</ele>
        <time>2019-05-05T08:06:47.000Z</time>
      </trkpt>
      <trkpt lat="42.82659" lon="0.16866">
        <ele>1871.8000488281</ele>
        <time>2019-05-05T08:06:48.000Z</time>
      </trkpt>
      <trkpt lat="42.82686" lon="0.16904">
        <ele>1879.4000244141</ele>
        <time>2019-05-05T08:07:11.000Z</time>
      </trkpt>
      <trkpt lat="42.82691" lon="0.1691">
        <ele>1879.8000488281</ele>
        <time>2019-05-05T08:07:16.000Z</time>
      </trkpt>
      <trkpt lat="42.82695" lon="0.16916">
        <ele>1880.4000244141</ele>
        <time>2019-05-05T08:07:21.000Z</time>
      </trkpt>
      <trkpt lat="42.82701" lon="0.16923">
        <ele>1880.8000488281</ele>
        <time>2019-05-05T08:07:27.000Z</time>
      </trkpt>
      <trkpt lat="42.82705" lon="0.1693">
        <ele>1881.5999755859</ele>
        <time>2019-05-05T08:07:33.000Z</time>
      </trkpt>
      <trkpt lat="42.82741" lon="0.16951">
        <ele>1878</ele>
        <time>2019-05-05T08:08:17.000Z</time>
      </trkpt>
      <trkpt lat="42.82745" lon="0.16952">
        <ele>1877.1999511719</ele>
        <time>2019-05-05T08:08:32.000Z</time>
      </trkpt>
      <trkpt lat="42.82748" lon="0.16949">
        <ele>1875.4000244141</ele>
        <time>2019-05-05T08:08:35.000Z</time>
      </trkpt>
      <trkpt lat="42.82774" lon="0.16956">
        <ele>1874</ele>
        <time>2019-05-05T08:08:57.000Z</time>
      </trkpt>
      <trkpt lat="42.82775" lon="0.16956">
        <ele>1874</ele>
        <time>2019-05-05T08:08:58.000Z</time>
      </trkpt>
      <trkpt lat="42.82778" lon="0.16956">
        <ele>1873.8000488281</ele>
        <time>2019-05-05T08:09:00.000Z</time>
      </trkpt>
      <trkpt lat="42.82782" lon="0.16955">
        <ele>1873.1999511719</ele>
        <time>2019-05-05T08:09:04.000Z</time>
      </trkpt>
      <trkpt lat="42.82785" lon="0.16954">
        <ele>1873</ele>
        <time>2019-05-05T08:09:07.000Z</time>
      </trkpt>
      <trkpt lat="42.82799" lon="0.1696">
        <ele>1874</ele>
        <time>2019-05-05T08:09:25.000Z</time>
      </trkpt>
      <trkpt lat="42.82844" lon="0.16969">
        <ele>1874.1999511719</ele>
        <time>2019-05-05T08:10:05.000Z</time>
      </trkpt>
      <trkpt lat="42.82861" lon="0.16966">
        <ele>1876.1999511719</ele>
        <time>2019-05-05T08:10:20.000Z</time>
      </trkpt>
      <trkpt lat="42.82864" lon="0.16963">
        <ele>1876</ele>
        <time>2019-05-05T08:10:23.000Z</time>
      </trkpt>
      <trkpt lat="42.82865" lon="0.16962">
        <ele>1875.8000488281</ele>
        <time>2019-05-05T08:10:24.000Z</time>
      </trkpt>
      <trkpt lat="42.82876" lon="0.16949">
        <ele>1875.5999755859</ele>
        <time>2019-05-05T08:10:41.000Z</time>
      </trkpt>
      <trkpt lat="42.82893" lon="0.16947">
        <ele>1877.8000488281</ele>
        <time>2019-05-05T08:10:59.000Z</time>
      </trkpt>
      <trkpt lat="42.82906" lon="0.16942">
        <ele>1878.8000488281</ele>
        <time>2019-05-05T08:11:10.000Z</time>
      </trkpt>
      <trkpt lat="42.82911" lon="0.16939">
        <ele>1879</ele>
        <time>2019-05-05T08:11:16.000Z</time>
      </trkpt>
      <trkpt lat="42.82912" lon="0.16938">
        <ele>1879.1999511719</ele>
        <time>2019-05-05T08:11:17.000Z</time>
      </trkpt>
      <trkpt lat="42.82914" lon="0.16938">
        <ele>1879.1999511719</ele>
        <time>2019-05-05T08:11:18.000Z</time>
      </trkpt>
      <trkpt lat="42.82915" lon="0.16937">
        <ele>1879.4000244141</ele>
        <time>2019-05-05T08:11:19.000Z</time>
      </trkpt>
      <trkpt lat="42.82919" lon="0.16936">
        <ele>1879.5999755859</ele>
        <time>2019-05-05T08:11:22.000Z</time>
      </trkpt>
      <trkpt lat="42.82921" lon="0.16936">
        <ele>1879.8000488281</ele>
        <time>2019-05-05T08:11:24.000Z</time>
      </trkpt>
      <trkpt lat="42.82928" lon="0.16936">
        <ele>1882.5999755859</ele>
        <time>2019-05-05T08:11:31.000Z</time>
      </trkpt>
      <trkpt lat="42.8293" lon="0.16935">
        <ele>1883.4000244141</ele>
        <time>2019-05-05T08:11:33.000Z</time>
      </trkpt>
      <trkpt lat="42.82931" lon="0.16934">
        <ele>1884</ele>
        <time>2019-05-05T08:11:35.000Z</time>
      </trkpt>
      <trkpt lat="42.82932" lon="0.16933">
        <ele>1884.4000244141</ele>
        <time>2019-05-05T08:11:36.000Z</time>
      </trkpt>
      <trkpt lat="42.82933" lon="0.16932">
        <ele>1884.4000244141</ele>
        <time>2019-05-05T08:11:37.000Z</time>
      </trkpt>
      <trkpt lat="42.82934" lon="0.1693">
        <ele>1884.4000244141</ele>
        <time>2019-05-05T08:11:38.000Z</time>
      </trkpt>
      <trkpt lat="42.82934" lon="0.16929">
        <ele>1884.5999755859</ele>
        <time>2019-05-05T08:11:39.000Z</time>
      </trkpt>
      <trkpt lat="42.82935" lon="0.16926">
        <ele>1884.5999755859</ele>
        <time>2019-05-05T08:11:40.000Z</time>
      </trkpt>
      <trkpt lat="42.82937" lon="0.16916">
        <ele>1884.1999511719</ele>
        <time>2019-05-05T08:11:47.000Z</time>
      </trkpt>
      <trkpt lat="42.82938" lon="0.16913">
        <ele>1884</ele>
        <time>2019-05-05T08:11:50.000Z</time>
      </trkpt>
      <trkpt lat="42.82939" lon="0.16911">
        <ele>1884</ele>
        <time>2019-05-05T08:11:51.000Z</time>
      </trkpt>
      <trkpt lat="42.8294" lon="0.16909">
        <ele>1884.1999511719</ele>
        <time>2019-05-05T08:11:53.000Z</time>
      </trkpt>
      <trkpt lat="42.8294" lon="0.16902">
        <ele>1883.1999511719</ele>
        <time>2019-05-05T08:11:58.000Z</time>
      </trkpt>
      <trkpt lat="42.8294" lon="0.1689">
        <ele>1881.5999755859</ele>
        <time>2019-05-05T08:12:05.000Z</time>
      </trkpt>
      <trkpt lat="42.8294" lon="0.16888">
        <ele>1881.4000244141</ele>
        <time>2019-05-05T08:12:06.000Z</time>
      </trkpt>
      <trkpt lat="42.8294" lon="0.16884">
        <ele>1881.1999511719</ele>
        <time>2019-05-05T08:12:08.000Z</time>
      </trkpt>
      <trkpt lat="42.8294" lon="0.16878">
        <ele>1880.4000244141</ele>
        <time>2019-05-05T08:12:12.000Z</time>
      </trkpt>
      <trkpt lat="42.8294" lon="0.16877">
        <ele>1880.4000244141</ele>
        <time>2019-05-05T08:12:13.000Z</time>
      </trkpt>
      <trkpt lat="42.8294" lon="0.16877">
        <ele>1880.4000244141</ele>
        <time>2019-05-05T08:12:14.000Z</time>
      </trkpt>
      <trkpt lat="42.82939" lon="0.16876">
        <ele>1880.1999511719</ele>
        <time>2019-05-05T08:12:15.000Z</time>
      </trkpt>
      <trkpt lat="42.8294" lon="0.16876">
        <ele>1880.1999511719</ele>
        <time>2019-05-05T08:12:16.000Z</time>
      </trkpt>
      <trkpt lat="42.8294" lon="0.16873">
        <ele>1880.1999511719</ele>
        <time>2019-05-05T08:12:18.000Z</time>
      </trkpt>
      <trkpt lat="42.82939" lon="0.16867">
        <ele>1878.8000488281</ele>
        <time>2019-05-05T08:12:22.000Z</time>
      </trkpt>
      <trkpt lat="42.82938" lon="0.16865">
        <ele>1878.8000488281</ele>
        <time>2019-05-05T08:12:23.000Z</time>
      </trkpt>
      <trkpt lat="42.82938" lon="0.16862">
        <ele>1878.1999511719</ele>
        <time>2019-05-05T08:12:25.000Z</time>
      </trkpt>
      <trkpt lat="42.82938" lon="0.16852">
        <ele>1877.4000244141</ele>
        <time>2019-05-05T08:12:31.000Z</time>
      </trkpt>
      <trkpt lat="42.82938" lon="0.16848">
        <ele>1877.1999511719</ele>
        <time>2019-05-05T08:12:33.000Z</time>
      </trkpt>
      <trkpt lat="42.82938" lon="0.16841">
        <ele>1876.4000244141</ele>
        <time>2019-05-05T08:12:37.000Z</time>
      </trkpt>
      <trkpt lat="42.82938" lon="0.16832">
        <ele>1875.8000488281</ele>
        <time>2019-05-05T08:12:42.000Z</time>
      </trkpt>
      <trkpt lat="42.82939" lon="0.16825">
        <ele>1875.4000244141</ele>
        <time>2019-05-05T08:12:46.000Z</time>
      </trkpt>
      <trkpt lat="42.82942" lon="0.16813">
        <ele>1876.1999511719</ele>
        <time>2019-05-05T08:12:53.000Z</time>
      </trkpt>
      <trkpt lat="42.82944" lon="0.16807">
        <ele>1877.1999511719</ele>
        <time>2019-05-05T08:12:58.000Z</time>
      </trkpt>
      <trkpt lat="42.82943" lon="0.16799">
        <ele>1876.4000244141</ele>
        <time>2019-05-05T08:13:06.000Z</time>
      </trkpt>
      <trkpt lat="42.82949" lon="0.16766">
        <ele>1879.4000244141</ele>
        <time>2019-05-05T08:13:28.000Z</time>
      </trkpt>
      <trkpt lat="42.82949" lon="0.16761">
        <ele>1879.8000488281</ele>
        <time>2019-05-05T08:13:34.000Z</time>
      </trkpt>
      <trkpt lat="42.8295" lon="0.16751">
        <ele>1880.1999511719</ele>
        <time>2019-05-05T08:13:40.000Z</time>
      </trkpt>
      <trkpt lat="42.82948" lon="0.1669">
        <ele>1879.5999755859</ele>
        <time>2019-05-05T08:14:20.000Z</time>
      </trkpt>
      <trkpt lat="42.82942" lon="0.16655">
        <ele>1875.4000244141</ele>
        <time>2019-05-05T08:14:41.000Z</time>
      </trkpt>
      <trkpt lat="42.82945" lon="0.16622">
        <ele>1879.1999511719</ele>
        <time>2019-05-05T08:15:07.000Z</time>
      </trkpt>
      <trkpt lat="42.82945" lon="0.1662">
        <ele>1879.1999511719</ele>
        <time>2019-05-05T08:15:08.000Z</time>
      </trkpt>
      <trkpt lat="42.82944" lon="0.16618">
        <ele>1878.5999755859</ele>
        <time>2019-05-05T08:15:09.000Z</time>
      </trkpt>
      <trkpt lat="42.82943" lon="0.16617">
        <ele>1878</ele>
        <time>2019-05-05T08:15:10.000Z</time>
      </trkpt>
      <trkpt lat="42.82941" lon="0.16607">
        <ele>1877</ele>
        <time>2019-05-05T08:15:16.000Z</time>
      </trkpt>
      <trkpt lat="42.82933" lon="0.16547">
        <ele>1873.5999755859</ele>
        <time>2019-05-05T08:15:59.000Z</time>
      </trkpt>
      <trkpt lat="42.82934" lon="0.16521">
        <ele>1879.1999511719</ele>
        <time>2019-05-05T08:16:25.000Z</time>
      </trkpt>
      <trkpt lat="42.82931" lon="0.16478">
        <ele>1885</ele>
        <time>2019-05-05T08:16:59.000Z</time>
      </trkpt>
      <trkpt lat="42.82932" lon="0.16462">
        <ele>1887.4000244141</ele>
        <time>2019-05-05T08:17:15.000Z</time>
      </trkpt>
      <trkpt lat="42.82932" lon="0.16461">
        <ele>1887.1999511719</ele>
        <time>2019-05-05T08:17:16.000Z</time>
      </trkpt>
      <trkpt lat="42.82931" lon="0.16457">
        <ele>1887.5999755859</ele>
        <time>2019-05-05T08:17:19.000Z</time>
      </trkpt>
      <trkpt lat="42.82931" lon="0.16456">
        <ele>1887.8000488281</ele>
        <time>2019-05-05T08:17:20.000Z</time>
      </trkpt>
      <trkpt lat="42.8293" lon="0.16453">
        <ele>1888</ele>
        <time>2019-05-05T08:17:22.000Z</time>
      </trkpt>
      <trkpt lat="42.82929" lon="0.16445">
        <ele>1889</ele>
        <time>2019-05-05T08:17:28.000Z</time>
      </trkpt>
      <trkpt lat="42.82924" lon="0.16436">
        <ele>1888.1999511719</ele>
        <time>2019-05-05T08:17:41.000Z</time>
      </trkpt>
      <trkpt lat="42.82924" lon="0.16429">
        <ele>1889.4000244141</ele>
        <time>2019-05-05T08:17:52.000Z</time>
      </trkpt>
      <trkpt lat="42.82931" lon="0.16438">
        <ele>1891.5999755859</ele>
        <time>2019-05-05T08:18:08.000Z</time>
      </trkpt>
      <trkpt lat="42.82941" lon="0.16456">
        <ele>1894.4000244141</ele>
        <time>2019-05-05T08:19:14.000Z</time>
      </trkpt>
      <trkpt lat="42.82943" lon="0.16448">
        <ele>1897.4000244141</ele>
        <time>2019-05-05T08:19:29.000Z</time>
      </trkpt>
      <trkpt lat="42.82945" lon="0.16438">
        <ele>1900.5999755859</ele>
        <time>2019-05-05T08:19:37.000Z</time>
      </trkpt>
      <trkpt lat="42.82948" lon="0.16424">
        <ele>1906</ele>
        <time>2019-05-05T08:19:54.000Z</time>
      </trkpt>
      <trkpt lat="42.82949" lon="0.16424">
        <ele>1906.5999755859</ele>
        <time>2019-05-05T08:19:57.000Z</time>
      </trkpt>
      <trkpt lat="42.8295" lon="0.16424">
        <ele>1907</ele>
        <time>2019-05-05T08:19:58.000Z</time>
      </trkpt>
      <trkpt lat="42.8295" lon="0.16424">
        <ele>1907</ele>
        <time>2019-05-05T08:19:59.000Z</time>
      </trkpt>
      <trkpt lat="42.8295" lon="0.16424">
        <ele>1907.1999511719</ele>
        <time>2019-05-05T08:20:00.000Z</time>
      </trkpt>
      <trkpt lat="42.82952" lon="0.16426">
        <ele>1907.8000488281</ele>
        <time>2019-05-05T08:20:04.000Z</time>
      </trkpt>
      <trkpt lat="42.82952" lon="0.16426">
        <ele>1907.8000488281</ele>
        <time>2019-05-05T08:20:05.000Z</time>
      </trkpt>
      <trkpt lat="42.82952" lon="0.16426">
        <ele>1908</ele>
        <time>2019-05-05T08:20:06.000Z</time>
      </trkpt>
      <trkpt lat="42.82952" lon="0.16426">
        <ele>1908</ele>
        <time>2019-05-05T08:20:07.000Z</time>
      </trkpt>
      <trkpt lat="42.82959" lon="0.16431">
        <ele>1911.1999511719</ele>
        <time>2019-05-05T08:20:27.000Z</time>
      </trkpt>
      <trkpt lat="42.82959" lon="0.16432">
        <ele>1911.4000244141</ele>
        <time>2019-05-05T08:20:28.000Z</time>
      </trkpt>
      <trkpt lat="42.82972" lon="0.16445">
        <ele>1916.4000244141</ele>
        <time>2019-05-05T08:21:09.000Z</time>
      </trkpt>
      <trkpt lat="42.82975" lon="0.16451">
        <ele>1916.8000488281</ele>
        <time>2019-05-05T08:21:23.000Z</time>
      </trkpt>
      <trkpt lat="42.82976" lon="0.16451">
        <ele>1917.5999755859</ele>
        <time>2019-05-05T08:21:26.000Z</time>
      </trkpt>
      <trkpt lat="42.82982" lon="0.16429">
        <ele>1924.5999755859</ele>
        <time>2019-05-05T08:21:58.000Z</time>
      </trkpt>
      <trkpt lat="42.82979" lon="0.16412">
        <ele>1923.5999755859</ele>
        <time>2019-05-05T08:22:19.000Z</time>
      </trkpt>
      <trkpt lat="42.82979" lon="0.16387">
        <ele>1923.8000488281</ele>
        <time>2019-05-05T08:22:44.000Z</time>
      </trkpt>
      <trkpt lat="42.82978" lon="0.16361">
        <ele>1926</ele>
        <time>2019-05-05T08:23:02.000Z</time>
      </trkpt>
      <trkpt lat="42.82978" lon="0.16357">
        <ele>1926.1999511719</ele>
        <time>2019-05-05T08:23:06.000Z</time>
      </trkpt>
      <trkpt lat="42.82978" lon="0.16356">
        <ele>1926.5999755859</ele>
        <time>2019-05-05T08:23:07.000Z</time>
      </trkpt>
      <trkpt lat="42.82978" lon="0.16355">
        <ele>1926.8000488281</ele>
        <time>2019-05-05T08:23:08.000Z</time>
      </trkpt>
      <trkpt lat="42.82978" lon="0.16353">
        <ele>1927</ele>
        <time>2019-05-05T08:23:09.000Z</time>
      </trkpt>
      <trkpt lat="42.82977" lon="0.16346">
        <ele>1927.1999511719</ele>
        <time>2019-05-05T08:23:15.000Z</time>
      </trkpt>
      <trkpt lat="42.82976" lon="0.16343">
        <ele>1927.5999755859</ele>
        <time>2019-05-05T08:23:18.000Z</time>
      </trkpt>
      <trkpt lat="42.82977" lon="0.16341">
        <ele>1927.8000488281</ele>
        <time>2019-05-05T08:23:19.000Z</time>
      </trkpt>
      <trkpt lat="42.82979" lon="0.16339">
        <ele>1929</ele>
        <time>2019-05-05T08:23:24.000Z</time>
      </trkpt>
      <trkpt lat="42.8299" lon="0.16333">
        <ele>1933.5999755859</ele>
        <time>2019-05-05T08:23:43.000Z</time>
      </trkpt>
      <trkpt lat="42.82993" lon="0.16337">
        <ele>1934.4000244141</ele>
        <time>2019-05-05T08:23:48.000Z</time>
      </trkpt>
      <trkpt lat="42.82999" lon="0.16342">
        <ele>1936</ele>
        <time>2019-05-05T08:24:02.000Z</time>
      </trkpt>
      <trkpt lat="42.83004" lon="0.16361">
        <ele>1936</ele>
        <time>2019-05-05T08:24:30.000Z</time>
      </trkpt>
      <trkpt lat="42.83005" lon="0.16354">
        <ele>1937.1999511719</ele>
        <time>2019-05-05T08:24:52.000Z</time>
      </trkpt>
      <trkpt lat="42.83009" lon="0.16325">
        <ele>1942.4000244141</ele>
        <time>2019-05-05T08:25:29.000Z</time>
      </trkpt>
      <trkpt lat="42.8302" lon="0.16298">
        <ele>1951.8000488281</ele>
        <time>2019-05-05T08:26:12.000Z</time>
      </trkpt>
      <trkpt lat="42.83021" lon="0.16293">
        <ele>1952.1999511719</ele>
        <time>2019-05-05T08:26:17.000Z</time>
      </trkpt>
      <trkpt lat="42.83035" lon="0.16256">
        <ele>1965.4000244141</ele>
        <time>2019-05-05T08:27:43.000Z</time>
      </trkpt>
      <trkpt lat="42.83055" lon="0.16294">
        <ele>1972.4000244141</ele>
        <time>2019-05-05T08:28:35.000Z</time>
      </trkpt>
      <trkpt lat="42.83055" lon="0.16299">
        <ele>1972.5999755859</ele>
        <time>2019-05-05T08:28:38.000Z</time>
      </trkpt>
      <trkpt lat="42.83057" lon="0.16315">
        <ele>1974</ele>
        <time>2019-05-05T08:29:07.000Z</time>
      </trkpt>
      <trkpt lat="42.83068" lon="0.16326">
        <ele>1980.5999755859</ele>
        <time>2019-05-05T08:29:37.000Z</time>
      </trkpt>
      <trkpt lat="42.83072" lon="0.16309">
        <ele>1983</ele>
        <time>2019-05-05T08:30:02.000Z</time>
      </trkpt>
      <trkpt lat="42.83073" lon="0.16275">
        <ele>1985.1999511719</ele>
        <time>2019-05-05T08:30:44.000Z</time>
      </trkpt>
      <trkpt lat="42.83073" lon="0.16265">
        <ele>1984.8000488281</ele>
        <time>2019-05-05T08:30:57.000Z</time>
      </trkpt>
      <trkpt lat="42.83078" lon="0.16248">
        <ele>1985.8000488281</ele>
        <time>2019-05-05T08:31:15.000Z</time>
      </trkpt>
      <trkpt lat="42.83096" lon="0.16194">
        <ele>1992.4000244141</ele>
        <time>2019-05-05T08:32:25.000Z</time>
      </trkpt>
      <trkpt lat="42.83105" lon="0.1617">
        <ele>1997.8000488281</ele>
        <time>2019-05-05T08:32:59.000Z</time>
      </trkpt>
      <trkpt lat="42.83119" lon="0.16146">
        <ele>2004</ele>
        <time>2019-05-05T08:33:57.000Z</time>
      </trkpt>
      <trkpt lat="42.83126" lon="0.16129">
        <ele>2005</ele>
        <time>2019-05-05T08:34:38.000Z</time>
      </trkpt>
      <trkpt lat="42.83129" lon="0.16101">
        <ele>2010.8000488281</ele>
        <time>2019-05-05T08:35:15.000Z</time>
      </trkpt>
      <trkpt lat="42.8313" lon="0.16075">
        <ele>2014</ele>
        <time>2019-05-05T08:36:13.000Z</time>
      </trkpt>
      <trkpt lat="42.83129" lon="0.16076">
        <ele>2013.8000488281</ele>
        <time>2019-05-05T08:36:43.000Z</time>
      </trkpt>
      <trkpt lat="42.8313" lon="0.16074">
        <ele>2014</ele>
        <time>2019-05-05T08:36:51.000Z</time>
      </trkpt>
      <trkpt lat="42.8313" lon="0.16071">
        <ele>2014</ele>
        <time>2019-05-05T08:37:00.000Z</time>
      </trkpt>
      <trkpt lat="42.8313" lon="0.1607">
        <ele>2014</ele>
        <time>2019-05-05T08:37:06.000Z</time>
      </trkpt>
      <trkpt lat="42.83129" lon="0.1607">
        <ele>2014</ele>
        <time>2019-05-05T08:37:09.000Z</time>
      </trkpt>
      <trkpt lat="42.83128" lon="0.16069">
        <ele>2013.5999755859</ele>
        <time>2019-05-05T08:37:14.000Z</time>
      </trkpt>
      <trkpt lat="42.83126" lon="0.16069">
        <ele>2013.1999511719</ele>
        <time>2019-05-05T08:37:24.000Z</time>
      </trkpt>
      <trkpt lat="42.83126" lon="0.16069">
        <ele>2013.1999511719</ele>
        <time>2019-05-05T08:37:25.000Z</time>
      </trkpt>
      <trkpt lat="42.83126" lon="0.1607">
        <ele>2013.1999511719</ele>
        <time>2019-05-05T08:37:30.000Z</time>
      </trkpt>
      <trkpt lat="42.83125" lon="0.16068">
        <ele>2013.1999511719</ele>
        <time>2019-05-05T08:37:47.000Z</time>
      </trkpt>
      <trkpt lat="42.83125" lon="0.16068">
        <ele>2013.1999511719</ele>
        <time>2019-05-05T08:37:48.000Z</time>
      </trkpt>
      <trkpt lat="42.83125" lon="0.16068">
        <ele>2013.1999511719</ele>
        <time>2019-05-05T08:37:50.000Z</time>
      </trkpt>
      <trkpt lat="42.83125" lon="0.1607">
        <ele>2013</ele>
        <time>2019-05-05T08:37:55.000Z</time>
      </trkpt>
      <trkpt lat="42.83125" lon="0.1607">
        <ele>2013.1999511719</ele>
        <time>2019-05-05T08:37:58.000Z</time>
      </trkpt>
      <trkpt lat="42.83125" lon="0.1607">
        <ele>2013.1999511719</ele>
        <time>2019-05-05T08:38:00.000Z</time>
      </trkpt>
      <trkpt lat="42.83125" lon="0.16071">
        <ele>2013.1999511719</ele>
        <time>2019-05-05T08:38:01.000Z</time>
      </trkpt>
      <trkpt lat="42.83123" lon="0.16071">
        <ele>2012.8000488281</ele>
        <time>2019-05-05T08:38:10.000Z</time>
      </trkpt>
      <trkpt lat="42.83123" lon="0.16072">
        <ele>2012.5999755859</ele>
        <time>2019-05-05T08:38:15.000Z</time>
      </trkpt>
      <trkpt lat="42.83123" lon="0.16071">
        <ele>2012.5999755859</ele>
        <time>2019-05-05T08:38:18.000Z</time>
      </trkpt>
      <trkpt lat="42.83123" lon="0.16066">
        <ele>2012.8000488281</ele>
        <time>2019-05-05T08:38:25.000Z</time>
      </trkpt>
      <trkpt lat="42.83124" lon="0.16062">
        <ele>2013</ele>
        <time>2019-05-05T08:38:28.000Z</time>
      </trkpt>
      <trkpt lat="42.83125" lon="0.16058">
        <ele>2013.1999511719</ele>
        <time>2019-05-05T08:38:31.000Z</time>
      </trkpt>
      <trkpt lat="42.83126" lon="0.16054">
        <ele>2013.4000244141</ele>
        <time>2019-05-05T08:38:34.000Z</time>
      </trkpt>
      <trkpt lat="42.83126" lon="0.16052">
        <ele>2013.5999755859</ele>
        <time>2019-05-05T08:38:35.000Z</time>
      </trkpt>
      <trkpt lat="42.83127" lon="0.1605">
        <ele>2013.5999755859</ele>
        <time>2019-05-05T08:38:36.000Z</time>
      </trkpt>
      <trkpt lat="42.83127" lon="0.16047">
        <ele>2013.8000488281</ele>
        <time>2019-05-05T08:38:39.000Z</time>
      </trkpt>
      <trkpt lat="42.83128" lon="0.16043">
        <ele>2014.1999511719</ele>
        <time>2019-05-05T08:38:42.000Z</time>
      </trkpt>
      <trkpt lat="42.83129" lon="0.16042">
        <ele>2014.4000244141</ele>
        <time>2019-05-05T08:38:43.000Z</time>
      </trkpt>
      <trkpt lat="42.83129" lon="0.16041">
        <ele>2014.5999755859</ele>
        <time>2019-05-05T08:38:44.000Z</time>
      </trkpt>
      <trkpt lat="42.83128" lon="0.16032">
        <ele>2015.8000488281</ele>
        <time>2019-05-05T08:38:53.000Z</time>
      </trkpt>
      <trkpt lat="42.83127" lon="0.16029">
        <ele>2016</ele>
        <time>2019-05-05T08:38:55.000Z</time>
      </trkpt>
      <trkpt lat="42.83128" lon="0.16023">
        <ele>2017</ele>
        <time>2019-05-05T08:38:59.000Z</time>
      </trkpt>
      <trkpt lat="42.83129" lon="0.1602">
        <ele>2017.5999755859</ele>
        <time>2019-05-05T08:39:01.000Z</time>
      </trkpt>
      <trkpt lat="42.83131" lon="0.16018">
        <ele>2018.4000244141</ele>
        <time>2019-05-05T08:39:04.000Z</time>
      </trkpt>
      <trkpt lat="42.83131" lon="0.16017">
        <ele>2018.5999755859</ele>
        <time>2019-05-05T08:39:05.000Z</time>
      </trkpt>
      <trkpt lat="42.83132" lon="0.16017">
        <ele>2018.8000488281</ele>
        <time>2019-05-05T08:39:06.000Z</time>
      </trkpt>
      <trkpt lat="42.83137" lon="0.16014">
        <ele>2020.1999511719</ele>
        <time>2019-05-05T08:39:12.000Z</time>
      </trkpt>
      <trkpt lat="42.83139" lon="0.16013">
        <ele>2020.8000488281</ele>
        <time>2019-05-05T08:39:14.000Z</time>
      </trkpt>
      <trkpt lat="42.8314" lon="0.16012">
        <ele>2021</ele>
        <time>2019-05-05T08:39:15.000Z</time>
      </trkpt>
      <trkpt lat="42.83142" lon="0.1601">
        <ele>2021.1999511719</ele>
        <time>2019-05-05T08:39:18.000Z</time>
      </trkpt>
      <trkpt lat="42.83143" lon="0.16009">
        <ele>2021.4000244141</ele>
        <time>2019-05-05T08:39:19.000Z</time>
      </trkpt>
      <trkpt lat="42.83144" lon="0.16007">
        <ele>2021.5999755859</ele>
        <time>2019-05-05T08:39:21.000Z</time>
      </trkpt>
      <trkpt lat="42.83146" lon="0.16005">
        <ele>2021.8000488281</ele>
        <time>2019-05-05T08:39:23.000Z</time>
      </trkpt>
      <trkpt lat="42.83147" lon="0.16005">
        <ele>2021.8000488281</ele>
        <time>2019-05-05T08:39:24.000Z</time>
      </trkpt>
      <trkpt lat="42.83147" lon="0.16005">
        <ele>2021.8000488281</ele>
        <time>2019-05-05T08:39:25.000Z</time>
      </trkpt>
      <trkpt lat="42.8315" lon="0.16003">
        <ele>2022</ele>
        <time>2019-05-05T08:39:28.000Z</time>
      </trkpt>
      <trkpt lat="42.8315" lon="0.16003">
        <ele>2022.1999511719</ele>
        <time>2019-05-05T08:39:29.000Z</time>
      </trkpt>
      <trkpt lat="42.83152" lon="0.16004">
        <ele>2022.1999511719</ele>
        <time>2019-05-05T08:39:32.000Z</time>
      </trkpt>
      <trkpt lat="42.83152" lon="0.16004">
        <ele>2022.4000244141</ele>
        <time>2019-05-05T08:39:33.000Z</time>
      </trkpt>
      <trkpt lat="42.83165" lon="0.16015">
        <ele>2023.1999511719</ele>
        <time>2019-05-05T08:40:06.000Z</time>
      </trkpt>
      <trkpt lat="42.83171" lon="0.16007">
        <ele>2023.8000488281</ele>
        <time>2019-05-05T08:40:23.000Z</time>
      </trkpt>
      <trkpt lat="42.8318" lon="0.15984">
        <ele>2027.4000244141</ele>
        <time>2019-05-05T08:41:17.000Z</time>
      </trkpt>
      <trkpt lat="42.83181" lon="0.15972">
        <ele>2027.8000488281</ele>
        <time>2019-05-05T08:41:31.000Z</time>
      </trkpt>
      <trkpt lat="42.83181" lon="0.1597">
        <ele>2028</ele>
        <time>2019-05-05T08:41:33.000Z</time>
      </trkpt>
      <trkpt lat="42.83182" lon="0.1597">
        <ele>2028</ele>
        <time>2019-05-05T08:41:34.000Z</time>
      </trkpt>
      <trkpt lat="42.83182" lon="0.15969">
        <ele>2028.1999511719</ele>
        <time>2019-05-05T08:41:35.000Z</time>
      </trkpt>
      <trkpt lat="42.83182" lon="0.15968">
        <ele>2028.1999511719</ele>
        <time>2019-05-05T08:41:37.000Z</time>
      </trkpt>
      <trkpt lat="42.83182" lon="0.15968">
        <ele>2028.1999511719</ele>
        <time>2019-05-05T08:41:38.000Z</time>
      </trkpt>
      <trkpt lat="42.83183" lon="0.15968">
        <ele>2028.4000244141</ele>
        <time>2019-05-05T08:41:39.000Z</time>
      </trkpt>
      <trkpt lat="42.83185" lon="0.1596">
        <ele>2029</ele>
        <time>2019-05-05T08:41:53.000Z</time>
      </trkpt>
      <trkpt lat="42.83186" lon="0.15957">
        <ele>2029.4000244141</ele>
        <time>2019-05-05T08:41:57.000Z</time>
      </trkpt>
      <trkpt lat="42.83186" lon="0.15954">
        <ele>2030</ele>
        <time>2019-05-05T08:42:02.000Z</time>
      </trkpt>
      <trkpt lat="42.83187" lon="0.15948">
        <ele>2031</ele>
        <time>2019-05-05T08:42:13.000Z</time>
      </trkpt>
      <trkpt lat="42.83188" lon="0.15943">
        <ele>2031.8000488281</ele>
        <time>2019-05-05T08:42:18.000Z</time>
      </trkpt>
      <trkpt lat="42.83196" lon="0.15927">
        <ele>2036.1999511719</ele>
        <time>2019-05-05T08:42:41.000Z</time>
      </trkpt>
      <trkpt lat="42.83204" lon="0.15918">
        <ele>2039.5999755859</ele>
        <time>2019-05-05T08:43:00.000Z</time>
      </trkpt>
      <trkpt lat="42.83204" lon="0.15912">
        <ele>2040.4000244141</ele>
        <time>2019-05-05T08:43:29.000Z</time>
      </trkpt>
      <trkpt lat="42.83204" lon="0.15912">
        <ele>2040.4000244141</ele>
        <time>2019-05-05T08:43:33.000Z</time>
      </trkpt>
      <trkpt lat="42.83206" lon="0.15911">
        <ele>2041</ele>
        <time>2019-05-05T08:43:37.000Z</time>
      </trkpt>
      <trkpt lat="42.83207" lon="0.1591">
        <ele>2041.4000244141</ele>
        <time>2019-05-05T08:43:41.000Z</time>
      </trkpt>
      <trkpt lat="42.83208" lon="0.15909">
        <ele>2041.5999755859</ele>
        <time>2019-05-05T08:43:45.000Z</time>
      </trkpt>
      <trkpt lat="42.83209" lon="0.1591">
        <ele>2041.8000488281</ele>
        <time>2019-05-05T08:43:49.000Z</time>
      </trkpt>
      <trkpt lat="42.83209" lon="0.1591">
        <ele>2041.8000488281</ele>
        <time>2019-05-05T08:43:52.000Z</time>
      </trkpt>
      <trkpt lat="42.8321" lon="0.15911">
        <ele>2041.8000488281</ele>
        <time>2019-05-05T08:43:54.000Z</time>
      </trkpt>
      <trkpt lat="42.8321" lon="0.15912">
        <ele>2042</ele>
        <time>2019-05-05T08:43:57.000Z</time>
      </trkpt>
      <trkpt lat="42.83211" lon="0.15912">
        <ele>2042</ele>
        <time>2019-05-05T08:44:02.000Z</time>
      </trkpt>
      <trkpt lat="42.83211" lon="0.15912">
        <ele>2042</ele>
        <time>2019-05-05T08:44:07.000Z</time>
      </trkpt>
      <trkpt lat="42.83211" lon="0.15913">
        <ele>2042.1999511719</ele>
        <time>2019-05-05T08:44:10.000Z</time>
      </trkpt>
      <trkpt lat="42.83212" lon="0.15913">
        <ele>2042.1999511719</ele>
        <time>2019-05-05T08:44:15.000Z</time>
      </trkpt>
      <trkpt lat="42.83212" lon="0.15913">
        <ele>2042.1999511719</ele>
        <time>2019-05-05T08:44:23.000Z</time>
      </trkpt>
      <trkpt lat="42.83212" lon="0.15914">
        <ele>2042.1999511719</ele>
        <time>2019-05-05T08:44:27.000Z</time>
      </trkpt>
      <trkpt lat="42.83212" lon="0.15914">
        <ele>2042.1999511719</ele>
        <time>2019-05-05T08:44:33.000Z</time>
      </trkpt>
      <trkpt lat="42.83211" lon="0.15915">
        <ele>2042</ele>
        <time>2019-05-05T08:44:41.000Z</time>
      </trkpt>
      <trkpt lat="42.83211" lon="0.15915">
        <ele>2042</ele>
        <time>2019-05-05T08:44:51.000Z</time>
      </trkpt>
      <trkpt lat="42.83216" lon="0.15915">
        <ele>2043</ele>
        <time>2019-05-05T08:44:58.000Z</time>
      </trkpt>
      <trkpt lat="42.83219" lon="0.15916">
        <ele>2043.8000488281</ele>
        <time>2019-05-05T08:45:01.000Z</time>
      </trkpt>
      <trkpt lat="42.83225" lon="0.15918">
        <ele>2045</ele>
        <time>2019-05-05T08:45:06.000Z</time>
      </trkpt>
      <trkpt lat="42.83226" lon="0.15919">
        <ele>2045</ele>
        <time>2019-05-05T08:45:07.000Z</time>
      </trkpt>
      <trkpt lat="42.83228" lon="0.15923">
        <ele>2045.4000244141</ele>
        <time>2019-05-05T08:45:11.000Z</time>
      </trkpt>
      <trkpt lat="42.83229" lon="0.15927">
        <ele>2045.5999755859</ele>
        <time>2019-05-05T08:45:14.000Z</time>
      </trkpt>
      <trkpt lat="42.8323" lon="0.15928">
        <ele>2045.5999755859</ele>
        <time>2019-05-05T08:45:15.000Z</time>
      </trkpt>
      <trkpt lat="42.8323" lon="0.1593">
        <ele>2045.5999755859</ele>
        <time>2019-05-05T08:45:16.000Z</time>
      </trkpt>
      <trkpt lat="42.8323" lon="0.15933">
        <ele>2045.5999755859</ele>
        <time>2019-05-05T08:45:18.000Z</time>
      </trkpt>
      <trkpt lat="42.83234" lon="0.15951">
        <ele>2044.5999755859</ele>
        <time>2019-05-05T08:45:30.000Z</time>
      </trkpt>
      <trkpt lat="42.83234" lon="0.15952">
        <ele>2044.5999755859</ele>
        <time>2019-05-05T08:45:31.000Z</time>
      </trkpt>
      <trkpt lat="42.83237" lon="0.15963">
        <ele>2044.5999755859</ele>
        <time>2019-05-05T08:45:38.000Z</time>
      </trkpt>
      <trkpt lat="42.8324" lon="0.15967">
        <ele>2045.5999755859</ele>
        <time>2019-05-05T08:45:42.000Z</time>
      </trkpt>
      <trkpt lat="42.83242" lon="0.15969">
        <ele>2046.1999511719</ele>
        <time>2019-05-05T08:45:44.000Z</time>
      </trkpt>
      <trkpt lat="42.83244" lon="0.15972">
        <ele>2046.8000488281</ele>
        <time>2019-05-05T08:45:47.000Z</time>
      </trkpt>
      <trkpt lat="42.83245" lon="0.15973">
        <ele>2047.1999511719</ele>
        <time>2019-05-05T08:45:48.000Z</time>
      </trkpt>
      <trkpt lat="42.83248" lon="0.15978">
        <ele>2048.1999511719</ele>
        <time>2019-05-05T08:45:52.000Z</time>
      </trkpt>
      <trkpt lat="42.83249" lon="0.15981">
        <ele>2048.6000976562</ele>
        <time>2019-05-05T08:45:54.000Z</time>
      </trkpt>
      <trkpt lat="42.83262" lon="0.15994">
        <ele>2054.3999023438</ele>
        <time>2019-05-05T08:46:19.000Z</time>
      </trkpt>
      <trkpt lat="42.83263" lon="0.15997">
        <ele>2055</ele>
        <time>2019-05-05T08:46:31.000Z</time>
      </trkpt>
      <trkpt lat="42.83271" lon="0.16002">
        <ele>2059.3999023438</ele>
        <time>2019-05-05T08:46:52.000Z</time>
      </trkpt>
      <trkpt lat="42.83271" lon="0.15997">
        <ele>2059.3999023438</ele>
        <time>2019-05-05T08:47:04.000Z</time>
      </trkpt>
      <trkpt lat="42.83269" lon="0.15984">
        <ele>2058</ele>
        <time>2019-05-05T08:47:19.000Z</time>
      </trkpt>
      <trkpt lat="42.83268" lon="0.15981">
        <ele>2057.3999023438</ele>
        <time>2019-05-05T08:47:21.000Z</time>
      </trkpt>
      <trkpt lat="42.83272" lon="0.15927">
        <ele>2058</ele>
        <time>2019-05-05T08:48:39.000Z</time>
      </trkpt>
      <trkpt lat="42.83268" lon="0.15918">
        <ele>2056.8000488281</ele>
        <time>2019-05-05T08:48:49.000Z</time>
      </trkpt>
      <trkpt lat="42.83266" lon="0.15918">
        <ele>2056</ele>
        <time>2019-05-05T08:49:26.000Z</time>
      </trkpt>
      <trkpt lat="42.83267" lon="0.15918">
        <ele>2056.1999511719</ele>
        <time>2019-05-05T08:49:35.000Z</time>
      </trkpt>
      <trkpt lat="42.83268" lon="0.15906">
        <ele>2057.1999511719</ele>
        <time>2019-05-05T08:49:49.000Z</time>
      </trkpt>
      <trkpt lat="42.83272" lon="0.15898">
        <ele>2058.8000488281</ele>
        <time>2019-05-05T08:49:58.000Z</time>
      </trkpt>
      <trkpt lat="42.83274" lon="0.15895">
        <ele>2059.6000976562</ele>
        <time>2019-05-05T08:50:01.000Z</time>
      </trkpt>
      <trkpt lat="42.83274" lon="0.15895">
        <ele>2059.8000488281</ele>
        <time>2019-05-05T08:50:02.000Z</time>
      </trkpt>
      <trkpt lat="42.83276" lon="0.15895">
        <ele>2060.6000976562</ele>
        <time>2019-05-05T08:50:07.000Z</time>
      </trkpt>
      <trkpt lat="42.83277" lon="0.15895">
        <ele>2060.8000488281</ele>
        <time>2019-05-05T08:50:16.000Z</time>
      </trkpt>
      <trkpt lat="42.83291" lon="0.15858">
        <ele>2066.3999023438</ele>
        <time>2019-05-05T08:51:16.000Z</time>
      </trkpt>
      <trkpt lat="42.83303" lon="0.15823">
        <ele>2071</ele>
        <time>2019-05-05T08:51:51.000Z</time>
      </trkpt>
      <trkpt lat="42.83307" lon="0.15804">
        <ele>2070.6000976562</ele>
        <time>2019-05-05T08:52:09.000Z</time>
      </trkpt>
      <trkpt lat="42.8331" lon="0.15794">
        <ele>2070.8000488281</ele>
        <time>2019-05-05T08:52:19.000Z</time>
      </trkpt>
      <trkpt lat="42.83311" lon="0.15792">
        <ele>2071.3999023438</ele>
        <time>2019-05-05T08:52:22.000Z</time>
      </trkpt>
      <trkpt lat="42.83313" lon="0.15789">
        <ele>2072</ele>
        <time>2019-05-05T08:52:26.000Z</time>
      </trkpt>
      <trkpt lat="42.83335" lon="0.1578">
        <ele>2076.1999511719</ele>
        <time>2019-05-05T08:53:12.000Z</time>
      </trkpt>
      <trkpt lat="42.83347" lon="0.15758">
        <ele>2080</ele>
        <time>2019-05-05T08:53:34.000Z</time>
      </trkpt>
      <trkpt lat="42.83348" lon="0.15756">
        <ele>2080.3999023438</ele>
        <time>2019-05-05T08:53:36.000Z</time>
      </trkpt>
      <trkpt lat="42.83349" lon="0.15749">
        <ele>2081</ele>
        <time>2019-05-05T08:53:41.000Z</time>
      </trkpt>
      <trkpt lat="42.83349" lon="0.15745">
        <ele>2081.1999511719</ele>
        <time>2019-05-05T08:53:44.000Z</time>
      </trkpt>
      <trkpt lat="42.83347" lon="0.15719">
        <ele>2081.3999023438</ele>
        <time>2019-05-05T08:54:11.000Z</time>
      </trkpt>
      <trkpt lat="42.83342" lon="0.15705">
        <ele>2080.3999023438</ele>
        <time>2019-05-05T08:54:32.000Z</time>
      </trkpt>
      <trkpt lat="42.83332" lon="0.15691">
        <ele>2080.6000976562</ele>
        <time>2019-05-05T08:54:45.000Z</time>
      </trkpt>
      <trkpt lat="42.83333" lon="0.15681">
        <ele>2081.3999023438</ele>
        <time>2019-05-05T08:54:53.000Z</time>
      </trkpt>
      <trkpt lat="42.83333" lon="0.15678">
        <ele>2081.6000976562</ele>
        <time>2019-05-05T08:54:58.000Z</time>
      </trkpt>
      <trkpt lat="42.83335" lon="0.15666">
        <ele>2082.3999023438</ele>
        <time>2019-05-05T08:55:09.000Z</time>
      </trkpt>
      <trkpt lat="42.83334" lon="0.15641">
        <ele>2084.1999511719</ele>
        <time>2019-05-05T08:55:30.000Z</time>
      </trkpt>
      <trkpt lat="42.83334" lon="0.1564">
        <ele>2084.1999511719</ele>
        <time>2019-05-05T08:55:31.000Z</time>
      </trkpt>
      <trkpt lat="42.83335" lon="0.15636">
        <ele>2084.6000976562</ele>
        <time>2019-05-05T08:55:35.000Z</time>
      </trkpt>
      <trkpt lat="42.83335" lon="0.15635">
        <ele>2084.6000976562</ele>
        <time>2019-05-05T08:55:36.000Z</time>
      </trkpt>
      <trkpt lat="42.83335" lon="0.15635">
        <ele>2084.6000976562</ele>
        <time>2019-05-05T08:55:37.000Z</time>
      </trkpt>
      <trkpt lat="42.83335" lon="0.15635">
        <ele>2084.6000976562</ele>
        <time>2019-05-05T08:55:38.000Z</time>
      </trkpt>
      <trkpt lat="42.83335" lon="0.15635">
        <ele>2084.6000976562</ele>
        <time>2019-05-05T08:55:39.000Z</time>
      </trkpt>
      <trkpt lat="42.83336" lon="0.15634">
        <ele>2084.6000976562</ele>
        <time>2019-05-05T08:55:44.000Z</time>
      </trkpt>
      <trkpt lat="42.8333" lon="0.15625">
        <ele>2085.6000976562</ele>
        <time>2019-05-05T08:55:59.000Z</time>
      </trkpt>
      <trkpt lat="42.8333" lon="0.15615">
        <ele>2086</ele>
        <time>2019-05-05T08:56:06.000Z</time>
      </trkpt>
      <trkpt lat="42.83332" lon="0.1561">
        <ele>2086</ele>
        <time>2019-05-05T08:56:10.000Z</time>
      </trkpt>
      <trkpt lat="42.83333" lon="0.15604">
        <ele>2085.8000488281</ele>
        <time>2019-05-05T08:56:15.000Z</time>
      </trkpt>
      <trkpt lat="42.83334" lon="0.15604">
        <ele>2085.8000488281</ele>
        <time>2019-05-05T08:56:19.000Z</time>
      </trkpt>
      <trkpt lat="42.83335" lon="0.15604">
        <ele>2085.6000976562</ele>
        <time>2019-05-05T08:56:20.000Z</time>
      </trkpt>
      <trkpt lat="42.83335" lon="0.15604">
        <ele>2085.6000976562</ele>
        <time>2019-05-05T08:56:21.000Z</time>
      </trkpt>
      <trkpt lat="42.83335" lon="0.15604">
        <ele>2085.6000976562</ele>
        <time>2019-05-05T08:56:27.000Z</time>
      </trkpt>
      <trkpt lat="42.83345" lon="0.15615">
        <ele>2086.6000976562</ele>
        <time>2019-05-05T08:57:16.000Z</time>
      </trkpt>
      <trkpt lat="42.83342" lon="0.15606">
        <ele>2086</ele>
        <time>2019-05-05T08:57:27.000Z</time>
      </trkpt>
      <trkpt lat="42.83343" lon="0.15603">
        <ele>2086.1999511719</ele>
        <time>2019-05-05T08:57:35.000Z</time>
      </trkpt>
      <trkpt lat="42.83343" lon="0.15603">
        <ele>2086.1999511719</ele>
        <time>2019-05-05T08:57:36.000Z</time>
      </trkpt>
      <trkpt lat="42.83343" lon="0.15603">
        <ele>2086.1999511719</ele>
        <time>2019-05-05T08:57:37.000Z</time>
      </trkpt>
      <trkpt lat="42.83343" lon="0.15603">
        <ele>2086.1999511719</ele>
        <time>2019-05-05T08:57:38.000Z</time>
      </trkpt>
      <trkpt lat="42.83343" lon="0.15603">
        <ele>2086.1999511719</ele>
        <time>2019-05-05T08:57:39.000Z</time>
      </trkpt>
      <trkpt lat="42.83343" lon="0.15603">
        <ele>2086.1999511719</ele>
        <time>2019-05-05T08:57:46.000Z</time>
      </trkpt>
      <trkpt lat="42.8335" lon="0.15603">
        <ele>2087.8000488281</ele>
        <time>2019-05-05T08:58:17.000Z</time>
      </trkpt>
      <trkpt lat="42.8335" lon="0.15603">
        <ele>2087.8000488281</ele>
        <time>2019-05-05T08:58:23.000Z</time>
      </trkpt>
      <trkpt lat="42.83353" lon="0.15603">
        <ele>2088.3999023438</ele>
        <time>2019-05-05T08:58:28.000Z</time>
      </trkpt>
      <trkpt lat="42.83354" lon="0.15602">
        <ele>2088.8000488281</ele>
        <time>2019-05-05T08:58:31.000Z</time>
      </trkpt>
      <trkpt lat="42.83355" lon="0.15601">
        <ele>2089</ele>
        <time>2019-05-05T08:58:33.000Z</time>
      </trkpt>
      <trkpt lat="42.8336" lon="0.15597">
        <ele>2090</ele>
        <time>2019-05-05T08:58:38.000Z</time>
      </trkpt>
      <trkpt lat="42.83366" lon="0.15594">
        <ele>2091.6000976562</ele>
        <time>2019-05-05T08:58:50.000Z</time>
      </trkpt>
      <trkpt lat="42.83367" lon="0.15597">
        <ele>2091.8000488281</ele>
        <time>2019-05-05T08:58:57.000Z</time>
      </trkpt>
      <trkpt lat="42.83373" lon="0.15606">
        <ele>2093</ele>
        <time>2019-05-05T08:59:15.000Z</time>
      </trkpt>
      <trkpt lat="42.8338" lon="0.15597">
        <ele>2094.8000488281</ele>
        <time>2019-05-05T08:59:29.000Z</time>
      </trkpt>
      <trkpt lat="42.83387" lon="0.15586">
        <ele>2096.3999023438</ele>
        <time>2019-05-05T08:59:45.000Z</time>
      </trkpt>
      <trkpt lat="42.83391" lon="0.15577">
        <ele>2097.3999023438</ele>
        <time>2019-05-05T09:00:26.000Z</time>
      </trkpt>
      <trkpt lat="42.8339" lon="0.15571">
        <ele>2097.1999511719</ele>
        <time>2019-05-05T09:00:41.000Z</time>
      </trkpt>
      <trkpt lat="42.83388" lon="0.1556">
        <ele>2097</ele>
        <time>2019-05-05T09:00:53.000Z</time>
      </trkpt>
      <trkpt lat="42.83388" lon="0.15559">
        <ele>2096.8000488281</ele>
        <time>2019-05-05T09:00:55.000Z</time>
      </trkpt>
      <trkpt lat="42.83388" lon="0.15551">
        <ele>2097</ele>
        <time>2019-05-05T09:01:05.000Z</time>
      </trkpt>
      <trkpt lat="42.83389" lon="0.15544">
        <ele>2097.3999023438</ele>
        <time>2019-05-05T09:01:11.000Z</time>
      </trkpt>
      <trkpt lat="42.83388" lon="0.15532">
        <ele>2097</ele>
        <time>2019-05-05T09:01:29.000Z</time>
      </trkpt>
      <trkpt lat="42.83393" lon="0.15509">
        <ele>2097.6000976562</ele>
        <time>2019-05-05T09:02:31.000Z</time>
      </trkpt>
      <trkpt lat="42.83392" lon="0.15498">
        <ele>2097.1999511719</ele>
        <time>2019-05-05T09:02:39.000Z</time>
      </trkpt>
      <trkpt lat="42.83392" lon="0.15497">
        <ele>2097.1999511719</ele>
        <time>2019-05-05T09:02:40.000Z</time>
      </trkpt>
      <trkpt lat="42.83391" lon="0.15485">
        <ele>2096.8000488281</ele>
        <time>2019-05-05T09:02:50.000Z</time>
      </trkpt>
      <trkpt lat="42.83391" lon="0.15483">
        <ele>2096.8000488281</ele>
        <time>2019-05-05T09:02:52.000Z</time>
      </trkpt>
      <trkpt lat="42.83392" lon="0.15426">
        <ele>2097.1999511719</ele>
        <time>2019-05-05T09:04:09.000Z</time>
      </trkpt>
      <trkpt lat="42.83379" lon="0.15392">
        <ele>2094.3999023438</ele>
        <time>2019-05-05T09:05:09.000Z</time>
      </trkpt>
      <trkpt lat="42.83375" lon="0.15388">
        <ele>2093.6000976562</ele>
        <time>2019-05-05T09:05:14.000Z</time>
      </trkpt>
      <trkpt lat="42.83368" lon="0.15376">
        <ele>2092</ele>
        <time>2019-05-05T09:05:27.000Z</time>
      </trkpt>
      <trkpt lat="42.83368" lon="0.15374">
        <ele>2092</ele>
        <time>2019-05-05T09:05:30.000Z</time>
      </trkpt>
      <trkpt lat="42.83368" lon="0.15372">
        <ele>2092</ele>
        <time>2019-05-05T09:05:32.000Z</time>
      </trkpt>
      <trkpt lat="42.83368" lon="0.15372">
        <ele>2092</ele>
        <time>2019-05-05T09:05:33.000Z</time>
      </trkpt>
      <trkpt lat="42.83368" lon="0.15372">
        <ele>2092.1999511719</ele>
        <time>2019-05-05T09:05:34.000Z</time>
      </trkpt>
      <trkpt lat="42.83369" lon="0.15371">
        <ele>2092.1999511719</ele>
        <time>2019-05-05T09:05:35.000Z</time>
      </trkpt>
      <trkpt lat="42.83368" lon="0.1537">
        <ele>2092</ele>
        <time>2019-05-05T09:05:37.000Z</time>
      </trkpt>
      <trkpt lat="42.83367" lon="0.15368">
        <ele>2091.8000488281</ele>
        <time>2019-05-05T09:05:39.000Z</time>
      </trkpt>
      <trkpt lat="42.83366" lon="0.15367">
        <ele>2091.6000976562</ele>
        <time>2019-05-05T09:05:40.000Z</time>
      </trkpt>
      <trkpt lat="42.83365" lon="0.15366">
        <ele>2091.3999023438</ele>
        <time>2019-05-05T09:05:41.000Z</time>
      </trkpt>
      <trkpt lat="42.83362" lon="0.15356">
        <ele>2090.8000488281</ele>
        <time>2019-05-05T09:05:49.000Z</time>
      </trkpt>
      <trkpt lat="42.83361" lon="0.15355">
        <ele>2090.6000976562</ele>
        <time>2019-05-05T09:05:50.000Z</time>
      </trkpt>
      <trkpt lat="42.83361" lon="0.15353">
        <ele>2090.3999023438</ele>
        <time>2019-05-05T09:05:51.000Z</time>
      </trkpt>
      <trkpt lat="42.83358" lon="0.15348">
        <ele>2090</ele>
        <time>2019-05-05T09:05:55.000Z</time>
      </trkpt>
      <trkpt lat="42.83353" lon="0.15343">
        <ele>2088.8000488281</ele>
        <time>2019-05-05T09:06:00.000Z</time>
      </trkpt>
      <trkpt lat="42.83349" lon="0.15339">
        <ele>2088</ele>
        <time>2019-05-05T09:06:03.000Z</time>
      </trkpt>
      <trkpt lat="42.83348" lon="0.15333">
        <ele>2087.8000488281</ele>
        <time>2019-05-05T09:06:09.000Z</time>
      </trkpt>
      <trkpt lat="42.8335" lon="0.15333">
        <ele>2088.1999511719</ele>
        <time>2019-05-05T09:06:11.000Z</time>
      </trkpt>
      <trkpt lat="42.83353" lon="0.15328">
        <ele>2089</ele>
        <time>2019-05-05T09:06:20.000Z</time>
      </trkpt>
      <trkpt lat="42.83352" lon="0.15322">
        <ele>2088.6000976562</ele>
        <time>2019-05-05T09:06:27.000Z</time>
      </trkpt>
      <trkpt lat="42.83348" lon="0.15318">
        <ele>2087.8000488281</ele>
        <time>2019-05-05T09:06:34.000Z</time>
      </trkpt>
      <trkpt lat="42.83348" lon="0.15317">
        <ele>2087.8000488281</ele>
        <time>2019-05-05T09:06:40.000Z</time>
      </trkpt>
      <trkpt lat="42.83346" lon="0.15318">
        <ele>2087.3999023438</ele>
        <time>2019-05-05T09:06:57.000Z</time>
      </trkpt>
      <trkpt lat="42.83345" lon="0.15313">
        <ele>2087.1999511719</ele>
        <time>2019-05-05T09:07:00.000Z</time>
      </trkpt>
      <trkpt lat="42.83345" lon="0.15312">
        <ele>2087.1999511719</ele>
        <time>2019-05-05T09:07:01.000Z</time>
      </trkpt>
      <trkpt lat="42.83342" lon="0.15306">
        <ele>2086.6000976562</ele>
        <time>2019-05-05T09:07:07.000Z</time>
      </trkpt>
      <trkpt lat="42.83338" lon="0.15295">
        <ele>2086</ele>
        <time>2019-05-05T09:07:17.000Z</time>
      </trkpt>
      <trkpt lat="42.83337" lon="0.15292">
        <ele>2086</ele>
        <time>2019-05-05T09:07:26.000Z</time>
      </trkpt>
      <trkpt lat="42.83331" lon="0.15284">
        <ele>2085.8000488281</ele>
        <time>2019-05-05T09:07:40.000Z</time>
      </trkpt>
      <trkpt lat="42.83303" lon="0.15238">
        <ele>2085.6000976562</ele>
        <time>2019-05-05T09:08:30.000Z</time>
      </trkpt>
      <trkpt lat="42.83302" lon="0.15233">
        <ele>2085.8000488281</ele>
        <time>2019-05-05T09:08:34.000Z</time>
      </trkpt>
      <trkpt lat="42.83308" lon="0.15193">
        <ele>2088.3999023438</ele>
        <time>2019-05-05T09:09:10.000Z</time>
      </trkpt>
      <trkpt lat="42.83305" lon="0.15193">
        <ele>2088</ele>
        <time>2019-05-05T09:09:15.000Z</time>
      </trkpt>
      <trkpt lat="42.83304" lon="0.15192">
        <ele>2088</ele>
        <time>2019-05-05T09:09:16.000Z</time>
      </trkpt>
      <trkpt lat="42.83304" lon="0.15191">
        <ele>2088</ele>
        <time>2019-05-05T09:09:17.000Z</time>
      </trkpt>
      <trkpt lat="42.83303" lon="0.1519">
        <ele>2088</ele>
        <time>2019-05-05T09:09:18.000Z</time>
      </trkpt>
      <trkpt lat="42.83302" lon="0.15189">
        <ele>2088</ele>
        <time>2019-05-05T09:09:19.000Z</time>
      </trkpt>
      <trkpt lat="42.83302" lon="0.15188">
        <ele>2088</ele>
        <time>2019-05-05T09:09:20.000Z</time>
      </trkpt>
      <trkpt lat="42.83301" lon="0.15187">
        <ele>2088</ele>
        <time>2019-05-05T09:09:21.000Z</time>
      </trkpt>
      <trkpt lat="42.83299" lon="0.15185">
        <ele>2088</ele>
        <time>2019-05-05T09:09:28.000Z</time>
      </trkpt>
      <trkpt lat="42.83299" lon="0.15184">
        <ele>2088</ele>
        <time>2019-05-05T09:09:30.000Z</time>
      </trkpt>
      <trkpt lat="42.83298" lon="0.15184">
        <ele>2087.8000488281</ele>
        <time>2019-05-05T09:09:35.000Z</time>
      </trkpt>
      <trkpt lat="42.83298" lon="0.15184">
        <ele>2087.8000488281</ele>
        <time>2019-05-05T09:09:42.000Z</time>
      </trkpt>
      <trkpt lat="42.83299" lon="0.15183">
        <ele>2088</ele>
        <time>2019-05-05T09:09:50.000Z</time>
      </trkpt>
      <trkpt lat="42.83298" lon="0.15184">
        <ele>2088</ele>
        <time>2019-05-05T09:09:52.000Z</time>
      </trkpt>
      <trkpt lat="42.83298" lon="0.15185">
        <ele>2087.8000488281</ele>
        <time>2019-05-05T09:10:06.000Z</time>
      </trkpt>
      <trkpt lat="42.83298" lon="0.15185">
        <ele>2087.8000488281</ele>
        <time>2019-05-05T09:10:10.000Z</time>
      </trkpt>
      <trkpt lat="42.83298" lon="0.15188">
        <ele>2087.6000976562</ele>
        <time>2019-05-05T09:11:06.000Z</time>
      </trkpt>
      <trkpt lat="42.83299" lon="0.15187">
        <ele>2087.8000488281</ele>
        <time>2019-05-05T09:11:14.000Z</time>
      </trkpt>
      <trkpt lat="42.83299" lon="0.15187">
        <ele>2087.8000488281</ele>
        <time>2019-05-05T09:11:17.000Z</time>
      </trkpt>
      <trkpt lat="42.83299" lon="0.15187">
        <ele>2087.8000488281</ele>
        <time>2019-05-05T09:11:23.000Z</time>
      </trkpt>
      <trkpt lat="42.833" lon="0.15185">
        <ele>2088</ele>
        <time>2019-05-05T09:11:33.000Z</time>
      </trkpt>
      <trkpt lat="42.833" lon="0.15184">
        <ele>2088</ele>
        <time>2019-05-05T09:11:40.000Z</time>
      </trkpt>
      <trkpt lat="42.83301" lon="0.15184">
        <ele>2088</ele>
        <time>2019-05-05T09:11:54.000Z</time>
      </trkpt>
      <trkpt lat="42.833" lon="0.15184">
        <ele>2088</ele>
        <time>2019-05-05T09:12:09.000Z</time>
      </trkpt>
      <trkpt lat="42.833" lon="0.15185">
        <ele>2088</ele>
        <time>2019-05-05T09:12:24.000Z</time>
      </trkpt>
      <trkpt lat="42.833" lon="0.15185">
        <ele>2088</ele>
        <time>2019-05-05T09:12:35.000Z</time>
      </trkpt>
      <trkpt lat="42.83298" lon="0.15187">
        <ele>2087.8000488281</ele>
        <time>2019-05-05T09:12:46.000Z</time>
      </trkpt>
      <trkpt lat="42.83299" lon="0.15188">
        <ele>2087.8000488281</ele>
        <time>2019-05-05T09:12:51.000Z</time>
      </trkpt>
      <trkpt lat="42.83299" lon="0.15187">
        <ele>2087.8000488281</ele>
        <time>2019-05-05T09:12:59.000Z</time>
      </trkpt>
      <trkpt lat="42.83299" lon="0.15186">
        <ele>2087.8000488281</ele>
        <time>2019-05-05T09:13:04.000Z</time>
      </trkpt>
      <trkpt lat="42.83298" lon="0.15188">
        <ele>2087.6000976562</ele>
        <time>2019-05-05T09:13:31.000Z</time>
      </trkpt>
      <trkpt lat="42.83297" lon="0.15188">
        <ele>2087.6000976562</ele>
        <time>2019-05-05T09:13:32.000Z</time>
      </trkpt>
      <trkpt lat="42.83297" lon="0.15188">
        <ele>2087.6000976562</ele>
        <time>2019-05-05T09:13:33.000Z</time>
      </trkpt>
      <trkpt lat="42.83298" lon="0.15188">
        <ele>2087.6000976562</ele>
        <time>2019-05-05T09:13:35.000Z</time>
      </trkpt>
      <trkpt lat="42.83298" lon="0.15188">
        <ele>2087.6000976562</ele>
        <time>2019-05-05T09:13:36.000Z</time>
      </trkpt>
      <trkpt lat="42.83298" lon="0.15189">
        <ele>2087.6000976562</ele>
        <time>2019-05-05T09:13:37.000Z</time>
      </trkpt>
      <trkpt lat="42.833" lon="0.15187">
        <ele>2087.8000488281</ele>
        <time>2019-05-05T09:13:49.000Z</time>
      </trkpt>
      <trkpt lat="42.83303" lon="0.15184">
        <ele>2088.1999511719</ele>
        <time>2019-05-05T09:13:53.000Z</time>
      </trkpt>
      <trkpt lat="42.83303" lon="0.15184">
        <ele>2088.1999511719</ele>
        <time>2019-05-05T09:13:57.000Z</time>
      </trkpt>
      <trkpt lat="42.83303" lon="0.15184">
        <ele>2088.1999511719</ele>
        <time>2019-05-05T09:14:02.000Z</time>
      </trkpt>
      <trkpt lat="42.833" lon="0.15185">
        <ele>2088</ele>
        <time>2019-05-05T09:14:08.000Z</time>
      </trkpt>
      <trkpt lat="42.83299" lon="0.15185">
        <ele>2087.8000488281</ele>
        <time>2019-05-05T09:14:18.000Z</time>
      </trkpt>
      <trkpt lat="42.83297" lon="0.15186">
        <ele>2087.6000976562</ele>
        <time>2019-05-05T09:15:24.000Z</time>
      </trkpt>
      <trkpt lat="42.83298" lon="0.15185">
        <ele>2087.8000488281</ele>
        <time>2019-05-05T09:16:53.000Z</time>
      </trkpt>
      <trkpt lat="42.83298" lon="0.15185">
        <ele>2087.8000488281</ele>
        <time>2019-05-05T09:16:55.000Z</time>
      </trkpt>
      <trkpt lat="42.83297" lon="0.15186">
        <ele>2087.6000976562</ele>
        <time>2019-05-05T09:17:00.000Z</time>
      </trkpt>
      <trkpt lat="42.83297" lon="0.15186">
        <ele>2087.6000976562</ele>
        <time>2019-05-05T09:17:05.000Z</time>
      </trkpt>
      <trkpt lat="42.83298" lon="0.15186">
        <ele>2087.8000488281</ele>
        <time>2019-05-05T09:17:06.000Z</time>
      </trkpt>
      <trkpt lat="42.83298" lon="0.15186">
        <ele>2087.8000488281</ele>
        <time>2019-05-05T09:17:07.000Z</time>
      </trkpt>
      <trkpt lat="42.83298" lon="0.15186">
        <ele>2087.8000488281</ele>
        <time>2019-05-05T09:17:08.000Z</time>
      </trkpt>
      <trkpt lat="42.83298" lon="0.15186">
        <ele>2087.8000488281</ele>
        <time>2019-05-05T09:17:09.000Z</time>
      </trkpt>
      <trkpt lat="42.83298" lon="0.15186">
        <ele>2087.8000488281</ele>
        <time>2019-05-05T09:17:16.000Z</time>
      </trkpt>
      <trkpt lat="42.83298" lon="0.15186">
        <ele>2087.8000488281</ele>
        <time>2019-05-05T09:17:17.000Z</time>
      </trkpt>
      <trkpt lat="42.83298" lon="0.15187">
        <ele>2087.8000488281</ele>
        <time>2019-05-05T09:17:18.000Z</time>
      </trkpt>
      <trkpt lat="42.83298" lon="0.15186">
        <ele>2087.8000488281</ele>
        <time>2019-05-05T09:17:22.000Z</time>
      </trkpt>
      <trkpt lat="42.83298" lon="0.15186">
        <ele>2087.8000488281</ele>
        <time>2019-05-05T09:17:24.000Z</time>
      </trkpt>
      <trkpt lat="42.83298" lon="0.15187">
        <ele>2087.8000488281</ele>
        <time>2019-05-05T09:17:26.000Z</time>
      </trkpt>
      <trkpt lat="42.83298" lon="0.15187">
        <ele>2087.8000488281</ele>
        <time>2019-05-05T09:17:27.000Z</time>
      </trkpt>
      <trkpt lat="42.83298" lon="0.15188">
        <ele>2087.6000976562</ele>
        <time>2019-05-05T09:17:49.000Z</time>
      </trkpt>
      <trkpt lat="42.83298" lon="0.15188">
        <ele>2087.6000976562</ele>
        <time>2019-05-05T09:17:51.000Z</time>
      </trkpt>
      <trkpt lat="42.83298" lon="0.15188">
        <ele>2087.6000976562</ele>
        <time>2019-05-05T09:17:53.000Z</time>
      </trkpt>
      <trkpt lat="42.83297" lon="0.15188">
        <ele>2087.6000976562</ele>
        <time>2019-05-05T09:17:56.000Z</time>
      </trkpt>
      <trkpt lat="42.83298" lon="0.15187">
        <ele>2087.6000976562</ele>
        <time>2019-05-05T09:18:00.000Z</time>
      </trkpt>
      <trkpt lat="42.83299" lon="0.15187">
        <ele>2087.8000488281</ele>
        <time>2019-05-05T09:18:01.000Z</time>
      </trkpt>
      <trkpt lat="42.83299" lon="0.15185">
        <ele>2088</ele>
        <time>2019-05-05T09:18:24.000Z</time>
      </trkpt>
      <trkpt lat="42.833" lon="0.15184">
        <ele>2088</ele>
        <time>2019-05-05T09:19:22.000Z</time>
      </trkpt>
      <trkpt lat="42.833" lon="0.15184">
        <ele>2088</ele>
        <time>2019-05-05T09:19:27.000Z</time>
      </trkpt>
      <trkpt lat="42.833" lon="0.15184">
        <ele>2088</ele>
        <time>2019-05-05T09:19:28.000Z</time>
      </trkpt>
      <trkpt lat="42.833" lon="0.15184">
        <ele>2088</ele>
        <time>2019-05-05T09:19:29.000Z</time>
      </trkpt>
      <trkpt lat="42.833" lon="0.15184">
        <ele>2088</ele>
        <time>2019-05-05T09:19:34.000Z</time>
      </trkpt>
      <trkpt lat="42.833" lon="0.15184">
        <ele>2088</ele>
        <time>2019-05-05T09:19:49.000Z</time>
      </trkpt>
      <trkpt lat="42.83301" lon="0.15184">
        <ele>2088</ele>
        <time>2019-05-05T09:19:56.000Z</time>
      </trkpt>
      <trkpt lat="42.833" lon="0.15184">
        <ele>2088</ele>
        <time>2019-05-05T09:19:59.000Z</time>
      </trkpt>
      <trkpt lat="42.833" lon="0.15184">
        <ele>2088</ele>
        <time>2019-05-05T09:20:01.000Z</time>
      </trkpt>
      <trkpt lat="42.833" lon="0.15185">
        <ele>2088</ele>
        <time>2019-05-05T09:20:03.000Z</time>
      </trkpt>
      <trkpt lat="42.833" lon="0.15185">
        <ele>2088</ele>
        <time>2019-05-05T09:20:08.000Z</time>
      </trkpt>
      <trkpt lat="42.83299" lon="0.15186">
        <ele>2087.8000488281</ele>
        <time>2019-05-05T09:20:13.000Z</time>
      </trkpt>
      <trkpt lat="42.833" lon="0.15185">
        <ele>2088</ele>
        <time>2019-05-05T09:20:16.000Z</time>
      </trkpt>
      <trkpt lat="42.83299" lon="0.15185">
        <ele>2087.8000488281</ele>
        <time>2019-05-05T09:20:21.000Z</time>
      </trkpt>
      <trkpt lat="42.83299" lon="0.15185">
        <ele>2087.8000488281</ele>
        <time>2019-05-05T09:20:26.000Z</time>
      </trkpt>
      <trkpt lat="42.83298" lon="0.15186">
        <ele>2087.8000488281</ele>
        <time>2019-05-05T09:20:33.000Z</time>
      </trkpt>
      <trkpt lat="42.83298" lon="0.15186">
        <ele>2087.8000488281</ele>
        <time>2019-05-05T09:20:38.000Z</time>
      </trkpt>
      <trkpt lat="42.83298" lon="0.15187">
        <ele>2087.8000488281</ele>
        <time>2019-05-05T09:20:39.000Z</time>
      </trkpt>
      <trkpt lat="42.83299" lon="0.15187">
        <ele>2087.8000488281</ele>
        <time>2019-05-05T09:20:44.000Z</time>
      </trkpt>
      <trkpt lat="42.83299" lon="0.15185">
        <ele>2088</ele>
        <time>2019-05-05T09:20:48.000Z</time>
      </trkpt>
      <trkpt lat="42.83299" lon="0.15186">
        <ele>2087.8000488281</ele>
        <time>2019-05-05T09:21:00.000Z</time>
      </trkpt>
      <trkpt lat="42.83299" lon="0.15186">
        <ele>2087.8000488281</ele>
        <time>2019-05-05T09:21:03.000Z</time>
      </trkpt>
      <trkpt lat="42.83299" lon="0.15187">
        <ele>2087.8000488281</ele>
        <time>2019-05-05T09:21:06.000Z</time>
      </trkpt>
      <trkpt lat="42.83299" lon="0.15187">
        <ele>2087.8000488281</ele>
        <time>2019-05-05T09:21:11.000Z</time>
      </trkpt>
      <trkpt lat="42.83294" lon="0.15183">
        <ele>2087.6000976562</ele>
        <time>2019-05-05T09:23:26.000Z</time>
      </trkpt>
      <trkpt lat="42.83295" lon="0.15183">
        <ele>2087.6000976562</ele>
        <time>2019-05-05T09:23:35.000Z</time>
      </trkpt>
      <trkpt lat="42.83294" lon="0.15184">
        <ele>2087.6000976562</ele>
        <time>2019-05-05T09:23:42.000Z</time>
      </trkpt>
      <trkpt lat="42.83295" lon="0.15184">
        <ele>2087.6000976562</ele>
        <time>2019-05-05T09:23:54.000Z</time>
      </trkpt>
      <trkpt lat="42.83295" lon="0.15184">
        <ele>2087.6000976562</ele>
        <time>2019-05-05T09:24:05.000Z</time>
      </trkpt>
      <trkpt lat="42.83295" lon="0.15184">
        <ele>2087.6000976562</ele>
        <time>2019-05-05T09:24:16.000Z</time>
      </trkpt>
      <trkpt lat="42.83295" lon="0.15184">
        <ele>2087.6000976562</ele>
        <time>2019-05-05T09:24:17.000Z</time>
      </trkpt>
      <trkpt lat="42.83295" lon="0.15183">
        <ele>2087.6000976562</ele>
        <time>2019-05-05T09:24:19.000Z</time>
      </trkpt>
      <trkpt lat="42.83295" lon="0.15181">
        <ele>2087.8000488281</ele>
        <time>2019-05-05T09:24:32.000Z</time>
      </trkpt>
      <trkpt lat="42.83294" lon="0.15176">
        <ele>2087.8000488281</ele>
        <time>2019-05-05T09:24:36.000Z</time>
      </trkpt>
      <trkpt lat="42.83294" lon="0.15175">
        <ele>2088</ele>
        <time>2019-05-05T09:24:38.000Z</time>
      </trkpt>
      <trkpt lat="42.83294" lon="0.15175">
        <ele>2088</ele>
        <time>2019-05-05T09:24:42.000Z</time>
      </trkpt>
      <trkpt lat="42.83294" lon="0.15176">
        <ele>2087.8000488281</ele>
        <time>2019-05-05T09:24:47.000Z</time>
      </trkpt>
      <trkpt lat="42.83294" lon="0.15176">
        <ele>2087.8000488281</ele>
        <time>2019-05-05T09:24:50.000Z</time>
      </trkpt>
      <trkpt lat="42.83294" lon="0.15176">
        <ele>2087.8000488281</ele>
        <time>2019-05-05T09:24:51.000Z</time>
      </trkpt>
      <trkpt lat="42.83294" lon="0.15176">
        <ele>2087.8000488281</ele>
        <time>2019-05-05T09:24:54.000Z</time>
      </trkpt>
      <trkpt lat="42.83294" lon="0.15176">
        <ele>2087.8000488281</ele>
        <time>2019-05-05T09:24:57.000Z</time>
      </trkpt>
      <trkpt lat="42.83292" lon="0.15175">
        <ele>2087.8000488281</ele>
        <time>2019-05-05T09:25:04.000Z</time>
      </trkpt>
      <trkpt lat="42.83292" lon="0.15174">
        <ele>2087.8000488281</ele>
        <time>2019-05-05T09:25:12.000Z</time>
      </trkpt>
      <trkpt lat="42.8329" lon="0.15173">
        <ele>2087.8000488281</ele>
        <time>2019-05-05T09:25:15.000Z</time>
      </trkpt>
      <trkpt lat="42.83289" lon="0.15169">
        <ele>2087.8000488281</ele>
        <time>2019-05-05T09:25:19.000Z</time>
      </trkpt>
      <trkpt lat="42.83288" lon="0.15168">
        <ele>2087.8000488281</ele>
        <time>2019-05-05T09:25:20.000Z</time>
      </trkpt>
      <trkpt lat="42.83288" lon="0.15167">
        <ele>2087.8000488281</ele>
        <time>2019-05-05T09:25:24.000Z</time>
      </trkpt>
      <trkpt lat="42.83288" lon="0.15167">
        <ele>2087.8000488281</ele>
        <time>2019-05-05T09:25:30.000Z</time>
      </trkpt>
      <trkpt lat="42.83288" lon="0.15167">
        <ele>2087.8000488281</ele>
        <time>2019-05-05T09:25:36.000Z</time>
      </trkpt>
      <trkpt lat="42.83288" lon="0.15166">
        <ele>2087.8000488281</ele>
        <time>2019-05-05T09:25:51.000Z</time>
      </trkpt>
      <trkpt lat="42.83289" lon="0.15167">
        <ele>2087.8000488281</ele>
        <time>2019-05-05T09:25:55.000Z</time>
      </trkpt>
      <trkpt lat="42.83289" lon="0.15167">
        <ele>2087.8000488281</ele>
        <time>2019-05-05T09:25:56.000Z</time>
      </trkpt>
      <trkpt lat="42.83288" lon="0.15167">
        <ele>2087.8000488281</ele>
        <time>2019-05-05T09:25:58.000Z</time>
      </trkpt>
      <trkpt lat="42.83288" lon="0.15167">
        <ele>2087.8000488281</ele>
        <time>2019-05-05T09:25:59.000Z</time>
      </trkpt>
      <trkpt lat="42.83289" lon="0.15167">
        <ele>2087.8000488281</ele>
        <time>2019-05-05T09:26:01.000Z</time>
      </trkpt>
      <trkpt lat="42.83289" lon="0.15168">
        <ele>2087.8000488281</ele>
        <time>2019-05-05T09:26:05.000Z</time>
      </trkpt>
      <trkpt lat="42.83289" lon="0.15168">
        <ele>2087.8000488281</ele>
        <time>2019-05-05T09:26:06.000Z</time>
      </trkpt>
      <trkpt lat="42.83289" lon="0.15168">
        <ele>2087.8000488281</ele>
        <time>2019-05-05T09:26:07.000Z</time>
      </trkpt>
      <trkpt lat="42.83289" lon="0.15168">
        <ele>2087.8000488281</ele>
        <time>2019-05-05T09:26:08.000Z</time>
      </trkpt>
      <trkpt lat="42.83289" lon="0.15168">
        <ele>2087.8000488281</ele>
        <time>2019-05-05T09:26:10.000Z</time>
      </trkpt>
      <trkpt lat="42.83289" lon="0.15168">
        <ele>2087.8000488281</ele>
        <time>2019-05-05T09:26:12.000Z</time>
      </trkpt>
      <trkpt lat="42.83289" lon="0.15168">
        <ele>2087.8000488281</ele>
        <time>2019-05-05T09:26:15.000Z</time>
      </trkpt>
      <trkpt lat="42.83289" lon="0.15166">
        <ele>2088</ele>
        <time>2019-05-05T09:26:20.000Z</time>
      </trkpt>
      <trkpt lat="42.83289" lon="0.15166">
        <ele>2088</ele>
        <time>2019-05-05T09:26:21.000Z</time>
      </trkpt>
      <trkpt lat="42.83289" lon="0.15165">
        <ele>2088</ele>
        <time>2019-05-05T09:26:22.000Z</time>
      </trkpt>
      <trkpt lat="42.83289" lon="0.15165">
        <ele>2088</ele>
        <time>2019-05-05T09:26:26.000Z</time>
      </trkpt>
      <trkpt lat="42.83288" lon="0.15166">
        <ele>2088</ele>
        <time>2019-05-05T09:26:30.000Z</time>
      </trkpt>
      <trkpt lat="42.83288" lon="0.15166">
        <ele>2087.8000488281</ele>
        <time>2019-05-05T09:26:31.000Z</time>
      </trkpt>
      <trkpt lat="42.83288" lon="0.15167">
        <ele>2087.8000488281</ele>
        <time>2019-05-05T09:26:33.000Z</time>
      </trkpt>
      <trkpt lat="42.83288" lon="0.15167">
        <ele>2087.8000488281</ele>
        <time>2019-05-05T09:26:34.000Z</time>
      </trkpt>
      <trkpt lat="42.83286" lon="0.15167">
        <ele>2087.6000976562</ele>
        <time>2019-05-05T09:26:43.000Z</time>
      </trkpt>
      <trkpt lat="42.83286" lon="0.15166">
        <ele>2087.6000976562</ele>
        <time>2019-05-05T09:26:54.000Z</time>
      </trkpt>
      <trkpt lat="42.83286" lon="0.15166">
        <ele>2087.8000488281</ele>
        <time>2019-05-05T09:26:57.000Z</time>
      </trkpt>
      <trkpt lat="42.83285" lon="0.15163">
        <ele>2087.8000488281</ele>
        <time>2019-05-05T09:27:03.000Z</time>
      </trkpt>
      <trkpt lat="42.83284" lon="0.15159">
        <ele>2087.8000488281</ele>
        <time>2019-05-05T09:27:07.000Z</time>
      </trkpt>
      <trkpt lat="42.83284" lon="0.15154">
        <ele>2088.1999511719</ele>
        <time>2019-05-05T09:27:10.000Z</time>
      </trkpt>
      <trkpt lat="42.83285" lon="0.15144">
        <ele>2088.6000976562</ele>
        <time>2019-05-05T09:27:22.000Z</time>
      </trkpt>
      <trkpt lat="42.83286" lon="0.15138">
        <ele>2089</ele>
        <time>2019-05-05T09:27:32.000Z</time>
      </trkpt>
      <trkpt lat="42.83284" lon="0.15138">
        <ele>2089</ele>
        <time>2019-05-05T09:27:40.000Z</time>
      </trkpt>
      <trkpt lat="42.83285" lon="0.15121">
        <ele>2089.6000976562</ele>
        <time>2019-05-05T09:28:03.000Z</time>
      </trkpt>
      <trkpt lat="42.83286" lon="0.15118">
        <ele>2089.6000976562</ele>
        <time>2019-05-05T09:28:05.000Z</time>
      </trkpt>
      <trkpt lat="42.83288" lon="0.15112">
        <ele>2089.8000488281</ele>
        <time>2019-05-05T09:28:09.000Z</time>
      </trkpt>
      <trkpt lat="42.83289" lon="0.15111">
        <ele>2090</ele>
        <time>2019-05-05T09:28:12.000Z</time>
      </trkpt>
      <trkpt lat="42.8329" lon="0.1511">
        <ele>2090</ele>
        <time>2019-05-05T09:28:13.000Z</time>
      </trkpt>
      <trkpt lat="42.8329" lon="0.1511">
        <ele>2090.1999511719</ele>
        <time>2019-05-05T09:28:14.000Z</time>
      </trkpt>
      <trkpt lat="42.83292" lon="0.15106">
        <ele>2090.1999511719</ele>
        <time>2019-05-05T09:28:18.000Z</time>
      </trkpt>
      <trkpt lat="42.83292" lon="0.15105">
        <ele>2090.3999023438</ele>
        <time>2019-05-05T09:28:19.000Z</time>
      </trkpt>
      <trkpt lat="42.83294" lon="0.15097">
        <ele>2090.6000976562</ele>
        <time>2019-05-05T09:28:24.000Z</time>
      </trkpt>
      <trkpt lat="42.83295" lon="0.15093">
        <ele>2090.8000488281</ele>
        <time>2019-05-05T09:28:26.000Z</time>
      </trkpt>
      <trkpt lat="42.83296" lon="0.15091">
        <ele>2090.8000488281</ele>
        <time>2019-05-05T09:28:27.000Z</time>
      </trkpt>
      <trkpt lat="42.83296" lon="0.15089">
        <ele>2090.8000488281</ele>
        <time>2019-05-05T09:28:28.000Z</time>
      </trkpt>
      <trkpt lat="42.83302" lon="0.15057">
        <ele>2093.8000488281</ele>
        <time>2019-05-05T09:28:46.000Z</time>
      </trkpt>
      <trkpt lat="42.83303" lon="0.15044">
        <ele>2094.8000488281</ele>
        <time>2019-05-05T09:28:53.000Z</time>
      </trkpt>
      <trkpt lat="42.83318" lon="0.14991">
        <ele>2095.3999023438</ele>
        <time>2019-05-05T09:29:23.000Z</time>
      </trkpt>
      <trkpt lat="42.83322" lon="0.14973">
        <ele>2094.1999511719</ele>
        <time>2019-05-05T09:29:34.000Z</time>
      </trkpt>
      <trkpt lat="42.83323" lon="0.14967">
        <ele>2093.8000488281</ele>
        <time>2019-05-05T09:29:38.000Z</time>
      </trkpt>
      <trkpt lat="42.83326" lon="0.14961">
        <ele>2093.6000976562</ele>
        <time>2019-05-05T09:29:43.000Z</time>
      </trkpt>
      <trkpt lat="42.83329" lon="0.14953">
        <ele>2094.1999511719</ele>
        <time>2019-05-05T09:29:50.000Z</time>
      </trkpt>
      <trkpt lat="42.83329" lon="0.14948">
        <ele>2094.1999511719</ele>
        <time>2019-05-05T09:29:58.000Z</time>
      </trkpt>
      <trkpt lat="42.83329" lon="0.14947">
        <ele>2094.1999511719</ele>
        <time>2019-05-05T09:30:06.000Z</time>
      </trkpt>
      <trkpt lat="42.83328" lon="0.1494">
        <ele>2093.6000976562</ele>
        <time>2019-05-05T09:30:26.000Z</time>
      </trkpt>
      <trkpt lat="42.83328" lon="0.1494">
        <ele>2093.6000976562</ele>
        <time>2019-05-05T09:30:28.000Z</time>
      </trkpt>
      <trkpt lat="42.83328" lon="0.1494">
        <ele>2093.6000976562</ele>
        <time>2019-05-05T09:30:30.000Z</time>
      </trkpt>
      <trkpt lat="42.83328" lon="0.1494">
        <ele>2093.3999023438</ele>
        <time>2019-05-05T09:30:33.000Z</time>
      </trkpt>
      <trkpt lat="42.83328" lon="0.14939">
        <ele>2093.3999023438</ele>
        <time>2019-05-05T09:30:36.000Z</time>
      </trkpt>
      <trkpt lat="42.83328" lon="0.14931">
        <ele>2092.8000488281</ele>
        <time>2019-05-05T09:30:48.000Z</time>
      </trkpt>
      <trkpt lat="42.83328" lon="0.14932">
        <ele>2092.8000488281</ele>
        <time>2019-05-05T09:30:51.000Z</time>
      </trkpt>
      <trkpt lat="42.83328" lon="0.14932">
        <ele>2092.8000488281</ele>
        <time>2019-05-05T09:30:54.000Z</time>
      </trkpt>
      <trkpt lat="42.83328" lon="0.14933">
        <ele>2092.8000488281</ele>
        <time>2019-05-05T09:30:59.000Z</time>
      </trkpt>
      <trkpt lat="42.83328" lon="0.14934">
        <ele>2093</ele>
        <time>2019-05-05T09:31:03.000Z</time>
      </trkpt>
      <trkpt lat="42.83328" lon="0.14934">
        <ele>2093</ele>
        <time>2019-05-05T09:31:08.000Z</time>
      </trkpt>
      <trkpt lat="42.83328" lon="0.14934">
        <ele>2093</ele>
        <time>2019-05-05T09:31:13.000Z</time>
      </trkpt>
      <trkpt lat="42.83328" lon="0.14934">
        <ele>2093</ele>
        <time>2019-05-05T09:31:14.000Z</time>
      </trkpt>
      <trkpt lat="42.83328" lon="0.14934">
        <ele>2093</ele>
        <time>2019-05-05T09:31:15.000Z</time>
      </trkpt>
      <trkpt lat="42.83328" lon="0.14931">
        <ele>2092.8000488281</ele>
        <time>2019-05-05T09:31:18.000Z</time>
      </trkpt>
      <trkpt lat="42.83328" lon="0.1493">
        <ele>2092.6000976562</ele>
        <time>2019-05-05T09:31:21.000Z</time>
      </trkpt>
      <trkpt lat="42.83329" lon="0.14925">
        <ele>2092</ele>
        <time>2019-05-05T09:31:28.000Z</time>
      </trkpt>
      <trkpt lat="42.83334" lon="0.14916">
        <ele>2090.3999023438</ele>
        <time>2019-05-05T09:31:34.000Z</time>
      </trkpt>
      <trkpt lat="42.83338" lon="0.14911">
        <ele>2089.3999023438</ele>
        <time>2019-05-05T09:31:38.000Z</time>
      </trkpt>
      <trkpt lat="42.83342" lon="0.14903">
        <ele>2089.1999511719</ele>
        <time>2019-05-05T09:31:43.000Z</time>
      </trkpt>
      <trkpt lat="42.83342" lon="0.14902">
        <ele>2089.3999023438</ele>
        <time>2019-05-05T09:31:44.000Z</time>
      </trkpt>
      <trkpt lat="42.83345" lon="0.14897">
        <ele>2089.8000488281</ele>
        <time>2019-05-05T09:31:47.000Z</time>
      </trkpt>
      <trkpt lat="42.83347" lon="0.14896">
        <ele>2090</ele>
        <time>2019-05-05T09:31:48.000Z</time>
      </trkpt>
      <trkpt lat="42.8335" lon="0.14892">
        <ele>2090.6000976562</ele>
        <time>2019-05-05T09:31:51.000Z</time>
      </trkpt>
      <trkpt lat="42.83361" lon="0.1488">
        <ele>2091</ele>
        <time>2019-05-05T09:32:01.000Z</time>
      </trkpt>
      <trkpt lat="42.83374" lon="0.14865">
        <ele>2094</ele>
        <time>2019-05-05T09:32:13.000Z</time>
      </trkpt>
      <trkpt lat="42.83379" lon="0.14861">
        <ele>2095</ele>
        <time>2019-05-05T09:32:17.000Z</time>
      </trkpt>
      <trkpt lat="42.83381" lon="0.14858">
        <ele>2095.8000488281</ele>
        <time>2019-05-05T09:32:20.000Z</time>
      </trkpt>
      <trkpt lat="42.83386" lon="0.14853">
        <ele>2097</ele>
        <time>2019-05-05T09:32:25.000Z</time>
      </trkpt>
      <trkpt lat="42.83399" lon="0.1484">
        <ele>2096.8000488281</ele>
        <time>2019-05-05T09:32:41.000Z</time>
      </trkpt>
      <trkpt lat="42.83419" lon="0.14808">
        <ele>2089.8000488281</ele>
        <time>2019-05-05T09:33:10.000Z</time>
      </trkpt>
      <trkpt lat="42.83445" lon="0.14757">
        <ele>2090.1999511719</ele>
        <time>2019-05-05T09:33:46.000Z</time>
      </trkpt>
      <trkpt lat="42.83474" lon="0.14708">
        <ele>2085.6000976562</ele>
        <time>2019-05-05T09:34:25.000Z</time>
      </trkpt>
      <trkpt lat="42.83496" lon="0.14677">
        <ele>2083.8000488281</ele>
        <time>2019-05-05T09:34:50.000Z</time>
      </trkpt>
      <trkpt lat="42.83527" lon="0.14631">
        <ele>2084.1999511719</ele>
        <time>2019-05-05T09:35:27.000Z</time>
      </trkpt>
      <trkpt lat="42.83556" lon="0.14582">
        <ele>2087.1999511719</ele>
        <time>2019-05-05T09:35:57.000Z</time>
      </trkpt>
      <trkpt lat="42.83574" lon="0.14553">
        <ele>2085</ele>
        <time>2019-05-05T09:36:20.000Z</time>
      </trkpt>
      <trkpt lat="42.83597" lon="0.14502">
        <ele>2087.3999023438</ele>
        <time>2019-05-05T09:36:59.000Z</time>
      </trkpt>
      <trkpt lat="42.83597" lon="0.14498">
        <ele>2087.6000976562</ele>
        <time>2019-05-05T09:37:38.000Z</time>
      </trkpt>
      <trkpt lat="42.83597" lon="0.14498">
        <ele>2087.6000976562</ele>
        <time>2019-05-05T09:37:47.000Z</time>
      </trkpt>
      <trkpt lat="42.83597" lon="0.14498">
        <ele>2087.6000976562</ele>
        <time>2019-05-05T09:37:50.000Z</time>
      </trkpt>
      <trkpt lat="42.83597" lon="0.14498">
        <ele>2087.6000976562</ele>
        <time>2019-05-05T09:37:52.000Z</time>
      </trkpt>
      <trkpt lat="42.83597" lon="0.14498">
        <ele>2087.6000976562</ele>
        <time>2019-05-05T09:37:59.000Z</time>
      </trkpt>
      <trkpt lat="42.83597" lon="0.14498">
        <ele>2087.6000976562</ele>
        <time>2019-05-05T09:38:09.000Z</time>
      </trkpt>
      <trkpt lat="42.83599" lon="0.145">
        <ele>2087.8000488281</ele>
        <time>2019-05-05T09:39:06.000Z</time>
      </trkpt>
      <trkpt lat="42.83599" lon="0.145">
        <ele>2087.8000488281</ele>
        <time>2019-05-05T09:39:08.000Z</time>
      </trkpt>
      <trkpt lat="42.83598" lon="0.14498">
        <ele>2087.8000488281</ele>
        <time>2019-05-05T09:39:11.000Z</time>
      </trkpt>
      <trkpt lat="42.836" lon="0.14496">
        <ele>2088</ele>
        <time>2019-05-05T09:39:13.000Z</time>
      </trkpt>
      <trkpt lat="42.836" lon="0.14495">
        <ele>2088.1999511719</ele>
        <time>2019-05-05T09:39:14.000Z</time>
      </trkpt>
      <trkpt lat="42.83602" lon="0.14489">
        <ele>2088.6000976562</ele>
        <time>2019-05-05T09:39:19.000Z</time>
      </trkpt>
      <trkpt lat="42.83604" lon="0.14481">
        <ele>2089.1999511719</ele>
        <time>2019-05-05T09:39:25.000Z</time>
      </trkpt>
      <trkpt lat="42.83604" lon="0.14478">
        <ele>2089.3999023438</ele>
        <time>2019-05-05T09:39:28.000Z</time>
      </trkpt>
      <trkpt lat="42.83607" lon="0.14467">
        <ele>2089</ele>
        <time>2019-05-05T09:39:37.000Z</time>
      </trkpt>
      <trkpt lat="42.83607" lon="0.14465">
        <ele>2088.8000488281</ele>
        <time>2019-05-05T09:39:39.000Z</time>
      </trkpt>
      <trkpt lat="42.83608" lon="0.14461">
        <ele>2088.6000976562</ele>
        <time>2019-05-05T09:39:42.000Z</time>
      </trkpt>
      <trkpt lat="42.83608" lon="0.14438">
        <ele>2090.6000976562</ele>
        <time>2019-05-05T09:40:02.000Z</time>
      </trkpt>
      <trkpt lat="42.8362" lon="0.14412">
        <ele>2093.6000976562</ele>
        <time>2019-05-05T09:40:44.000Z</time>
      </trkpt>
      <trkpt lat="42.83623" lon="0.14395">
        <ele>2095.1999511719</ele>
        <time>2019-05-05T09:41:06.000Z</time>
      </trkpt>
      <trkpt lat="42.83625" lon="0.14382">
        <ele>2096.1999511719</ele>
        <time>2019-05-05T09:41:21.000Z</time>
      </trkpt>
      <trkpt lat="42.83636" lon="0.14374">
        <ele>2098</ele>
        <time>2019-05-05T09:41:43.000Z</time>
      </trkpt>
      <trkpt lat="42.83637" lon="0.14373">
        <ele>2098.3999023438</ele>
        <time>2019-05-05T09:41:45.000Z</time>
      </trkpt>
      <trkpt lat="42.83645" lon="0.14354">
        <ele>2102.8000488281</ele>
        <time>2019-05-05T09:42:52.000Z</time>
      </trkpt>
      <trkpt lat="42.83663" lon="0.14322">
        <ele>2106.8000488281</ele>
        <time>2019-05-05T09:43:20.000Z</time>
      </trkpt>
      <trkpt lat="42.83681" lon="0.14305">
        <ele>2110.3999023438</ele>
        <time>2019-05-05T09:43:40.000Z</time>
      </trkpt>
      <trkpt lat="42.83683" lon="0.14302">
        <ele>2111</ele>
        <time>2019-05-05T09:43:43.000Z</time>
      </trkpt>
      <trkpt lat="42.83685" lon="0.14295">
        <ele>2111.8000488281</ele>
        <time>2019-05-05T09:43:48.000Z</time>
      </trkpt>
      <trkpt lat="42.83694" lon="0.14282">
        <ele>2115.8000488281</ele>
        <time>2019-05-05T09:44:01.000Z</time>
      </trkpt>
      <trkpt lat="42.83695" lon="0.14271">
        <ele>2118.1999511719</ele>
        <time>2019-05-05T09:44:10.000Z</time>
      </trkpt>
      <trkpt lat="42.83697" lon="0.14262">
        <ele>2120.3999023438</ele>
        <time>2019-05-05T09:44:19.000Z</time>
      </trkpt>
      <trkpt lat="42.837" lon="0.14256">
        <ele>2122.1999511719</ele>
        <time>2019-05-05T09:44:28.000Z</time>
      </trkpt>
      <trkpt lat="42.83722" lon="0.14202">
        <ele>2128.1999511719</ele>
        <time>2019-05-05T09:45:29.000Z</time>
      </trkpt>
      <trkpt lat="42.83731" lon="0.14169">
        <ele>2133.3999023438</ele>
        <time>2019-05-05T09:46:03.000Z</time>
      </trkpt>
      <trkpt lat="42.83734" lon="0.14132">
        <ele>2137.1999511719</ele>
        <time>2019-05-05T09:46:40.000Z</time>
      </trkpt>
      <trkpt lat="42.83739" lon="0.14109">
        <ele>2140.3999023438</ele>
        <time>2019-05-05T09:47:12.000Z</time>
      </trkpt>
      <trkpt lat="42.8373" lon="0.14108">
        <ele>2141.6000976562</ele>
        <time>2019-05-05T09:47:22.000Z</time>
      </trkpt>
      <trkpt lat="42.83718" lon="0.14088">
        <ele>2147</ele>
        <time>2019-05-05T09:48:34.000Z</time>
      </trkpt>
      <trkpt lat="42.83719" lon="0.1409">
        <ele>2146.6000976562</ele>
        <time>2019-05-05T09:48:42.000Z</time>
      </trkpt>
      <trkpt lat="42.83719" lon="0.14085">
        <ele>2147.1999511719</ele>
        <time>2019-05-05T09:48:48.000Z</time>
      </trkpt>
      <trkpt lat="42.83719" lon="0.14082">
        <ele>2147.3999023438</ele>
        <time>2019-05-05T09:48:49.000Z</time>
      </trkpt>
      <trkpt lat="42.83719" lon="0.1408">
        <ele>2147.6000976562</ele>
        <time>2019-05-05T09:48:53.000Z</time>
      </trkpt>
      <trkpt lat="42.83719" lon="0.14078">
        <ele>2147.8000488281</ele>
        <time>2019-05-05T09:48:55.000Z</time>
      </trkpt>
      <trkpt lat="42.83719" lon="0.14075">
        <ele>2148.1999511719</ele>
        <time>2019-05-05T09:48:58.000Z</time>
      </trkpt>
      <trkpt lat="42.83719" lon="0.14074">
        <ele>2148.3999023438</ele>
        <time>2019-05-05T09:48:59.000Z</time>
      </trkpt>
      <trkpt lat="42.83718" lon="0.14071">
        <ele>2148.6000976562</ele>
        <time>2019-05-05T09:49:01.000Z</time>
      </trkpt>
      <trkpt lat="42.83719" lon="0.14064">
        <ele>2149.1999511719</ele>
        <time>2019-05-05T09:49:10.000Z</time>
      </trkpt>
      <trkpt lat="42.8372" lon="0.14059">
        <ele>2149.8000488281</ele>
        <time>2019-05-05T09:49:15.000Z</time>
      </trkpt>
      <trkpt lat="42.8372" lon="0.14058">
        <ele>2149.8000488281</ele>
        <time>2019-05-05T09:49:16.000Z</time>
      </trkpt>
      <trkpt lat="42.8372" lon="0.14056">
        <ele>2150</ele>
        <time>2019-05-05T09:49:18.000Z</time>
      </trkpt>
      <trkpt lat="42.83719" lon="0.14055">
        <ele>2150.1999511719</ele>
        <time>2019-05-05T09:49:19.000Z</time>
      </trkpt>
      <trkpt lat="42.8372" lon="0.14041">
        <ele>2152</ele>
        <time>2019-05-05T09:49:30.000Z</time>
      </trkpt>
      <trkpt lat="42.83721" lon="0.14031">
        <ele>2154.6000976562</ele>
        <time>2019-05-05T09:49:41.000Z</time>
      </trkpt>
      <trkpt lat="42.83722" lon="0.14028">
        <ele>2155.1999511719</ele>
        <time>2019-05-05T09:49:43.000Z</time>
      </trkpt>
      <trkpt lat="42.83722" lon="0.14025">
        <ele>2155.8000488281</ele>
        <time>2019-05-05T09:49:45.000Z</time>
      </trkpt>
      <trkpt lat="42.83722" lon="0.14024">
        <ele>2156</ele>
        <time>2019-05-05T09:49:46.000Z</time>
      </trkpt>
      <trkpt lat="42.83723" lon="0.14023">
        <ele>2156.1999511719</ele>
        <time>2019-05-05T09:49:47.000Z</time>
      </trkpt>
      <trkpt lat="42.83724" lon="0.14021">
        <ele>2156.8000488281</ele>
        <time>2019-05-05T09:49:50.000Z</time>
      </trkpt>
      <trkpt lat="42.83724" lon="0.14017">
        <ele>2157.6000976562</ele>
        <time>2019-05-05T09:49:54.000Z</time>
      </trkpt>
      <trkpt lat="42.83725" lon="0.14">
        <ele>2160.6000976562</ele>
        <time>2019-05-05T09:50:11.000Z</time>
      </trkpt>
      <trkpt lat="42.8373" lon="0.13981">
        <ele>2162.8000488281</ele>
        <time>2019-05-05T09:50:35.000Z</time>
      </trkpt>
      <trkpt lat="42.83714" lon="0.13961">
        <ele>2171</ele>
        <time>2019-05-05T09:51:30.000Z</time>
      </trkpt>
      <trkpt lat="42.83706" lon="0.13967">
        <ele>2172.3999023438</ele>
        <time>2019-05-05T09:51:41.000Z</time>
      </trkpt>
      <trkpt lat="42.83697" lon="0.13969">
        <ele>2174.1999511719</ele>
        <time>2019-05-05T09:51:53.000Z</time>
      </trkpt>
      <trkpt lat="42.83672" lon="0.13977">
        <ele>2178.6000976562</ele>
        <time>2019-05-05T09:52:31.000Z</time>
      </trkpt>
      <trkpt lat="42.8366" lon="0.13976">
        <ele>2181.3999023438</ele>
        <time>2019-05-05T09:52:48.000Z</time>
      </trkpt>
      <trkpt lat="42.83636" lon="0.13931">
        <ele>2193</ele>
        <time>2019-05-05T09:54:09.000Z</time>
      </trkpt>
      <trkpt lat="42.8363" lon="0.13922">
        <ele>2194.8000488281</ele>
        <time>2019-05-05T09:54:45.000Z</time>
      </trkpt>
      <trkpt lat="42.8363" lon="0.13922">
        <ele>2194.8000488281</ele>
        <time>2019-05-05T09:54:50.000Z</time>
      </trkpt>
      <trkpt lat="42.8363" lon="0.13923">
        <ele>2194.8000488281</ele>
        <time>2019-05-05T09:54:53.000Z</time>
      </trkpt>
      <trkpt lat="42.8363" lon="0.13924">
        <ele>2194.8000488281</ele>
        <time>2019-05-05T09:55:00.000Z</time>
      </trkpt>
      <trkpt lat="42.83629" lon="0.13926">
        <ele>2194.8000488281</ele>
        <time>2019-05-05T09:55:37.000Z</time>
      </trkpt>
      <trkpt lat="42.83629" lon="0.13919">
        <ele>2195.3999023438</ele>
        <time>2019-05-05T09:56:45.000Z</time>
      </trkpt>
      <trkpt lat="42.83629" lon="0.13919">
        <ele>2195.3999023438</ele>
        <time>2019-05-05T09:56:46.000Z</time>
      </trkpt>
      <trkpt lat="42.83629" lon="0.13919">
        <ele>2195.3999023438</ele>
        <time>2019-05-05T09:56:47.000Z</time>
      </trkpt>
      <trkpt lat="42.83629" lon="0.13918">
        <ele>2195.3999023438</ele>
        <time>2019-05-05T09:56:48.000Z</time>
      </trkpt>
      <trkpt lat="42.83629" lon="0.13918">
        <ele>2195.3999023438</ele>
        <time>2019-05-05T09:56:50.000Z</time>
      </trkpt>
      <trkpt lat="42.8363" lon="0.13919">
        <ele>2195</ele>
        <time>2019-05-05T09:57:19.000Z</time>
      </trkpt>
      <trkpt lat="42.83621" lon="0.13914">
        <ele>2197.3999023438</ele>
        <time>2019-05-05T09:57:31.000Z</time>
      </trkpt>
      <trkpt lat="42.83617" lon="0.1391">
        <ele>2198.6000976562</ele>
        <time>2019-05-05T09:57:36.000Z</time>
      </trkpt>
      <trkpt lat="42.83614" lon="0.13907">
        <ele>2199.3999023438</ele>
        <time>2019-05-05T09:57:41.000Z</time>
      </trkpt>
      <trkpt lat="42.83613" lon="0.13905">
        <ele>2199.8000488281</ele>
        <time>2019-05-05T09:57:42.000Z</time>
      </trkpt>
      <trkpt lat="42.83609" lon="0.13899">
        <ele>2201</ele>
        <time>2019-05-05T09:57:49.000Z</time>
      </trkpt>
      <trkpt lat="42.83605" lon="0.13893">
        <ele>2202.3999023438</ele>
        <time>2019-05-05T09:57:56.000Z</time>
      </trkpt>
      <trkpt lat="42.83605" lon="0.13892">
        <ele>2202.6000976562</ele>
        <time>2019-05-05T09:57:57.000Z</time>
      </trkpt>
      <trkpt lat="42.83603" lon="0.13889">
        <ele>2203.3999023438</ele>
        <time>2019-05-05T09:58:00.000Z</time>
      </trkpt>
      <trkpt lat="42.83602" lon="0.13887">
        <ele>2203.8000488281</ele>
        <time>2019-05-05T09:58:02.000Z</time>
      </trkpt>
      <trkpt lat="42.83601" lon="0.13886">
        <ele>2204</ele>
        <time>2019-05-05T09:58:04.000Z</time>
      </trkpt>
      <trkpt lat="42.83597" lon="0.13882">
        <ele>2205</ele>
        <time>2019-05-05T09:58:09.000Z</time>
      </trkpt>
      <trkpt lat="42.83596" lon="0.1388">
        <ele>2205.6000976562</ele>
        <time>2019-05-05T09:58:12.000Z</time>
      </trkpt>
      <trkpt lat="42.83592" lon="0.13876">
        <ele>2206.3999023438</ele>
        <time>2019-05-05T09:58:16.000Z</time>
      </trkpt>
      <trkpt lat="42.8359" lon="0.13872">
        <ele>2207.1999511719</ele>
        <time>2019-05-05T09:58:20.000Z</time>
      </trkpt>
      <trkpt lat="42.83589" lon="0.13871">
        <ele>2207.3999023438</ele>
        <time>2019-05-05T09:58:21.000Z</time>
      </trkpt>
      <trkpt lat="42.83588" lon="0.13868">
        <ele>2208</ele>
        <time>2019-05-05T09:58:23.000Z</time>
      </trkpt>
      <trkpt lat="42.83586" lon="0.13863">
        <ele>2209.1999511719</ele>
        <time>2019-05-05T09:58:27.000Z</time>
      </trkpt>
      <trkpt lat="42.83585" lon="0.13861">
        <ele>2209.8000488281</ele>
        <time>2019-05-05T09:58:28.000Z</time>
      </trkpt>
      <trkpt lat="42.8358" lon="0.13853">
        <ele>2212</ele>
        <time>2019-05-05T09:58:38.000Z</time>
      </trkpt>
      <trkpt lat="42.83577" lon="0.13845">
        <ele>2214</ele>
        <time>2019-05-05T09:58:48.000Z</time>
      </trkpt>
      <trkpt lat="42.83566" lon="0.13831">
        <ele>2218.8000488281</ele>
        <time>2019-05-05T09:59:05.000Z</time>
      </trkpt>
      <trkpt lat="42.83558" lon="0.138">
        <ele>2224.3999023438</ele>
        <time>2019-05-05T09:59:47.000Z</time>
      </trkpt>
      <trkpt lat="42.83558" lon="0.138">
        <ele>2224.1999511719</ele>
        <time>2019-05-05T09:59:48.000Z</time>
      </trkpt>
      <trkpt lat="42.83558" lon="0.13798">
        <ele>2224.1999511719</ele>
        <time>2019-05-05T09:59:50.000Z</time>
      </trkpt>
      <trkpt lat="42.83559" lon="0.13797">
        <ele>2224.1999511719</ele>
        <time>2019-05-05T09:59:51.000Z</time>
      </trkpt>
      <trkpt lat="42.83559" lon="0.13795">
        <ele>2224.1999511719</ele>
        <time>2019-05-05T09:59:52.000Z</time>
      </trkpt>
      <trkpt lat="42.8356" lon="0.13781">
        <ele>2227</ele>
        <time>2019-05-05T10:00:09.000Z</time>
      </trkpt>
      <trkpt lat="42.83561" lon="0.1378">
        <ele>2226.8000488281</ele>
        <time>2019-05-05T10:00:12.000Z</time>
      </trkpt>
      <trkpt lat="42.83561" lon="0.13778">
        <ele>2227.1999511719</ele>
        <time>2019-05-05T10:00:14.000Z</time>
      </trkpt>
      <trkpt lat="42.83561" lon="0.13777">
        <ele>2227.6000976562</ele>
        <time>2019-05-05T10:00:16.000Z</time>
      </trkpt>
      <trkpt lat="42.8356" lon="0.13775">
        <ele>2228.1999511719</ele>
        <time>2019-05-05T10:00:19.000Z</time>
      </trkpt>
      <trkpt lat="42.8356" lon="0.13769">
        <ele>2229.8000488281</ele>
        <time>2019-05-05T10:00:30.000Z</time>
      </trkpt>
      <trkpt lat="42.83561" lon="0.13765">
        <ele>2230.3999023438</ele>
        <time>2019-05-05T10:00:48.000Z</time>
      </trkpt>
      <trkpt lat="42.8356" lon="0.13765">
        <ele>2230.8000488281</ele>
        <time>2019-05-05T10:00:54.000Z</time>
      </trkpt>
      <trkpt lat="42.83557" lon="0.13769">
        <ele>2231.1999511719</ele>
        <time>2019-05-05T10:01:02.000Z</time>
      </trkpt>
      <trkpt lat="42.83546" lon="0.13776">
        <ele>2233.1999511719</ele>
        <time>2019-05-05T10:01:38.000Z</time>
      </trkpt>
      <trkpt lat="42.83546" lon="0.13768">
        <ele>2235.1999511719</ele>
        <time>2019-05-05T10:01:57.000Z</time>
      </trkpt>
      <trkpt lat="42.83546" lon="0.13756">
        <ele>2238</ele>
        <time>2019-05-05T10:02:13.000Z</time>
      </trkpt>
      <trkpt lat="42.83547" lon="0.13754">
        <ele>2238.1999511719</ele>
        <time>2019-05-05T10:02:16.000Z</time>
      </trkpt>
      <trkpt lat="42.83547" lon="0.13753">
        <ele>2238.1999511719</ele>
        <time>2019-05-05T10:02:17.000Z</time>
      </trkpt>
      <trkpt lat="42.83549" lon="0.13751">
        <ele>2238.1999511719</ele>
        <time>2019-05-05T10:02:18.000Z</time>
      </trkpt>
      <trkpt lat="42.83551" lon="0.13747">
        <ele>2237.8000488281</ele>
        <time>2019-05-05T10:02:29.000Z</time>
      </trkpt>
      <trkpt lat="42.83553" lon="0.13746">
        <ele>2237.3999023438</ele>
        <time>2019-05-05T10:02:33.000Z</time>
      </trkpt>
      <trkpt lat="42.83549" lon="0.13745">
        <ele>2239.1999511719</ele>
        <time>2019-05-05T10:02:42.000Z</time>
      </trkpt>
      <trkpt lat="42.83548" lon="0.13745">
        <ele>2239.3999023438</ele>
        <time>2019-05-05T10:02:43.000Z</time>
      </trkpt>
      <trkpt lat="42.83544" lon="0.13747">
        <ele>2241</ele>
        <time>2019-05-05T10:02:53.000Z</time>
      </trkpt>
      <trkpt lat="42.83542" lon="0.13747">
        <ele>2241.6000976562</ele>
        <time>2019-05-05T10:02:58.000Z</time>
      </trkpt>
      <trkpt lat="42.83542" lon="0.13747">
        <ele>2241.8000488281</ele>
        <time>2019-05-05T10:02:59.000Z</time>
      </trkpt>
      <trkpt lat="42.83541" lon="0.13748">
        <ele>2242</ele>
        <time>2019-05-05T10:03:02.000Z</time>
      </trkpt>
      <trkpt lat="42.83542" lon="0.13748">
        <ele>2241.6000976562</ele>
        <time>2019-05-05T10:03:03.000Z</time>
      </trkpt>
      <trkpt lat="42.83541" lon="0.13748">
        <ele>2242</ele>
        <time>2019-05-05T10:03:08.000Z</time>
      </trkpt>
      <trkpt lat="42.8354" lon="0.13748">
        <ele>2242.3999023438</ele>
        <time>2019-05-05T10:03:11.000Z</time>
      </trkpt>
      <trkpt lat="42.83541" lon="0.13743">
        <ele>2242.8000488281</ele>
        <time>2019-05-05T10:03:17.000Z</time>
      </trkpt>
      <trkpt lat="42.83542" lon="0.13742">
        <ele>2242.8000488281</ele>
        <time>2019-05-05T10:03:18.000Z</time>
      </trkpt>
      <trkpt lat="42.83544" lon="0.13739">
        <ele>2242.6000976562</ele>
        <time>2019-05-05T10:03:22.000Z</time>
      </trkpt>
      <trkpt lat="42.83545" lon="0.13737">
        <ele>2242.1999511719</ele>
        <time>2019-05-05T10:03:25.000Z</time>
      </trkpt>
      <trkpt lat="42.83547" lon="0.13733">
        <ele>2242.1999511719</ele>
        <time>2019-05-05T10:03:35.000Z</time>
      </trkpt>
      <trkpt lat="42.83547" lon="0.13732">
        <ele>2242.3999023438</ele>
        <time>2019-05-05T10:03:36.000Z</time>
      </trkpt>
      <trkpt lat="42.83548" lon="0.13729">
        <ele>2242.6000976562</ele>
        <time>2019-05-05T10:03:42.000Z</time>
      </trkpt>
      <trkpt lat="42.83542" lon="0.1373">
        <ele>2244.6000976562</ele>
        <time>2019-05-05T10:03:57.000Z</time>
      </trkpt>
      <trkpt lat="42.83543" lon="0.13734">
        <ele>2243.8000488281</ele>
        <time>2019-05-05T10:04:06.000Z</time>
      </trkpt>
      <trkpt lat="42.8354" lon="0.13729">
        <ele>2246</ele>
        <time>2019-05-05T10:04:25.000Z</time>
      </trkpt>
      <trkpt lat="42.83542" lon="0.13724">
        <ele>2246</ele>
        <time>2019-05-05T10:04:31.000Z</time>
      </trkpt>
      <trkpt lat="42.83542" lon="0.13724">
        <ele>2246</ele>
        <time>2019-05-05T10:04:32.000Z</time>
      </trkpt>
      <trkpt lat="42.83542" lon="0.13724">
        <ele>2246</ele>
        <time>2019-05-05T10:04:33.000Z</time>
      </trkpt>
      <trkpt lat="42.83545" lon="0.1372">
        <ele>2245.3999023438</ele>
        <time>2019-05-05T10:04:47.000Z</time>
      </trkpt>
      <trkpt lat="42.83542" lon="0.13718">
        <ele>2246.8000488281</ele>
        <time>2019-05-05T10:04:53.000Z</time>
      </trkpt>
      <trkpt lat="42.83538" lon="0.13712">
        <ele>2249.6000976562</ele>
        <time>2019-05-05T10:05:20.000Z</time>
      </trkpt>
      <trkpt lat="42.83539" lon="0.13707">
        <ele>2250.1999511719</ele>
        <time>2019-05-05T10:05:27.000Z</time>
      </trkpt>
      <trkpt lat="42.83532" lon="0.13707">
        <ele>2253.1999511719</ele>
        <time>2019-05-05T10:05:40.000Z</time>
      </trkpt>
      <trkpt lat="42.83522" lon="0.13705">
        <ele>2257.3999023438</ele>
        <time>2019-05-05T10:05:55.000Z</time>
      </trkpt>
      <trkpt lat="42.83519" lon="0.13702">
        <ele>2258.8000488281</ele>
        <time>2019-05-05T10:06:04.000Z</time>
      </trkpt>
      <trkpt lat="42.8352" lon="0.13704">
        <ele>2258.6000976562</ele>
        <time>2019-05-05T10:06:20.000Z</time>
      </trkpt>
      <trkpt lat="42.8352" lon="0.13704">
        <ele>2258.6000976562</ele>
        <time>2019-05-05T10:06:22.000Z</time>
      </trkpt>
      <trkpt lat="42.83518" lon="0.137">
        <ele>2259.8000488281</ele>
        <time>2019-05-05T10:06:28.000Z</time>
      </trkpt>
      <trkpt lat="42.83517" lon="0.137">
        <ele>2260</ele>
        <time>2019-05-05T10:06:32.000Z</time>
      </trkpt>
      <trkpt lat="42.83518" lon="0.13701">
        <ele>2259.6000976562</ele>
        <time>2019-05-05T10:06:35.000Z</time>
      </trkpt>
      <trkpt lat="42.83518" lon="0.13702">
        <ele>2259.1999511719</ele>
        <time>2019-05-05T10:06:38.000Z</time>
      </trkpt>
      <trkpt lat="42.83519" lon="0.13702">
        <ele>2259</ele>
        <time>2019-05-05T10:06:44.000Z</time>
      </trkpt>
      <trkpt lat="42.8352" lon="0.13702">
        <ele>2258.8000488281</ele>
        <time>2019-05-05T10:06:48.000Z</time>
      </trkpt>
      <trkpt lat="42.83517" lon="0.137">
        <ele>2260</ele>
        <time>2019-05-05T10:06:58.000Z</time>
      </trkpt>
      <trkpt lat="42.83517" lon="0.13699">
        <ele>2260.1999511719</ele>
        <time>2019-05-05T10:07:02.000Z</time>
      </trkpt>
      <trkpt lat="42.83516" lon="0.13698">
        <ele>2260.6000976562</ele>
        <time>2019-05-05T10:07:06.000Z</time>
      </trkpt>
      <trkpt lat="42.83514" lon="0.13696">
        <ele>2261.8000488281</ele>
        <time>2019-05-05T10:07:10.000Z</time>
      </trkpt>
      <trkpt lat="42.8351" lon="0.13694">
        <ele>2263.6000976562</ele>
        <time>2019-05-05T10:07:14.000Z</time>
      </trkpt>
      <trkpt lat="42.83508" lon="0.13693">
        <ele>2264.8000488281</ele>
        <time>2019-05-05T10:07:16.000Z</time>
      </trkpt>
      <trkpt lat="42.83504" lon="0.1369">
        <ele>2266.1999511719</ele>
        <time>2019-05-05T10:07:19.000Z</time>
      </trkpt>
      <trkpt lat="42.83499" lon="0.13686">
        <ele>2267.1999511719</ele>
        <time>2019-05-05T10:07:24.000Z</time>
      </trkpt>
      <trkpt lat="42.83494" lon="0.13683">
        <ele>2268</ele>
        <time>2019-05-05T10:07:28.000Z</time>
      </trkpt>
      <trkpt lat="42.8349" lon="0.13681">
        <ele>2268.6000976562</ele>
        <time>2019-05-05T10:07:32.000Z</time>
      </trkpt>
      <trkpt lat="42.83488" lon="0.1368">
        <ele>2269</ele>
        <time>2019-05-05T10:07:34.000Z</time>
      </trkpt>
      <trkpt lat="42.83486" lon="0.13679">
        <ele>2269.3999023438</ele>
        <time>2019-05-05T10:07:36.000Z</time>
      </trkpt>
      <trkpt lat="42.83482" lon="0.13676">
        <ele>2270.1999511719</ele>
        <time>2019-05-05T10:07:39.000Z</time>
      </trkpt>
      <trkpt lat="42.83474" lon="0.13671">
        <ele>2271.6000976562</ele>
        <time>2019-05-05T10:07:46.000Z</time>
      </trkpt>
      <trkpt lat="42.83469" lon="0.13666">
        <ele>2272.6000976562</ele>
        <time>2019-05-05T10:07:54.000Z</time>
      </trkpt>
      <trkpt lat="42.8346" lon="0.13655">
        <ele>2274.8000488281</ele>
        <time>2019-05-05T10:08:07.000Z</time>
      </trkpt>
      <trkpt lat="42.83459" lon="0.13649">
        <ele>2275.6000976562</ele>
        <time>2019-05-05T10:08:13.000Z</time>
      </trkpt>
      <trkpt lat="42.83461" lon="0.1364">
        <ele>2276.1999511719</ele>
        <time>2019-05-05T10:08:31.000Z</time>
      </trkpt>
      <trkpt lat="42.83466" lon="0.13623">
        <ele>2277.8000488281</ele>
        <time>2019-05-05T10:08:44.000Z</time>
      </trkpt>
      <trkpt lat="42.83475" lon="0.13596">
        <ele>2283.1999511719</ele>
        <time>2019-05-05T10:09:13.000Z</time>
      </trkpt>
      <trkpt lat="42.83476" lon="0.13595">
        <ele>2283.3999023438</ele>
        <time>2019-05-05T10:09:14.000Z</time>
      </trkpt>
      <trkpt lat="42.83477" lon="0.13594">
        <ele>2283.6000976562</ele>
        <time>2019-05-05T10:09:16.000Z</time>
      </trkpt>
      <trkpt lat="42.83477" lon="0.13593">
        <ele>2283.8000488281</ele>
        <time>2019-05-05T10:09:17.000Z</time>
      </trkpt>
      <trkpt lat="42.83478" lon="0.13591">
        <ele>2284.1999511719</ele>
        <time>2019-05-05T10:09:19.000Z</time>
      </trkpt>
      <trkpt lat="42.83478" lon="0.1359">
        <ele>2284.3999023438</ele>
        <time>2019-05-05T10:09:20.000Z</time>
      </trkpt>
      <trkpt lat="42.83479" lon="0.13589">
        <ele>2284.8000488281</ele>
        <time>2019-05-05T10:09:21.000Z</time>
      </trkpt>
      <trkpt lat="42.8348" lon="0.13588">
        <ele>2285</ele>
        <time>2019-05-05T10:09:22.000Z</time>
      </trkpt>
      <trkpt lat="42.8348" lon="0.13587">
        <ele>2285.1999511719</ele>
        <time>2019-05-05T10:09:23.000Z</time>
      </trkpt>
      <trkpt lat="42.83481" lon="0.13587">
        <ele>2285.3999023438</ele>
        <time>2019-05-05T10:09:24.000Z</time>
      </trkpt>
      <trkpt lat="42.83482" lon="0.13586">
        <ele>2285.6000976562</ele>
        <time>2019-05-05T10:09:25.000Z</time>
      </trkpt>
      <trkpt lat="42.83481" lon="0.13579">
        <ele>2287.3999023438</ele>
        <time>2019-05-05T10:09:39.000Z</time>
      </trkpt>
      <trkpt lat="42.8348" lon="0.13578">
        <ele>2287.8000488281</ele>
        <time>2019-05-05T10:09:43.000Z</time>
      </trkpt>
      <trkpt lat="42.8348" lon="0.13578">
        <ele>2287.8000488281</ele>
        <time>2019-05-05T10:09:45.000Z</time>
      </trkpt>
      <trkpt lat="42.83479" lon="0.13577">
        <ele>2288</ele>
        <time>2019-05-05T10:09:48.000Z</time>
      </trkpt>
      <trkpt lat="42.8348" lon="0.13576">
        <ele>2288.1999511719</ele>
        <time>2019-05-05T10:09:52.000Z</time>
      </trkpt>
      <trkpt lat="42.83481" lon="0.13575">
        <ele>2288.3999023438</ele>
        <time>2019-05-05T10:09:54.000Z</time>
      </trkpt>
      <trkpt lat="42.83482" lon="0.13574">
        <ele>2288.8000488281</ele>
        <time>2019-05-05T10:09:56.000Z</time>
      </trkpt>
      <trkpt lat="42.83486" lon="0.13569">
        <ele>2289.8000488281</ele>
        <time>2019-05-05T10:10:06.000Z</time>
      </trkpt>
      <trkpt lat="42.83487" lon="0.13567">
        <ele>2290</ele>
        <time>2019-05-05T10:10:08.000Z</time>
      </trkpt>
      <trkpt lat="42.83488" lon="0.13567">
        <ele>2290.1999511719</ele>
        <time>2019-05-05T10:10:09.000Z</time>
      </trkpt>
      <trkpt lat="42.83489" lon="0.13565">
        <ele>2290.6000976562</ele>
        <time>2019-05-05T10:10:11.000Z</time>
      </trkpt>
      <trkpt lat="42.8349" lon="0.13563">
        <ele>2291.1999511719</ele>
        <time>2019-05-05T10:10:18.000Z</time>
      </trkpt>
      <trkpt lat="42.83491" lon="0.1356">
        <ele>2291.8000488281</ele>
        <time>2019-05-05T10:10:22.000Z</time>
      </trkpt>
      <trkpt lat="42.8349" lon="0.13559">
        <ele>2292.3999023438</ele>
        <time>2019-05-05T10:10:25.000Z</time>
      </trkpt>
      <trkpt lat="42.83483" lon="0.13549">
        <ele>2295.3999023438</ele>
        <time>2019-05-05T10:10:40.000Z</time>
      </trkpt>
      <trkpt lat="42.8348" lon="0.13547">
        <ele>2296.3999023438</ele>
        <time>2019-05-05T10:10:44.000Z</time>
      </trkpt>
      <trkpt lat="42.8348" lon="0.1354">
        <ele>2298.1999511719</ele>
        <time>2019-05-05T10:10:51.000Z</time>
      </trkpt>
      <trkpt lat="42.83493" lon="0.13532">
        <ele>2299</ele>
        <time>2019-05-05T10:11:08.000Z</time>
      </trkpt>
      <trkpt lat="42.83493" lon="0.13531">
        <ele>2299</ele>
        <time>2019-05-05T10:11:09.000Z</time>
      </trkpt>
      <trkpt lat="42.83494" lon="0.13531">
        <ele>2299</ele>
        <time>2019-05-05T10:11:10.000Z</time>
      </trkpt>
      <trkpt lat="42.83495" lon="0.13531">
        <ele>2299.1999511719</ele>
        <time>2019-05-05T10:11:16.000Z</time>
      </trkpt>
      <trkpt lat="42.83498" lon="0.1353">
        <ele>2299.3999023438</ele>
        <time>2019-05-05T10:11:29.000Z</time>
      </trkpt>
      <trkpt lat="42.83497" lon="0.13528">
        <ele>2300</ele>
        <time>2019-05-05T10:11:31.000Z</time>
      </trkpt>
      <trkpt lat="42.83495" lon="0.13526">
        <ele>2300.3999023438</ele>
        <time>2019-05-05T10:11:33.000Z</time>
      </trkpt>
      <trkpt lat="42.8349" lon="0.13523">
        <ele>2301.6000976562</ele>
        <time>2019-05-05T10:11:41.000Z</time>
      </trkpt>
      <trkpt lat="42.83487" lon="0.1352">
        <ele>2302.3999023438</ele>
        <time>2019-05-05T10:11:45.000Z</time>
      </trkpt>
      <trkpt lat="42.83485" lon="0.13518">
        <ele>2303</ele>
        <time>2019-05-05T10:11:48.000Z</time>
      </trkpt>
      <trkpt lat="42.83483" lon="0.13516">
        <ele>2303.8000488281</ele>
        <time>2019-05-05T10:11:53.000Z</time>
      </trkpt>
      <trkpt lat="42.8347" lon="0.13504">
        <ele>2307.3999023438</ele>
        <time>2019-05-05T10:12:18.000Z</time>
      </trkpt>
      <trkpt lat="42.8347" lon="0.13504">
        <ele>2307.1999511719</ele>
        <time>2019-05-05T10:12:20.000Z</time>
      </trkpt>
      <trkpt lat="42.8347" lon="0.13504">
        <ele>2307.3999023438</ele>
        <time>2019-05-05T10:12:21.000Z</time>
      </trkpt>
      <trkpt lat="42.83467" lon="0.135">
        <ele>2308.6000976562</ele>
        <time>2019-05-05T10:12:26.000Z</time>
      </trkpt>
      <trkpt lat="42.83467" lon="0.13499">
        <ele>2308.8000488281</ele>
        <time>2019-05-05T10:12:27.000Z</time>
      </trkpt>
      <trkpt lat="42.83467" lon="0.13498">
        <ele>2309.1999511719</ele>
        <time>2019-05-05T10:12:28.000Z</time>
      </trkpt>
      <trkpt lat="42.83476" lon="0.1349">
        <ele>2311.6000976562</ele>
        <time>2019-05-05T10:12:43.000Z</time>
      </trkpt>
      <trkpt lat="42.8348" lon="0.13486">
        <ele>2312.8000488281</ele>
        <time>2019-05-05T10:12:49.000Z</time>
      </trkpt>
      <trkpt lat="42.83487" lon="0.13481">
        <ele>2314.1999511719</ele>
        <time>2019-05-05T10:13:00.000Z</time>
      </trkpt>
      <trkpt lat="42.83487" lon="0.1348">
        <ele>2314.3999023438</ele>
        <time>2019-05-05T10:13:01.000Z</time>
      </trkpt>
      <trkpt lat="42.83488" lon="0.1348">
        <ele>2314.3999023438</ele>
        <time>2019-05-05T10:13:02.000Z</time>
      </trkpt>
      <trkpt lat="42.83489" lon="0.13479">
        <ele>2314.6000976562</ele>
        <time>2019-05-05T10:13:03.000Z</time>
      </trkpt>
      <trkpt lat="42.83492" lon="0.13477">
        <ele>2315.1999511719</ele>
        <time>2019-05-05T10:13:10.000Z</time>
      </trkpt>
      <trkpt lat="42.83493" lon="0.13478">
        <ele>2314.8000488281</ele>
        <time>2019-05-05T10:13:16.000Z</time>
      </trkpt>
      <trkpt lat="42.83494" lon="0.13479">
        <ele>2314.8000488281</ele>
        <time>2019-05-05T10:13:22.000Z</time>
      </trkpt>
      <trkpt lat="42.83492" lon="0.13477">
        <ele>2315.1999511719</ele>
        <time>2019-05-05T10:13:25.000Z</time>
      </trkpt>
      <trkpt lat="42.83488" lon="0.13473">
        <ele>2316.6000976562</ele>
        <time>2019-05-05T10:13:30.000Z</time>
      </trkpt>
      <trkpt lat="42.83486" lon="0.13471">
        <ele>2317.1999511719</ele>
        <time>2019-05-05T10:13:33.000Z</time>
      </trkpt>
      <trkpt lat="42.83481" lon="0.13465">
        <ele>2319</ele>
        <time>2019-05-05T10:13:45.000Z</time>
      </trkpt>
      <trkpt lat="42.8348" lon="0.13463">
        <ele>2319.6000976562</ele>
        <time>2019-05-05T10:13:49.000Z</time>
      </trkpt>
      <trkpt lat="42.83477" lon="0.13459">
        <ele>2321.1999511719</ele>
        <time>2019-05-05T10:13:55.000Z</time>
      </trkpt>
      <trkpt lat="42.83478" lon="0.13456">
        <ele>2322.3999023438</ele>
        <time>2019-05-05T10:13:58.000Z</time>
      </trkpt>
      <trkpt lat="42.83481" lon="0.13454">
        <ele>2323.1999511719</ele>
        <time>2019-05-05T10:14:02.000Z</time>
      </trkpt>
      <trkpt lat="42.83482" lon="0.13454">
        <ele>2323.3999023438</ele>
        <time>2019-05-05T10:14:03.000Z</time>
      </trkpt>
      <trkpt lat="42.83482" lon="0.13454">
        <ele>2323.6000976562</ele>
        <time>2019-05-05T10:14:04.000Z</time>
      </trkpt>
      <trkpt lat="42.83485" lon="0.13454">
        <ele>2323.3999023438</ele>
        <time>2019-05-05T10:14:07.000Z</time>
      </trkpt>
      <trkpt lat="42.83497" lon="0.13453">
        <ele>2324</ele>
        <time>2019-05-05T10:14:18.000Z</time>
      </trkpt>
      <trkpt lat="42.83509" lon="0.13454">
        <ele>2323</ele>
        <time>2019-05-05T10:14:34.000Z</time>
      </trkpt>
      <trkpt lat="42.83516" lon="0.13459">
        <ele>2322.3999023438</ele>
        <time>2019-05-05T10:14:45.000Z</time>
      </trkpt>
      <trkpt lat="42.83518" lon="0.1346">
        <ele>2322.6000976562</ele>
        <time>2019-05-05T10:14:47.000Z</time>
      </trkpt>
      <trkpt lat="42.83524" lon="0.13463">
        <ele>2322.3999023438</ele>
        <time>2019-05-05T10:14:55.000Z</time>
      </trkpt>
      <trkpt lat="42.83527" lon="0.13464">
        <ele>2322.3999023438</ele>
        <time>2019-05-05T10:15:01.000Z</time>
      </trkpt>
      <trkpt lat="42.8354" lon="0.13475">
        <ele>2319.3999023438</ele>
        <time>2019-05-05T10:15:33.000Z</time>
      </trkpt>
      <trkpt lat="42.83541" lon="0.13476">
        <ele>2319.1999511719</ele>
        <time>2019-05-05T10:15:36.000Z</time>
      </trkpt>
      <trkpt lat="42.83551" lon="0.13493">
        <ele>2312.8000488281</ele>
        <time>2019-05-05T10:16:02.000Z</time>
      </trkpt>
      <trkpt lat="42.83554" lon="0.13498">
        <ele>2311.3999023438</ele>
        <time>2019-05-05T10:16:10.000Z</time>
      </trkpt>
      <trkpt lat="42.83561" lon="0.13499">
        <ele>2312.1999511719</ele>
        <time>2019-05-05T10:16:21.000Z</time>
      </trkpt>
      <trkpt lat="42.83562" lon="0.13499">
        <ele>2312</ele>
        <time>2019-05-05T10:16:23.000Z</time>
      </trkpt>
      <trkpt lat="42.83565" lon="0.13499">
        <ele>2312.8000488281</ele>
        <time>2019-05-05T10:16:45.000Z</time>
      </trkpt>
      <trkpt lat="42.83566" lon="0.13495">
        <ele>2315</ele>
        <time>2019-05-05T10:16:50.000Z</time>
      </trkpt>
      <trkpt lat="42.83565" lon="0.13483">
        <ele>2320.3999023438</ele>
        <time>2019-05-05T10:17:03.000Z</time>
      </trkpt>
      <trkpt lat="42.83566" lon="0.13477">
        <ele>2323</ele>
        <time>2019-05-05T10:17:08.000Z</time>
      </trkpt>
      <trkpt lat="42.83567" lon="0.13471">
        <ele>2326.3999023438</ele>
        <time>2019-05-05T10:17:14.000Z</time>
      </trkpt>
      <trkpt lat="42.83567" lon="0.13458">
        <ele>2331.8000488281</ele>
        <time>2019-05-05T10:17:28.000Z</time>
      </trkpt>
      <trkpt lat="42.83567" lon="0.13452">
        <ele>2334.1999511719</ele>
        <time>2019-05-05T10:17:37.000Z</time>
      </trkpt>
      <trkpt lat="42.83568" lon="0.13444">
        <ele>2337</ele>
        <time>2019-05-05T10:17:55.000Z</time>
      </trkpt>
      <trkpt lat="42.83569" lon="0.13444">
        <ele>2337.1999511719</ele>
        <time>2019-05-05T10:17:58.000Z</time>
      </trkpt>
      <trkpt lat="42.8357" lon="0.13445">
        <ele>2337.1999511719</ele>
        <time>2019-05-05T10:17:59.000Z</time>
      </trkpt>
      <trkpt lat="42.83571" lon="0.13445">
        <ele>2337.1999511719</ele>
        <time>2019-05-05T10:18:00.000Z</time>
      </trkpt>
      <trkpt lat="42.83577" lon="0.13447">
        <ele>2337.6000976562</ele>
        <time>2019-05-05T10:18:14.000Z</time>
      </trkpt>
      <trkpt lat="42.83577" lon="0.13447">
        <ele>2337.6000976562</ele>
        <time>2019-05-05T10:18:15.000Z</time>
      </trkpt>
      <trkpt lat="42.83577" lon="0.13446">
        <ele>2338</ele>
        <time>2019-05-05T10:18:23.000Z</time>
      </trkpt>
      <trkpt lat="42.83578" lon="0.13444">
        <ele>2338.8000488281</ele>
        <time>2019-05-05T10:18:26.000Z</time>
      </trkpt>
      <trkpt lat="42.83579" lon="0.13442">
        <ele>2339.6000976562</ele>
        <time>2019-05-05T10:18:29.000Z</time>
      </trkpt>
      <trkpt lat="42.83579" lon="0.1344">
        <ele>2340.1999511719</ele>
        <time>2019-05-05T10:18:32.000Z</time>
      </trkpt>
      <trkpt lat="42.83579" lon="0.13439">
        <ele>2340.6000976562</ele>
        <time>2019-05-05T10:18:33.000Z</time>
      </trkpt>
      <trkpt lat="42.8358" lon="0.13439">
        <ele>2340.8000488281</ele>
        <time>2019-05-05T10:18:34.000Z</time>
      </trkpt>
      <trkpt lat="42.8358" lon="0.13438">
        <ele>2341</ele>
        <time>2019-05-05T10:18:35.000Z</time>
      </trkpt>
      <trkpt lat="42.8358" lon="0.13438">
        <ele>2341</ele>
        <time>2019-05-05T10:18:36.000Z</time>
      </trkpt>
      <trkpt lat="42.83581" lon="0.13438">
        <ele>2341.1999511719</ele>
        <time>2019-05-05T10:18:37.000Z</time>
      </trkpt>
      <trkpt lat="42.8358" lon="0.13438">
        <ele>2341.1999511719</ele>
        <time>2019-05-05T10:18:40.000Z</time>
      </trkpt>
      <trkpt lat="42.83591" lon="0.13438">
        <ele>2342.8000488281</ele>
        <time>2019-05-05T10:18:57.000Z</time>
      </trkpt>
      <trkpt lat="42.83595" lon="0.13438">
        <ele>2343.8000488281</ele>
        <time>2019-05-05T10:19:02.000Z</time>
      </trkpt>
      <trkpt lat="42.83596" lon="0.13439">
        <ele>2343.6000976562</ele>
        <time>2019-05-05T10:19:09.000Z</time>
      </trkpt>
      <trkpt lat="42.83595" lon="0.1344">
        <ele>2343.1999511719</ele>
        <time>2019-05-05T10:19:12.000Z</time>
      </trkpt>
      <trkpt lat="42.83595" lon="0.1344">
        <ele>2343.1999511719</ele>
        <time>2019-05-05T10:19:15.000Z</time>
      </trkpt>
      <trkpt lat="42.83596" lon="0.1344">
        <ele>2343.1999511719</ele>
        <time>2019-05-05T10:19:18.000Z</time>
      </trkpt>
      <trkpt lat="42.83598" lon="0.13437">
        <ele>2344.6000976562</ele>
        <time>2019-05-05T10:19:24.000Z</time>
      </trkpt>
      <trkpt lat="42.83599" lon="0.13436">
        <ele>2345.1999511719</ele>
        <time>2019-05-05T10:19:26.000Z</time>
      </trkpt>
      <trkpt lat="42.83599" lon="0.13435">
        <ele>2345.6000976562</ele>
        <time>2019-05-05T10:19:27.000Z</time>
      </trkpt>
      <trkpt lat="42.836" lon="0.13434">
        <ele>2346</ele>
        <time>2019-05-05T10:19:28.000Z</time>
      </trkpt>
      <trkpt lat="42.836" lon="0.13433">
        <ele>2346.1999511719</ele>
        <time>2019-05-05T10:19:29.000Z</time>
      </trkpt>
      <trkpt lat="42.836" lon="0.13431">
        <ele>2347</ele>
        <time>2019-05-05T10:19:32.000Z</time>
      </trkpt>
      <trkpt lat="42.83602" lon="0.13425">
        <ele>2349.3999023438</ele>
        <time>2019-05-05T10:19:40.000Z</time>
      </trkpt>
      <trkpt lat="42.83601" lon="0.13421">
        <ele>2350.3999023438</ele>
        <time>2019-05-05T10:19:44.000Z</time>
      </trkpt>
      <trkpt lat="42.83602" lon="0.13417">
        <ele>2352.1999511719</ele>
        <time>2019-05-05T10:19:51.000Z</time>
      </trkpt>
      <trkpt lat="42.83611" lon="0.13417">
        <ele>2354</ele>
        <time>2019-05-05T10:20:05.000Z</time>
      </trkpt>
      <trkpt lat="42.8362" lon="0.13418">
        <ele>2355.1999511719</ele>
        <time>2019-05-05T10:20:29.000Z</time>
      </trkpt>
      <trkpt lat="42.83622" lon="0.13419">
        <ele>2355.3999023438</ele>
        <time>2019-05-05T10:20:35.000Z</time>
      </trkpt>
      <trkpt lat="42.83622" lon="0.13415">
        <ele>2356.6000976562</ele>
        <time>2019-05-05T10:20:43.000Z</time>
      </trkpt>
      <trkpt lat="42.83628" lon="0.13403">
        <ele>2362.1999511719</ele>
        <time>2019-05-05T10:21:15.000Z</time>
      </trkpt>
      <trkpt lat="42.83636" lon="0.13411">
        <ele>2361.1999511719</ele>
        <time>2019-05-05T10:21:29.000Z</time>
      </trkpt>
      <trkpt lat="42.83647" lon="0.13412">
        <ele>2363.6000976562</ele>
        <time>2019-05-05T10:21:48.000Z</time>
      </trkpt>
      <trkpt lat="42.8365" lon="0.13412">
        <ele>2364</ele>
        <time>2019-05-05T10:21:50.000Z</time>
      </trkpt>
      <trkpt lat="42.83652" lon="0.13412">
        <ele>2364.6000976562</ele>
        <time>2019-05-05T10:21:53.000Z</time>
      </trkpt>
      <trkpt lat="42.83653" lon="0.13412">
        <ele>2364.8000488281</ele>
        <time>2019-05-05T10:21:54.000Z</time>
      </trkpt>
      <trkpt lat="42.83653" lon="0.13412">
        <ele>2365</ele>
        <time>2019-05-05T10:21:57.000Z</time>
      </trkpt>
      <trkpt lat="42.83655" lon="0.13412">
        <ele>2365.1999511719</ele>
        <time>2019-05-05T10:22:01.000Z</time>
      </trkpt>
      <trkpt lat="42.83657" lon="0.13412">
        <ele>2365.6000976562</ele>
        <time>2019-05-05T10:22:03.000Z</time>
      </trkpt>
      <trkpt lat="42.83661" lon="0.13413">
        <ele>2366.1999511719</ele>
        <time>2019-05-05T10:22:08.000Z</time>
      </trkpt>
      <trkpt lat="42.83669" lon="0.13414">
        <ele>2367.8000488281</ele>
        <time>2019-05-05T10:22:18.000Z</time>
      </trkpt>
      <trkpt lat="42.83672" lon="0.13415">
        <ele>2367.8000488281</ele>
        <time>2019-05-05T10:22:22.000Z</time>
      </trkpt>
      <trkpt lat="42.83675" lon="0.13416">
        <ele>2368</ele>
        <time>2019-05-05T10:22:26.000Z</time>
      </trkpt>
      <trkpt lat="42.83691" lon="0.13416">
        <ele>2372</ele>
        <time>2019-05-05T10:22:47.000Z</time>
      </trkpt>
      <trkpt lat="42.83699" lon="0.13417">
        <ele>2373.8000488281</ele>
        <time>2019-05-05T10:22:56.000Z</time>
      </trkpt>
      <trkpt lat="42.83707" lon="0.13416">
        <ele>2375.8000488281</ele>
        <time>2019-05-05T10:23:05.000Z</time>
      </trkpt>
      <trkpt lat="42.83707" lon="0.13416">
        <ele>2376</ele>
        <time>2019-05-05T10:23:06.000Z</time>
      </trkpt>
      <trkpt lat="42.83709" lon="0.13416">
        <ele>2376.3999023438</ele>
        <time>2019-05-05T10:23:07.000Z</time>
      </trkpt>
      <trkpt lat="42.8371" lon="0.13416">
        <ele>2376.6000976562</ele>
        <time>2019-05-05T10:23:09.000Z</time>
      </trkpt>
      <trkpt lat="42.83711" lon="0.13416">
        <ele>2377</ele>
        <time>2019-05-05T10:23:11.000Z</time>
      </trkpt>
      <trkpt lat="42.83715" lon="0.13417">
        <ele>2377.6000976562</ele>
        <time>2019-05-05T10:23:18.000Z</time>
      </trkpt>
      <trkpt lat="42.83728" lon="0.13418">
        <ele>2380.6000976562</ele>
        <time>2019-05-05T10:23:36.000Z</time>
      </trkpt>
      <trkpt lat="42.83736" lon="0.13419">
        <ele>2381.8000488281</ele>
        <time>2019-05-05T10:23:51.000Z</time>
      </trkpt>
      <trkpt lat="42.83739" lon="0.1342">
        <ele>2382.1999511719</ele>
        <time>2019-05-05T10:23:56.000Z</time>
      </trkpt>
      <trkpt lat="42.83749" lon="0.13422">
        <ele>2384.3999023438</ele>
        <time>2019-05-05T10:24:10.000Z</time>
      </trkpt>
      <trkpt lat="42.8375" lon="0.13422">
        <ele>2384.3999023438</ele>
        <time>2019-05-05T10:24:11.000Z</time>
      </trkpt>
      <trkpt lat="42.83761" lon="0.13424">
        <ele>2385.6000976562</ele>
        <time>2019-05-05T10:24:26.000Z</time>
      </trkpt>
      <trkpt lat="42.83761" lon="0.13424">
        <ele>2385.6000976562</ele>
        <time>2019-05-05T10:24:27.000Z</time>
      </trkpt>
      <trkpt lat="42.83763" lon="0.13423">
        <ele>2386</ele>
        <time>2019-05-05T10:24:32.000Z</time>
      </trkpt>
      <trkpt lat="42.83766" lon="0.13424">
        <ele>2386.1999511719</ele>
        <time>2019-05-05T10:24:35.000Z</time>
      </trkpt>
      <trkpt lat="42.83774" lon="0.13424">
        <ele>2386.6000976562</ele>
        <time>2019-05-05T10:24:44.000Z</time>
      </trkpt>
      <trkpt lat="42.83777" lon="0.13425">
        <ele>2386.8000488281</ele>
        <time>2019-05-05T10:24:49.000Z</time>
      </trkpt>
      <trkpt lat="42.83786" lon="0.13426">
        <ele>2387</ele>
        <time>2019-05-05T10:25:00.000Z</time>
      </trkpt>
      <trkpt lat="42.8379" lon="0.13429">
        <ele>2386.1999511719</ele>
        <time>2019-05-05T10:25:06.000Z</time>
      </trkpt>
      <trkpt lat="42.83796" lon="0.13434">
        <ele>2385.1999511719</ele>
        <time>2019-05-05T10:25:18.000Z</time>
      </trkpt>
      <trkpt lat="42.83799" lon="0.13435">
        <ele>2384.8000488281</ele>
        <time>2019-05-05T10:25:21.000Z</time>
      </trkpt>
      <trkpt lat="42.838" lon="0.13436">
        <ele>2384.6000976562</ele>
        <time>2019-05-05T10:25:22.000Z</time>
      </trkpt>
      <trkpt lat="42.83813" lon="0.13444">
        <ele>2383</ele>
        <time>2019-05-05T10:25:41.000Z</time>
      </trkpt>
      <trkpt lat="42.83825" lon="0.13446">
        <ele>2383.1999511719</ele>
        <time>2019-05-05T10:25:55.000Z</time>
      </trkpt>
      <trkpt lat="42.83828" lon="0.13446">
        <ele>2383.8000488281</ele>
        <time>2019-05-05T10:25:59.000Z</time>
      </trkpt>
      <trkpt lat="42.8383" lon="0.13445">
        <ele>2384.3999023438</ele>
        <time>2019-05-05T10:26:02.000Z</time>
      </trkpt>
      <trkpt lat="42.8383" lon="0.13445">
        <ele>2384.6000976562</ele>
        <time>2019-05-05T10:26:03.000Z</time>
      </trkpt>
      <trkpt lat="42.83842" lon="0.13439">
        <ele>2388.6000976562</ele>
        <time>2019-05-05T10:26:27.000Z</time>
      </trkpt>
      <trkpt lat="42.83843" lon="0.13439">
        <ele>2389</ele>
        <time>2019-05-05T10:26:29.000Z</time>
      </trkpt>
      <trkpt lat="42.83854" lon="0.13435">
        <ele>2391.3999023438</ele>
        <time>2019-05-05T10:26:50.000Z</time>
      </trkpt>
      <trkpt lat="42.83863" lon="0.13432">
        <ele>2393.1999511719</ele>
        <time>2019-05-05T10:27:03.000Z</time>
      </trkpt>
      <trkpt lat="42.83863" lon="0.13432">
        <ele>2393.3999023438</ele>
        <time>2019-05-05T10:27:06.000Z</time>
      </trkpt>
      <trkpt lat="42.83864" lon="0.13432">
        <ele>2393.6000976562</ele>
        <time>2019-05-05T10:27:08.000Z</time>
      </trkpt>
      <trkpt lat="42.83876" lon="0.13421">
        <ele>2399</ele>
        <time>2019-05-05T10:27:42.000Z</time>
      </trkpt>
      <trkpt lat="42.83879" lon="0.13419">
        <ele>2400.1999511719</ele>
        <time>2019-05-05T10:27:51.000Z</time>
      </trkpt>
      <trkpt lat="42.8388" lon="0.13418">
        <ele>2400.6000976562</ele>
        <time>2019-05-05T10:28:00.000Z</time>
      </trkpt>
      <trkpt lat="42.83882" lon="0.13416">
        <ele>2402.1999511719</ele>
        <time>2019-05-05T10:28:03.000Z</time>
      </trkpt>
      <trkpt lat="42.83883" lon="0.13415">
        <ele>2403</ele>
        <time>2019-05-05T10:28:05.000Z</time>
      </trkpt>
      <trkpt lat="42.83885" lon="0.13413">
        <ele>2404.3999023438</ele>
        <time>2019-05-05T10:28:08.000Z</time>
      </trkpt>
      <trkpt lat="42.83886" lon="0.13412">
        <ele>2404.8000488281</ele>
        <time>2019-05-05T10:28:09.000Z</time>
      </trkpt>
      <trkpt lat="42.83886" lon="0.13411">
        <ele>2405.1999511719</ele>
        <time>2019-05-05T10:28:10.000Z</time>
      </trkpt>
      <trkpt lat="42.83887" lon="0.13411">
        <ele>2405.6000976562</ele>
        <time>2019-05-05T10:28:11.000Z</time>
      </trkpt>
      <trkpt lat="42.83888" lon="0.1341">
        <ele>2406</ele>
        <time>2019-05-05T10:28:12.000Z</time>
      </trkpt>
      <trkpt lat="42.83897" lon="0.13403">
        <ele>2411</ele>
        <time>2019-05-05T10:28:30.000Z</time>
      </trkpt>
      <trkpt lat="42.83899" lon="0.13403">
        <ele>2411.6000976562</ele>
        <time>2019-05-05T10:28:33.000Z</time>
      </trkpt>
      <trkpt lat="42.83899" lon="0.13403">
        <ele>2411.6000976562</ele>
        <time>2019-05-05T10:28:38.000Z</time>
      </trkpt>
      <trkpt lat="42.839" lon="0.13402">
        <ele>2411.8000488281</ele>
        <time>2019-05-05T10:28:46.000Z</time>
      </trkpt>
      <trkpt lat="42.83902" lon="0.13402">
        <ele>2412.1999511719</ele>
        <time>2019-05-05T10:28:48.000Z</time>
      </trkpt>
      <trkpt lat="42.839" lon="0.134">
        <ele>2413.3999023438</ele>
        <time>2019-05-05T10:28:57.000Z</time>
      </trkpt>
      <trkpt lat="42.83895" lon="0.13398">
        <ele>2413.3999023438</ele>
        <time>2019-05-05T10:29:02.000Z</time>
      </trkpt>
      <trkpt lat="42.83892" lon="0.13396">
        <ele>2413.6000976562</ele>
        <time>2019-05-05T10:29:06.000Z</time>
      </trkpt>
      <trkpt lat="42.83891" lon="0.13396">
        <ele>2413.8000488281</ele>
        <time>2019-05-05T10:29:07.000Z</time>
      </trkpt>
      <trkpt lat="42.8389" lon="0.13395">
        <ele>2413.8000488281</ele>
        <time>2019-05-05T10:29:08.000Z</time>
      </trkpt>
      <trkpt lat="42.83887" lon="0.13394">
        <ele>2414.1999511719</ele>
        <time>2019-05-05T10:29:12.000Z</time>
      </trkpt>
      <trkpt lat="42.83886" lon="0.13393">
        <ele>2414.3999023438</ele>
        <time>2019-05-05T10:29:14.000Z</time>
      </trkpt>
      <trkpt lat="42.83885" lon="0.13392">
        <ele>2414.8000488281</ele>
        <time>2019-05-05T10:29:16.000Z</time>
      </trkpt>
      <trkpt lat="42.83884" lon="0.13392">
        <ele>2414.8000488281</ele>
        <time>2019-05-05T10:29:17.000Z</time>
      </trkpt>
      <trkpt lat="42.83884" lon="0.13391">
        <ele>2415</ele>
        <time>2019-05-05T10:29:18.000Z</time>
      </trkpt>
      <trkpt lat="42.83881" lon="0.13391">
        <ele>2415</ele>
        <time>2019-05-05T10:29:21.000Z</time>
      </trkpt>
      <trkpt lat="42.8388" lon="0.1339">
        <ele>2415</ele>
        <time>2019-05-05T10:29:23.000Z</time>
      </trkpt>
      <trkpt lat="42.83879" lon="0.1339">
        <ele>2415</ele>
        <time>2019-05-05T10:29:24.000Z</time>
      </trkpt>
      <trkpt lat="42.83878" lon="0.13389">
        <ele>2415</ele>
        <time>2019-05-05T10:29:26.000Z</time>
      </trkpt>
      <trkpt lat="42.83877" lon="0.13389">
        <ele>2414.8000488281</ele>
        <time>2019-05-05T10:29:27.000Z</time>
      </trkpt>
      <trkpt lat="42.83876" lon="0.13389">
        <ele>2415</ele>
        <time>2019-05-05T10:29:28.000Z</time>
      </trkpt>
      <trkpt lat="42.83875" lon="0.13388">
        <ele>2415</ele>
        <time>2019-05-05T10:29:30.000Z</time>
      </trkpt>
      <trkpt lat="42.83874" lon="0.13388">
        <ele>2415</ele>
        <time>2019-05-05T10:29:32.000Z</time>
      </trkpt>
      <trkpt lat="42.83874" lon="0.13388">
        <ele>2415</ele>
        <time>2019-05-05T10:29:33.000Z</time>
      </trkpt>
      <trkpt lat="42.83874" lon="0.13388">
        <ele>2415</ele>
        <time>2019-05-05T10:29:34.000Z</time>
      </trkpt>
      <trkpt lat="42.83874" lon="0.13388">
        <ele>2415.1999511719</ele>
        <time>2019-05-05T10:29:35.000Z</time>
      </trkpt>
      <trkpt lat="42.83877" lon="0.13385">
        <ele>2417.1999511719</ele>
        <time>2019-05-05T10:29:46.000Z</time>
      </trkpt>
      <trkpt lat="42.83882" lon="0.13384">
        <ele>2418.3999023438</ele>
        <time>2019-05-05T10:29:50.000Z</time>
      </trkpt>
      <trkpt lat="42.83896" lon="0.13383">
        <ele>2421</ele>
        <time>2019-05-05T10:30:11.000Z</time>
      </trkpt>
      <trkpt lat="42.83897" lon="0.13383">
        <ele>2421.1999511719</ele>
        <time>2019-05-05T10:30:12.000Z</time>
      </trkpt>
      <trkpt lat="42.83897" lon="0.13383">
        <ele>2421.3999023438</ele>
        <time>2019-05-05T10:30:13.000Z</time>
      </trkpt>
      <trkpt lat="42.83898" lon="0.13383">
        <ele>2421.6000976562</ele>
        <time>2019-05-05T10:30:14.000Z</time>
      </trkpt>
      <trkpt lat="42.83899" lon="0.13382">
        <ele>2422</ele>
        <time>2019-05-05T10:30:16.000Z</time>
      </trkpt>
      <trkpt lat="42.839" lon="0.13382">
        <ele>2422</ele>
        <time>2019-05-05T10:30:17.000Z</time>
      </trkpt>
      <trkpt lat="42.83901" lon="0.13382">
        <ele>2422.1999511719</ele>
        <time>2019-05-05T10:30:18.000Z</time>
      </trkpt>
      <trkpt lat="42.83901" lon="0.13382">
        <ele>2422.3999023438</ele>
        <time>2019-05-05T10:30:19.000Z</time>
      </trkpt>
      <trkpt lat="42.83902" lon="0.13382">
        <ele>2422.3999023438</ele>
        <time>2019-05-05T10:30:20.000Z</time>
      </trkpt>
      <trkpt lat="42.83903" lon="0.13382">
        <ele>2422.6000976562</ele>
        <time>2019-05-05T10:30:21.000Z</time>
      </trkpt>
      <trkpt lat="42.83903" lon="0.13382">
        <ele>2422.8000488281</ele>
        <time>2019-05-05T10:30:24.000Z</time>
      </trkpt>
      <trkpt lat="42.8391" lon="0.13381">
        <ele>2424.3999023438</ele>
        <time>2019-05-05T10:30:34.000Z</time>
      </trkpt>
      <trkpt lat="42.83911" lon="0.1338">
        <ele>2425</ele>
        <time>2019-05-05T10:30:35.000Z</time>
      </trkpt>
      <trkpt lat="42.83913" lon="0.13379">
        <ele>2425.8000488281</ele>
        <time>2019-05-05T10:30:37.000Z</time>
      </trkpt>
      <trkpt lat="42.83914" lon="0.13378">
        <ele>2426.1999511719</ele>
        <time>2019-05-05T10:30:38.000Z</time>
      </trkpt>
      <trkpt lat="42.83916" lon="0.13374">
        <ele>2428.6000976562</ele>
        <time>2019-05-05T10:30:43.000Z</time>
      </trkpt>
      <trkpt lat="42.83917" lon="0.1337">
        <ele>2429.6000976562</ele>
        <time>2019-05-05T10:30:46.000Z</time>
      </trkpt>
      <trkpt lat="42.83918" lon="0.13365">
        <ele>2430</ele>
        <time>2019-05-05T10:30:50.000Z</time>
      </trkpt>
      <trkpt lat="42.8392" lon="0.13358">
        <ele>2430.6000976562</ele>
        <time>2019-05-05T10:30:58.000Z</time>
      </trkpt>
      <trkpt lat="42.8392" lon="0.13358">
        <ele>2430.6000976562</ele>
        <time>2019-05-05T10:31:01.000Z</time>
      </trkpt>
      <trkpt lat="42.8392" lon="0.13358">
        <ele>2430.6000976562</ele>
        <time>2019-05-05T10:31:02.000Z</time>
      </trkpt>
      <trkpt lat="42.83921" lon="0.13352">
        <ele>2431.1999511719</ele>
        <time>2019-05-05T10:31:07.000Z</time>
      </trkpt>
      <trkpt lat="42.83923" lon="0.13347">
        <ele>2431.3999023438</ele>
        <time>2019-05-05T10:31:12.000Z</time>
      </trkpt>
      <trkpt lat="42.83924" lon="0.1334">
        <ele>2432</ele>
        <time>2019-05-05T10:31:29.000Z</time>
      </trkpt>
      <trkpt lat="42.83924" lon="0.1334">
        <ele>2432</ele>
        <time>2019-05-05T10:31:37.000Z</time>
      </trkpt>
      <trkpt lat="42.83925" lon="0.1334">
        <ele>2432</ele>
        <time>2019-05-05T10:31:41.000Z</time>
      </trkpt>
      <trkpt lat="42.83925" lon="0.13337">
        <ele>2432.1999511719</ele>
        <time>2019-05-05T10:31:47.000Z</time>
      </trkpt>
      <trkpt lat="42.83925" lon="0.13338">
        <ele>2432.1999511719</ele>
        <time>2019-05-05T10:31:54.000Z</time>
      </trkpt>
      <trkpt lat="42.83922" lon="0.13333">
        <ele>2433.3999023438</ele>
        <time>2019-05-05T10:32:20.000Z</time>
      </trkpt>
      <trkpt lat="42.83919" lon="0.1333">
        <ele>2434</ele>
        <time>2019-05-05T10:32:38.000Z</time>
      </trkpt>
      <trkpt lat="42.83919" lon="0.1333">
        <ele>2434.1999511719</ele>
        <time>2019-05-05T10:32:39.000Z</time>
      </trkpt>
      <trkpt lat="42.83919" lon="0.1333">
        <ele>2434.1999511719</ele>
        <time>2019-05-05T10:32:42.000Z</time>
      </trkpt>
      <trkpt lat="42.83918" lon="0.1333">
        <ele>2434.1999511719</ele>
        <time>2019-05-05T10:32:45.000Z</time>
      </trkpt>
      <trkpt lat="42.83918" lon="0.1333">
        <ele>2434.1999511719</ele>
        <time>2019-05-05T10:32:48.000Z</time>
      </trkpt>
      <trkpt lat="42.83918" lon="0.13329">
        <ele>2434.3999023438</ele>
        <time>2019-05-05T10:32:53.000Z</time>
      </trkpt>
      <trkpt lat="42.8392" lon="0.13323">
        <ele>2434.8000488281</ele>
        <time>2019-05-05T10:33:11.000Z</time>
      </trkpt>
      <trkpt lat="42.83923" lon="0.1332">
        <ele>2434.8000488281</ele>
        <time>2019-05-05T10:33:16.000Z</time>
      </trkpt>
      <trkpt lat="42.83924" lon="0.13319">
        <ele>2434.8000488281</ele>
        <time>2019-05-05T10:33:17.000Z</time>
      </trkpt>
      <trkpt lat="42.83927" lon="0.13307">
        <ele>2435.3999023438</ele>
        <time>2019-05-05T10:33:28.000Z</time>
      </trkpt>
      <trkpt lat="42.83926" lon="0.13305">
        <ele>2435.6000976562</ele>
        <time>2019-05-05T10:33:29.000Z</time>
      </trkpt>
      <trkpt lat="42.83927" lon="0.133">
        <ele>2436.1999511719</ele>
        <time>2019-05-05T10:33:33.000Z</time>
      </trkpt>
      <trkpt lat="42.83927" lon="0.13296">
        <ele>2435.8000488281</ele>
        <time>2019-05-05T10:33:36.000Z</time>
      </trkpt>
      <trkpt lat="42.83936" lon="0.13272">
        <ele>2433</ele>
        <time>2019-05-05T10:34:04.000Z</time>
      </trkpt>
      <trkpt lat="42.83935" lon="0.13264">
        <ele>2434.1999511719</ele>
        <time>2019-05-05T10:34:10.000Z</time>
      </trkpt>
      <trkpt lat="42.83935" lon="0.13259">
        <ele>2434.8000488281</ele>
        <time>2019-05-05T10:34:14.000Z</time>
      </trkpt>
      <trkpt lat="42.83935" lon="0.13255">
        <ele>2435</ele>
        <time>2019-05-05T10:34:17.000Z</time>
      </trkpt>
      <trkpt lat="42.83935" lon="0.13252">
        <ele>2435.1999511719</ele>
        <time>2019-05-05T10:34:19.000Z</time>
      </trkpt>
      <trkpt lat="42.83935" lon="0.13233">
        <ele>2436.6000976562</ele>
        <time>2019-05-05T10:34:34.000Z</time>
      </trkpt>
      <trkpt lat="42.83934" lon="0.13233">
        <ele>2436.8000488281</ele>
        <time>2019-05-05T10:34:35.000Z</time>
      </trkpt>
      <trkpt lat="42.83934" lon="0.13232">
        <ele>2436.8000488281</ele>
        <time>2019-05-05T10:34:37.000Z</time>
      </trkpt>
      <trkpt lat="42.83935" lon="0.13232">
        <ele>2436.8000488281</ele>
        <time>2019-05-05T10:34:38.000Z</time>
      </trkpt>
      <trkpt lat="42.83935" lon="0.13232">
        <ele>2436.3999023438</ele>
        <time>2019-05-05T10:34:43.000Z</time>
      </trkpt>
      <trkpt lat="42.83935" lon="0.13231">
        <ele>2436.3999023438</ele>
        <time>2019-05-05T10:34:45.000Z</time>
      </trkpt>
      <trkpt lat="42.83935" lon="0.1323">
        <ele>2436.8000488281</ele>
        <time>2019-05-05T10:34:52.000Z</time>
      </trkpt>
      <trkpt lat="42.83934" lon="0.1323">
        <ele>2437</ele>
        <time>2019-05-05T10:34:53.000Z</time>
      </trkpt>
      <trkpt lat="42.83934" lon="0.1323">
        <ele>2437</ele>
        <time>2019-05-05T10:34:54.000Z</time>
      </trkpt>
      <trkpt lat="42.83934" lon="0.13228">
        <ele>2437.3999023438</ele>
        <time>2019-05-05T10:34:57.000Z</time>
      </trkpt>
      <trkpt lat="42.83933" lon="0.13227">
        <ele>2437.6000976562</ele>
        <time>2019-05-05T10:34:58.000Z</time>
      </trkpt>
      <trkpt lat="42.83933" lon="0.13227">
        <ele>2437.8000488281</ele>
        <time>2019-05-05T10:35:02.000Z</time>
      </trkpt>
      <trkpt lat="42.83933" lon="0.13227">
        <ele>2437.6000976562</ele>
        <time>2019-05-05T10:35:04.000Z</time>
      </trkpt>
      <trkpt lat="42.83934" lon="0.13228">
        <ele>2437.6000976562</ele>
        <time>2019-05-05T10:35:05.000Z</time>
      </trkpt>
      <trkpt lat="42.83934" lon="0.13228">
        <ele>2437.6000976562</ele>
        <time>2019-05-05T10:35:06.000Z</time>
      </trkpt>
      <trkpt lat="42.83933" lon="0.13227">
        <ele>2438</ele>
        <time>2019-05-05T10:35:08.000Z</time>
      </trkpt>
      <trkpt lat="42.83932" lon="0.13226">
        <ele>2438.6000976562</ele>
        <time>2019-05-05T10:35:10.000Z</time>
      </trkpt>
      <trkpt lat="42.83931" lon="0.1322">
        <ele>2439.3999023438</ele>
        <time>2019-05-05T10:35:15.000Z</time>
      </trkpt>
      <trkpt lat="42.8393" lon="0.13219">
        <ele>2439.8000488281</ele>
        <time>2019-05-05T10:35:16.000Z</time>
      </trkpt>
      <trkpt lat="42.83929" lon="0.13215">
        <ele>2440.1999511719</ele>
        <time>2019-05-05T10:35:19.000Z</time>
      </trkpt>
      <trkpt lat="42.83927" lon="0.13212">
        <ele>2440.8000488281</ele>
        <time>2019-05-05T10:35:22.000Z</time>
      </trkpt>
      <trkpt lat="42.83922" lon="0.1321">
        <ele>2444.1999511719</ele>
        <time>2019-05-05T10:35:31.000Z</time>
      </trkpt>
      <trkpt lat="42.83923" lon="0.1321">
        <ele>2443.3999023438</ele>
        <time>2019-05-05T10:35:36.000Z</time>
      </trkpt>
      <trkpt lat="42.83923" lon="0.1321">
        <ele>2443.3999023438</ele>
        <time>2019-05-05T10:35:44.000Z</time>
      </trkpt>
      <trkpt lat="42.83923" lon="0.1321">
        <ele>2443.6000976562</ele>
        <time>2019-05-05T10:35:49.000Z</time>
      </trkpt>
      <trkpt lat="42.83921" lon="0.13206">
        <ele>2445</ele>
        <time>2019-05-05T10:36:03.000Z</time>
      </trkpt>
      <trkpt lat="42.8392" lon="0.13201">
        <ele>2446.3999023438</ele>
        <time>2019-05-05T10:36:08.000Z</time>
      </trkpt>
      <trkpt lat="42.83917" lon="0.13198">
        <ele>2448.1999511719</ele>
        <time>2019-05-05T10:36:12.000Z</time>
      </trkpt>
      <trkpt lat="42.83915" lon="0.13195">
        <ele>2449.3999023438</ele>
        <time>2019-05-05T10:36:15.000Z</time>
      </trkpt>
      <trkpt lat="42.8391" lon="0.13188">
        <ele>2452.8000488281</ele>
        <time>2019-05-05T10:36:22.000Z</time>
      </trkpt>
      <trkpt lat="42.83906" lon="0.13183">
        <ele>2455.6000976562</ele>
        <time>2019-05-05T10:36:35.000Z</time>
      </trkpt>
      <trkpt lat="42.83906" lon="0.13183">
        <ele>2455.6000976562</ele>
        <time>2019-05-05T10:36:40.000Z</time>
      </trkpt>
      <trkpt lat="42.83906" lon="0.13183">
        <ele>2455.6000976562</ele>
        <time>2019-05-05T10:36:49.000Z</time>
      </trkpt>
      <trkpt lat="42.83906" lon="0.13183">
        <ele>2455.8000488281</ele>
        <time>2019-05-05T10:36:54.000Z</time>
      </trkpt>
      <trkpt lat="42.83906" lon="0.13183">
        <ele>2455.6000976562</ele>
        <time>2019-05-05T10:36:57.000Z</time>
      </trkpt>
      <trkpt lat="42.83907" lon="0.13183">
        <ele>2455.1999511719</ele>
        <time>2019-05-05T10:37:00.000Z</time>
      </trkpt>
      <trkpt lat="42.83907" lon="0.13183">
        <ele>2455.1999511719</ele>
        <time>2019-05-05T10:37:03.000Z</time>
      </trkpt>
      <trkpt lat="42.83905" lon="0.13182">
        <ele>2456.1999511719</ele>
        <time>2019-05-05T10:37:08.000Z</time>
      </trkpt>
      <trkpt lat="42.83905" lon="0.1318">
        <ele>2456.8000488281</ele>
        <time>2019-05-05T10:37:27.000Z</time>
      </trkpt>
      <trkpt lat="42.83905" lon="0.13179">
        <ele>2456.8000488281</ele>
        <time>2019-05-05T10:37:34.000Z</time>
      </trkpt>
      <trkpt lat="42.83905" lon="0.13179">
        <ele>2457</ele>
        <time>2019-05-05T10:37:40.000Z</time>
      </trkpt>
      <trkpt lat="42.83905" lon="0.13179">
        <ele>2456.8000488281</ele>
        <time>2019-05-05T10:37:47.000Z</time>
      </trkpt>
      <trkpt lat="42.83905" lon="0.13179">
        <ele>2456.3999023438</ele>
        <time>2019-05-05T10:37:49.000Z</time>
      </trkpt>
      <trkpt lat="42.83906" lon="0.13179">
        <ele>2456.1999511719</ele>
        <time>2019-05-05T10:37:50.000Z</time>
      </trkpt>
      <trkpt lat="42.83906" lon="0.13179">
        <ele>2456.1999511719</ele>
        <time>2019-05-05T10:37:51.000Z</time>
      </trkpt>
      <trkpt lat="42.83906" lon="0.13179">
        <ele>2456.1999511719</ele>
        <time>2019-05-05T10:38:02.000Z</time>
      </trkpt>
      <trkpt lat="42.83906" lon="0.13179">
        <ele>2456</ele>
        <time>2019-05-05T10:38:08.000Z</time>
      </trkpt>
      <trkpt lat="42.83906" lon="0.13179">
        <ele>2456</ele>
        <time>2019-05-05T10:38:22.000Z</time>
      </trkpt>
      <trkpt lat="42.83906" lon="0.13178">
        <ele>2456.1999511719</ele>
        <time>2019-05-05T10:38:28.000Z</time>
      </trkpt>
      <trkpt lat="42.83906" lon="0.13179">
        <ele>2456</ele>
        <time>2019-05-05T10:38:36.000Z</time>
      </trkpt>
      <trkpt lat="42.83906" lon="0.13179">
        <ele>2456</ele>
        <time>2019-05-05T10:38:40.000Z</time>
      </trkpt>
      <trkpt lat="42.83907" lon="0.13179">
        <ele>2455.3999023438</ele>
        <time>2019-05-05T10:38:47.000Z</time>
      </trkpt>
      <trkpt lat="42.83907" lon="0.13173">
        <ele>2456</ele>
        <time>2019-05-05T10:39:20.000Z</time>
      </trkpt>
      <trkpt lat="42.83903" lon="0.13164">
        <ele>2459.1999511719</ele>
        <time>2019-05-05T10:39:26.000Z</time>
      </trkpt>
      <trkpt lat="42.83902" lon="0.13163">
        <ele>2459.8000488281</ele>
        <time>2019-05-05T10:39:28.000Z</time>
      </trkpt>
      <trkpt lat="42.83902" lon="0.13162">
        <ele>2460</ele>
        <time>2019-05-05T10:39:29.000Z</time>
      </trkpt>
      <trkpt lat="42.839" lon="0.13153">
        <ele>2461.8000488281</ele>
        <time>2019-05-05T10:39:38.000Z</time>
      </trkpt>
      <trkpt lat="42.839" lon="0.13151">
        <ele>2462</ele>
        <time>2019-05-05T10:39:39.000Z</time>
      </trkpt>
      <trkpt lat="42.83903" lon="0.13131">
        <ele>2461.8000488281</ele>
        <time>2019-05-05T10:39:48.000Z</time>
      </trkpt>
      <trkpt lat="42.83905" lon="0.13123">
        <ele>2461.3999023438</ele>
        <time>2019-05-05T10:39:53.000Z</time>
      </trkpt>
      <trkpt lat="42.83905" lon="0.13121">
        <ele>2461</ele>
        <time>2019-05-05T10:39:54.000Z</time>
      </trkpt>
      <trkpt lat="42.83906" lon="0.1312">
        <ele>2460.8000488281</ele>
        <time>2019-05-05T10:39:55.000Z</time>
      </trkpt>
      <trkpt lat="42.83906" lon="0.13119">
        <ele>2460.3999023438</ele>
        <time>2019-05-05T10:39:56.000Z</time>
      </trkpt>
      <trkpt lat="42.83907" lon="0.13118">
        <ele>2460</ele>
        <time>2019-05-05T10:39:57.000Z</time>
      </trkpt>
      <trkpt lat="42.83908" lon="0.13117">
        <ele>2459.6000976562</ele>
        <time>2019-05-05T10:39:58.000Z</time>
      </trkpt>
      <trkpt lat="42.83912" lon="0.13112">
        <ele>2458</ele>
        <time>2019-05-05T10:40:02.000Z</time>
      </trkpt>
      <trkpt lat="42.83912" lon="0.13111">
        <ele>2458</ele>
        <time>2019-05-05T10:40:03.000Z</time>
      </trkpt>
      <trkpt lat="42.83913" lon="0.13109">
        <ele>2457.6000976562</ele>
        <time>2019-05-05T10:40:07.000Z</time>
      </trkpt>
      <trkpt lat="42.83914" lon="0.13107">
        <ele>2457.1999511719</ele>
        <time>2019-05-05T10:40:09.000Z</time>
      </trkpt>
      <trkpt lat="42.83915" lon="0.13105">
        <ele>2456.8000488281</ele>
        <time>2019-05-05T10:40:11.000Z</time>
      </trkpt>
      <trkpt lat="42.83916" lon="0.13102">
        <ele>2456.6000976562</ele>
        <time>2019-05-05T10:40:14.000Z</time>
      </trkpt>
      <trkpt lat="42.83917" lon="0.131">
        <ele>2456.6000976562</ele>
        <time>2019-05-05T10:40:15.000Z</time>
      </trkpt>
      <trkpt lat="42.8392" lon="0.13097">
        <ele>2455.3999023438</ele>
        <time>2019-05-05T10:40:18.000Z</time>
      </trkpt>
      <trkpt lat="42.83923" lon="0.13093">
        <ele>2454.1999511719</ele>
        <time>2019-05-05T10:40:22.000Z</time>
      </trkpt>
      <trkpt lat="42.83923" lon="0.1309">
        <ele>2454</ele>
        <time>2019-05-05T10:40:27.000Z</time>
      </trkpt>
      <trkpt lat="42.83924" lon="0.13086">
        <ele>2453.8000488281</ele>
        <time>2019-05-05T10:40:37.000Z</time>
      </trkpt>
      <trkpt lat="42.8393" lon="0.13075">
        <ele>2451.6000976562</ele>
        <time>2019-05-05T10:40:54.000Z</time>
      </trkpt>
      <trkpt lat="42.83932" lon="0.1307">
        <ele>2450.6000976562</ele>
        <time>2019-05-05T10:41:01.000Z</time>
      </trkpt>
      <trkpt lat="42.83935" lon="0.13065">
        <ele>2449.6000976562</ele>
        <time>2019-05-05T10:41:07.000Z</time>
      </trkpt>
      <trkpt lat="42.83939" lon="0.13056">
        <ele>2448.8000488281</ele>
        <time>2019-05-05T10:41:28.000Z</time>
      </trkpt>
      <trkpt lat="42.83938" lon="0.13056">
        <ele>2449.3999023438</ele>
        <time>2019-05-05T10:41:35.000Z</time>
      </trkpt>
      <trkpt lat="42.83937" lon="0.13056">
        <ele>2449.6000976562</ele>
        <time>2019-05-05T10:41:41.000Z</time>
      </trkpt>
      <trkpt lat="42.83938" lon="0.13051">
        <ele>2451</ele>
        <time>2019-05-05T10:41:48.000Z</time>
      </trkpt>
      <trkpt lat="42.83939" lon="0.13046">
        <ele>2452.6000976562</ele>
        <time>2019-05-05T10:41:55.000Z</time>
      </trkpt>
      <trkpt lat="42.83942" lon="0.13039">
        <ele>2453.8000488281</ele>
        <time>2019-05-05T10:42:08.000Z</time>
      </trkpt>
      <trkpt lat="42.83944" lon="0.13038">
        <ele>2453.3999023438</ele>
        <time>2019-05-05T10:42:10.000Z</time>
      </trkpt>
      <trkpt lat="42.83947" lon="0.13038">
        <ele>2452.6000976562</ele>
        <time>2019-05-05T10:42:14.000Z</time>
      </trkpt>
      <trkpt lat="42.83949" lon="0.13037">
        <ele>2452.1999511719</ele>
        <time>2019-05-05T10:42:16.000Z</time>
      </trkpt>
      <trkpt lat="42.83949" lon="0.13036">
        <ele>2452.1999511719</ele>
        <time>2019-05-05T10:42:17.000Z</time>
      </trkpt>
      <trkpt lat="42.8395" lon="0.13036">
        <ele>2452.1999511719</ele>
        <time>2019-05-05T10:42:19.000Z</time>
      </trkpt>
      <trkpt lat="42.8395" lon="0.13035">
        <ele>2452.1999511719</ele>
        <time>2019-05-05T10:42:20.000Z</time>
      </trkpt>
      <trkpt lat="42.8395" lon="0.13035">
        <ele>2452.3999023438</ele>
        <time>2019-05-05T10:42:21.000Z</time>
      </trkpt>
      <trkpt lat="42.8395" lon="0.13035">
        <ele>2452.3999023438</ele>
        <time>2019-05-05T10:42:22.000Z</time>
      </trkpt>
      <trkpt lat="42.8395" lon="0.13034">
        <ele>2452.6000976562</ele>
        <time>2019-05-05T10:42:23.000Z</time>
      </trkpt>
      <trkpt lat="42.83953" lon="0.13026">
        <ele>2453.6000976562</ele>
        <time>2019-05-05T10:42:31.000Z</time>
      </trkpt>
      <trkpt lat="42.83954" lon="0.13024">
        <ele>2453.8000488281</ele>
        <time>2019-05-05T10:42:34.000Z</time>
      </trkpt>
      <trkpt lat="42.83961" lon="0.13013">
        <ele>2454.3999023438</ele>
        <time>2019-05-05T10:42:48.000Z</time>
      </trkpt>
      <trkpt lat="42.83955" lon="0.13009">
        <ele>2457</ele>
        <time>2019-05-05T10:43:00.000Z</time>
      </trkpt>
      <trkpt lat="42.83949" lon="0.13006">
        <ele>2460</ele>
        <time>2019-05-05T10:43:09.000Z</time>
      </trkpt>
      <trkpt lat="42.83948" lon="0.13003">
        <ele>2461</ele>
        <time>2019-05-05T10:43:20.000Z</time>
      </trkpt>
      <trkpt lat="42.83947" lon="0.13004">
        <ele>2461</ele>
        <time>2019-05-05T10:43:30.000Z</time>
      </trkpt>
      <trkpt lat="42.83951" lon="0.12997">
        <ele>2461.6000976562</ele>
        <time>2019-05-05T10:43:55.000Z</time>
      </trkpt>
      <trkpt lat="42.83956" lon="0.12983">
        <ele>2463.6000976562</ele>
        <time>2019-05-05T10:44:10.000Z</time>
      </trkpt>
      <trkpt lat="42.83948" lon="0.12975">
        <ele>2468.1999511719</ele>
        <time>2019-05-05T10:44:25.000Z</time>
      </trkpt>
      <trkpt lat="42.83944" lon="0.12972">
        <ele>2470.3999023438</ele>
        <time>2019-05-05T10:44:30.000Z</time>
      </trkpt>
      <trkpt lat="42.83943" lon="0.12969">
        <ele>2471.6000976562</ele>
        <time>2019-05-05T10:44:33.000Z</time>
      </trkpt>
      <trkpt lat="42.83943" lon="0.12967">
        <ele>2472</ele>
        <time>2019-05-05T10:44:35.000Z</time>
      </trkpt>
      <trkpt lat="42.83945" lon="0.12965">
        <ele>2471.8000488281</ele>
        <time>2019-05-05T10:44:37.000Z</time>
      </trkpt>
      <trkpt lat="42.83951" lon="0.12962">
        <ele>2470.6000976562</ele>
        <time>2019-05-05T10:44:45.000Z</time>
      </trkpt>
      <trkpt lat="42.83952" lon="0.12961">
        <ele>2470.6000976562</ele>
        <time>2019-05-05T10:44:46.000Z</time>
      </trkpt>
      <trkpt lat="42.83953" lon="0.1296">
        <ele>2470.3999023438</ele>
        <time>2019-05-05T10:44:48.000Z</time>
      </trkpt>
      <trkpt lat="42.83954" lon="0.12959">
        <ele>2470.6000976562</ele>
        <time>2019-05-05T10:44:50.000Z</time>
      </trkpt>
      <trkpt lat="42.83943" lon="0.12953">
        <ele>2476.3999023438</ele>
        <time>2019-05-05T10:45:06.000Z</time>
      </trkpt>
      <trkpt lat="42.83941" lon="0.12949">
        <ele>2478.3999023438</ele>
        <time>2019-05-05T10:45:12.000Z</time>
      </trkpt>
      <trkpt lat="42.83942" lon="0.12947">
        <ele>2478.6000976562</ele>
        <time>2019-05-05T10:45:21.000Z</time>
      </trkpt>
      <trkpt lat="42.83945" lon="0.12944">
        <ele>2478.8000488281</ele>
        <time>2019-05-05T10:45:25.000Z</time>
      </trkpt>
      <trkpt lat="42.83946" lon="0.12943">
        <ele>2478.8000488281</ele>
        <time>2019-05-05T10:45:27.000Z</time>
      </trkpt>
      <trkpt lat="42.83951" lon="0.12935">
        <ele>2479.8000488281</ele>
        <time>2019-05-05T10:45:38.000Z</time>
      </trkpt>
      <trkpt lat="42.83957" lon="0.12923">
        <ele>2482.1999511719</ele>
        <time>2019-05-05T10:45:58.000Z</time>
      </trkpt>
      <trkpt lat="42.83957" lon="0.12921">
        <ele>2482.8000488281</ele>
        <time>2019-05-05T10:46:36.000Z</time>
      </trkpt>
      <trkpt lat="42.83956" lon="0.12923">
        <ele>2482.3999023438</ele>
        <time>2019-05-05T10:47:03.000Z</time>
      </trkpt>
      <trkpt lat="42.83957" lon="0.12919">
        <ele>2483.6000976562</ele>
        <time>2019-05-05T10:47:18.000Z</time>
      </trkpt>
      <trkpt lat="42.83953" lon="0.12858">
        <ele>2502.6000976562</ele>
        <time>2019-05-05T10:48:11.000Z</time>
      </trkpt>
      <trkpt lat="42.83953" lon="0.12855">
        <ele>2503.3999023438</ele>
        <time>2019-05-05T10:48:25.000Z</time>
      </trkpt>
      <trkpt lat="42.83955" lon="0.12856">
        <ele>2502.6000976562</ele>
        <time>2019-05-05T10:49:23.000Z</time>
      </trkpt>
      <trkpt lat="42.83955" lon="0.12856">
        <ele>2502.6000976562</ele>
        <time>2019-05-05T10:49:26.000Z</time>
      </trkpt>
      <trkpt lat="42.83954" lon="0.12855">
        <ele>2502.8000488281</ele>
        <time>2019-05-05T10:49:35.000Z</time>
      </trkpt>
      <trkpt lat="42.83953" lon="0.12856">
        <ele>2503</ele>
        <time>2019-05-05T10:49:48.000Z</time>
      </trkpt>
      <trkpt lat="42.83953" lon="0.12856">
        <ele>2503.1999511719</ele>
        <time>2019-05-05T10:49:50.000Z</time>
      </trkpt>
      <trkpt lat="42.83953" lon="0.12856">
        <ele>2503.1999511719</ele>
        <time>2019-05-05T10:49:52.000Z</time>
      </trkpt>
      <trkpt lat="42.83953" lon="0.12856">
        <ele>2503.1999511719</ele>
        <time>2019-05-05T10:49:55.000Z</time>
      </trkpt>
      <trkpt lat="42.83953" lon="0.12855">
        <ele>2503.1999511719</ele>
        <time>2019-05-05T10:50:11.000Z</time>
      </trkpt>
      <trkpt lat="42.83953" lon="0.12855">
        <ele>2503.3999023438</ele>
        <time>2019-05-05T10:50:24.000Z</time>
      </trkpt>
      <trkpt lat="42.83954" lon="0.12856">
        <ele>2502.6000976562</ele>
        <time>2019-05-05T10:50:57.000Z</time>
      </trkpt>
      <trkpt lat="42.83954" lon="0.12856">
        <ele>2502.6000976562</ele>
        <time>2019-05-05T10:51:03.000Z</time>
      </trkpt>
      <trkpt lat="42.83953" lon="0.12858">
        <ele>2502.6000976562</ele>
        <time>2019-05-05T10:51:12.000Z</time>
      </trkpt>
      <trkpt lat="42.83953" lon="0.12856">
        <ele>2503.1999511719</ele>
        <time>2019-05-05T10:51:27.000Z</time>
      </trkpt>
      <trkpt lat="42.83953" lon="0.12856">
        <ele>2503.3999023438</ele>
        <time>2019-05-05T10:51:35.000Z</time>
      </trkpt>
      <trkpt lat="42.83953" lon="0.12856">
        <ele>2503.3999023438</ele>
        <time>2019-05-05T10:51:38.000Z</time>
      </trkpt>
      <trkpt lat="42.83952" lon="0.12854">
        <ele>2504</ele>
        <time>2019-05-05T10:51:41.000Z</time>
      </trkpt>
      <trkpt lat="42.83952" lon="0.12854">
        <ele>2504</ele>
        <time>2019-05-05T10:51:42.000Z</time>
      </trkpt>
      <trkpt lat="42.83952" lon="0.12855">
        <ele>2504</ele>
        <time>2019-05-05T10:51:43.000Z</time>
      </trkpt>
      <trkpt lat="42.83952" lon="0.12855">
        <ele>2503.8000488281</ele>
        <time>2019-05-05T10:51:45.000Z</time>
      </trkpt>
      <trkpt lat="42.83952" lon="0.12855">
        <ele>2503.8000488281</ele>
        <time>2019-05-05T10:51:46.000Z</time>
      </trkpt>
      <trkpt lat="42.83952" lon="0.12855">
        <ele>2503.8000488281</ele>
        <time>2019-05-05T10:51:47.000Z</time>
      </trkpt>
      <trkpt lat="42.83953" lon="0.12855">
        <ele>2503.6000976562</ele>
        <time>2019-05-05T10:51:49.000Z</time>
      </trkpt>
      <trkpt lat="42.83953" lon="0.12855">
        <ele>2503.6000976562</ele>
        <time>2019-05-05T10:51:51.000Z</time>
      </trkpt>
      <trkpt lat="42.83953" lon="0.12855">
        <ele>2503.6000976562</ele>
        <time>2019-05-05T10:51:53.000Z</time>
      </trkpt>
      <trkpt lat="42.83952" lon="0.12855">
        <ele>2503.6000976562</ele>
        <time>2019-05-05T10:51:55.000Z</time>
      </trkpt>
      <trkpt lat="42.83952" lon="0.12855">
        <ele>2503.8000488281</ele>
        <time>2019-05-05T10:51:57.000Z</time>
      </trkpt>
      <trkpt lat="42.83952" lon="0.12856">
        <ele>2503.8000488281</ele>
        <time>2019-05-05T10:52:02.000Z</time>
      </trkpt>
      <trkpt lat="42.83952" lon="0.12855">
        <ele>2503.8000488281</ele>
        <time>2019-05-05T10:52:06.000Z</time>
      </trkpt>
      <trkpt lat="42.83952" lon="0.12855">
        <ele>2503.8000488281</ele>
        <time>2019-05-05T10:52:07.000Z</time>
      </trkpt>
      <trkpt lat="42.83953" lon="0.12851">
        <ele>2504.6000976562</ele>
        <time>2019-05-05T10:52:11.000Z</time>
      </trkpt>
      <trkpt lat="42.83954" lon="0.12848">
        <ele>2505.1999511719</ele>
        <time>2019-05-05T10:52:13.000Z</time>
      </trkpt>
      <trkpt lat="42.83956" lon="0.12843">
        <ele>2506</ele>
        <time>2019-05-05T10:52:16.000Z</time>
      </trkpt>
      <trkpt lat="42.83958" lon="0.12835">
        <ele>2507.6000976562</ele>
        <time>2019-05-05T10:52:22.000Z</time>
      </trkpt>
      <trkpt lat="42.83958" lon="0.12834">
        <ele>2508</ele>
        <time>2019-05-05T10:52:23.000Z</time>
      </trkpt>
      <trkpt lat="42.83959" lon="0.12831">
        <ele>2508.6000976562</ele>
        <time>2019-05-05T10:52:25.000Z</time>
      </trkpt>
      <trkpt lat="42.83959" lon="0.12829">
        <ele>2509</ele>
        <time>2019-05-05T10:52:27.000Z</time>
      </trkpt>
      <trkpt lat="42.8396" lon="0.12826">
        <ele>2509.1999511719</ele>
        <time>2019-05-05T10:52:29.000Z</time>
      </trkpt>
      <trkpt lat="42.83962" lon="0.12816">
        <ele>2510.6000976562</ele>
        <time>2019-05-05T10:52:37.000Z</time>
      </trkpt>
      <trkpt lat="42.83974" lon="0.12778">
        <ele>2513.1999511719</ele>
        <time>2019-05-05T10:53:06.000Z</time>
      </trkpt>
      <trkpt lat="42.83976" lon="0.1277">
        <ele>2513.3999023438</ele>
        <time>2019-05-05T10:53:12.000Z</time>
      </trkpt>
      <trkpt lat="42.83976" lon="0.12769">
        <ele>2513.6000976562</ele>
        <time>2019-05-05T10:53:13.000Z</time>
      </trkpt>
      <trkpt lat="42.83979" lon="0.1276">
        <ele>2514.3999023438</ele>
        <time>2019-05-05T10:53:22.000Z</time>
      </trkpt>
      <trkpt lat="42.83979" lon="0.12759">
        <ele>2514.3999023438</ele>
        <time>2019-05-05T10:53:23.000Z</time>
      </trkpt>
      <trkpt lat="42.8398" lon="0.12758">
        <ele>2514.6000976562</ele>
        <time>2019-05-05T10:53:24.000Z</time>
      </trkpt>
      <trkpt lat="42.83981" lon="0.12754">
        <ele>2515</ele>
        <time>2019-05-05T10:53:31.000Z</time>
      </trkpt>
      <trkpt lat="42.83982" lon="0.12752">
        <ele>2515.1999511719</ele>
        <time>2019-05-05T10:53:34.000Z</time>
      </trkpt>
      <trkpt lat="42.83982" lon="0.12751">
        <ele>2515.3999023438</ele>
        <time>2019-05-05T10:53:41.000Z</time>
      </trkpt>
      <trkpt lat="42.83982" lon="0.12749">
        <ele>2515.8000488281</ele>
        <time>2019-05-05T10:53:43.000Z</time>
      </trkpt>
      <trkpt lat="42.83983" lon="0.12745">
        <ele>2516.1999511719</ele>
        <time>2019-05-05T10:53:54.000Z</time>
      </trkpt>
      <trkpt lat="42.83985" lon="0.12741">
        <ele>2516.6000976562</ele>
        <time>2019-05-05T10:54:02.000Z</time>
      </trkpt>
      <trkpt lat="42.83985" lon="0.12741">
        <ele>2516.6000976562</ele>
        <time>2019-05-05T10:54:03.000Z</time>
      </trkpt>
      <trkpt lat="42.83985" lon="0.1274">
        <ele>2516.6000976562</ele>
        <time>2019-05-05T10:54:04.000Z</time>
      </trkpt>
      <trkpt lat="42.83984" lon="0.1274">
        <ele>2517</ele>
        <time>2019-05-05T10:54:09.000Z</time>
      </trkpt>
      <trkpt lat="42.83985" lon="0.12737">
        <ele>2517.1999511719</ele>
        <time>2019-05-05T10:54:21.000Z</time>
      </trkpt>
      <trkpt lat="42.83986" lon="0.12731">
        <ele>2518.1999511719</ele>
        <time>2019-05-05T10:54:30.000Z</time>
      </trkpt>
      <trkpt lat="42.83986" lon="0.12731">
        <ele>2518.3999023438</ele>
        <time>2019-05-05T10:54:34.000Z</time>
      </trkpt>
      <trkpt lat="42.83986" lon="0.1273">
        <ele>2518.3999023438</ele>
        <time>2019-05-05T10:54:40.000Z</time>
      </trkpt>
      <trkpt lat="42.83986" lon="0.1273">
        <ele>2518.3999023438</ele>
        <time>2019-05-05T10:54:43.000Z</time>
      </trkpt>
      <trkpt lat="42.83986" lon="0.1273">
        <ele>2518.3999023438</ele>
        <time>2019-05-05T10:54:45.000Z</time>
      </trkpt>
      <trkpt lat="42.83987" lon="0.12728">
        <ele>2519</ele>
        <time>2019-05-05T10:54:49.000Z</time>
      </trkpt>
      <trkpt lat="42.83987" lon="0.12728">
        <ele>2519</ele>
        <time>2019-05-05T10:54:51.000Z</time>
      </trkpt>
      <trkpt lat="42.83987" lon="0.12726">
        <ele>2519</ele>
        <time>2019-05-05T10:54:54.000Z</time>
      </trkpt>
      <trkpt lat="42.83987" lon="0.12724">
        <ele>2519.6000976562</ele>
        <time>2019-05-05T10:55:02.000Z</time>
      </trkpt>
      <trkpt lat="42.83987" lon="0.12722">
        <ele>2520</ele>
        <time>2019-05-05T10:55:07.000Z</time>
      </trkpt>
      <trkpt lat="42.83988" lon="0.12718">
        <ele>2520.8000488281</ele>
        <time>2019-05-05T10:55:13.000Z</time>
      </trkpt>
      <trkpt lat="42.83992" lon="0.12701">
        <ele>2523.3999023438</ele>
        <time>2019-05-05T10:55:56.000Z</time>
      </trkpt>
      <trkpt lat="42.83991" lon="0.12699">
        <ele>2524.6000976562</ele>
        <time>2019-05-05T10:56:33.000Z</time>
      </trkpt>
      <trkpt lat="42.83987" lon="0.12696">
        <ele>2527.1999511719</ele>
        <time>2019-05-05T10:57:39.000Z</time>
      </trkpt>
      <trkpt lat="42.83989" lon="0.12685">
        <ele>2528.8000488281</ele>
        <time>2019-05-05T10:58:04.000Z</time>
      </trkpt>
      <trkpt lat="42.83995" lon="0.12675">
        <ele>2528.8000488281</ele>
        <time>2019-05-05T10:58:28.000Z</time>
      </trkpt>
      <trkpt lat="42.83996" lon="0.12674">
        <ele>2528.6000976562</ele>
        <time>2019-05-05T10:58:30.000Z</time>
      </trkpt>
      <trkpt lat="42.83998" lon="0.12672">
        <ele>2528.1999511719</ele>
        <time>2019-05-05T10:58:34.000Z</time>
      </trkpt>
      <trkpt lat="42.83999" lon="0.12669">
        <ele>2528.1999511719</ele>
        <time>2019-05-05T10:58:37.000Z</time>
      </trkpt>
      <trkpt lat="42.84" lon="0.12667">
        <ele>2528.6000976562</ele>
        <time>2019-05-05T10:58:42.000Z</time>
      </trkpt>
      <trkpt lat="42.84" lon="0.12666">
        <ele>2528.6000976562</ele>
        <time>2019-05-05T10:58:49.000Z</time>
      </trkpt>
      <trkpt lat="42.84" lon="0.12664">
        <ele>2529.1999511719</ele>
        <time>2019-05-05T10:58:56.000Z</time>
      </trkpt>
      <trkpt lat="42.8401" lon="0.12645">
        <ele>2529.6000976562</ele>
        <time>2019-05-05T10:59:21.000Z</time>
      </trkpt>
      <trkpt lat="42.8401" lon="0.12643">
        <ele>2529.8000488281</ele>
        <time>2019-05-05T10:59:23.000Z</time>
      </trkpt>
      <trkpt lat="42.84016" lon="0.12631">
        <ele>2530.6000976562</ele>
        <time>2019-05-05T10:59:47.000Z</time>
      </trkpt>
      <trkpt lat="42.84016" lon="0.12631">
        <ele>2530.6000976562</ele>
        <time>2019-05-05T10:59:59.000Z</time>
      </trkpt>
      <trkpt lat="42.84016" lon="0.12631">
        <ele>2530.3999023438</ele>
        <time>2019-05-05T11:00:11.000Z</time>
      </trkpt>
      <trkpt lat="42.84018" lon="0.12627">
        <ele>2531.3999023438</ele>
        <time>2019-05-05T11:00:18.000Z</time>
      </trkpt>
      <trkpt lat="42.84021" lon="0.12617">
        <ele>2532.6000976562</ele>
        <time>2019-05-05T11:00:27.000Z</time>
      </trkpt>
      <trkpt lat="42.84032" lon="0.12592">
        <ele>2535</ele>
        <time>2019-05-05T11:00:44.000Z</time>
      </trkpt>
      <trkpt lat="42.84032" lon="0.1259">
        <ele>2535.1999511719</ele>
        <time>2019-05-05T11:00:45.000Z</time>
      </trkpt>
      <trkpt lat="42.84033" lon="0.12587">
        <ele>2535.8000488281</ele>
        <time>2019-05-05T11:00:47.000Z</time>
      </trkpt>
      <trkpt lat="42.84033" lon="0.12586">
        <ele>2536</ele>
        <time>2019-05-05T11:00:48.000Z</time>
      </trkpt>
      <trkpt lat="42.84034" lon="0.12583">
        <ele>2536.6000976562</ele>
        <time>2019-05-05T11:00:50.000Z</time>
      </trkpt>
      <trkpt lat="42.84034" lon="0.12582">
        <ele>2537</ele>
        <time>2019-05-05T11:00:51.000Z</time>
      </trkpt>
      <trkpt lat="42.84034" lon="0.12581">
        <ele>2537.1999511719</ele>
        <time>2019-05-05T11:00:52.000Z</time>
      </trkpt>
      <trkpt lat="42.84034" lon="0.12579">
        <ele>2537.3999023438</ele>
        <time>2019-05-05T11:00:53.000Z</time>
      </trkpt>
      <trkpt lat="42.84034" lon="0.12578">
        <ele>2537.8000488281</ele>
        <time>2019-05-05T11:00:54.000Z</time>
      </trkpt>
      <trkpt lat="42.84034" lon="0.12578">
        <ele>2537.8000488281</ele>
        <time>2019-05-05T11:00:56.000Z</time>
      </trkpt>
      <trkpt lat="42.84034" lon="0.12578">
        <ele>2538</ele>
        <time>2019-05-05T11:01:00.000Z</time>
      </trkpt>
      <trkpt lat="42.84033" lon="0.12578">
        <ele>2538</ele>
        <time>2019-05-05T11:01:03.000Z</time>
      </trkpt>
      <trkpt lat="42.84033" lon="0.12573">
        <ele>2539.3999023438</ele>
        <time>2019-05-05T11:01:24.000Z</time>
      </trkpt>
      <trkpt lat="42.84033" lon="0.12567">
        <ele>2541</ele>
        <time>2019-05-05T11:01:28.000Z</time>
      </trkpt>
      <trkpt lat="42.84035" lon="0.12555">
        <ele>2544.6000976562</ele>
        <time>2019-05-05T11:01:37.000Z</time>
      </trkpt>
      <trkpt lat="42.84046" lon="0.1253">
        <ele>2548.8000488281</ele>
        <time>2019-05-05T11:01:59.000Z</time>
      </trkpt>
      <trkpt lat="42.84055" lon="0.12523">
        <ele>2548.1999511719</ele>
        <time>2019-05-05T11:02:10.000Z</time>
      </trkpt>
      <trkpt lat="42.84058" lon="0.12523">
        <ele>2547.3999023438</ele>
        <time>2019-05-05T11:02:13.000Z</time>
      </trkpt>
      <trkpt lat="42.84058" lon="0.12523">
        <ele>2547.1999511719</ele>
        <time>2019-05-05T11:02:14.000Z</time>
      </trkpt>
      <trkpt lat="42.84059" lon="0.12523">
        <ele>2547</ele>
        <time>2019-05-05T11:02:15.000Z</time>
      </trkpt>
      <trkpt lat="42.8406" lon="0.12522">
        <ele>2546.6000976562</ele>
        <time>2019-05-05T11:02:16.000Z</time>
      </trkpt>
      <trkpt lat="42.84062" lon="0.12522">
        <ele>2546.1999511719</ele>
        <time>2019-05-05T11:02:19.000Z</time>
      </trkpt>
      <trkpt lat="42.84066" lon="0.12521">
        <ele>2545.1999511719</ele>
        <time>2019-05-05T11:02:26.000Z</time>
      </trkpt>
      <trkpt lat="42.84071" lon="0.12518">
        <ele>2544.3999023438</ele>
        <time>2019-05-05T11:02:34.000Z</time>
      </trkpt>
      <trkpt lat="42.84073" lon="0.12517">
        <ele>2544</ele>
        <time>2019-05-05T11:02:38.000Z</time>
      </trkpt>
      <trkpt lat="42.84075" lon="0.12516">
        <ele>2543.8000488281</ele>
        <time>2019-05-05T11:02:41.000Z</time>
      </trkpt>
      <trkpt lat="42.8408" lon="0.1251">
        <ele>2543.8000488281</ele>
        <time>2019-05-05T11:02:51.000Z</time>
      </trkpt>
      <trkpt lat="42.84082" lon="0.12508">
        <ele>2543.8000488281</ele>
        <time>2019-05-05T11:02:56.000Z</time>
      </trkpt>
      <trkpt lat="42.84082" lon="0.12508">
        <ele>2543.8000488281</ele>
        <time>2019-05-05T11:03:03.000Z</time>
      </trkpt>
      <trkpt lat="42.84084" lon="0.12505">
        <ele>2544.3999023438</ele>
        <time>2019-05-05T11:03:21.000Z</time>
      </trkpt>
      <trkpt lat="42.84085" lon="0.12502">
        <ele>2545</ele>
        <time>2019-05-05T11:03:49.000Z</time>
      </trkpt>
      <trkpt lat="42.84086" lon="0.12502">
        <ele>2544.8000488281</ele>
        <time>2019-05-05T11:04:02.000Z</time>
      </trkpt>
      <trkpt lat="42.84087" lon="0.12501">
        <ele>2544.6000976562</ele>
        <time>2019-05-05T11:04:16.000Z</time>
      </trkpt>
      <trkpt lat="42.84092" lon="0.12494">
        <ele>2545.3999023438</ele>
        <time>2019-05-05T11:04:27.000Z</time>
      </trkpt>
      <trkpt lat="42.84093" lon="0.12492">
        <ele>2545.6000976562</ele>
        <time>2019-05-05T11:04:29.000Z</time>
      </trkpt>
      <trkpt lat="42.84094" lon="0.12492">
        <ele>2545.6000976562</ele>
        <time>2019-05-05T11:04:30.000Z</time>
      </trkpt>
      <trkpt lat="42.84093" lon="0.12491">
        <ele>2546</ele>
        <time>2019-05-05T11:04:34.000Z</time>
      </trkpt>
      <trkpt lat="42.8409" lon="0.12491">
        <ele>2546.8000488281</ele>
        <time>2019-05-05T11:04:40.000Z</time>
      </trkpt>
      <trkpt lat="42.8409" lon="0.12491">
        <ele>2546.8000488281</ele>
        <time>2019-05-05T11:04:41.000Z</time>
      </trkpt>
      <trkpt lat="42.8409" lon="0.12492">
        <ele>2546.6000976562</ele>
        <time>2019-05-05T11:04:43.000Z</time>
      </trkpt>
      <trkpt lat="42.8409" lon="0.12492">
        <ele>2546.6000976562</ele>
        <time>2019-05-05T11:04:44.000Z</time>
      </trkpt>
      <trkpt lat="42.8409" lon="0.12492">
        <ele>2546.6000976562</ele>
        <time>2019-05-05T11:04:45.000Z</time>
      </trkpt>
      <trkpt lat="42.84089" lon="0.12492">
        <ele>2547</ele>
        <time>2019-05-05T11:04:46.000Z</time>
      </trkpt>
      <trkpt lat="42.84089" lon="0.12492">
        <ele>2547</ele>
        <time>2019-05-05T11:04:47.000Z</time>
      </trkpt>
      <trkpt lat="42.84088" lon="0.12492">
        <ele>2547.1999511719</ele>
        <time>2019-05-05T11:04:48.000Z</time>
      </trkpt>
      <trkpt lat="42.84082" lon="0.12492">
        <ele>2549.3999023438</ele>
        <time>2019-05-05T11:04:57.000Z</time>
      </trkpt>
      <trkpt lat="42.84082" lon="0.12491">
        <ele>2549.6000976562</ele>
        <time>2019-05-05T11:04:59.000Z</time>
      </trkpt>
      <trkpt lat="42.84084" lon="0.12488">
        <ele>2549.6000976562</ele>
        <time>2019-05-05T11:05:03.000Z</time>
      </trkpt>
      <trkpt lat="42.84085" lon="0.12488">
        <ele>2549.8000488281</ele>
        <time>2019-05-05T11:05:04.000Z</time>
      </trkpt>
      <trkpt lat="42.84085" lon="0.12487">
        <ele>2549.8000488281</ele>
        <time>2019-05-05T11:05:05.000Z</time>
      </trkpt>
      <trkpt lat="42.84087" lon="0.12485">
        <ele>2549.8000488281</ele>
        <time>2019-05-05T11:05:07.000Z</time>
      </trkpt>
      <trkpt lat="42.84087" lon="0.12485">
        <ele>2549.8000488281</ele>
        <time>2019-05-05T11:05:08.000Z</time>
      </trkpt>
      <trkpt lat="42.84088" lon="0.12484">
        <ele>2549.6000976562</ele>
        <time>2019-05-05T11:05:09.000Z</time>
      </trkpt>
      <trkpt lat="42.84089" lon="0.12483">
        <ele>2549.6000976562</ele>
        <time>2019-05-05T11:05:10.000Z</time>
      </trkpt>
      <trkpt lat="42.84091" lon="0.12481">
        <ele>2549.8000488281</ele>
        <time>2019-05-05T11:05:13.000Z</time>
      </trkpt>
      <trkpt lat="42.8409" lon="0.1248">
        <ele>2550.3999023438</ele>
        <time>2019-05-05T11:05:20.000Z</time>
      </trkpt>
      <trkpt lat="42.84087" lon="0.12484">
        <ele>2550.1999511719</ele>
        <time>2019-05-05T11:05:48.000Z</time>
      </trkpt>
      <trkpt lat="42.84087" lon="0.12484">
        <ele>2550.1999511719</ele>
        <time>2019-05-05T11:05:50.000Z</time>
      </trkpt>
      <trkpt lat="42.84087" lon="0.12484">
        <ele>2550.1999511719</ele>
        <time>2019-05-05T11:05:53.000Z</time>
      </trkpt>
      <trkpt lat="42.84087" lon="0.12484">
        <ele>2550.1999511719</ele>
        <time>2019-05-05T11:05:54.000Z</time>
      </trkpt>
      <trkpt lat="42.84087" lon="0.12484">
        <ele>2550.1999511719</ele>
        <time>2019-05-05T11:05:56.000Z</time>
      </trkpt>
      <trkpt lat="42.84087" lon="0.12484">
        <ele>2550.1999511719</ele>
        <time>2019-05-05T11:06:00.000Z</time>
      </trkpt>
      <trkpt lat="42.84084" lon="0.12484">
        <ele>2551.1999511719</ele>
        <time>2019-05-05T11:06:07.000Z</time>
      </trkpt>
      <trkpt lat="42.84082" lon="0.12483">
        <ele>2551.8000488281</ele>
        <time>2019-05-05T11:06:09.000Z</time>
      </trkpt>
      <trkpt lat="42.84081" lon="0.12483">
        <ele>2552.3999023438</ele>
        <time>2019-05-05T11:06:11.000Z</time>
      </trkpt>
      <trkpt lat="42.84078" lon="0.12483">
        <ele>2553.3999023438</ele>
        <time>2019-05-05T11:06:14.000Z</time>
      </trkpt>
      <trkpt lat="42.84075" lon="0.12483">
        <ele>2554.3999023438</ele>
        <time>2019-05-05T11:06:17.000Z</time>
      </trkpt>
      <trkpt lat="42.84072" lon="0.12482">
        <ele>2556</ele>
        <time>2019-05-05T11:06:21.000Z</time>
      </trkpt>
      <trkpt lat="42.8407" lon="0.12481">
        <ele>2557</ele>
        <time>2019-05-05T11:06:24.000Z</time>
      </trkpt>
      <trkpt lat="42.84069" lon="0.12481">
        <ele>2557.1999511719</ele>
        <time>2019-05-05T11:06:25.000Z</time>
      </trkpt>
      <trkpt lat="42.84068" lon="0.1248">
        <ele>2557.8000488281</ele>
        <time>2019-05-05T11:06:26.000Z</time>
      </trkpt>
      <trkpt lat="42.84068" lon="0.1248">
        <ele>2558</ele>
        <time>2019-05-05T11:06:27.000Z</time>
      </trkpt>
      <trkpt lat="42.84066" lon="0.12478">
        <ele>2559</ele>
        <time>2019-05-05T11:06:29.000Z</time>
      </trkpt>
      <trkpt lat="42.84065" lon="0.12477">
        <ele>2559.6000976562</ele>
        <time>2019-05-05T11:06:30.000Z</time>
      </trkpt>
      <trkpt lat="42.84064" lon="0.12475">
        <ele>2561</ele>
        <time>2019-05-05T11:06:33.000Z</time>
      </trkpt>
      <trkpt lat="42.84062" lon="0.12473">
        <ele>2562.1999511719</ele>
        <time>2019-05-05T11:06:36.000Z</time>
      </trkpt>
      <trkpt lat="42.84059" lon="0.12471">
        <ele>2563.8000488281</ele>
        <time>2019-05-05T11:06:40.000Z</time>
      </trkpt>
      <trkpt lat="42.84058" lon="0.1247">
        <ele>2564.1999511719</ele>
        <time>2019-05-05T11:06:41.000Z</time>
      </trkpt>
      <trkpt lat="42.84058" lon="0.12469">
        <ele>2564.6000976562</ele>
        <time>2019-05-05T11:06:42.000Z</time>
      </trkpt>
      <trkpt lat="42.8406" lon="0.12467">
        <ele>2564.6000976562</ele>
        <time>2019-05-05T11:06:45.000Z</time>
      </trkpt>
      <trkpt lat="42.84065" lon="0.12464">
        <ele>2564</ele>
        <time>2019-05-05T11:07:16.000Z</time>
      </trkpt>
      <trkpt lat="42.84065" lon="0.12464">
        <ele>2563.8000488281</ele>
        <time>2019-05-05T11:07:33.000Z</time>
      </trkpt>
      <trkpt lat="42.84075" lon="0.12455">
        <ele>2563.8000488281</ele>
        <time>2019-05-05T11:08:17.000Z</time>
      </trkpt>
      <trkpt lat="42.84078" lon="0.12443">
        <ele>2566.8000488281</ele>
        <time>2019-05-05T11:08:57.000Z</time>
      </trkpt>
      <trkpt lat="42.8408" lon="0.12417">
        <ele>2573.8000488281</ele>
        <time>2019-05-05T11:09:37.000Z</time>
      </trkpt>
      <trkpt lat="42.84074" lon="0.12401">
        <ele>2581</ele>
        <time>2019-05-05T11:10:08.000Z</time>
      </trkpt>
      <trkpt lat="42.84075" lon="0.12389">
        <ele>2584.1999511719</ele>
        <time>2019-05-05T11:10:23.000Z</time>
      </trkpt>
      <trkpt lat="42.84077" lon="0.12364">
        <ele>2590.1999511719</ele>
        <time>2019-05-05T11:10:55.000Z</time>
      </trkpt>
      <trkpt lat="42.84077" lon="0.12358">
        <ele>2591.3999023438</ele>
        <time>2019-05-05T11:11:03.000Z</time>
      </trkpt>
      <trkpt lat="42.84077" lon="0.12356">
        <ele>2591.8000488281</ele>
        <time>2019-05-05T11:11:06.000Z</time>
      </trkpt>
      <trkpt lat="42.84077" lon="0.12353">
        <ele>2592.6000976562</ele>
        <time>2019-05-05T11:11:09.000Z</time>
      </trkpt>
      <trkpt lat="42.84077" lon="0.12352">
        <ele>2592.8000488281</ele>
        <time>2019-05-05T11:11:10.000Z</time>
      </trkpt>
      <trkpt lat="42.84077" lon="0.12352">
        <ele>2593</ele>
        <time>2019-05-05T11:11:11.000Z</time>
      </trkpt>
      <trkpt lat="42.84077" lon="0.12351">
        <ele>2593.1999511719</ele>
        <time>2019-05-05T11:11:12.000Z</time>
      </trkpt>
      <trkpt lat="42.84077" lon="0.1235">
        <ele>2593.1999511719</ele>
        <time>2019-05-05T11:11:13.000Z</time>
      </trkpt>
      <trkpt lat="42.84079" lon="0.12344">
        <ele>2594.3999023438</ele>
        <time>2019-05-05T11:11:20.000Z</time>
      </trkpt>
      <trkpt lat="42.8408" lon="0.12336">
        <ele>2596</ele>
        <time>2019-05-05T11:11:28.000Z</time>
      </trkpt>
      <trkpt lat="42.8408" lon="0.12333">
        <ele>2596.6000976562</ele>
        <time>2019-05-05T11:11:31.000Z</time>
      </trkpt>
      <trkpt lat="42.84081" lon="0.12329">
        <ele>2597.1999511719</ele>
        <time>2019-05-05T11:11:35.000Z</time>
      </trkpt>
      <trkpt lat="42.84081" lon="0.12326">
        <ele>2598</ele>
        <time>2019-05-05T11:11:39.000Z</time>
      </trkpt>
      <trkpt lat="42.84081" lon="0.12323">
        <ele>2598.8000488281</ele>
        <time>2019-05-05T11:11:44.000Z</time>
      </trkpt>
      <trkpt lat="42.84082" lon="0.12315">
        <ele>2600.1999511719</ele>
        <time>2019-05-05T11:11:53.000Z</time>
      </trkpt>
      <trkpt lat="42.84089" lon="0.12306">
        <ele>2600</ele>
        <time>2019-05-05T11:12:14.000Z</time>
      </trkpt>
      <trkpt lat="42.8409" lon="0.12306">
        <ele>2600</ele>
        <time>2019-05-05T11:12:15.000Z</time>
      </trkpt>
      <trkpt lat="42.8409" lon="0.12305">
        <ele>2600</ele>
        <time>2019-05-05T11:12:16.000Z</time>
      </trkpt>
      <trkpt lat="42.84091" lon="0.12305">
        <ele>2600</ele>
        <time>2019-05-05T11:12:17.000Z</time>
      </trkpt>
      <trkpt lat="42.84094" lon="0.12303">
        <ele>2599.8000488281</ele>
        <time>2019-05-05T11:12:24.000Z</time>
      </trkpt>
      <trkpt lat="42.84094" lon="0.12301">
        <ele>2600.1999511719</ele>
        <time>2019-05-05T11:12:27.000Z</time>
      </trkpt>
      <trkpt lat="42.84093" lon="0.12299">
        <ele>2601</ele>
        <time>2019-05-05T11:12:32.000Z</time>
      </trkpt>
      <trkpt lat="42.84092" lon="0.12299">
        <ele>2601.1999511719</ele>
        <time>2019-05-05T11:12:33.000Z</time>
      </trkpt>
      <trkpt lat="42.84092" lon="0.12298">
        <ele>2601.3999023438</ele>
        <time>2019-05-05T11:12:34.000Z</time>
      </trkpt>
      <trkpt lat="42.84091" lon="0.12295">
        <ele>2602.6000976562</ele>
        <time>2019-05-05T11:12:40.000Z</time>
      </trkpt>
      <trkpt lat="42.84089" lon="0.12293">
        <ele>2603.3999023438</ele>
        <time>2019-05-05T11:12:45.000Z</time>
      </trkpt>
      <trkpt lat="42.84089" lon="0.12292">
        <ele>2603.6000976562</ele>
        <time>2019-05-05T11:12:47.000Z</time>
      </trkpt>
      <trkpt lat="42.84089" lon="0.1229">
        <ele>2604.3999023438</ele>
        <time>2019-05-05T11:12:52.000Z</time>
      </trkpt>
      <trkpt lat="42.8409" lon="0.12287">
        <ele>2604.8000488281</ele>
        <time>2019-05-05T11:12:56.000Z</time>
      </trkpt>
      <trkpt lat="42.84092" lon="0.12286">
        <ele>2605.1999511719</ele>
        <time>2019-05-05T11:12:59.000Z</time>
      </trkpt>
      <trkpt lat="42.84094" lon="0.12283">
        <ele>2605.8000488281</ele>
        <time>2019-05-05T11:13:05.000Z</time>
      </trkpt>
      <trkpt lat="42.84095" lon="0.12282">
        <ele>2605.8000488281</ele>
        <time>2019-05-05T11:13:09.000Z</time>
      </trkpt>
      <trkpt lat="42.84098" lon="0.12272">
        <ele>2608.3999023438</ele>
        <time>2019-05-05T11:13:37.000Z</time>
      </trkpt>
      <trkpt lat="42.84097" lon="0.12271">
        <ele>2608.8000488281</ele>
        <time>2019-05-05T11:13:39.000Z</time>
      </trkpt>
      <trkpt lat="42.84097" lon="0.12271">
        <ele>2609.1999511719</ele>
        <time>2019-05-05T11:13:40.000Z</time>
      </trkpt>
      <trkpt lat="42.84097" lon="0.1227">
        <ele>2609.1999511719</ele>
        <time>2019-05-05T11:13:41.000Z</time>
      </trkpt>
      <trkpt lat="42.84095" lon="0.12267">
        <ele>2610.3999023438</ele>
        <time>2019-05-05T11:13:46.000Z</time>
      </trkpt>
      <trkpt lat="42.84102" lon="0.12253">
        <ele>2613.8000488281</ele>
        <time>2019-05-05T11:14:06.000Z</time>
      </trkpt>
      <trkpt lat="42.84105" lon="0.12248">
        <ele>2615</ele>
        <time>2019-05-05T11:14:15.000Z</time>
      </trkpt>
      <trkpt lat="42.84103" lon="0.12225">
        <ele>2622</ele>
        <time>2019-05-05T11:14:44.000Z</time>
      </trkpt>
      <trkpt lat="42.84113" lon="0.1221">
        <ele>2625.6000976562</ele>
        <time>2019-05-05T11:15:29.000Z</time>
      </trkpt>
      <trkpt lat="42.84114" lon="0.12208">
        <ele>2626</ele>
        <time>2019-05-05T11:15:32.000Z</time>
      </trkpt>
      <trkpt lat="42.84115" lon="0.12206">
        <ele>2626.3999023438</ele>
        <time>2019-05-05T11:15:33.000Z</time>
      </trkpt>
      <trkpt lat="42.84115" lon="0.12205">
        <ele>2626.6000976562</ele>
        <time>2019-05-05T11:15:34.000Z</time>
      </trkpt>
      <trkpt lat="42.84115" lon="0.12205">
        <ele>2627</ele>
        <time>2019-05-05T11:15:35.000Z</time>
      </trkpt>
      <trkpt lat="42.84115" lon="0.12203">
        <ele>2627.1999511719</ele>
        <time>2019-05-05T11:15:36.000Z</time>
      </trkpt>
      <trkpt lat="42.84115" lon="0.12203">
        <ele>2627.3999023438</ele>
        <time>2019-05-05T11:15:37.000Z</time>
      </trkpt>
      <trkpt lat="42.84115" lon="0.12201">
        <ele>2628</ele>
        <time>2019-05-05T11:15:39.000Z</time>
      </trkpt>
      <trkpt lat="42.84115" lon="0.12195">
        <ele>2629.6000976562</ele>
        <time>2019-05-05T11:15:46.000Z</time>
      </trkpt>
      <trkpt lat="42.84115" lon="0.12188">
        <ele>2631.6000976562</ele>
        <time>2019-05-05T11:15:55.000Z</time>
      </trkpt>
      <trkpt lat="42.84115" lon="0.12186">
        <ele>2632.1999511719</ele>
        <time>2019-05-05T11:15:59.000Z</time>
      </trkpt>
      <trkpt lat="42.84116" lon="0.12186">
        <ele>2632.1999511719</ele>
        <time>2019-05-05T11:16:05.000Z</time>
      </trkpt>
      <trkpt lat="42.84117" lon="0.12185">
        <ele>2632.1999511719</ele>
        <time>2019-05-05T11:16:11.000Z</time>
      </trkpt>
      <trkpt lat="42.84117" lon="0.12182">
        <ele>2633.1999511719</ele>
        <time>2019-05-05T11:16:18.000Z</time>
      </trkpt>
      <trkpt lat="42.84117" lon="0.1217">
        <ele>2636.6000976562</ele>
        <time>2019-05-05T11:16:35.000Z</time>
      </trkpt>
      <trkpt lat="42.84117" lon="0.12167">
        <ele>2637.6000976562</ele>
        <time>2019-05-05T11:16:52.000Z</time>
      </trkpt>
      <trkpt lat="42.84117" lon="0.12159">
        <ele>2639.6000976562</ele>
        <time>2019-05-05T11:17:03.000Z</time>
      </trkpt>
      <trkpt lat="42.84118" lon="0.12157">
        <ele>2640.3999023438</ele>
        <time>2019-05-05T11:17:08.000Z</time>
      </trkpt>
      <trkpt lat="42.84117" lon="0.12149">
        <ele>2643</ele>
        <time>2019-05-05T11:17:19.000Z</time>
      </trkpt>
      <trkpt lat="42.84116" lon="0.12146">
        <ele>2643.8000488281</ele>
        <time>2019-05-05T11:17:37.000Z</time>
      </trkpt>
      <trkpt lat="42.84117" lon="0.1214">
        <ele>2646</ele>
        <time>2019-05-05T11:17:55.000Z</time>
      </trkpt>
      <trkpt lat="42.84118" lon="0.12135">
        <ele>2647.8000488281</ele>
        <time>2019-05-05T11:18:00.000Z</time>
      </trkpt>
      <trkpt lat="42.84114" lon="0.1211">
        <ele>2653.6000976562</ele>
        <time>2019-05-05T11:18:53.000Z</time>
      </trkpt>
      <trkpt lat="42.84114" lon="0.1211">
        <ele>2653.6000976562</ele>
        <time>2019-05-05T11:18:58.000Z</time>
      </trkpt>
      <trkpt lat="42.84114" lon="0.1211">
        <ele>2653.6000976562</ele>
        <time>2019-05-05T11:19:05.000Z</time>
      </trkpt>
      <trkpt lat="42.84114" lon="0.1211">
        <ele>2653.6000976562</ele>
        <time>2019-05-05T11:19:06.000Z</time>
      </trkpt>
      <trkpt lat="42.84111" lon="0.12104">
        <ele>2654.8000488281</ele>
        <time>2019-05-05T11:19:13.000Z</time>
      </trkpt>
      <trkpt lat="42.84109" lon="0.12101">
        <ele>2655.3999023438</ele>
        <time>2019-05-05T11:19:17.000Z</time>
      </trkpt>
      <trkpt lat="42.84108" lon="0.12097">
        <ele>2656.3999023438</ele>
        <time>2019-05-05T11:19:22.000Z</time>
      </trkpt>
      <trkpt lat="42.84107" lon="0.12094">
        <ele>2657</ele>
        <time>2019-05-05T11:19:25.000Z</time>
      </trkpt>
      <trkpt lat="42.84106" lon="0.1209">
        <ele>2657.6000976562</ele>
        <time>2019-05-05T11:19:29.000Z</time>
      </trkpt>
      <trkpt lat="42.84106" lon="0.12086">
        <ele>2658.3999023438</ele>
        <time>2019-05-05T11:19:33.000Z</time>
      </trkpt>
      <trkpt lat="42.84105" lon="0.12081">
        <ele>2659.1999511719</ele>
        <time>2019-05-05T11:19:37.000Z</time>
      </trkpt>
      <trkpt lat="42.84105" lon="0.12079">
        <ele>2659.6000976562</ele>
        <time>2019-05-05T11:19:39.000Z</time>
      </trkpt>
      <trkpt lat="42.84103" lon="0.12075">
        <ele>2660.6000976562</ele>
        <time>2019-05-05T11:19:54.000Z</time>
      </trkpt>
      <trkpt lat="42.84105" lon="0.12075">
        <ele>2660.3999023438</ele>
        <time>2019-05-05T11:20:07.000Z</time>
      </trkpt>
      <trkpt lat="42.84102" lon="0.12073">
        <ele>2661</ele>
        <time>2019-05-05T11:21:06.000Z</time>
      </trkpt>
      <trkpt lat="42.84103" lon="0.12074">
        <ele>2660.8000488281</ele>
        <time>2019-05-05T11:22:03.000Z</time>
      </trkpt>
      <trkpt lat="42.84103" lon="0.12074">
        <ele>2660.8000488281</ele>
        <time>2019-05-05T11:22:09.000Z</time>
      </trkpt>
      <trkpt lat="42.84103" lon="0.12073">
        <ele>2660.8000488281</ele>
        <time>2019-05-05T11:22:24.000Z</time>
      </trkpt>
      <trkpt lat="42.84103" lon="0.12073">
        <ele>2660.8000488281</ele>
        <time>2019-05-05T11:22:28.000Z</time>
      </trkpt>
      <trkpt lat="42.84103" lon="0.12073">
        <ele>2660.8000488281</ele>
        <time>2019-05-05T11:22:34.000Z</time>
      </trkpt>
      <trkpt lat="42.84103" lon="0.12072">
        <ele>2661</ele>
        <time>2019-05-05T11:22:39.000Z</time>
      </trkpt>
      <trkpt lat="42.84102" lon="0.12071">
        <ele>2661.3999023438</ele>
        <time>2019-05-05T11:22:46.000Z</time>
      </trkpt>
      <trkpt lat="42.84102" lon="0.12071">
        <ele>2661.3999023438</ele>
        <time>2019-05-05T11:22:51.000Z</time>
      </trkpt>
      <trkpt lat="42.84102" lon="0.1207">
        <ele>2661.3999023438</ele>
        <time>2019-05-05T11:23:07.000Z</time>
      </trkpt>
      <trkpt lat="42.84103" lon="0.1207">
        <ele>2661.3999023438</ele>
        <time>2019-05-05T11:23:16.000Z</time>
      </trkpt>
      <trkpt lat="42.84103" lon="0.1207">
        <ele>2661.3999023438</ele>
        <time>2019-05-05T11:23:35.000Z</time>
      </trkpt>
      <trkpt lat="42.84103" lon="0.1207">
        <ele>2661.3999023438</ele>
        <time>2019-05-05T11:23:41.000Z</time>
      </trkpt>
      <trkpt lat="42.84102" lon="0.12072">
        <ele>2661.1999511719</ele>
        <time>2019-05-05T11:23:50.000Z</time>
      </trkpt>
      <trkpt lat="42.84101" lon="0.12073">
        <ele>2661</ele>
        <time>2019-05-05T11:24:03.000Z</time>
      </trkpt>
      <trkpt lat="42.84101" lon="0.12073">
        <ele>2661</ele>
        <time>2019-05-05T11:24:04.000Z</time>
      </trkpt>
      <trkpt lat="42.84101" lon="0.12073">
        <ele>2661</ele>
        <time>2019-05-05T11:24:07.000Z</time>
      </trkpt>
      <trkpt lat="42.841" lon="0.12073">
        <ele>2661</ele>
        <time>2019-05-05T11:24:14.000Z</time>
      </trkpt>
      <trkpt lat="42.841" lon="0.12074">
        <ele>2661</ele>
        <time>2019-05-05T11:24:19.000Z</time>
      </trkpt>
      <trkpt lat="42.841" lon="0.12074">
        <ele>2661</ele>
        <time>2019-05-05T11:24:29.000Z</time>
      </trkpt>
      <trkpt lat="42.841" lon="0.12074">
        <ele>2661</ele>
        <time>2019-05-05T11:24:52.000Z</time>
      </trkpt>
      <trkpt lat="42.84101" lon="0.12075">
        <ele>2660.8000488281</ele>
        <time>2019-05-05T11:25:17.000Z</time>
      </trkpt>
      <trkpt lat="42.84101" lon="0.12075">
        <ele>2660.8000488281</ele>
        <time>2019-05-05T11:25:21.000Z</time>
      </trkpt>
      <trkpt lat="42.84101" lon="0.12075">
        <ele>2660.8000488281</ele>
        <time>2019-05-05T11:25:25.000Z</time>
      </trkpt>
      <trkpt lat="42.84101" lon="0.12075">
        <ele>2660.8000488281</ele>
        <time>2019-05-05T11:25:26.000Z</time>
      </trkpt>
      <trkpt lat="42.84101" lon="0.12075">
        <ele>2660.6000976562</ele>
        <time>2019-05-05T11:25:27.000Z</time>
      </trkpt>
      <trkpt lat="42.84101" lon="0.12075">
        <ele>2660.6000976562</ele>
        <time>2019-05-05T11:25:29.000Z</time>
      </trkpt>
      <trkpt lat="42.84101" lon="0.12075">
        <ele>2660.6000976562</ele>
        <time>2019-05-05T11:25:40.000Z</time>
      </trkpt>
      <trkpt lat="42.84101" lon="0.12075">
        <ele>2660.6000976562</ele>
        <time>2019-05-05T11:25:43.000Z</time>
      </trkpt>
      <trkpt lat="42.84101" lon="0.12075">
        <ele>2660.6000976562</ele>
        <time>2019-05-05T11:25:46.000Z</time>
      </trkpt>
      <trkpt lat="42.84101" lon="0.12075">
        <ele>2660.6000976562</ele>
        <time>2019-05-05T11:25:47.000Z</time>
      </trkpt>
      <trkpt lat="42.84101" lon="0.12075">
        <ele>2660.6000976562</ele>
        <time>2019-05-05T11:25:48.000Z</time>
      </trkpt>
      <trkpt lat="42.84102" lon="0.12075">
        <ele>2660.6000976562</ele>
        <time>2019-05-05T11:25:51.000Z</time>
      </trkpt>
      <trkpt lat="42.84102" lon="0.12074">
        <ele>2660.8000488281</ele>
        <time>2019-05-05T11:25:58.000Z</time>
      </trkpt>
      <trkpt lat="42.84102" lon="0.12074">
        <ele>2660.8000488281</ele>
        <time>2019-05-05T11:25:59.000Z</time>
      </trkpt>
      <trkpt lat="42.84102" lon="0.12074">
        <ele>2660.8000488281</ele>
        <time>2019-05-05T11:26:04.000Z</time>
      </trkpt>
      <trkpt lat="42.84102" lon="0.12074">
        <ele>2660.8000488281</ele>
        <time>2019-05-05T11:26:08.000Z</time>
      </trkpt>
      <trkpt lat="42.84102" lon="0.12074">
        <ele>2660.8000488281</ele>
        <time>2019-05-05T11:26:09.000Z</time>
      </trkpt>
      <trkpt lat="42.84102" lon="0.12073">
        <ele>2660.8000488281</ele>
        <time>2019-05-05T11:26:11.000Z</time>
      </trkpt>
      <trkpt lat="42.84102" lon="0.12073">
        <ele>2660.8000488281</ele>
        <time>2019-05-05T11:26:12.000Z</time>
      </trkpt>
      <trkpt lat="42.84102" lon="0.12073">
        <ele>2660.8000488281</ele>
        <time>2019-05-05T11:26:13.000Z</time>
      </trkpt>
      <trkpt lat="42.84102" lon="0.12074">
        <ele>2660.8000488281</ele>
        <time>2019-05-05T11:26:16.000Z</time>
      </trkpt>
      <trkpt lat="42.84102" lon="0.12073">
        <ele>2661</ele>
        <time>2019-05-05T11:26:21.000Z</time>
      </trkpt>
      <trkpt lat="42.84102" lon="0.12073">
        <ele>2661</ele>
        <time>2019-05-05T11:26:26.000Z</time>
      </trkpt>
      <trkpt lat="42.84102" lon="0.12073">
        <ele>2661</ele>
        <time>2019-05-05T11:26:37.000Z</time>
      </trkpt>
      <trkpt lat="42.84102" lon="0.12073">
        <ele>2661</ele>
        <time>2019-05-05T11:26:49.000Z</time>
      </trkpt>
      <trkpt lat="42.84102" lon="0.12073">
        <ele>2661</ele>
        <time>2019-05-05T11:26:52.000Z</time>
      </trkpt>
      <trkpt lat="42.84101" lon="0.12072">
        <ele>2661.1999511719</ele>
        <time>2019-05-05T11:26:58.000Z</time>
      </trkpt>
      <trkpt lat="42.84101" lon="0.12071">
        <ele>2661.3999023438</ele>
        <time>2019-05-05T11:27:01.000Z</time>
      </trkpt>
      <trkpt lat="42.84102" lon="0.12071">
        <ele>2661.3999023438</ele>
        <time>2019-05-05T11:27:02.000Z</time>
      </trkpt>
      <trkpt lat="42.84102" lon="0.12071">
        <ele>2661.3999023438</ele>
        <time>2019-05-05T11:27:03.000Z</time>
      </trkpt>
      <trkpt lat="42.84102" lon="0.12071">
        <ele>2661.3999023438</ele>
        <time>2019-05-05T11:27:04.000Z</time>
      </trkpt>
      <trkpt lat="42.84102" lon="0.12071">
        <ele>2661.3999023438</ele>
        <time>2019-05-05T11:27:06.000Z</time>
      </trkpt>
      <trkpt lat="42.84102" lon="0.12071">
        <ele>2661.3999023438</ele>
        <time>2019-05-05T11:27:07.000Z</time>
      </trkpt>
      <trkpt lat="42.84103" lon="0.12071">
        <ele>2661.3999023438</ele>
        <time>2019-05-05T11:27:12.000Z</time>
      </trkpt>
      <trkpt lat="42.84103" lon="0.12071">
        <ele>2661.1999511719</ele>
        <time>2019-05-05T11:27:13.000Z</time>
      </trkpt>
      <trkpt lat="42.84103" lon="0.12071">
        <ele>2661.1999511719</ele>
        <time>2019-05-05T11:27:16.000Z</time>
      </trkpt>
      <trkpt lat="42.84103" lon="0.12071">
        <ele>2661.1999511719</ele>
        <time>2019-05-05T11:27:18.000Z</time>
      </trkpt>
      <trkpt lat="42.84104" lon="0.12072">
        <ele>2661.1999511719</ele>
        <time>2019-05-05T11:27:21.000Z</time>
      </trkpt>
      <trkpt lat="42.84104" lon="0.12071">
        <ele>2661.1999511719</ele>
        <time>2019-05-05T11:27:28.000Z</time>
      </trkpt>
      <trkpt lat="42.84104" lon="0.12071">
        <ele>2661.1999511719</ele>
        <time>2019-05-05T11:27:31.000Z</time>
      </trkpt>
      <trkpt lat="42.84104" lon="0.12071">
        <ele>2661.1999511719</ele>
        <time>2019-05-05T11:27:34.000Z</time>
      </trkpt>
      <trkpt lat="42.84104" lon="0.12071">
        <ele>2661.1999511719</ele>
        <time>2019-05-05T11:27:37.000Z</time>
      </trkpt>
      <trkpt lat="42.84104" lon="0.1207">
        <ele>2661.1999511719</ele>
        <time>2019-05-05T11:27:45.000Z</time>
      </trkpt>
      <trkpt lat="42.84104" lon="0.12071">
        <ele>2661.1999511719</ele>
        <time>2019-05-05T11:27:58.000Z</time>
      </trkpt>
      <trkpt lat="42.84103" lon="0.12072">
        <ele>2661</ele>
        <time>2019-05-05T11:28:10.000Z</time>
      </trkpt>
      <trkpt lat="42.84103" lon="0.12072">
        <ele>2661</ele>
        <time>2019-05-05T11:28:14.000Z</time>
      </trkpt>
      <trkpt lat="42.84104" lon="0.12073">
        <ele>2660.8000488281</ele>
        <time>2019-05-05T11:28:22.000Z</time>
      </trkpt>
      <trkpt lat="42.84104" lon="0.12074">
        <ele>2660.8000488281</ele>
        <time>2019-05-05T11:28:27.000Z</time>
      </trkpt>
      <trkpt lat="42.84104" lon="0.12074">
        <ele>2660.8000488281</ele>
        <time>2019-05-05T11:28:30.000Z</time>
      </trkpt>
      <trkpt lat="42.84104" lon="0.12074">
        <ele>2660.6000976562</ele>
        <time>2019-05-05T11:28:34.000Z</time>
      </trkpt>
      <trkpt lat="42.84104" lon="0.12074">
        <ele>2660.8000488281</ele>
        <time>2019-05-05T11:28:39.000Z</time>
      </trkpt>
      <trkpt lat="42.84104" lon="0.12074">
        <ele>2660.8000488281</ele>
        <time>2019-05-05T11:28:40.000Z</time>
      </trkpt>
      <trkpt lat="42.84103" lon="0.12074">
        <ele>2660.8000488281</ele>
        <time>2019-05-05T11:28:41.000Z</time>
      </trkpt>
      <trkpt lat="42.84103" lon="0.12074">
        <ele>2660.8000488281</ele>
        <time>2019-05-05T11:28:42.000Z</time>
      </trkpt>
      <trkpt lat="42.84103" lon="0.12074">
        <ele>2660.6000976562</ele>
        <time>2019-05-05T11:28:44.000Z</time>
      </trkpt>
      <trkpt lat="42.84103" lon="0.12074">
        <ele>2660.8000488281</ele>
        <time>2019-05-05T11:28:46.000Z</time>
      </trkpt>
      <trkpt lat="42.84104" lon="0.12074">
        <ele>2660.6000976562</ele>
        <time>2019-05-05T11:28:47.000Z</time>
      </trkpt>
      <trkpt lat="42.84103" lon="0.12074">
        <ele>2660.6000976562</ele>
        <time>2019-05-05T11:28:48.000Z</time>
      </trkpt>
      <trkpt lat="42.84103" lon="0.12074">
        <ele>2660.6000976562</ele>
        <time>2019-05-05T11:28:49.000Z</time>
      </trkpt>
      <trkpt lat="42.84104" lon="0.12074">
        <ele>2660.6000976562</ele>
        <time>2019-05-05T11:28:50.000Z</time>
      </trkpt>
      <trkpt lat="42.84103" lon="0.12074">
        <ele>2660.6000976562</ele>
        <time>2019-05-05T11:28:52.000Z</time>
      </trkpt>
      <trkpt lat="42.84104" lon="0.12074">
        <ele>2660.6000976562</ele>
        <time>2019-05-05T11:28:54.000Z</time>
      </trkpt>
      <trkpt lat="42.84104" lon="0.12074">
        <ele>2660.8000488281</ele>
        <time>2019-05-05T11:28:55.000Z</time>
      </trkpt>
      <trkpt lat="42.84104" lon="0.12074">
        <ele>2660.6000976562</ele>
        <time>2019-05-05T11:28:57.000Z</time>
      </trkpt>
      <trkpt lat="42.84104" lon="0.12074">
        <ele>2660.6000976562</ele>
        <time>2019-05-05T11:28:58.000Z</time>
      </trkpt>
      <trkpt lat="42.84104" lon="0.12074">
        <ele>2660.6000976562</ele>
        <time>2019-05-05T11:28:59.000Z</time>
      </trkpt>
      <trkpt lat="42.84104" lon="0.12074">
        <ele>2660.6000976562</ele>
        <time>2019-05-05T11:29:00.000Z</time>
      </trkpt>
      <trkpt lat="42.84104" lon="0.12074">
        <ele>2660.6000976562</ele>
        <time>2019-05-05T11:29:02.000Z</time>
      </trkpt>
      <trkpt lat="42.84104" lon="0.12074">
        <ele>2660.6000976562</ele>
        <time>2019-05-05T11:29:34.000Z</time>
      </trkpt>
      <trkpt lat="42.84104" lon="0.12074">
        <ele>2660.6000976562</ele>
        <time>2019-05-05T11:29:36.000Z</time>
      </trkpt>
      <trkpt lat="42.84104" lon="0.12074">
        <ele>2660.6000976562</ele>
        <time>2019-05-05T11:29:40.000Z</time>
      </trkpt>
      <trkpt lat="42.84104" lon="0.12074">
        <ele>2660.6000976562</ele>
        <time>2019-05-05T11:29:42.000Z</time>
      </trkpt>
      <trkpt lat="42.84104" lon="0.12074">
        <ele>2660.6000976562</ele>
        <time>2019-05-05T11:29:51.000Z</time>
      </trkpt>
      <trkpt lat="42.84104" lon="0.12074">
        <ele>2660.6000976562</ele>
        <time>2019-05-05T11:30:13.000Z</time>
      </trkpt>
      <trkpt lat="42.84104" lon="0.12074">
        <ele>2660.6000976562</ele>
        <time>2019-05-05T11:30:16.000Z</time>
      </trkpt>
      <trkpt lat="42.84104" lon="0.12074">
        <ele>2660.6000976562</ele>
        <time>2019-05-05T11:30:21.000Z</time>
      </trkpt>
      <trkpt lat="42.84104" lon="0.12074">
        <ele>2660.6000976562</ele>
        <time>2019-05-05T11:30:22.000Z</time>
      </trkpt>
      <trkpt lat="42.84104" lon="0.12074">
        <ele>2660.6000976562</ele>
        <time>2019-05-05T11:30:23.000Z</time>
      </trkpt>
      <trkpt lat="42.84104" lon="0.12074">
        <ele>2660.6000976562</ele>
        <time>2019-05-05T11:30:24.000Z</time>
      </trkpt>
      <trkpt lat="42.84104" lon="0.12074">
        <ele>2660.6000976562</ele>
        <time>2019-05-05T11:30:26.000Z</time>
      </trkpt>
      <trkpt lat="42.84104" lon="0.12074">
        <ele>2660.8000488281</ele>
        <time>2019-05-05T11:30:31.000Z</time>
      </trkpt>
      <trkpt lat="42.84104" lon="0.12074">
        <ele>2660.8000488281</ele>
        <time>2019-05-05T11:30:36.000Z</time>
      </trkpt>
      <trkpt lat="42.84104" lon="0.12074">
        <ele>2660.8000488281</ele>
        <time>2019-05-05T11:30:37.000Z</time>
      </trkpt>
      <trkpt lat="42.84104" lon="0.12074">
        <ele>2660.8000488281</ele>
        <time>2019-05-05T11:30:43.000Z</time>
      </trkpt>
      <trkpt lat="42.84104" lon="0.12074">
        <ele>2660.8000488281</ele>
        <time>2019-05-05T11:30:44.000Z</time>
      </trkpt>
      <trkpt lat="42.84104" lon="0.12074">
        <ele>2660.8000488281</ele>
        <time>2019-05-05T11:30:45.000Z</time>
      </trkpt>
      <trkpt lat="42.84104" lon="0.12074">
        <ele>2660.8000488281</ele>
        <time>2019-05-05T11:30:48.000Z</time>
      </trkpt>
      <trkpt lat="42.84104" lon="0.12074">
        <ele>2660.8000488281</ele>
        <time>2019-05-05T11:30:49.000Z</time>
      </trkpt>
      <trkpt lat="42.84104" lon="0.12074">
        <ele>2660.8000488281</ele>
        <time>2019-05-05T11:30:50.000Z</time>
      </trkpt>
      <trkpt lat="42.84104" lon="0.12074">
        <ele>2660.8000488281</ele>
        <time>2019-05-05T11:30:55.000Z</time>
      </trkpt>
      <trkpt lat="42.84104" lon="0.12073">
        <ele>2660.8000488281</ele>
        <time>2019-05-05T11:31:09.000Z</time>
      </trkpt>
      <trkpt lat="42.84104" lon="0.12074">
        <ele>2660.8000488281</ele>
        <time>2019-05-05T11:31:21.000Z</time>
      </trkpt>
      <trkpt lat="42.84104" lon="0.12074">
        <ele>2660.8000488281</ele>
        <time>2019-05-05T11:31:24.000Z</time>
      </trkpt>
      <trkpt lat="42.84104" lon="0.12073">
        <ele>2660.8000488281</ele>
        <time>2019-05-05T11:31:29.000Z</time>
      </trkpt>
      <trkpt lat="42.84104" lon="0.12073">
        <ele>2660.8000488281</ele>
        <time>2019-05-05T11:31:35.000Z</time>
      </trkpt>
      <trkpt lat="42.84104" lon="0.12073">
        <ele>2660.8000488281</ele>
        <time>2019-05-05T11:31:39.000Z</time>
      </trkpt>
      <trkpt lat="42.84104" lon="0.12073">
        <ele>2660.8000488281</ele>
        <time>2019-05-05T11:31:45.000Z</time>
      </trkpt>
      <trkpt lat="42.84104" lon="0.12073">
        <ele>2660.8000488281</ele>
        <time>2019-05-05T11:31:47.000Z</time>
      </trkpt>
      <trkpt lat="42.84103" lon="0.12074">
        <ele>2660.8000488281</ele>
        <time>2019-05-05T11:32:03.000Z</time>
      </trkpt>
      <trkpt lat="42.84105" lon="0.12069">
        <ele>2661.6000976562</ele>
        <time>2019-05-05T11:32:38.000Z</time>
      </trkpt>
      <trkpt lat="42.84112" lon="0.12045">
        <ele>2666.8000488281</ele>
        <time>2019-05-05T11:32:57.000Z</time>
      </trkpt>
      <trkpt lat="42.84113" lon="0.12037">
        <ele>2668.1999511719</ele>
        <time>2019-05-05T11:33:03.000Z</time>
      </trkpt>
      <trkpt lat="42.84114" lon="0.12033">
        <ele>2669.1999511719</ele>
        <time>2019-05-05T11:33:08.000Z</time>
      </trkpt>
      <trkpt lat="42.84117" lon="0.12011">
        <ele>2673.3999023438</ele>
        <time>2019-05-05T11:33:24.000Z</time>
      </trkpt>
      <trkpt lat="42.84118" lon="0.12003">
        <ele>2674.8000488281</ele>
        <time>2019-05-05T11:33:33.000Z</time>
      </trkpt>
      <trkpt lat="42.84126" lon="0.11952">
        <ele>2686</ele>
        <time>2019-05-05T11:34:49.000Z</time>
      </trkpt>
      <trkpt lat="42.84126" lon="0.11952">
        <ele>2686</ele>
        <time>2019-05-05T11:34:51.000Z</time>
      </trkpt>
      <trkpt lat="42.84127" lon="0.1195">
        <ele>2686.1999511719</ele>
        <time>2019-05-05T11:34:53.000Z</time>
      </trkpt>
      <trkpt lat="42.84134" lon="0.11946">
        <ele>2687.3999023438</ele>
        <time>2019-05-05T11:35:04.000Z</time>
      </trkpt>
      <trkpt lat="42.84135" lon="0.11944">
        <ele>2687.8000488281</ele>
        <time>2019-05-05T11:35:06.000Z</time>
      </trkpt>
      <trkpt lat="42.84145" lon="0.11922">
        <ele>2692.6000976562</ele>
        <time>2019-05-05T11:35:36.000Z</time>
      </trkpt>
      <trkpt lat="42.84145" lon="0.11914">
        <ele>2694.3999023438</ele>
        <time>2019-05-05T11:35:43.000Z</time>
      </trkpt>
      <trkpt lat="42.84144" lon="0.1191">
        <ele>2695.1999511719</ele>
        <time>2019-05-05T11:35:48.000Z</time>
      </trkpt>
      <trkpt lat="42.84142" lon="0.11895">
        <ele>2698.1999511719</ele>
        <time>2019-05-05T11:36:05.000Z</time>
      </trkpt>
      <trkpt lat="42.84139" lon="0.11878">
        <ele>2701.8000488281</ele>
        <time>2019-05-05T11:36:31.000Z</time>
      </trkpt>
      <trkpt lat="42.84139" lon="0.11869">
        <ele>2703.8000488281</ele>
        <time>2019-05-05T11:36:51.000Z</time>
      </trkpt>
      <trkpt lat="42.84136" lon="0.11865">
        <ele>2704.3999023438</ele>
        <time>2019-05-05T11:37:03.000Z</time>
      </trkpt>
      <trkpt lat="42.84129" lon="0.11856">
        <ele>2706</ele>
        <time>2019-05-05T11:37:26.000Z</time>
      </trkpt>
      <trkpt lat="42.84129" lon="0.11855">
        <ele>2706.1999511719</ele>
        <time>2019-05-05T11:37:27.000Z</time>
      </trkpt>
      <trkpt lat="42.84129" lon="0.11854">
        <ele>2706.3999023438</ele>
        <time>2019-05-05T11:37:28.000Z</time>
      </trkpt>
      <trkpt lat="42.84126" lon="0.11847">
        <ele>2707.8000488281</ele>
        <time>2019-05-05T11:37:38.000Z</time>
      </trkpt>
      <trkpt lat="42.84126" lon="0.11843">
        <ele>2708.6000976562</ele>
        <time>2019-05-05T11:37:43.000Z</time>
      </trkpt>
      <trkpt lat="42.84125" lon="0.11838">
        <ele>2709.6000976562</ele>
        <time>2019-05-05T11:37:50.000Z</time>
      </trkpt>
      <trkpt lat="42.84123" lon="0.11833">
        <ele>2710.6000976562</ele>
        <time>2019-05-05T11:37:57.000Z</time>
      </trkpt>
      <trkpt lat="42.84122" lon="0.11832">
        <ele>2710.8000488281</ele>
        <time>2019-05-05T11:37:59.000Z</time>
      </trkpt>
      <trkpt lat="42.84122" lon="0.11831">
        <ele>2710.8000488281</ele>
        <time>2019-05-05T11:38:00.000Z</time>
      </trkpt>
      <trkpt lat="42.84122" lon="0.11831">
        <ele>2711</ele>
        <time>2019-05-05T11:38:01.000Z</time>
      </trkpt>
      <trkpt lat="42.84119" lon="0.11827">
        <ele>2711.6000976562</ele>
        <time>2019-05-05T11:38:09.000Z</time>
      </trkpt>
      <trkpt lat="42.84114" lon="0.11791">
        <ele>2719.8000488281</ele>
        <time>2019-05-05T11:39:09.000Z</time>
      </trkpt>
      <trkpt lat="42.84112" lon="0.11789">
        <ele>2720.1999511719</ele>
        <time>2019-05-05T11:39:15.000Z</time>
      </trkpt>
      <trkpt lat="42.84112" lon="0.11788">
        <ele>2720.1999511719</ele>
        <time>2019-05-05T11:39:16.000Z</time>
      </trkpt>
      <trkpt lat="42.8411" lon="0.11786">
        <ele>2720.6000976562</ele>
        <time>2019-05-05T11:39:19.000Z</time>
      </trkpt>
      <trkpt lat="42.84108" lon="0.11784">
        <ele>2720.8000488281</ele>
        <time>2019-05-05T11:39:22.000Z</time>
      </trkpt>
      <trkpt lat="42.84106" lon="0.11781">
        <ele>2721.6000976562</ele>
        <time>2019-05-05T11:39:27.000Z</time>
      </trkpt>
      <trkpt lat="42.84101" lon="0.11773">
        <ele>2723</ele>
        <time>2019-05-05T11:39:37.000Z</time>
      </trkpt>
      <trkpt lat="42.841" lon="0.1177">
        <ele>2723.6000976562</ele>
        <time>2019-05-05T11:39:40.000Z</time>
      </trkpt>
      <trkpt lat="42.84096" lon="0.11765">
        <ele>2724.6000976562</ele>
        <time>2019-05-05T11:39:46.000Z</time>
      </trkpt>
      <trkpt lat="42.84093" lon="0.11761">
        <ele>2725.1999511719</ele>
        <time>2019-05-05T11:39:52.000Z</time>
      </trkpt>
      <trkpt lat="42.84089" lon="0.11757">
        <ele>2726</ele>
        <time>2019-05-05T11:40:02.000Z</time>
      </trkpt>
      <trkpt lat="42.84085" lon="0.11753">
        <ele>2727.1999511719</ele>
        <time>2019-05-05T11:40:10.000Z</time>
      </trkpt>
      <trkpt lat="42.84068" lon="0.11739">
        <ele>2732.8000488281</ele>
        <time>2019-05-05T11:40:46.000Z</time>
      </trkpt>
      <trkpt lat="42.84065" lon="0.1174">
        <ele>2732.6000976562</ele>
        <time>2019-05-05T11:40:50.000Z</time>
      </trkpt>
      <trkpt lat="42.84064" lon="0.11742">
        <ele>2732.3999023438</ele>
        <time>2019-05-05T11:40:57.000Z</time>
      </trkpt>
      <trkpt lat="42.84062" lon="0.11742">
        <ele>2732.6000976562</ele>
        <time>2019-05-05T11:40:59.000Z</time>
      </trkpt>
      <trkpt lat="42.84062" lon="0.11742">
        <ele>2732.6000976562</ele>
        <time>2019-05-05T11:41:00.000Z</time>
      </trkpt>
      <trkpt lat="42.84061" lon="0.11742">
        <ele>2732.6000976562</ele>
        <time>2019-05-05T11:41:01.000Z</time>
      </trkpt>
      <trkpt lat="42.84058" lon="0.11742">
        <ele>2733</ele>
        <time>2019-05-05T11:41:06.000Z</time>
      </trkpt>
      <trkpt lat="42.84057" lon="0.11742">
        <ele>2733.1999511719</ele>
        <time>2019-05-05T11:41:08.000Z</time>
      </trkpt>
      <trkpt lat="42.84054" lon="0.1174">
        <ele>2734.1999511719</ele>
        <time>2019-05-05T11:41:15.000Z</time>
      </trkpt>
      <trkpt lat="42.84052" lon="0.11736">
        <ele>2735.1999511719</ele>
        <time>2019-05-05T11:41:23.000Z</time>
      </trkpt>
      <trkpt lat="42.84051" lon="0.11735">
        <ele>2735.6000976562</ele>
        <time>2019-05-05T11:41:26.000Z</time>
      </trkpt>
      <trkpt lat="42.8405" lon="0.11734">
        <ele>2736</ele>
        <time>2019-05-05T11:41:29.000Z</time>
      </trkpt>
      <trkpt lat="42.84049" lon="0.11733">
        <ele>2736.3999023438</ele>
        <time>2019-05-05T11:41:34.000Z</time>
      </trkpt>
      <trkpt lat="42.84042" lon="0.11734">
        <ele>2737</ele>
        <time>2019-05-05T11:41:48.000Z</time>
      </trkpt>
      <trkpt lat="42.84038" lon="0.11734">
        <ele>2737.3999023438</ele>
        <time>2019-05-05T11:41:54.000Z</time>
      </trkpt>
      <trkpt lat="42.8403" lon="0.11731">
        <ele>2739</ele>
        <time>2019-05-05T11:42:08.000Z</time>
      </trkpt>
      <trkpt lat="42.84027" lon="0.11726">
        <ele>2740.8000488281</ele>
        <time>2019-05-05T11:42:17.000Z</time>
      </trkpt>
      <trkpt lat="42.84011" lon="0.11707">
        <ele>2748</ele>
        <time>2019-05-05T11:43:00.000Z</time>
      </trkpt>
      <trkpt lat="42.84005" lon="0.11701">
        <ele>2751.1999511719</ele>
        <time>2019-05-05T11:43:12.000Z</time>
      </trkpt>
      <trkpt lat="42.83992" lon="0.11702">
        <ele>2756.8000488281</ele>
        <time>2019-05-05T11:43:35.000Z</time>
      </trkpt>
      <trkpt lat="42.83991" lon="0.11702">
        <ele>2757.6000976562</ele>
        <time>2019-05-05T11:43:37.000Z</time>
      </trkpt>
      <trkpt lat="42.83989" lon="0.11702">
        <ele>2758.6000976562</ele>
        <time>2019-05-05T11:43:41.000Z</time>
      </trkpt>
      <trkpt lat="42.83978" lon="0.117">
        <ele>2766.1999511719</ele>
        <time>2019-05-05T11:44:06.000Z</time>
      </trkpt>
      <trkpt lat="42.83983" lon="0.1168">
        <ele>2767.3999023438</ele>
        <time>2019-05-05T11:44:31.000Z</time>
      </trkpt>
      <trkpt lat="42.83984" lon="0.11671">
        <ele>2770.3999023438</ele>
        <time>2019-05-05T11:44:48.000Z</time>
      </trkpt>
      <trkpt lat="42.83968" lon="0.11676">
        <ele>2774.6000976562</ele>
        <time>2019-05-05T11:45:16.000Z</time>
      </trkpt>
      <trkpt lat="42.83962" lon="0.11667">
        <ele>2779.1999511719</ele>
        <time>2019-05-05T11:45:39.000Z</time>
      </trkpt>
      <trkpt lat="42.83962" lon="0.11666">
        <ele>2780</ele>
        <time>2019-05-05T11:45:41.000Z</time>
      </trkpt>
      <trkpt lat="42.83962" lon="0.11665">
        <ele>2780.3999023438</ele>
        <time>2019-05-05T11:45:43.000Z</time>
      </trkpt>
      <trkpt lat="42.83962" lon="0.11664">
        <ele>2780.8000488281</ele>
        <time>2019-05-05T11:45:45.000Z</time>
      </trkpt>
      <trkpt lat="42.83962" lon="0.11662">
        <ele>2781.3999023438</ele>
        <time>2019-05-05T11:45:48.000Z</time>
      </trkpt>
      <trkpt lat="42.83964" lon="0.11655">
        <ele>2783.8000488281</ele>
        <time>2019-05-05T11:46:01.000Z</time>
      </trkpt>
      <trkpt lat="42.83965" lon="0.11651">
        <ele>2785.3999023438</ele>
        <time>2019-05-05T11:46:08.000Z</time>
      </trkpt>
      <trkpt lat="42.83961" lon="0.11645">
        <ele>2788.6000976562</ele>
        <time>2019-05-05T11:46:23.000Z</time>
      </trkpt>
      <trkpt lat="42.83957" lon="0.11644">
        <ele>2790.6000976562</ele>
        <time>2019-05-05T11:46:33.000Z</time>
      </trkpt>
      <trkpt lat="42.8394" lon="0.11649">
        <ele>2795.8000488281</ele>
        <time>2019-05-05T11:47:08.000Z</time>
      </trkpt>
      <trkpt lat="42.83947" lon="0.11624">
        <ele>2801.6000976562</ele>
        <time>2019-05-05T11:47:46.000Z</time>
      </trkpt>
      <trkpt lat="42.83924" lon="0.11615">
        <ele>2810.1999511719</ele>
        <time>2019-05-05T11:48:47.000Z</time>
      </trkpt>
      <trkpt lat="42.83927" lon="0.11596">
        <ele>2812</ele>
        <time>2019-05-05T11:49:15.000Z</time>
      </trkpt>
      <trkpt lat="42.8391" lon="0.11587">
        <ele>2820.6000976562</ele>
        <time>2019-05-05T11:50:20.000Z</time>
      </trkpt>
      <trkpt lat="42.8391" lon="0.11577">
        <ele>2821.8000488281</ele>
        <time>2019-05-05T11:50:37.000Z</time>
      </trkpt>
      <trkpt lat="42.83917" lon="0.11565">
        <ele>2820.6000976562</ele>
        <time>2019-05-05T11:50:54.000Z</time>
      </trkpt>
      <trkpt lat="42.8392" lon="0.11559">
        <ele>2820</ele>
        <time>2019-05-05T11:51:05.000Z</time>
      </trkpt>
      <trkpt lat="42.8391" lon="0.11556">
        <ele>2824.6000976562</ele>
        <time>2019-05-05T11:51:34.000Z</time>
      </trkpt>
      <trkpt lat="42.83904" lon="0.11555">
        <ele>2827.6000976562</ele>
        <time>2019-05-05T11:51:43.000Z</time>
      </trkpt>
      <trkpt lat="42.83878" lon="0.1153">
        <ele>2840.6000976562</ele>
        <time>2019-05-05T11:53:14.000Z</time>
      </trkpt>
      <trkpt lat="42.83871" lon="0.11531">
        <ele>2843.6000976562</ele>
        <time>2019-05-05T11:53:28.000Z</time>
      </trkpt>
      <trkpt lat="42.83871" lon="0.11526">
        <ele>2843.3999023438</ele>
        <time>2019-05-05T11:53:40.000Z</time>
      </trkpt>
      <trkpt lat="42.83871" lon="0.11526">
        <ele>2843.6000976562</ele>
        <time>2019-05-05T11:53:42.000Z</time>
      </trkpt>
      <trkpt lat="42.83871" lon="0.11525">
        <ele>2843.3999023438</ele>
        <time>2019-05-05T11:53:43.000Z</time>
      </trkpt>
      <trkpt lat="42.83872" lon="0.11516">
        <ele>2842.3999023438</ele>
        <time>2019-05-05T11:53:54.000Z</time>
      </trkpt>
      <trkpt lat="42.83877" lon="0.1151">
        <ele>2839.8000488281</ele>
        <time>2019-05-05T11:54:07.000Z</time>
      </trkpt>
      <trkpt lat="42.83878" lon="0.11508">
        <ele>2839.3999023438</ele>
        <time>2019-05-05T11:54:11.000Z</time>
      </trkpt>
      <trkpt lat="42.83879" lon="0.11507">
        <ele>2839</ele>
        <time>2019-05-05T11:54:13.000Z</time>
      </trkpt>
      <trkpt lat="42.8388" lon="0.11507">
        <ele>2838.8000488281</ele>
        <time>2019-05-05T11:54:14.000Z</time>
      </trkpt>
      <trkpt lat="42.8388" lon="0.11506">
        <ele>2838.3999023438</ele>
        <time>2019-05-05T11:54:16.000Z</time>
      </trkpt>
      <trkpt lat="42.83881" lon="0.11506">
        <ele>2838</ele>
        <time>2019-05-05T11:54:17.000Z</time>
      </trkpt>
      <trkpt lat="42.83881" lon="0.11505">
        <ele>2838</ele>
        <time>2019-05-05T11:54:18.000Z</time>
      </trkpt>
      <trkpt lat="42.83881" lon="0.11505">
        <ele>2838</ele>
        <time>2019-05-05T11:54:19.000Z</time>
      </trkpt>
      <trkpt lat="42.83881" lon="0.11505">
        <ele>2837.8000488281</ele>
        <time>2019-05-05T11:54:20.000Z</time>
      </trkpt>
      <trkpt lat="42.83881" lon="0.11505">
        <ele>2838</ele>
        <time>2019-05-05T11:54:21.000Z</time>
      </trkpt>
      <trkpt lat="42.8388" lon="0.11506">
        <ele>2838.6000976562</ele>
        <time>2019-05-05T11:54:24.000Z</time>
      </trkpt>
      <trkpt lat="42.83879" lon="0.11507">
        <ele>2839</ele>
        <time>2019-05-05T11:54:30.000Z</time>
      </trkpt>
      <trkpt lat="42.83879" lon="0.11507">
        <ele>2839</ele>
        <time>2019-05-05T11:54:31.000Z</time>
      </trkpt>
      <trkpt lat="42.8388" lon="0.11508">
        <ele>2838.8000488281</ele>
        <time>2019-05-05T11:54:35.000Z</time>
      </trkpt>
      <trkpt lat="42.8388" lon="0.11508">
        <ele>2838.6000976562</ele>
        <time>2019-05-05T11:54:36.000Z</time>
      </trkpt>
      <trkpt lat="42.8388" lon="0.11508">
        <ele>2838.6000976562</ele>
        <time>2019-05-05T11:54:37.000Z</time>
      </trkpt>
      <trkpt lat="42.8388" lon="0.11508">
        <ele>2838.6000976562</ele>
        <time>2019-05-05T11:54:39.000Z</time>
      </trkpt>
      <trkpt lat="42.83881" lon="0.11508">
        <ele>2838.3999023438</ele>
        <time>2019-05-05T11:54:44.000Z</time>
      </trkpt>
      <trkpt lat="42.83873" lon="0.11509">
        <ele>2841.6000976562</ele>
        <time>2019-05-05T11:55:03.000Z</time>
      </trkpt>
      <trkpt lat="42.83873" lon="0.11509">
        <ele>2842</ele>
        <time>2019-05-05T11:55:07.000Z</time>
      </trkpt>
      <trkpt lat="42.83866" lon="0.11511">
        <ele>2845</ele>
        <time>2019-05-05T11:55:15.000Z</time>
      </trkpt>
      <trkpt lat="42.83865" lon="0.11511">
        <ele>2845.8000488281</ele>
        <time>2019-05-05T11:55:17.000Z</time>
      </trkpt>
      <trkpt lat="42.83859" lon="0.11513">
        <ele>2848.6000976562</ele>
        <time>2019-05-05T11:55:26.000Z</time>
      </trkpt>
      <trkpt lat="42.83857" lon="0.11512">
        <ele>2849.1999511719</ele>
        <time>2019-05-05T11:55:31.000Z</time>
      </trkpt>
      <trkpt lat="42.83859" lon="0.11509">
        <ele>2848.1999511719</ele>
        <time>2019-05-05T11:55:39.000Z</time>
      </trkpt>
      <trkpt lat="42.83865" lon="0.11494">
        <ele>2844.6000976562</ele>
        <time>2019-05-05T11:56:06.000Z</time>
      </trkpt>
      <trkpt lat="42.83868" lon="0.11489">
        <ele>2843.3999023438</ele>
        <time>2019-05-05T11:56:12.000Z</time>
      </trkpt>
      <trkpt lat="42.83869" lon="0.11484">
        <ele>2845.1999511719</ele>
        <time>2019-05-05T11:56:20.000Z</time>
      </trkpt>
      <trkpt lat="42.83869" lon="0.11482">
        <ele>2846</ele>
        <time>2019-05-05T11:56:27.000Z</time>
      </trkpt>
      <trkpt lat="42.83864" lon="0.11474">
        <ele>2849.1999511719</ele>
        <time>2019-05-05T11:57:13.000Z</time>
      </trkpt>
      <trkpt lat="42.83852" lon="0.11479">
        <ele>2850</ele>
        <time>2019-05-05T11:57:32.000Z</time>
      </trkpt>
      <trkpt lat="42.83861" lon="0.11452">
        <ele>2856.6000976562</ele>
        <time>2019-05-05T11:58:21.000Z</time>
      </trkpt>
      <trkpt lat="42.83862" lon="0.11452">
        <ele>2856.8000488281</ele>
        <time>2019-05-05T11:58:22.000Z</time>
      </trkpt>
      <trkpt lat="42.83864" lon="0.1145">
        <ele>2857.1999511719</ele>
        <time>2019-05-05T11:58:30.000Z</time>
      </trkpt>
      <trkpt lat="42.83864" lon="0.11451">
        <ele>2857</ele>
        <time>2019-05-05T11:58:34.000Z</time>
      </trkpt>
      <trkpt lat="42.83865" lon="0.11451">
        <ele>2857</ele>
        <time>2019-05-05T11:58:37.000Z</time>
      </trkpt>
      <trkpt lat="42.83866" lon="0.11451">
        <ele>2857</ele>
        <time>2019-05-05T11:58:39.000Z</time>
      </trkpt>
      <trkpt lat="42.83862" lon="0.11452">
        <ele>2856.8000488281</ele>
        <time>2019-05-05T11:58:54.000Z</time>
      </trkpt>
      <trkpt lat="42.83862" lon="0.11452">
        <ele>2856.6000976562</ele>
        <time>2019-05-05T11:58:58.000Z</time>
      </trkpt>
      <trkpt lat="42.83859" lon="0.11453">
        <ele>2856.6000976562</ele>
        <time>2019-05-05T11:59:05.000Z</time>
      </trkpt>
      <trkpt lat="42.83855" lon="0.11451">
        <ele>2857</ele>
        <time>2019-05-05T11:59:08.000Z</time>
      </trkpt>
      <trkpt lat="42.83854" lon="0.11451">
        <ele>2857</ele>
        <time>2019-05-05T11:59:09.000Z</time>
      </trkpt>
      <trkpt lat="42.83852" lon="0.11451">
        <ele>2857.1999511719</ele>
        <time>2019-05-05T11:59:12.000Z</time>
      </trkpt>
      <trkpt lat="42.83848" lon="0.11449">
        <ele>2857.3999023438</ele>
        <time>2019-05-05T11:59:17.000Z</time>
      </trkpt>
      <trkpt lat="42.83847" lon="0.1145">
        <ele>2857.3999023438</ele>
        <time>2019-05-05T11:59:19.000Z</time>
      </trkpt>
      <trkpt lat="42.83846" lon="0.11449">
        <ele>2857.6000976562</ele>
        <time>2019-05-05T11:59:20.000Z</time>
      </trkpt>
      <trkpt lat="42.83844" lon="0.1145">
        <ele>2857.3999023438</ele>
        <time>2019-05-05T11:59:23.000Z</time>
      </trkpt>
      <trkpt lat="42.83844" lon="0.1145">
        <ele>2857.6000976562</ele>
        <time>2019-05-05T11:59:25.000Z</time>
      </trkpt>
      <trkpt lat="42.8384" lon="0.11448">
        <ele>2857.8000488281</ele>
        <time>2019-05-05T11:59:30.000Z</time>
      </trkpt>
      <trkpt lat="42.83838" lon="0.11448">
        <ele>2859</ele>
        <time>2019-05-05T11:59:34.000Z</time>
      </trkpt>
      <trkpt lat="42.83837" lon="0.11448">
        <ele>2860</ele>
        <time>2019-05-05T11:59:36.000Z</time>
      </trkpt>
      <trkpt lat="42.83834" lon="0.11446">
        <ele>2862.3999023438</ele>
        <time>2019-05-05T11:59:40.000Z</time>
      </trkpt>
      <trkpt lat="42.83829" lon="0.11444">
        <ele>2867</ele>
        <time>2019-05-05T11:59:52.000Z</time>
      </trkpt>
      <trkpt lat="42.83834" lon="0.11443">
        <ele>2862.8000488281</ele>
        <time>2019-05-05T12:00:10.000Z</time>
      </trkpt>
      <trkpt lat="42.83827" lon="0.11443">
        <ele>2868.8000488281</ele>
        <time>2019-05-05T12:00:27.000Z</time>
      </trkpt>
      <trkpt lat="42.8384" lon="0.11409">
        <ele>2867.3999023438</ele>
        <time>2019-05-05T12:01:09.000Z</time>
      </trkpt>
      <trkpt lat="42.83849" lon="0.11399">
        <ele>2869.6000976562</ele>
        <time>2019-05-05T12:01:22.000Z</time>
      </trkpt>
      <trkpt lat="42.83854" lon="0.11394">
        <ele>2870.8000488281</ele>
        <time>2019-05-05T12:01:36.000Z</time>
      </trkpt>
      <trkpt lat="42.83852" lon="0.11374">
        <ele>2875.6000976562</ele>
        <time>2019-05-05T12:02:33.000Z</time>
      </trkpt>
      <trkpt lat="42.83839" lon="0.11369">
        <ele>2879.6000976562</ele>
        <time>2019-05-05T12:02:50.000Z</time>
      </trkpt>
      <trkpt lat="42.83837" lon="0.11368">
        <ele>2881</ele>
        <time>2019-05-05T12:02:55.000Z</time>
      </trkpt>
      <trkpt lat="42.83831" lon="0.11369">
        <ele>2883.3999023438</ele>
        <time>2019-05-05T12:03:14.000Z</time>
      </trkpt>
      <trkpt lat="42.8383" lon="0.11369">
        <ele>2884.3999023438</ele>
        <time>2019-05-05T12:03:17.000Z</time>
      </trkpt>
      <trkpt lat="42.83826" lon="0.11369">
        <ele>2887.6000976562</ele>
        <time>2019-05-05T12:03:26.000Z</time>
      </trkpt>
      <trkpt lat="42.83822" lon="0.11369">
        <ele>2890.6000976562</ele>
        <time>2019-05-05T12:03:43.000Z</time>
      </trkpt>
      <trkpt lat="42.83804" lon="0.11375">
        <ele>2903.8000488281</ele>
        <time>2019-05-05T12:04:20.000Z</time>
      </trkpt>
      <trkpt lat="42.83802" lon="0.1136">
        <ele>2909.1999511719</ele>
        <time>2019-05-05T12:05:01.000Z</time>
      </trkpt>
      <trkpt lat="42.83804" lon="0.11347">
        <ele>2911.3999023438</ele>
        <time>2019-05-05T12:05:50.000Z</time>
      </trkpt>
      <trkpt lat="42.83807" lon="0.11334">
        <ele>2915.8000488281</ele>
        <time>2019-05-05T12:06:22.000Z</time>
      </trkpt>
      <trkpt lat="42.83807" lon="0.11334">
        <ele>2915.8000488281</ele>
        <time>2019-05-05T12:06:37.000Z</time>
      </trkpt>
      <trkpt lat="42.83803" lon="0.11339">
        <ele>2914.8000488281</ele>
        <time>2019-05-05T12:06:45.000Z</time>
      </trkpt>
      <trkpt lat="42.8379" lon="0.11355">
        <ele>2919.8000488281</ele>
        <time>2019-05-05T12:07:25.000Z</time>
      </trkpt>
      <trkpt lat="42.8379" lon="0.11355">
        <ele>2919.8000488281</ele>
        <time>2019-05-05T12:07:26.000Z</time>
      </trkpt>
      <trkpt lat="42.8379" lon="0.11356">
        <ele>2919.6000976562</ele>
        <time>2019-05-05T12:07:29.000Z</time>
      </trkpt>
      <trkpt lat="42.8379" lon="0.11356">
        <ele>2919.8000488281</ele>
        <time>2019-05-05T12:07:33.000Z</time>
      </trkpt>
      <trkpt lat="42.83789" lon="0.11345">
        <ele>2923.6000976562</ele>
        <time>2019-05-05T12:08:04.000Z</time>
      </trkpt>
      <trkpt lat="42.8379" lon="0.11342">
        <ele>2923.6000976562</ele>
        <time>2019-05-05T12:08:06.000Z</time>
      </trkpt>
      <trkpt lat="42.83796" lon="0.11326">
        <ele>2925.1999511719</ele>
        <time>2019-05-05T12:08:27.000Z</time>
      </trkpt>
      <trkpt lat="42.83792" lon="0.11324">
        <ele>2928.6000976562</ele>
        <time>2019-05-05T12:08:37.000Z</time>
      </trkpt>
      <trkpt lat="42.8379" lon="0.11325">
        <ele>2929</ele>
        <time>2019-05-05T12:09:02.000Z</time>
      </trkpt>
      <trkpt lat="42.8379" lon="0.11328">
        <ele>2927.3999023438</ele>
        <time>2019-05-05T12:09:08.000Z</time>
      </trkpt>
      <trkpt lat="42.83791" lon="0.11331">
        <ele>2925.8000488281</ele>
        <time>2019-05-05T12:09:16.000Z</time>
      </trkpt>
      <trkpt lat="42.8379" lon="0.11332">
        <ele>2926.1999511719</ele>
        <time>2019-05-05T12:09:20.000Z</time>
      </trkpt>
      <trkpt lat="42.8379" lon="0.11332">
        <ele>2926</ele>
        <time>2019-05-05T12:09:23.000Z</time>
      </trkpt>
      <trkpt lat="42.8379" lon="0.11331">
        <ele>2926.1999511719</ele>
        <time>2019-05-05T12:09:24.000Z</time>
      </trkpt>
      <trkpt lat="42.8379" lon="0.11331">
        <ele>2926.1999511719</ele>
        <time>2019-05-05T12:09:25.000Z</time>
      </trkpt>
      <trkpt lat="42.8379" lon="0.11331">
        <ele>2926.3999023438</ele>
        <time>2019-05-05T12:09:27.000Z</time>
      </trkpt>
      <trkpt lat="42.8379" lon="0.11331">
        <ele>2926.8000488281</ele>
        <time>2019-05-05T12:09:28.000Z</time>
      </trkpt>
      <trkpt lat="42.83789" lon="0.11331">
        <ele>2927.1999511719</ele>
        <time>2019-05-05T12:09:29.000Z</time>
      </trkpt>
      <trkpt lat="42.83789" lon="0.11332">
        <ele>2927.1999511719</ele>
        <time>2019-05-05T12:09:30.000Z</time>
      </trkpt>
      <trkpt lat="42.83786" lon="0.11336">
        <ele>2928.1999511719</ele>
        <time>2019-05-05T12:09:40.000Z</time>
      </trkpt>
      <trkpt lat="42.83783" lon="0.11339">
        <ele>2930</ele>
        <time>2019-05-05T12:09:46.000Z</time>
      </trkpt>
      <trkpt lat="42.83778" lon="0.11346">
        <ele>2932</ele>
        <time>2019-05-05T12:09:57.000Z</time>
      </trkpt>
      <trkpt lat="42.83773" lon="0.11354">
        <ele>2933.1999511719</ele>
        <time>2019-05-05T12:10:11.000Z</time>
      </trkpt>
      <trkpt lat="42.83768" lon="0.11359">
        <ele>2936</ele>
        <time>2019-05-05T12:10:21.000Z</time>
      </trkpt>
      <trkpt lat="42.83763" lon="0.11365">
        <ele>2938</ele>
        <time>2019-05-05T12:10:35.000Z</time>
      </trkpt>
      <trkpt lat="42.83763" lon="0.11367">
        <ele>2938.3999023438</ele>
        <time>2019-05-05T12:10:37.000Z</time>
      </trkpt>
      <trkpt lat="42.83761" lon="0.11369">
        <ele>2939</ele>
        <time>2019-05-05T12:10:40.000Z</time>
      </trkpt>
      <trkpt lat="42.83757" lon="0.11373">
        <ele>2940.8000488281</ele>
        <time>2019-05-05T12:10:46.000Z</time>
      </trkpt>
      <trkpt lat="42.83758" lon="0.11376">
        <ele>2939.8000488281</ele>
        <time>2019-05-05T12:10:51.000Z</time>
      </trkpt>
      <trkpt lat="42.83755" lon="0.11381">
        <ele>2940.3999023438</ele>
        <time>2019-05-05T12:10:59.000Z</time>
      </trkpt>
      <trkpt lat="42.83749" lon="0.11388">
        <ele>2941.8000488281</ele>
        <time>2019-05-05T12:11:21.000Z</time>
      </trkpt>
      <trkpt lat="42.83749" lon="0.11388">
        <ele>2941.6000976562</ele>
        <time>2019-05-05T12:11:22.000Z</time>
      </trkpt>
      <trkpt lat="42.83742" lon="0.11402">
        <ele>2941.8000488281</ele>
        <time>2019-05-05T12:11:53.000Z</time>
      </trkpt>
      <trkpt lat="42.8374" lon="0.11411">
        <ele>2940.8000488281</ele>
        <time>2019-05-05T12:12:04.000Z</time>
      </trkpt>
      <trkpt lat="42.83743" lon="0.11413">
        <ele>2939</ele>
        <time>2019-05-05T12:12:12.000Z</time>
      </trkpt>
      <trkpt lat="42.83733" lon="0.11421">
        <ele>2941.8000488281</ele>
        <time>2019-05-05T12:12:44.000Z</time>
      </trkpt>
      <trkpt lat="42.83727" lon="0.11425">
        <ele>2943.8000488281</ele>
        <time>2019-05-05T12:12:58.000Z</time>
      </trkpt>
      <trkpt lat="42.83722" lon="0.11433">
        <ele>2945.1999511719</ele>
        <time>2019-05-05T12:13:26.000Z</time>
      </trkpt>
      <trkpt lat="42.83712" lon="0.11437">
        <ele>2951.1999511719</ele>
        <time>2019-05-05T12:14:09.000Z</time>
      </trkpt>
      <trkpt lat="42.83713" lon="0.11437">
        <ele>2950.8000488281</ele>
        <time>2019-05-05T12:14:14.000Z</time>
      </trkpt>
      <trkpt lat="42.83713" lon="0.11438">
        <ele>2950.1999511719</ele>
        <time>2019-05-05T12:14:16.000Z</time>
      </trkpt>
      <trkpt lat="42.83713" lon="0.11439">
        <ele>2950.3999023438</ele>
        <time>2019-05-05T12:14:19.000Z</time>
      </trkpt>
      <trkpt lat="42.83716" lon="0.11438">
        <ele>2948.8000488281</ele>
        <time>2019-05-05T12:14:24.000Z</time>
      </trkpt>
      <trkpt lat="42.83716" lon="0.11433">
        <ele>2948.8000488281</ele>
        <time>2019-05-05T12:14:31.000Z</time>
      </trkpt>
      <trkpt lat="42.83717" lon="0.11431">
        <ele>2948.6000976562</ele>
        <time>2019-05-05T12:14:40.000Z</time>
      </trkpt>
      <trkpt lat="42.83717" lon="0.11431">
        <ele>2948.6000976562</ele>
        <time>2019-05-05T12:14:43.000Z</time>
      </trkpt>
      <trkpt lat="42.83716" lon="0.11431">
        <ele>2948.8000488281</ele>
        <time>2019-05-05T12:14:45.000Z</time>
      </trkpt>
      <trkpt lat="42.83715" lon="0.11431">
        <ele>2949.6000976562</ele>
        <time>2019-05-05T12:14:51.000Z</time>
      </trkpt>
      <trkpt lat="42.83715" lon="0.1143">
        <ele>2949.6000976562</ele>
        <time>2019-05-05T12:14:54.000Z</time>
      </trkpt>
      <trkpt lat="42.83715" lon="0.1143">
        <ele>2949.3999023438</ele>
        <time>2019-05-05T12:14:55.000Z</time>
      </trkpt>
      <trkpt lat="42.83716" lon="0.1143">
        <ele>2949</ele>
        <time>2019-05-05T12:14:57.000Z</time>
      </trkpt>
      <trkpt lat="42.83714" lon="0.11433">
        <ele>2950.1999511719</ele>
        <time>2019-05-05T12:15:01.000Z</time>
      </trkpt>
      <trkpt lat="42.83713" lon="0.11434">
        <ele>2950.6000976562</ele>
        <time>2019-05-05T12:15:03.000Z</time>
      </trkpt>
      <trkpt lat="42.83707" lon="0.11448">
        <ele>2953.1999511719</ele>
        <time>2019-05-05T12:15:26.000Z</time>
      </trkpt>
      <trkpt lat="42.83704" lon="0.11458">
        <ele>2954.8000488281</ele>
        <time>2019-05-05T12:16:03.000Z</time>
      </trkpt>
      <trkpt lat="42.83702" lon="0.1146">
        <ele>2955.6000976562</ele>
        <time>2019-05-05T12:16:15.000Z</time>
      </trkpt>
      <trkpt lat="42.83693" lon="0.11472">
        <ele>2962.8000488281</ele>
        <time>2019-05-05T12:16:32.000Z</time>
      </trkpt>
      <trkpt lat="42.83691" lon="0.11474">
        <ele>2964.6000976562</ele>
        <time>2019-05-05T12:16:35.000Z</time>
      </trkpt>
      <trkpt lat="42.8369" lon="0.11475">
        <ele>2965</ele>
        <time>2019-05-05T12:16:36.000Z</time>
      </trkpt>
      <trkpt lat="42.83688" lon="0.11477">
        <ele>2966.6000976562</ele>
        <time>2019-05-05T12:16:40.000Z</time>
      </trkpt>
      <trkpt lat="42.83688" lon="0.11478">
        <ele>2966.8000488281</ele>
        <time>2019-05-05T12:16:41.000Z</time>
      </trkpt>
      <trkpt lat="42.83688" lon="0.11479">
        <ele>2966.8000488281</ele>
        <time>2019-05-05T12:16:42.000Z</time>
      </trkpt>
      <trkpt lat="42.83688" lon="0.1148">
        <ele>2966.8000488281</ele>
        <time>2019-05-05T12:16:43.000Z</time>
      </trkpt>
      <trkpt lat="42.83687" lon="0.11484">
        <ele>2967</ele>
        <time>2019-05-05T12:16:54.000Z</time>
      </trkpt>
      <trkpt lat="42.83685" lon="0.11494">
        <ele>2967.6000976562</ele>
        <time>2019-05-05T12:17:13.000Z</time>
      </trkpt>
      <trkpt lat="42.83673" lon="0.11525">
        <ele>2972.1999511719</ele>
        <time>2019-05-05T12:18:39.000Z</time>
      </trkpt>
      <trkpt lat="42.83672" lon="0.11531">
        <ele>2972.1999511719</ele>
        <time>2019-05-05T12:18:48.000Z</time>
      </trkpt>
      <trkpt lat="42.83658" lon="0.11555">
        <ele>2966.1999511719</ele>
        <time>2019-05-05T12:19:41.000Z</time>
      </trkpt>
      <trkpt lat="42.83658" lon="0.11557">
        <ele>2965.8000488281</ele>
        <time>2019-05-05T12:19:43.000Z</time>
      </trkpt>
      <trkpt lat="42.83658" lon="0.1156">
        <ele>2965</ele>
        <time>2019-05-05T12:19:47.000Z</time>
      </trkpt>
      <trkpt lat="42.83655" lon="0.11567">
        <ele>2962.6000976562</ele>
        <time>2019-05-05T12:19:57.000Z</time>
      </trkpt>
      <trkpt lat="42.83654" lon="0.11574">
        <ele>2961</ele>
        <time>2019-05-05T12:20:07.000Z</time>
      </trkpt>
      <trkpt lat="42.83653" lon="0.1158">
        <ele>2959.3999023438</ele>
        <time>2019-05-05T12:20:21.000Z</time>
      </trkpt>
      <trkpt lat="42.83652" lon="0.11581">
        <ele>2959</ele>
        <time>2019-05-05T12:20:28.000Z</time>
      </trkpt>
      <trkpt lat="42.83646" lon="0.11562">
        <ele>2961.8000488281</ele>
        <time>2019-05-05T12:21:34.000Z</time>
      </trkpt>
      <trkpt lat="42.83646" lon="0.11561">
        <ele>2962</ele>
        <time>2019-05-05T12:21:35.000Z</time>
      </trkpt>
      <trkpt lat="42.83646" lon="0.1156">
        <ele>2962</ele>
        <time>2019-05-05T12:21:36.000Z</time>
      </trkpt>
      <trkpt lat="42.83645" lon="0.11558">
        <ele>2962.3999023438</ele>
        <time>2019-05-05T12:21:39.000Z</time>
      </trkpt>
      <trkpt lat="42.83638" lon="0.11535">
        <ele>2964.8000488281</ele>
        <time>2019-05-05T12:22:14.000Z</time>
      </trkpt>
      <trkpt lat="42.83639" lon="0.11528">
        <ele>2966</ele>
        <time>2019-05-05T12:22:23.000Z</time>
      </trkpt>
      <trkpt lat="42.83638" lon="0.11521">
        <ele>2966.8000488281</ele>
        <time>2019-05-05T12:22:34.000Z</time>
      </trkpt>
      <trkpt lat="42.83638" lon="0.1152">
        <ele>2967</ele>
        <time>2019-05-05T12:22:35.000Z</time>
      </trkpt>
      <trkpt lat="42.83638" lon="0.11517">
        <ele>2967.3999023438</ele>
        <time>2019-05-05T12:22:40.000Z</time>
      </trkpt>
      <trkpt lat="42.83638" lon="0.11516">
        <ele>2967.3999023438</ele>
        <time>2019-05-05T12:22:43.000Z</time>
      </trkpt>
      <trkpt lat="42.83637" lon="0.1151">
        <ele>2968</ele>
        <time>2019-05-05T12:22:51.000Z</time>
      </trkpt>
      <trkpt lat="42.83637" lon="0.11509">
        <ele>2968</ele>
        <time>2019-05-05T12:22:52.000Z</time>
      </trkpt>
      <trkpt lat="42.83637" lon="0.11509">
        <ele>2968</ele>
        <time>2019-05-05T12:22:53.000Z</time>
      </trkpt>
      <trkpt lat="42.83637" lon="0.11509">
        <ele>2968</ele>
        <time>2019-05-05T12:22:54.000Z</time>
      </trkpt>
      <trkpt lat="42.83637" lon="0.11508">
        <ele>2968.1999511719</ele>
        <time>2019-05-05T12:22:56.000Z</time>
      </trkpt>
      <trkpt lat="42.83637" lon="0.11507">
        <ele>2968.1999511719</ele>
        <time>2019-05-05T12:22:58.000Z</time>
      </trkpt>
      <trkpt lat="42.83637" lon="0.11504">
        <ele>2968.1999511719</ele>
        <time>2019-05-05T12:23:01.000Z</time>
      </trkpt>
      <trkpt lat="42.83636" lon="0.11497">
        <ele>2968.3999023438</ele>
        <time>2019-05-05T12:23:10.000Z</time>
      </trkpt>
      <trkpt lat="42.83637" lon="0.11492">
        <ele>2968.6000976562</ele>
        <time>2019-05-05T12:23:21.000Z</time>
      </trkpt>
      <trkpt lat="42.83634" lon="0.11475">
        <ele>2968.6000976562</ele>
        <time>2019-05-05T12:23:43.000Z</time>
      </trkpt>
      <trkpt lat="42.83633" lon="0.11472">
        <ele>2968.3999023438</ele>
        <time>2019-05-05T12:23:47.000Z</time>
      </trkpt>
      <trkpt lat="42.83632" lon="0.11469">
        <ele>2968.3999023438</ele>
        <time>2019-05-05T12:23:51.000Z</time>
      </trkpt>
      <trkpt lat="42.83632" lon="0.11469">
        <ele>2968.3999023438</ele>
        <time>2019-05-05T12:23:53.000Z</time>
      </trkpt>
      <trkpt lat="42.83632" lon="0.11468">
        <ele>2968.3999023438</ele>
        <time>2019-05-05T12:23:55.000Z</time>
      </trkpt>
      <trkpt lat="42.83631" lon="0.11459">
        <ele>2968.6000976562</ele>
        <time>2019-05-05T12:24:06.000Z</time>
      </trkpt>
      <trkpt lat="42.8363" lon="0.11452">
        <ele>2968.3999023438</ele>
        <time>2019-05-05T12:24:26.000Z</time>
      </trkpt>
      <trkpt lat="42.8363" lon="0.1145">
        <ele>2968.6000976562</ele>
        <time>2019-05-05T12:24:31.000Z</time>
      </trkpt>
      <trkpt lat="42.83627" lon="0.1143">
        <ele>2968.3999023438</ele>
        <time>2019-05-05T12:24:56.000Z</time>
      </trkpt>
      <trkpt lat="42.83627" lon="0.11429">
        <ele>2968.3999023438</ele>
        <time>2019-05-05T12:24:57.000Z</time>
      </trkpt>
      <trkpt lat="42.83627" lon="0.11428">
        <ele>2968.3999023438</ele>
        <time>2019-05-05T12:24:58.000Z</time>
      </trkpt>
      <trkpt lat="42.83627" lon="0.11427">
        <ele>2968.3999023438</ele>
        <time>2019-05-05T12:24:59.000Z</time>
      </trkpt>
      <trkpt lat="42.83627" lon="0.11426">
        <ele>2968.3999023438</ele>
        <time>2019-05-05T12:25:00.000Z</time>
      </trkpt>
      <trkpt lat="42.83625" lon="0.11409">
        <ele>2968.6000976562</ele>
        <time>2019-05-05T12:25:19.000Z</time>
      </trkpt>
      <trkpt lat="42.83624" lon="0.11407">
        <ele>2968.3999023438</ele>
        <time>2019-05-05T12:25:22.000Z</time>
      </trkpt>
      <trkpt lat="42.83623" lon="0.11406">
        <ele>2968.3999023438</ele>
        <time>2019-05-05T12:25:23.000Z</time>
      </trkpt>
      <trkpt lat="42.83623" lon="0.11406">
        <ele>2968.3999023438</ele>
        <time>2019-05-05T12:25:24.000Z</time>
      </trkpt>
      <trkpt lat="42.83622" lon="0.11405">
        <ele>2968.3999023438</ele>
        <time>2019-05-05T12:25:25.000Z</time>
      </trkpt>
      <trkpt lat="42.83622" lon="0.11405">
        <ele>2968.3999023438</ele>
        <time>2019-05-05T12:25:26.000Z</time>
      </trkpt>
      <trkpt lat="42.83622" lon="0.11405">
        <ele>2968.1999511719</ele>
        <time>2019-05-05T12:25:27.000Z</time>
      </trkpt>
      <trkpt lat="42.83622" lon="0.11405">
        <ele>2968.1999511719</ele>
        <time>2019-05-05T12:25:28.000Z</time>
      </trkpt>
      <trkpt lat="42.83622" lon="0.11404">
        <ele>2968.1999511719</ele>
        <time>2019-05-05T12:25:33.000Z</time>
      </trkpt>
      <trkpt lat="42.83621" lon="0.11403">
        <ele>2968.1999511719</ele>
        <time>2019-05-05T12:25:35.000Z</time>
      </trkpt>
      <trkpt lat="42.83621" lon="0.11401">
        <ele>2968.3999023438</ele>
        <time>2019-05-05T12:25:37.000Z</time>
      </trkpt>
      <trkpt lat="42.83621" lon="0.11399">
        <ele>2968.3999023438</ele>
        <time>2019-05-05T12:25:40.000Z</time>
      </trkpt>
      <trkpt lat="42.83621" lon="0.11397">
        <ele>2968.3999023438</ele>
        <time>2019-05-05T12:25:43.000Z</time>
      </trkpt>
      <trkpt lat="42.83621" lon="0.11396">
        <ele>2968.6000976562</ele>
        <time>2019-05-05T12:25:45.000Z</time>
      </trkpt>
      <trkpt lat="42.8362" lon="0.11396">
        <ele>2968.3999023438</ele>
        <time>2019-05-05T12:25:48.000Z</time>
      </trkpt>
      <trkpt lat="42.8362" lon="0.11396">
        <ele>2968.3999023438</ele>
        <time>2019-05-05T12:25:51.000Z</time>
      </trkpt>
      <trkpt lat="42.83618" lon="0.11395">
        <ele>2968.1999511719</ele>
        <time>2019-05-05T12:25:53.000Z</time>
      </trkpt>
      <trkpt lat="42.83616" lon="0.11393">
        <ele>2968</ele>
        <time>2019-05-05T12:25:59.000Z</time>
      </trkpt>
      <trkpt lat="42.83616" lon="0.11393">
        <ele>2968</ele>
        <time>2019-05-05T12:26:02.000Z</time>
      </trkpt>
      <trkpt lat="42.83616" lon="0.11394">
        <ele>2967.8000488281</ele>
        <time>2019-05-05T12:26:08.000Z</time>
      </trkpt>
      <trkpt lat="42.83615" lon="0.1139">
        <ele>2968</ele>
        <time>2019-05-05T12:26:57.000Z</time>
      </trkpt>
      <trkpt lat="42.83616" lon="0.11391">
        <ele>2968</ele>
        <time>2019-05-05T12:27:25.000Z</time>
      </trkpt>
      <trkpt lat="42.83617" lon="0.11392">
        <ele>2968.1999511719</ele>
        <time>2019-05-05T12:27:55.000Z</time>
      </trkpt>
      <trkpt lat="42.83618" lon="0.11392">
        <ele>2968.3999023438</ele>
        <time>2019-05-05T12:28:07.000Z</time>
      </trkpt>
      <trkpt lat="42.83617" lon="0.11392">
        <ele>2968.1999511719</ele>
        <time>2019-05-05T12:28:14.000Z</time>
      </trkpt>
      <trkpt lat="42.83617" lon="0.11393">
        <ele>2968</ele>
        <time>2019-05-05T12:28:52.000Z</time>
      </trkpt>
      <trkpt lat="42.83616" lon="0.11392">
        <ele>2968</ele>
        <time>2019-05-05T12:29:01.000Z</time>
      </trkpt>
      <trkpt lat="42.83617" lon="0.11393">
        <ele>2968</ele>
        <time>2019-05-05T12:29:08.000Z</time>
      </trkpt>
      <trkpt lat="42.83617" lon="0.11392">
        <ele>2968.1999511719</ele>
        <time>2019-05-05T12:29:32.000Z</time>
      </trkpt>
      <trkpt lat="42.83619" lon="0.11392">
        <ele>2968.3999023438</ele>
        <time>2019-05-05T12:30:27.000Z</time>
      </trkpt>
      <trkpt lat="42.83618" lon="0.11392">
        <ele>2968.3999023438</ele>
        <time>2019-05-05T12:30:44.000Z</time>
      </trkpt>
      <trkpt lat="42.83616" lon="0.11392">
        <ele>2968</ele>
        <time>2019-05-05T12:30:53.000Z</time>
      </trkpt>
      <trkpt lat="42.83616" lon="0.11394">
        <ele>2967.8000488281</ele>
        <time>2019-05-05T12:31:31.000Z</time>
      </trkpt>
      <trkpt lat="42.83616" lon="0.11392">
        <ele>2967.8000488281</ele>
        <time>2019-05-05T12:34:11.000Z</time>
      </trkpt>
      <trkpt lat="42.83616" lon="0.11393">
        <ele>2968</ele>
        <time>2019-05-05T12:34:22.000Z</time>
      </trkpt>
      <trkpt lat="42.83617" lon="0.11395">
        <ele>2968</ele>
        <time>2019-05-05T12:35:26.000Z</time>
      </trkpt>
      <trkpt lat="42.8362" lon="0.11393">
        <ele>2968.6000976562</ele>
        <time>2019-05-05T12:36:18.000Z</time>
      </trkpt>
      <trkpt lat="42.83619" lon="0.11392">
        <ele>2968.3999023438</ele>
        <time>2019-05-05T12:38:22.000Z</time>
      </trkpt>
      <trkpt lat="42.83619" lon="0.11393">
        <ele>2968.3999023438</ele>
        <time>2019-05-05T12:38:41.000Z</time>
      </trkpt>
      <trkpt lat="42.8362" lon="0.11393">
        <ele>2968.6000976562</ele>
        <time>2019-05-05T12:38:56.000Z</time>
      </trkpt>
      <trkpt lat="42.83617" lon="0.11393">
        <ele>2968</ele>
        <time>2019-05-05T12:39:36.000Z</time>
      </trkpt>
      <trkpt lat="42.83616" lon="0.11392">
        <ele>2967.8000488281</ele>
        <time>2019-05-05T12:39:45.000Z</time>
      </trkpt>
      <trkpt lat="42.83617" lon="0.11393">
        <ele>2968</ele>
        <time>2019-05-05T12:39:54.000Z</time>
      </trkpt>
      <trkpt lat="42.83618" lon="0.11393">
        <ele>2968.1999511719</ele>
        <time>2019-05-05T12:40:00.000Z</time>
      </trkpt>
      <trkpt lat="42.83618" lon="0.11393">
        <ele>2968.1999511719</ele>
        <time>2019-05-05T12:40:05.000Z</time>
      </trkpt>
      <trkpt lat="42.83619" lon="0.11391">
        <ele>2968.6000976562</ele>
        <time>2019-05-05T12:40:13.000Z</time>
      </trkpt>
      <trkpt lat="42.83619" lon="0.11391">
        <ele>2968.6000976562</ele>
        <time>2019-05-05T12:40:16.000Z</time>
      </trkpt>
      <trkpt lat="42.83619" lon="0.11391">
        <ele>2968.6000976562</ele>
        <time>2019-05-05T12:40:17.000Z</time>
      </trkpt>
      <trkpt lat="42.83619" lon="0.11391">
        <ele>2968.6000976562</ele>
        <time>2019-05-05T12:40:18.000Z</time>
      </trkpt>
      <trkpt lat="42.8362" lon="0.11392">
        <ele>2968.8000488281</ele>
        <time>2019-05-05T12:40:23.000Z</time>
      </trkpt>
      <trkpt lat="42.83622" lon="0.11392">
        <ele>2969</ele>
        <time>2019-05-05T12:40:35.000Z</time>
      </trkpt>
      <trkpt lat="42.83621" lon="0.11393">
        <ele>2968.8000488281</ele>
        <time>2019-05-05T12:40:44.000Z</time>
      </trkpt>
      <trkpt lat="42.83618" lon="0.11392">
        <ele>2968.1999511719</ele>
        <time>2019-05-05T12:41:03.000Z</time>
      </trkpt>
      <trkpt lat="42.83619" lon="0.11393">
        <ele>2968.3999023438</ele>
        <time>2019-05-05T12:41:24.000Z</time>
      </trkpt>
      <trkpt lat="42.8362" lon="0.11392">
        <ele>2968.6000976562</ele>
        <time>2019-05-05T12:41:42.000Z</time>
      </trkpt>
      <trkpt lat="42.83621" lon="0.11391">
        <ele>2969</ele>
        <time>2019-05-05T12:42:01.000Z</time>
      </trkpt>
      <trkpt lat="42.83618" lon="0.11391">
        <ele>2968.3999023438</ele>
        <time>2019-05-05T12:43:07.000Z</time>
      </trkpt>
      <trkpt lat="42.83617" lon="0.1139">
        <ele>2968.1999511719</ele>
        <time>2019-05-05T12:43:14.000Z</time>
      </trkpt>
      <trkpt lat="42.83619" lon="0.1139">
        <ele>2968.6000976562</ele>
        <time>2019-05-05T12:43:30.000Z</time>
      </trkpt>
      <trkpt lat="42.83619" lon="0.11388">
        <ele>2968.8000488281</ele>
        <time>2019-05-05T12:43:40.000Z</time>
      </trkpt>
      <trkpt lat="42.83622" lon="0.11394">
        <ele>2969</ele>
        <time>2019-05-05T12:44:10.000Z</time>
      </trkpt>
      <trkpt lat="42.83625" lon="0.11394">
        <ele>2969.3999023438</ele>
        <time>2019-05-05T12:44:30.000Z</time>
      </trkpt>
      <trkpt lat="42.83624" lon="0.11394">
        <ele>2969.3999023438</ele>
        <time>2019-05-05T12:44:41.000Z</time>
      </trkpt>
      <trkpt lat="42.83622" lon="0.11396">
        <ele>2968.8000488281</ele>
        <time>2019-05-05T12:44:55.000Z</time>
      </trkpt>
      <trkpt lat="42.8362" lon="0.11397">
        <ele>2968.3999023438</ele>
        <time>2019-05-05T12:45:10.000Z</time>
      </trkpt>
      <trkpt lat="42.83617" lon="0.11394">
        <ele>2968</ele>
        <time>2019-05-05T12:45:28.000Z</time>
      </trkpt>
      <trkpt lat="42.83617" lon="0.11394">
        <ele>2968</ele>
        <time>2019-05-05T12:45:31.000Z</time>
      </trkpt>
      <trkpt lat="42.83617" lon="0.11394">
        <ele>2968</ele>
        <time>2019-05-05T12:45:36.000Z</time>
      </trkpt>
      <trkpt lat="42.83617" lon="0.11394">
        <ele>2968.1999511719</ele>
        <time>2019-05-05T12:45:39.000Z</time>
      </trkpt>
      <trkpt lat="42.83618" lon="0.11394">
        <ele>2968.1999511719</ele>
        <time>2019-05-05T12:45:40.000Z</time>
      </trkpt>
      <trkpt lat="42.83616" lon="0.11395">
        <ele>2967.8000488281</ele>
        <time>2019-05-05T12:45:52.000Z</time>
      </trkpt>
      <trkpt lat="42.83617" lon="0.11395">
        <ele>2968</ele>
        <time>2019-05-05T12:45:58.000Z</time>
      </trkpt>
      <trkpt lat="42.83617" lon="0.11395">
        <ele>2968</ele>
        <time>2019-05-05T12:45:59.000Z</time>
      </trkpt>
      <trkpt lat="42.83617" lon="0.11395">
        <ele>2968</ele>
        <time>2019-05-05T12:46:00.000Z</time>
      </trkpt>
      <trkpt lat="42.83617" lon="0.11395">
        <ele>2968</ele>
        <time>2019-05-05T12:46:01.000Z</time>
      </trkpt>
      <trkpt lat="42.83609" lon="0.11404">
        <ele>2966.3999023438</ele>
        <time>2019-05-05T12:46:53.000Z</time>
      </trkpt>
      <trkpt lat="42.83612" lon="0.11407">
        <ele>2966.6000976562</ele>
        <time>2019-05-05T12:47:28.000Z</time>
      </trkpt>
      <trkpt lat="42.83614" lon="0.11407">
        <ele>2967</ele>
        <time>2019-05-05T12:47:41.000Z</time>
      </trkpt>
      <trkpt lat="42.83614" lon="0.11407">
        <ele>2967</ele>
        <time>2019-05-05T12:47:45.000Z</time>
      </trkpt>
      <trkpt lat="42.83613" lon="0.11406">
        <ele>2966.8000488281</ele>
        <time>2019-05-05T12:47:59.000Z</time>
      </trkpt>
      <trkpt lat="42.83612" lon="0.11406">
        <ele>2966.8000488281</ele>
        <time>2019-05-05T12:48:05.000Z</time>
      </trkpt>
      <trkpt lat="42.83609" lon="0.11406">
        <ele>2966.3999023438</ele>
        <time>2019-05-05T12:48:18.000Z</time>
      </trkpt>
      <trkpt lat="42.83609" lon="0.11406">
        <ele>2966.1999511719</ele>
        <time>2019-05-05T12:48:26.000Z</time>
      </trkpt>
      <trkpt lat="42.83608" lon="0.11411">
        <ele>2966</ele>
        <time>2019-05-05T12:48:36.000Z</time>
      </trkpt>
      <trkpt lat="42.83607" lon="0.11412">
        <ele>2966</ele>
        <time>2019-05-05T12:48:37.000Z</time>
      </trkpt>
      <trkpt lat="42.83604" lon="0.11414">
        <ele>2965.6000976562</ele>
        <time>2019-05-05T12:48:44.000Z</time>
      </trkpt>
      <trkpt lat="42.83603" lon="0.11415">
        <ele>2965.3999023438</ele>
        <time>2019-05-05T12:48:49.000Z</time>
      </trkpt>
      <trkpt lat="42.83603" lon="0.11416">
        <ele>2965.3999023438</ele>
        <time>2019-05-05T12:48:54.000Z</time>
      </trkpt>
      <trkpt lat="42.83602" lon="0.11417">
        <ele>2965.1999511719</ele>
        <time>2019-05-05T12:48:59.000Z</time>
      </trkpt>
      <trkpt lat="42.83602" lon="0.11417">
        <ele>2965.1999511719</ele>
        <time>2019-05-05T12:49:00.000Z</time>
      </trkpt>
      <trkpt lat="42.83602" lon="0.11417">
        <ele>2965.1999511719</ele>
        <time>2019-05-05T12:49:01.000Z</time>
      </trkpt>
      <trkpt lat="42.83601" lon="0.11417">
        <ele>2965.1999511719</ele>
        <time>2019-05-05T12:49:03.000Z</time>
      </trkpt>
      <trkpt lat="42.83601" lon="0.11417">
        <ele>2965.1999511719</ele>
        <time>2019-05-05T12:49:06.000Z</time>
      </trkpt>
      <trkpt lat="42.83601" lon="0.11416">
        <ele>2965</ele>
        <time>2019-05-05T12:49:10.000Z</time>
      </trkpt>
      <trkpt lat="42.836" lon="0.11417">
        <ele>2965</ele>
        <time>2019-05-05T12:49:14.000Z</time>
      </trkpt>
      <trkpt lat="42.83601" lon="0.11417">
        <ele>2965.1999511719</ele>
        <time>2019-05-05T12:49:18.000Z</time>
      </trkpt>
      <trkpt lat="42.83601" lon="0.11417">
        <ele>2965</ele>
        <time>2019-05-05T12:49:20.000Z</time>
      </trkpt>
      <trkpt lat="42.83601" lon="0.11417">
        <ele>2965</ele>
        <time>2019-05-05T12:49:21.000Z</time>
      </trkpt>
      <trkpt lat="42.836" lon="0.11417">
        <ele>2965</ele>
        <time>2019-05-05T12:49:23.000Z</time>
      </trkpt>
      <trkpt lat="42.83598" lon="0.11417">
        <ele>2964.8000488281</ele>
        <time>2019-05-05T12:49:27.000Z</time>
      </trkpt>
      <trkpt lat="42.83596" lon="0.1142">
        <ele>2964.3999023438</ele>
        <time>2019-05-05T12:49:34.000Z</time>
      </trkpt>
      <trkpt lat="42.83596" lon="0.11421">
        <ele>2964.3999023438</ele>
        <time>2019-05-05T12:49:36.000Z</time>
      </trkpt>
      <trkpt lat="42.83595" lon="0.11421">
        <ele>2964.3999023438</ele>
        <time>2019-05-05T12:49:38.000Z</time>
      </trkpt>
      <trkpt lat="42.83595" lon="0.11421">
        <ele>2964.1999511719</ele>
        <time>2019-05-05T12:49:39.000Z</time>
      </trkpt>
      <trkpt lat="42.83595" lon="0.11422">
        <ele>2964.1999511719</ele>
        <time>2019-05-05T12:49:41.000Z</time>
      </trkpt>
      <trkpt lat="42.83594" lon="0.11423">
        <ele>2964.1999511719</ele>
        <time>2019-05-05T12:49:50.000Z</time>
      </trkpt>
      <trkpt lat="42.83594" lon="0.11424">
        <ele>2964</ele>
        <time>2019-05-05T12:50:00.000Z</time>
      </trkpt>
      <trkpt lat="42.83595" lon="0.11426">
        <ele>2964.1999511719</ele>
        <time>2019-05-05T12:50:15.000Z</time>
      </trkpt>
      <trkpt lat="42.83594" lon="0.11432">
        <ele>2964</ele>
        <time>2019-05-05T12:50:34.000Z</time>
      </trkpt>
      <trkpt lat="42.8359" lon="0.11432">
        <ele>2963.3999023438</ele>
        <time>2019-05-05T12:50:56.000Z</time>
      </trkpt>
      <trkpt lat="42.83589" lon="0.11432">
        <ele>2963.3999023438</ele>
        <time>2019-05-05T12:51:00.000Z</time>
      </trkpt>
      <trkpt lat="42.83589" lon="0.11434">
        <ele>2963.3999023438</ele>
        <time>2019-05-05T12:51:08.000Z</time>
      </trkpt>
      <trkpt lat="42.83587" lon="0.11433">
        <ele>2962.8000488281</ele>
        <time>2019-05-05T12:51:13.000Z</time>
      </trkpt>
      <trkpt lat="42.83585" lon="0.11434">
        <ele>2962</ele>
        <time>2019-05-05T12:51:21.000Z</time>
      </trkpt>
      <trkpt lat="42.83583" lon="0.11436">
        <ele>2961.6000976562</ele>
        <time>2019-05-05T12:51:27.000Z</time>
      </trkpt>
      <trkpt lat="42.83581" lon="0.11437">
        <ele>2960.8000488281</ele>
        <time>2019-05-05T12:51:37.000Z</time>
      </trkpt>
      <trkpt lat="42.8358" lon="0.11437">
        <ele>2960.8000488281</ele>
        <time>2019-05-05T12:51:38.000Z</time>
      </trkpt>
      <trkpt lat="42.8358" lon="0.11437">
        <ele>2960.6000976562</ele>
        <time>2019-05-05T12:51:40.000Z</time>
      </trkpt>
      <trkpt lat="42.8358" lon="0.11436">
        <ele>2960.3999023438</ele>
        <time>2019-05-05T12:51:44.000Z</time>
      </trkpt>
      <trkpt lat="42.83578" lon="0.11434">
        <ele>2959.8000488281</ele>
        <time>2019-05-05T12:51:55.000Z</time>
      </trkpt>
      <trkpt lat="42.83577" lon="0.11436">
        <ele>2959.6000976562</ele>
        <time>2019-05-05T12:52:18.000Z</time>
      </trkpt>
      <trkpt lat="42.83576" lon="0.11436">
        <ele>2959.3999023438</ele>
        <time>2019-05-05T12:52:23.000Z</time>
      </trkpt>
      <trkpt lat="42.83576" lon="0.11437">
        <ele>2959.1999511719</ele>
        <time>2019-05-05T12:52:36.000Z</time>
      </trkpt>
      <trkpt lat="42.83574" lon="0.11438">
        <ele>2958.8000488281</ele>
        <time>2019-05-05T12:52:46.000Z</time>
      </trkpt>
      <trkpt lat="42.83573" lon="0.11439">
        <ele>2958.3999023438</ele>
        <time>2019-05-05T12:52:52.000Z</time>
      </trkpt>
      <trkpt lat="42.83573" lon="0.11439">
        <ele>2958.6000976562</ele>
        <time>2019-05-05T12:52:53.000Z</time>
      </trkpt>
      <trkpt lat="42.83571" lon="0.11438">
        <ele>2957.8000488281</ele>
        <time>2019-05-05T12:53:08.000Z</time>
      </trkpt>
      <trkpt lat="42.83568" lon="0.11438">
        <ele>2957</ele>
        <time>2019-05-05T12:53:24.000Z</time>
      </trkpt>
      <trkpt lat="42.83568" lon="0.11447">
        <ele>2956.3999023438</ele>
        <time>2019-05-05T12:53:39.000Z</time>
      </trkpt>
      <trkpt lat="42.83567" lon="0.11454">
        <ele>2955</ele>
        <time>2019-05-05T12:54:13.000Z</time>
      </trkpt>
      <trkpt lat="42.83562" lon="0.11448">
        <ele>2954</ele>
        <time>2019-05-05T12:54:31.000Z</time>
      </trkpt>
      <trkpt lat="42.83562" lon="0.11449">
        <ele>2953.8000488281</ele>
        <time>2019-05-05T12:54:38.000Z</time>
      </trkpt>
      <trkpt lat="42.83562" lon="0.11452">
        <ele>2953.3999023438</ele>
        <time>2019-05-05T12:54:43.000Z</time>
      </trkpt>
      <trkpt lat="42.83558" lon="0.11461">
        <ele>2951</ele>
        <time>2019-05-05T12:55:03.000Z</time>
      </trkpt>
      <trkpt lat="42.83558" lon="0.11462">
        <ele>2950.8000488281</ele>
        <time>2019-05-05T12:55:05.000Z</time>
      </trkpt>
      <trkpt lat="42.83557" lon="0.11464">
        <ele>2950</ele>
        <time>2019-05-05T12:55:12.000Z</time>
      </trkpt>
      <trkpt lat="42.83551" lon="0.11468">
        <ele>2947.3999023438</ele>
        <time>2019-05-05T12:55:34.000Z</time>
      </trkpt>
      <trkpt lat="42.83551" lon="0.11468">
        <ele>2947.3999023438</ele>
        <time>2019-05-05T12:55:38.000Z</time>
      </trkpt>
      <trkpt lat="42.83551" lon="0.11468">
        <ele>2947.3999023438</ele>
        <time>2019-05-05T12:55:42.000Z</time>
      </trkpt>
      <trkpt lat="42.83551" lon="0.11468">
        <ele>2947.6000976562</ele>
        <time>2019-05-05T12:55:43.000Z</time>
      </trkpt>
      <trkpt lat="42.83551" lon="0.11468">
        <ele>2947.3999023438</ele>
        <time>2019-05-05T12:55:44.000Z</time>
      </trkpt>
      <trkpt lat="42.83551" lon="0.11468">
        <ele>2947.6000976562</ele>
        <time>2019-05-05T12:55:45.000Z</time>
      </trkpt>
      <trkpt lat="42.83551" lon="0.11473">
        <ele>2946.8000488281</ele>
        <time>2019-05-05T12:55:53.000Z</time>
      </trkpt>
      <trkpt lat="42.83551" lon="0.11474">
        <ele>2946.8000488281</ele>
        <time>2019-05-05T12:55:56.000Z</time>
      </trkpt>
      <trkpt lat="42.83551" lon="0.11475">
        <ele>2946.6000976562</ele>
        <time>2019-05-05T12:55:59.000Z</time>
      </trkpt>
      <trkpt lat="42.83552" lon="0.11475">
        <ele>2946.6000976562</ele>
        <time>2019-05-05T12:56:01.000Z</time>
      </trkpt>
      <trkpt lat="42.83551" lon="0.11476">
        <ele>2946.3999023438</ele>
        <time>2019-05-05T12:56:03.000Z</time>
      </trkpt>
      <trkpt lat="42.83551" lon="0.11476">
        <ele>2946.1999511719</ele>
        <time>2019-05-05T12:56:06.000Z</time>
      </trkpt>
      <trkpt lat="42.8355" lon="0.11475">
        <ele>2945.8000488281</ele>
        <time>2019-05-05T12:56:10.000Z</time>
      </trkpt>
      <trkpt lat="42.83549" lon="0.11475">
        <ele>2945.6000976562</ele>
        <time>2019-05-05T12:56:14.000Z</time>
      </trkpt>
      <trkpt lat="42.83548" lon="0.11474">
        <ele>2945.6000976562</ele>
        <time>2019-05-05T12:56:17.000Z</time>
      </trkpt>
      <trkpt lat="42.83547" lon="0.11473">
        <ele>2945</ele>
        <time>2019-05-05T12:56:24.000Z</time>
      </trkpt>
      <trkpt lat="42.83547" lon="0.11475">
        <ele>2945</ele>
        <time>2019-05-05T12:56:27.000Z</time>
      </trkpt>
      <trkpt lat="42.83547" lon="0.11475">
        <ele>2945.1999511719</ele>
        <time>2019-05-05T12:56:29.000Z</time>
      </trkpt>
      <trkpt lat="42.83548" lon="0.11477">
        <ele>2945.1999511719</ele>
        <time>2019-05-05T12:56:38.000Z</time>
      </trkpt>
      <trkpt lat="42.83549" lon="0.11477">
        <ele>2945.3999023438</ele>
        <time>2019-05-05T12:56:42.000Z</time>
      </trkpt>
      <trkpt lat="42.83552" lon="0.11475">
        <ele>2946.8000488281</ele>
        <time>2019-05-05T12:56:53.000Z</time>
      </trkpt>
      <trkpt lat="42.83553" lon="0.11477">
        <ele>2946.8000488281</ele>
        <time>2019-05-05T12:57:00.000Z</time>
      </trkpt>
      <trkpt lat="42.83553" lon="0.11478">
        <ele>2946.6000976562</ele>
        <time>2019-05-05T12:57:02.000Z</time>
      </trkpt>
      <trkpt lat="42.83553" lon="0.11481">
        <ele>2946.3999023438</ele>
        <time>2019-05-05T12:57:05.000Z</time>
      </trkpt>
      <trkpt lat="42.83545" lon="0.11485">
        <ele>2942.8000488281</ele>
        <time>2019-05-05T12:57:19.000Z</time>
      </trkpt>
      <trkpt lat="42.83542" lon="0.11485">
        <ele>2941.6000976562</ele>
        <time>2019-05-05T12:57:28.000Z</time>
      </trkpt>
      <trkpt lat="42.83542" lon="0.11485">
        <ele>2941.6000976562</ele>
        <time>2019-05-05T12:57:30.000Z</time>
      </trkpt>
      <trkpt lat="42.83541" lon="0.11485">
        <ele>2941.3999023438</ele>
        <time>2019-05-05T12:57:32.000Z</time>
      </trkpt>
      <trkpt lat="42.83541" lon="0.11485">
        <ele>2941.3999023438</ele>
        <time>2019-05-05T12:57:33.000Z</time>
      </trkpt>
      <trkpt lat="42.83542" lon="0.11485">
        <ele>2941.3999023438</ele>
        <time>2019-05-05T12:57:34.000Z</time>
      </trkpt>
      <trkpt lat="42.83542" lon="0.11485">
        <ele>2941.8000488281</ele>
        <time>2019-05-05T12:57:35.000Z</time>
      </trkpt>
      <trkpt lat="42.83543" lon="0.11484">
        <ele>2942</ele>
        <time>2019-05-05T12:57:37.000Z</time>
      </trkpt>
      <trkpt lat="42.83543" lon="0.11483">
        <ele>2942.3999023438</ele>
        <time>2019-05-05T12:57:39.000Z</time>
      </trkpt>
      <trkpt lat="42.83543" lon="0.11484">
        <ele>2942.1999511719</ele>
        <time>2019-05-05T12:57:40.000Z</time>
      </trkpt>
      <trkpt lat="42.83543" lon="0.11484">
        <ele>2942.3999023438</ele>
        <time>2019-05-05T12:57:41.000Z</time>
      </trkpt>
      <trkpt lat="42.83543" lon="0.11483">
        <ele>2942.1999511719</ele>
        <time>2019-05-05T12:57:42.000Z</time>
      </trkpt>
      <trkpt lat="42.83542" lon="0.11484">
        <ele>2942</ele>
        <time>2019-05-05T12:57:45.000Z</time>
      </trkpt>
      <trkpt lat="42.83542" lon="0.11484">
        <ele>2942</ele>
        <time>2019-05-05T12:57:47.000Z</time>
      </trkpt>
      <trkpt lat="42.83542" lon="0.11483">
        <ele>2942</ele>
        <time>2019-05-05T12:57:51.000Z</time>
      </trkpt>
      <trkpt lat="42.83542" lon="0.11483">
        <ele>2942</ele>
        <time>2019-05-05T12:57:54.000Z</time>
      </trkpt>
      <trkpt lat="42.83542" lon="0.11483">
        <ele>2942.1999511719</ele>
        <time>2019-05-05T12:57:57.000Z</time>
      </trkpt>
      <trkpt lat="42.83542" lon="0.11483">
        <ele>2942.1999511719</ele>
        <time>2019-05-05T12:57:58.000Z</time>
      </trkpt>
      <trkpt lat="42.83542" lon="0.11482">
        <ele>2942.1999511719</ele>
        <time>2019-05-05T12:58:01.000Z</time>
      </trkpt>
      <trkpt lat="42.83542" lon="0.11482">
        <ele>2942.1999511719</ele>
        <time>2019-05-05T12:58:10.000Z</time>
      </trkpt>
      <trkpt lat="42.83543" lon="0.11481">
        <ele>2942.3999023438</ele>
        <time>2019-05-05T12:58:14.000Z</time>
      </trkpt>
      <trkpt lat="42.83542" lon="0.11482">
        <ele>2942.1999511719</ele>
        <time>2019-05-05T12:58:18.000Z</time>
      </trkpt>
      <trkpt lat="42.83541" lon="0.11481">
        <ele>2941.8000488281</ele>
        <time>2019-05-05T12:58:22.000Z</time>
      </trkpt>
      <trkpt lat="42.8354" lon="0.1148">
        <ele>2941.6000976562</ele>
        <time>2019-05-05T12:58:26.000Z</time>
      </trkpt>
      <trkpt lat="42.83539" lon="0.1148">
        <ele>2941</ele>
        <time>2019-05-05T12:58:28.000Z</time>
      </trkpt>
      <trkpt lat="42.83538" lon="0.1148">
        <ele>2940.8000488281</ele>
        <time>2019-05-05T12:58:31.000Z</time>
      </trkpt>
      <trkpt lat="42.83537" lon="0.1148">
        <ele>2940.3999023438</ele>
        <time>2019-05-05T12:58:34.000Z</time>
      </trkpt>
      <trkpt lat="42.83536" lon="0.11482">
        <ele>2939.6000976562</ele>
        <time>2019-05-05T12:58:37.000Z</time>
      </trkpt>
      <trkpt lat="42.83534" lon="0.11483">
        <ele>2938.8000488281</ele>
        <time>2019-05-05T12:58:46.000Z</time>
      </trkpt>
      <trkpt lat="42.83536" lon="0.1149">
        <ele>2939</ele>
        <time>2019-05-05T12:59:11.000Z</time>
      </trkpt>
      <trkpt lat="42.83536" lon="0.1149">
        <ele>2938.8000488281</ele>
        <time>2019-05-05T12:59:53.000Z</time>
      </trkpt>
      <trkpt lat="42.83539" lon="0.1149">
        <ele>2939.8000488281</ele>
        <time>2019-05-05T13:00:10.000Z</time>
      </trkpt>
      <trkpt lat="42.83539" lon="0.11492">
        <ele>2939.3999023438</ele>
        <time>2019-05-05T13:00:15.000Z</time>
      </trkpt>
      <trkpt lat="42.83539" lon="0.11493">
        <ele>2939.1999511719</ele>
        <time>2019-05-05T13:00:18.000Z</time>
      </trkpt>
      <trkpt lat="42.83538" lon="0.11495">
        <ele>2938.6000976562</ele>
        <time>2019-05-05T13:00:24.000Z</time>
      </trkpt>
      <trkpt lat="42.83536" lon="0.11496">
        <ele>2937.8000488281</ele>
        <time>2019-05-05T13:00:32.000Z</time>
      </trkpt>
      <trkpt lat="42.83536" lon="0.11496">
        <ele>2937.6000976562</ele>
        <time>2019-05-05T13:00:41.000Z</time>
      </trkpt>
      <trkpt lat="42.83539" lon="0.11498">
        <ele>2938.3999023438</ele>
        <time>2019-05-05T13:00:56.000Z</time>
      </trkpt>
      <trkpt lat="42.83539" lon="0.11499">
        <ele>2938.3999023438</ele>
        <time>2019-05-05T13:01:08.000Z</time>
      </trkpt>
      <trkpt lat="42.83539" lon="0.115">
        <ele>2938.1999511719</ele>
        <time>2019-05-05T13:01:14.000Z</time>
      </trkpt>
      <trkpt lat="42.83539" lon="0.11501">
        <ele>2938</ele>
        <time>2019-05-05T13:01:15.000Z</time>
      </trkpt>
      <trkpt lat="42.83539" lon="0.11501">
        <ele>2938.1999511719</ele>
        <time>2019-05-05T13:01:16.000Z</time>
      </trkpt>
      <trkpt lat="42.83539" lon="0.11501">
        <ele>2938.1999511719</ele>
        <time>2019-05-05T13:01:17.000Z</time>
      </trkpt>
      <trkpt lat="42.83539" lon="0.11502">
        <ele>2938</ele>
        <time>2019-05-05T13:01:19.000Z</time>
      </trkpt>
      <trkpt lat="42.83539" lon="0.11503">
        <ele>2937.8000488281</ele>
        <time>2019-05-05T13:01:20.000Z</time>
      </trkpt>
      <trkpt lat="42.83539" lon="0.11505">
        <ele>2937.1999511719</ele>
        <time>2019-05-05T13:01:23.000Z</time>
      </trkpt>
      <trkpt lat="42.83539" lon="0.11509">
        <ele>2936.3999023438</ele>
        <time>2019-05-05T13:01:28.000Z</time>
      </trkpt>
      <trkpt lat="42.8354" lon="0.11508">
        <ele>2937.1999511719</ele>
        <time>2019-05-05T13:01:53.000Z</time>
      </trkpt>
      <trkpt lat="42.8354" lon="0.11508">
        <ele>2937.1999511719</ele>
        <time>2019-05-05T13:01:54.000Z</time>
      </trkpt>
      <trkpt lat="42.8354" lon="0.11508">
        <ele>2937</ele>
        <time>2019-05-05T13:01:55.000Z</time>
      </trkpt>
      <trkpt lat="42.8354" lon="0.11508">
        <ele>2937</ele>
        <time>2019-05-05T13:01:58.000Z</time>
      </trkpt>
      <trkpt lat="42.8354" lon="0.11508">
        <ele>2937</ele>
        <time>2019-05-05T13:02:01.000Z</time>
      </trkpt>
      <trkpt lat="42.8354" lon="0.11508">
        <ele>2937.1999511719</ele>
        <time>2019-05-05T13:02:03.000Z</time>
      </trkpt>
      <trkpt lat="42.83541" lon="0.11514">
        <ele>2936.3999023438</ele>
        <time>2019-05-05T13:03:06.000Z</time>
      </trkpt>
      <trkpt lat="42.83539" lon="0.11515">
        <ele>2935.1999511719</ele>
        <time>2019-05-05T13:03:32.000Z</time>
      </trkpt>
      <trkpt lat="42.8354" lon="0.11515">
        <ele>2935.6000976562</ele>
        <time>2019-05-05T13:03:42.000Z</time>
      </trkpt>
      <trkpt lat="42.8354" lon="0.11515">
        <ele>2935.8000488281</ele>
        <time>2019-05-05T13:03:43.000Z</time>
      </trkpt>
      <trkpt lat="42.8354" lon="0.11514">
        <ele>2936</ele>
        <time>2019-05-05T13:03:54.000Z</time>
      </trkpt>
      <trkpt lat="42.8354" lon="0.11514">
        <ele>2936.1999511719</ele>
        <time>2019-05-05T13:04:01.000Z</time>
      </trkpt>
      <trkpt lat="42.8354" lon="0.11514">
        <ele>2936.1999511719</ele>
        <time>2019-05-05T13:04:20.000Z</time>
      </trkpt>
      <trkpt lat="42.8354" lon="0.11513">
        <ele>2936.1999511719</ele>
        <time>2019-05-05T13:04:23.000Z</time>
      </trkpt>
      <trkpt lat="42.8354" lon="0.11513">
        <ele>2936.1999511719</ele>
        <time>2019-05-05T13:04:24.000Z</time>
      </trkpt>
      <trkpt lat="42.8354" lon="0.11513">
        <ele>2936.1999511719</ele>
        <time>2019-05-05T13:04:25.000Z</time>
      </trkpt>
      <trkpt lat="42.8354" lon="0.11513">
        <ele>2936.1999511719</ele>
        <time>2019-05-05T13:04:28.000Z</time>
      </trkpt>
      <trkpt lat="42.8354" lon="0.11513">
        <ele>2936.1999511719</ele>
        <time>2019-05-05T13:04:34.000Z</time>
      </trkpt>
      <trkpt lat="42.8354" lon="0.11513">
        <ele>2936.1999511719</ele>
        <time>2019-05-05T13:04:35.000Z</time>
      </trkpt>
      <trkpt lat="42.8354" lon="0.11513">
        <ele>2936.1999511719</ele>
        <time>2019-05-05T13:04:50.000Z</time>
      </trkpt>
      <trkpt lat="42.8354" lon="0.11514">
        <ele>2936.1999511719</ele>
        <time>2019-05-05T13:04:58.000Z</time>
      </trkpt>
      <trkpt lat="42.8354" lon="0.11514">
        <ele>2936.1999511719</ele>
        <time>2019-05-05T13:05:02.000Z</time>
      </trkpt>
      <trkpt lat="42.8354" lon="0.11514">
        <ele>2936.1999511719</ele>
        <time>2019-05-05T13:05:09.000Z</time>
      </trkpt>
      <trkpt lat="42.8354" lon="0.11513">
        <ele>2936.1999511719</ele>
        <time>2019-05-05T13:05:19.000Z</time>
      </trkpt>
      <trkpt lat="42.8354" lon="0.11513">
        <ele>2936</ele>
        <time>2019-05-05T13:05:30.000Z</time>
      </trkpt>
      <trkpt lat="42.8354" lon="0.11513">
        <ele>2936</ele>
        <time>2019-05-05T13:05:38.000Z</time>
      </trkpt>
      <trkpt lat="42.8354" lon="0.11513">
        <ele>2936</ele>
        <time>2019-05-05T13:05:40.000Z</time>
      </trkpt>
      <trkpt lat="42.8354" lon="0.11513">
        <ele>2935.8000488281</ele>
        <time>2019-05-05T13:05:47.000Z</time>
      </trkpt>
      <trkpt lat="42.8354" lon="0.11514">
        <ele>2935.8000488281</ele>
        <time>2019-05-05T13:05:50.000Z</time>
      </trkpt>
      <trkpt lat="42.8354" lon="0.11514">
        <ele>2935.8000488281</ele>
        <time>2019-05-05T13:05:52.000Z</time>
      </trkpt>
      <trkpt lat="42.8354" lon="0.11514">
        <ele>2935.8000488281</ele>
        <time>2019-05-05T13:05:54.000Z</time>
      </trkpt>
      <trkpt lat="42.8354" lon="0.11514">
        <ele>2935.8000488281</ele>
        <time>2019-05-05T13:05:57.000Z</time>
      </trkpt>
      <trkpt lat="42.83539" lon="0.11515">
        <ele>2935.6000976562</ele>
        <time>2019-05-05T13:06:04.000Z</time>
      </trkpt>
      <trkpt lat="42.83539" lon="0.11515">
        <ele>2935.6000976562</ele>
        <time>2019-05-05T13:06:07.000Z</time>
      </trkpt>
      <trkpt lat="42.83539" lon="0.11515">
        <ele>2935.6000976562</ele>
        <time>2019-05-05T13:06:09.000Z</time>
      </trkpt>
      <trkpt lat="42.83539" lon="0.11515">
        <ele>2935.6000976562</ele>
        <time>2019-05-05T13:06:10.000Z</time>
      </trkpt>
      <trkpt lat="42.83539" lon="0.11515">
        <ele>2935.6000976562</ele>
        <time>2019-05-05T13:06:13.000Z</time>
      </trkpt>
      <trkpt lat="42.83539" lon="0.11515">
        <ele>2935.6000976562</ele>
        <time>2019-05-05T13:06:15.000Z</time>
      </trkpt>
      <trkpt lat="42.83539" lon="0.11515">
        <ele>2935.6000976562</ele>
        <time>2019-05-05T13:06:20.000Z</time>
      </trkpt>
      <trkpt lat="42.8354" lon="0.11515">
        <ele>2935.6000976562</ele>
        <time>2019-05-05T13:06:22.000Z</time>
      </trkpt>
      <trkpt lat="42.8354" lon="0.11515">
        <ele>2935.6000976562</ele>
        <time>2019-05-05T13:06:28.000Z</time>
      </trkpt>
      <trkpt lat="42.8354" lon="0.11515">
        <ele>2935.6000976562</ele>
        <time>2019-05-05T13:06:29.000Z</time>
      </trkpt>
      <trkpt lat="42.8354" lon="0.11515">
        <ele>2935.6000976562</ele>
        <time>2019-05-05T13:06:30.000Z</time>
      </trkpt>
      <trkpt lat="42.83539" lon="0.11515">
        <ele>2935.6000976562</ele>
        <time>2019-05-05T13:06:36.000Z</time>
      </trkpt>
      <trkpt lat="42.83539" lon="0.11515">
        <ele>2935.6000976562</ele>
        <time>2019-05-05T13:06:49.000Z</time>
      </trkpt>
      <trkpt lat="42.83539" lon="0.11515">
        <ele>2935.3999023438</ele>
        <time>2019-05-05T13:06:56.000Z</time>
      </trkpt>
      <trkpt lat="42.83539" lon="0.11515">
        <ele>2935.6000976562</ele>
        <time>2019-05-05T13:06:57.000Z</time>
      </trkpt>
      <trkpt lat="42.83539" lon="0.11515">
        <ele>2935.6000976562</ele>
        <time>2019-05-05T13:07:00.000Z</time>
      </trkpt>
      <trkpt lat="42.83539" lon="0.11515">
        <ele>2935.6000976562</ele>
        <time>2019-05-05T13:07:08.000Z</time>
      </trkpt>
      <trkpt lat="42.8354" lon="0.11515">
        <ele>2935.8000488281</ele>
        <time>2019-05-05T13:07:46.000Z</time>
      </trkpt>
      <trkpt lat="42.8354" lon="0.11515">
        <ele>2935.8000488281</ele>
        <time>2019-05-05T13:07:50.000Z</time>
      </trkpt>
      <trkpt lat="42.8354" lon="0.11515">
        <ele>2935.8000488281</ele>
        <time>2019-05-05T13:08:27.000Z</time>
      </trkpt>
      <trkpt lat="42.8354" lon="0.11515">
        <ele>2935.8000488281</ele>
        <time>2019-05-05T13:08:36.000Z</time>
      </trkpt>
      <trkpt lat="42.8354" lon="0.11515">
        <ele>2935.8000488281</ele>
        <time>2019-05-05T13:08:45.000Z</time>
      </trkpt>
      <trkpt lat="42.83538" lon="0.11515">
        <ele>2935.1999511719</ele>
        <time>2019-05-05T13:08:58.000Z</time>
      </trkpt>
      <trkpt lat="42.83538" lon="0.11515">
        <ele>2935</ele>
        <time>2019-05-05T13:09:00.000Z</time>
      </trkpt>
      <trkpt lat="42.83538" lon="0.11515">
        <ele>2935</ele>
        <time>2019-05-05T13:09:01.000Z</time>
      </trkpt>
      <trkpt lat="42.83538" lon="0.11515">
        <ele>2935</ele>
        <time>2019-05-05T13:09:03.000Z</time>
      </trkpt>
      <trkpt lat="42.83538" lon="0.11515">
        <ele>2934.8000488281</ele>
        <time>2019-05-05T13:09:07.000Z</time>
      </trkpt>
      <trkpt lat="42.83538" lon="0.11515">
        <ele>2934.8000488281</ele>
        <time>2019-05-05T13:09:13.000Z</time>
      </trkpt>
      <trkpt lat="42.83537" lon="0.11514">
        <ele>2934.8000488281</ele>
        <time>2019-05-05T13:09:38.000Z</time>
      </trkpt>
      <trkpt lat="42.83537" lon="0.11514">
        <ele>2934.8000488281</ele>
        <time>2019-05-05T13:09:44.000Z</time>
      </trkpt>
      <trkpt lat="42.83537" lon="0.11513">
        <ele>2934.8000488281</ele>
        <time>2019-05-05T13:09:45.000Z</time>
      </trkpt>
      <trkpt lat="42.83537" lon="0.11511">
        <ele>2935.3999023438</ele>
        <time>2019-05-05T13:10:03.000Z</time>
      </trkpt>
      <trkpt lat="42.83537" lon="0.1151">
        <ele>2935.3999023438</ele>
        <time>2019-05-05T13:10:14.000Z</time>
      </trkpt>
      <trkpt lat="42.83537" lon="0.1151">
        <ele>2935.3999023438</ele>
        <time>2019-05-05T13:10:16.000Z</time>
      </trkpt>
      <trkpt lat="42.83537" lon="0.1151">
        <ele>2935.3999023438</ele>
        <time>2019-05-05T13:10:18.000Z</time>
      </trkpt>
      <trkpt lat="42.83537" lon="0.1151">
        <ele>2935.3999023438</ele>
        <time>2019-05-05T13:10:22.000Z</time>
      </trkpt>
      <trkpt lat="42.83537" lon="0.1151">
        <ele>2935.3999023438</ele>
        <time>2019-05-05T13:10:35.000Z</time>
      </trkpt>
      <trkpt lat="42.83537" lon="0.1151">
        <ele>2935.3999023438</ele>
        <time>2019-05-05T13:10:43.000Z</time>
      </trkpt>
      <trkpt lat="42.83537" lon="0.1151">
        <ele>2935.3999023438</ele>
        <time>2019-05-05T13:10:51.000Z</time>
      </trkpt>
      <trkpt lat="42.83537" lon="0.1151">
        <ele>2935.6000976562</ele>
        <time>2019-05-05T13:11:04.000Z</time>
      </trkpt>
      <trkpt lat="42.83537" lon="0.1151">
        <ele>2935.6000976562</ele>
        <time>2019-05-05T13:11:14.000Z</time>
      </trkpt>
      <trkpt lat="42.83537" lon="0.11507">
        <ele>2936</ele>
        <time>2019-05-05T13:11:28.000Z</time>
      </trkpt>
      <trkpt lat="42.83537" lon="0.11502">
        <ele>2937</ele>
        <time>2019-05-05T13:11:38.000Z</time>
      </trkpt>
      <trkpt lat="42.83537" lon="0.11501">
        <ele>2937.3999023438</ele>
        <time>2019-05-05T13:11:43.000Z</time>
      </trkpt>
      <trkpt lat="42.83538" lon="0.115">
        <ele>2937.6000976562</ele>
        <time>2019-05-05T13:11:44.000Z</time>
      </trkpt>
      <trkpt lat="42.83538" lon="0.115">
        <ele>2937.8000488281</ele>
        <time>2019-05-05T13:11:46.000Z</time>
      </trkpt>
      <trkpt lat="42.83538" lon="0.115">
        <ele>2938</ele>
        <time>2019-05-05T13:11:47.000Z</time>
      </trkpt>
      <trkpt lat="42.83539" lon="0.11499">
        <ele>2938.1999511719</ele>
        <time>2019-05-05T13:11:57.000Z</time>
      </trkpt>
      <trkpt lat="42.83539" lon="0.11499">
        <ele>2938.3999023438</ele>
        <time>2019-05-05T13:11:58.000Z</time>
      </trkpt>
      <trkpt lat="42.83539" lon="0.11499">
        <ele>2938.3999023438</ele>
        <time>2019-05-05T13:11:59.000Z</time>
      </trkpt>
      <trkpt lat="42.83539" lon="0.115">
        <ele>2938.3999023438</ele>
        <time>2019-05-05T13:12:00.000Z</time>
      </trkpt>
      <trkpt lat="42.8354" lon="0.11499">
        <ele>2938.6000976562</ele>
        <time>2019-05-05T13:12:04.000Z</time>
      </trkpt>
      <trkpt lat="42.8354" lon="0.11499">
        <ele>2938.8000488281</ele>
        <time>2019-05-05T13:12:09.000Z</time>
      </trkpt>
      <trkpt lat="42.8354" lon="0.11499">
        <ele>2939</ele>
        <time>2019-05-05T13:12:10.000Z</time>
      </trkpt>
      <trkpt lat="42.8354" lon="0.11498">
        <ele>2939.1999511719</ele>
        <time>2019-05-05T13:12:17.000Z</time>
      </trkpt>
      <trkpt lat="42.8354" lon="0.11498">
        <ele>2939.1999511719</ele>
        <time>2019-05-05T13:12:19.000Z</time>
      </trkpt>
      <trkpt lat="42.8354" lon="0.11498">
        <ele>2939.3999023438</ele>
        <time>2019-05-05T13:12:24.000Z</time>
      </trkpt>
      <trkpt lat="42.83541" lon="0.11497">
        <ele>2939.3999023438</ele>
        <time>2019-05-05T13:12:26.000Z</time>
      </trkpt>
      <trkpt lat="42.83541" lon="0.11497">
        <ele>2939.3999023438</ele>
        <time>2019-05-05T13:12:27.000Z</time>
      </trkpt>
      <trkpt lat="42.83541" lon="0.11497">
        <ele>2939.3999023438</ele>
        <time>2019-05-05T13:12:28.000Z</time>
      </trkpt>
      <trkpt lat="42.83541" lon="0.11497">
        <ele>2939.3999023438</ele>
        <time>2019-05-05T13:12:29.000Z</time>
      </trkpt>
      <trkpt lat="42.83541" lon="0.11497">
        <ele>2939.6000976562</ele>
        <time>2019-05-05T13:12:43.000Z</time>
      </trkpt>
      <trkpt lat="42.8354" lon="0.11498">
        <ele>2939</ele>
        <time>2019-05-05T13:13:13.000Z</time>
      </trkpt>
      <trkpt lat="42.8354" lon="0.11498">
        <ele>2939.1999511719</ele>
        <time>2019-05-05T13:13:26.000Z</time>
      </trkpt>
      <trkpt lat="42.83541" lon="0.11498">
        <ele>2939.1999511719</ele>
        <time>2019-05-05T13:13:37.000Z</time>
      </trkpt>
      <trkpt lat="42.83541" lon="0.11496">
        <ele>2939.6000976562</ele>
        <time>2019-05-05T13:13:49.000Z</time>
      </trkpt>
      <trkpt lat="42.83538" lon="0.11494">
        <ele>2939</ele>
        <time>2019-05-05T13:14:15.000Z</time>
      </trkpt>
      <trkpt lat="42.83538" lon="0.11493">
        <ele>2939</ele>
        <time>2019-05-05T13:14:20.000Z</time>
      </trkpt>
      <trkpt lat="42.83538" lon="0.11493">
        <ele>2938.8000488281</ele>
        <time>2019-05-05T13:14:23.000Z</time>
      </trkpt>
      <trkpt lat="42.83537" lon="0.11492">
        <ele>2938.8000488281</ele>
        <time>2019-05-05T13:14:28.000Z</time>
      </trkpt>
      <trkpt lat="42.83537" lon="0.11492">
        <ele>2938.8000488281</ele>
        <time>2019-05-05T13:14:32.000Z</time>
      </trkpt>
      <trkpt lat="42.83536" lon="0.11491">
        <ele>2938.8000488281</ele>
        <time>2019-05-05T13:14:34.000Z</time>
      </trkpt>
      <trkpt lat="42.83536" lon="0.11491">
        <ele>2938.8000488281</ele>
        <time>2019-05-05T13:14:36.000Z</time>
      </trkpt>
      <trkpt lat="42.83536" lon="0.11491">
        <ele>2938.8000488281</ele>
        <time>2019-05-05T13:14:42.000Z</time>
      </trkpt>
      <trkpt lat="42.83536" lon="0.1149">
        <ele>2938.8000488281</ele>
        <time>2019-05-05T13:14:46.000Z</time>
      </trkpt>
      <trkpt lat="42.83536" lon="0.1149">
        <ele>2938.8000488281</ele>
        <time>2019-05-05T13:14:47.000Z</time>
      </trkpt>
      <trkpt lat="42.83536" lon="0.1149">
        <ele>2938.8000488281</ele>
        <time>2019-05-05T13:14:48.000Z</time>
      </trkpt>
      <trkpt lat="42.83536" lon="0.1149">
        <ele>2938.8000488281</ele>
        <time>2019-05-05T13:14:49.000Z</time>
      </trkpt>
      <trkpt lat="42.83536" lon="0.1149">
        <ele>2938.8000488281</ele>
        <time>2019-05-05T13:14:51.000Z</time>
      </trkpt>
      <trkpt lat="42.83535" lon="0.11489">
        <ele>2938.6000976562</ele>
        <time>2019-05-05T13:15:06.000Z</time>
      </trkpt>
      <trkpt lat="42.83535" lon="0.11488">
        <ele>2938.6000976562</ele>
        <time>2019-05-05T13:15:15.000Z</time>
      </trkpt>
      <trkpt lat="42.83534" lon="0.11486">
        <ele>2938.3999023438</ele>
        <time>2019-05-05T13:15:26.000Z</time>
      </trkpt>
      <trkpt lat="42.83533" lon="0.11486">
        <ele>2938.1999511719</ele>
        <time>2019-05-05T13:15:33.000Z</time>
      </trkpt>
      <trkpt lat="42.83533" lon="0.11484">
        <ele>2938.1999511719</ele>
        <time>2019-05-05T13:15:46.000Z</time>
      </trkpt>
      <trkpt lat="42.83532" lon="0.11477">
        <ele>2939</ele>
        <time>2019-05-05T13:16:02.000Z</time>
      </trkpt>
      <trkpt lat="42.83532" lon="0.11477">
        <ele>2939</ele>
        <time>2019-05-05T13:16:04.000Z</time>
      </trkpt>
      <trkpt lat="42.83532" lon="0.11477">
        <ele>2939.1999511719</ele>
        <time>2019-05-05T13:16:05.000Z</time>
      </trkpt>
      <trkpt lat="42.83533" lon="0.11476">
        <ele>2939.1999511719</ele>
        <time>2019-05-05T13:16:06.000Z</time>
      </trkpt>
      <trkpt lat="42.83533" lon="0.11476">
        <ele>2939.3999023438</ele>
        <time>2019-05-05T13:16:07.000Z</time>
      </trkpt>
      <trkpt lat="42.83537" lon="0.11479">
        <ele>2940.3999023438</ele>
        <time>2019-05-05T13:16:14.000Z</time>
      </trkpt>
      <trkpt lat="42.83537" lon="0.11478">
        <ele>2940.6000976562</ele>
        <time>2019-05-05T13:16:16.000Z</time>
      </trkpt>
      <trkpt lat="42.83537" lon="0.11477">
        <ele>2940.6000976562</ele>
        <time>2019-05-05T13:16:17.000Z</time>
      </trkpt>
      <trkpt lat="42.83537" lon="0.11477">
        <ele>2940.8000488281</ele>
        <time>2019-05-05T13:16:19.000Z</time>
      </trkpt>
      <trkpt lat="42.83538" lon="0.11477">
        <ele>2941</ele>
        <time>2019-05-05T13:16:20.000Z</time>
      </trkpt>
      <trkpt lat="42.8354" lon="0.11475">
        <ele>2942.1999511719</ele>
        <time>2019-05-05T13:16:38.000Z</time>
      </trkpt>
      <trkpt lat="42.8354" lon="0.11475">
        <ele>2942.3999023438</ele>
        <time>2019-05-05T13:16:42.000Z</time>
      </trkpt>
      <trkpt lat="42.83541" lon="0.11475">
        <ele>2942.3999023438</ele>
        <time>2019-05-05T13:16:43.000Z</time>
      </trkpt>
      <trkpt lat="42.83541" lon="0.11475">
        <ele>2942.6000976562</ele>
        <time>2019-05-05T13:16:50.000Z</time>
      </trkpt>
      <trkpt lat="42.83542" lon="0.11475">
        <ele>2943</ele>
        <time>2019-05-05T13:16:57.000Z</time>
      </trkpt>
      <trkpt lat="42.83542" lon="0.11475">
        <ele>2943</ele>
        <time>2019-05-05T13:17:00.000Z</time>
      </trkpt>
      <trkpt lat="42.83542" lon="0.11474">
        <ele>2943</ele>
        <time>2019-05-05T13:17:02.000Z</time>
      </trkpt>
      <trkpt lat="42.83542" lon="0.11474">
        <ele>2943.1999511719</ele>
        <time>2019-05-05T13:17:03.000Z</time>
      </trkpt>
      <trkpt lat="42.83544" lon="0.11473">
        <ele>2944.1999511719</ele>
        <time>2019-05-05T13:17:10.000Z</time>
      </trkpt>
      <trkpt lat="42.83544" lon="0.11473">
        <ele>2944.1999511719</ele>
        <time>2019-05-05T13:17:11.000Z</time>
      </trkpt>
      <trkpt lat="42.83544" lon="0.11473">
        <ele>2944.1999511719</ele>
        <time>2019-05-05T13:17:12.000Z</time>
      </trkpt>
      <trkpt lat="42.83544" lon="0.11472">
        <ele>2944.1999511719</ele>
        <time>2019-05-05T13:17:13.000Z</time>
      </trkpt>
      <trkpt lat="42.83544" lon="0.11472">
        <ele>2944.1999511719</ele>
        <time>2019-05-05T13:17:14.000Z</time>
      </trkpt>
      <trkpt lat="42.83544" lon="0.11472">
        <ele>2944.3999023438</ele>
        <time>2019-05-05T13:17:15.000Z</time>
      </trkpt>
      <trkpt lat="42.83545" lon="0.11472">
        <ele>2944.3999023438</ele>
        <time>2019-05-05T13:17:17.000Z</time>
      </trkpt>
      <trkpt lat="42.8355" lon="0.11474">
        <ele>2946.3999023438</ele>
        <time>2019-05-05T13:17:28.000Z</time>
      </trkpt>
      <trkpt lat="42.83555" lon="0.1146">
        <ele>2950.1999511719</ele>
        <time>2019-05-05T13:18:05.000Z</time>
      </trkpt>
      <trkpt lat="42.83556" lon="0.11459">
        <ele>2950.1999511719</ele>
        <time>2019-05-05T13:18:07.000Z</time>
      </trkpt>
      <trkpt lat="42.83556" lon="0.11457">
        <ele>2950.6000976562</ele>
        <time>2019-05-05T13:18:12.000Z</time>
      </trkpt>
      <trkpt lat="42.83556" lon="0.11456">
        <ele>2950.6000976562</ele>
        <time>2019-05-05T13:18:14.000Z</time>
      </trkpt>
      <trkpt lat="42.83556" lon="0.11455">
        <ele>2950.6000976562</ele>
        <time>2019-05-05T13:18:15.000Z</time>
      </trkpt>
      <trkpt lat="42.83556" lon="0.11455">
        <ele>2950.8000488281</ele>
        <time>2019-05-05T13:18:16.000Z</time>
      </trkpt>
      <trkpt lat="42.83556" lon="0.11455">
        <ele>2951</ele>
        <time>2019-05-05T13:18:17.000Z</time>
      </trkpt>
      <trkpt lat="42.83557" lon="0.11452">
        <ele>2951.6000976562</ele>
        <time>2019-05-05T13:18:21.000Z</time>
      </trkpt>
      <trkpt lat="42.83558" lon="0.1145">
        <ele>2952</ele>
        <time>2019-05-05T13:18:24.000Z</time>
      </trkpt>
      <trkpt lat="42.83559" lon="0.11446">
        <ele>2952.6000976562</ele>
        <time>2019-05-05T13:18:28.000Z</time>
      </trkpt>
      <trkpt lat="42.83558" lon="0.11446">
        <ele>2952.6000976562</ele>
        <time>2019-05-05T13:18:32.000Z</time>
      </trkpt>
      <trkpt lat="42.8356" lon="0.11447">
        <ele>2953</ele>
        <time>2019-05-05T13:18:37.000Z</time>
      </trkpt>
      <trkpt lat="42.83561" lon="0.1145">
        <ele>2953.3999023438</ele>
        <time>2019-05-05T13:18:44.000Z</time>
      </trkpt>
      <trkpt lat="42.83561" lon="0.11452">
        <ele>2953.1999511719</ele>
        <time>2019-05-05T13:18:53.000Z</time>
      </trkpt>
      <trkpt lat="42.83562" lon="0.11447">
        <ele>2954</ele>
        <time>2019-05-05T13:19:10.000Z</time>
      </trkpt>
      <trkpt lat="42.83565" lon="0.11438">
        <ele>2956</ele>
        <time>2019-05-05T13:19:34.000Z</time>
      </trkpt>
      <trkpt lat="42.83581" lon="0.11429">
        <ele>2960.8000488281</ele>
        <time>2019-05-05T13:20:48.000Z</time>
      </trkpt>
      <trkpt lat="42.83584" lon="0.11425">
        <ele>2961.8000488281</ele>
        <time>2019-05-05T13:21:01.000Z</time>
      </trkpt>
      <trkpt lat="42.83589" lon="0.11419">
        <ele>2963.3999023438</ele>
        <time>2019-05-05T13:21:11.000Z</time>
      </trkpt>
      <trkpt lat="42.83605" lon="0.11405">
        <ele>2965.8000488281</ele>
        <time>2019-05-05T13:21:37.000Z</time>
      </trkpt>
      <trkpt lat="42.83608" lon="0.11402">
        <ele>2966.1999511719</ele>
        <time>2019-05-05T13:21:42.000Z</time>
      </trkpt>
      <trkpt lat="42.83616" lon="0.11392">
        <ele>2967.8000488281</ele>
        <time>2019-05-05T13:21:57.000Z</time>
      </trkpt>
      <trkpt lat="42.83617" lon="0.11391">
        <ele>2968.1999511719</ele>
        <time>2019-05-05T13:22:18.000Z</time>
      </trkpt>
      <trkpt lat="42.83617" lon="0.11392">
        <ele>2968.1999511719</ele>
        <time>2019-05-05T13:22:33.000Z</time>
      </trkpt>
      <trkpt lat="42.83615" lon="0.11392">
        <ele>2967.8000488281</ele>
        <time>2019-05-05T13:22:49.000Z</time>
      </trkpt>
      <trkpt lat="42.83615" lon="0.11394">
        <ele>2967.6000976562</ele>
        <time>2019-05-05T13:23:15.000Z</time>
      </trkpt>
      <trkpt lat="42.83615" lon="0.11394">
        <ele>2967.6000976562</ele>
        <time>2019-05-05T13:23:21.000Z</time>
      </trkpt>
      <trkpt lat="42.83615" lon="0.11394">
        <ele>2967.6000976562</ele>
        <time>2019-05-05T13:23:28.000Z</time>
      </trkpt>
      <trkpt lat="42.83614" lon="0.11393">
        <ele>2967.6000976562</ele>
        <time>2019-05-05T13:23:46.000Z</time>
      </trkpt>
      <trkpt lat="42.83615" lon="0.11394">
        <ele>2967.6000976562</ele>
        <time>2019-05-05T13:23:58.000Z</time>
      </trkpt>
      <trkpt lat="42.83615" lon="0.11394">
        <ele>2967.6000976562</ele>
        <time>2019-05-05T13:24:00.000Z</time>
      </trkpt>
      <trkpt lat="42.83615" lon="0.11394">
        <ele>2967.6000976562</ele>
        <time>2019-05-05T13:24:02.000Z</time>
      </trkpt>
      <trkpt lat="42.83615" lon="0.11394">
        <ele>2967.6000976562</ele>
        <time>2019-05-05T13:24:03.000Z</time>
      </trkpt>
      <trkpt lat="42.83615" lon="0.11394">
        <ele>2967.8000488281</ele>
        <time>2019-05-05T13:24:16.000Z</time>
      </trkpt>
      <trkpt lat="42.83615" lon="0.11394">
        <ele>2967.8000488281</ele>
        <time>2019-05-05T13:24:18.000Z</time>
      </trkpt>
      <trkpt lat="42.83616" lon="0.11394">
        <ele>2967.8000488281</ele>
        <time>2019-05-05T13:24:25.000Z</time>
      </trkpt>
      <trkpt lat="42.83616" lon="0.11393">
        <ele>2968</ele>
        <time>2019-05-05T13:24:31.000Z</time>
      </trkpt>
      <trkpt lat="42.83616" lon="0.11394">
        <ele>2967.8000488281</ele>
        <time>2019-05-05T13:24:42.000Z</time>
      </trkpt>
      <trkpt lat="42.83616" lon="0.11394">
        <ele>2967.8000488281</ele>
        <time>2019-05-05T13:24:43.000Z</time>
      </trkpt>
      <trkpt lat="42.83616" lon="0.11394">
        <ele>2967.8000488281</ele>
        <time>2019-05-05T13:24:46.000Z</time>
      </trkpt>
      <trkpt lat="42.83616" lon="0.11394">
        <ele>2967.8000488281</ele>
        <time>2019-05-05T13:24:47.000Z</time>
      </trkpt>
      <trkpt lat="42.83616" lon="0.11394">
        <ele>2967.8000488281</ele>
        <time>2019-05-05T13:24:49.000Z</time>
      </trkpt>
      <trkpt lat="42.83616" lon="0.11394">
        <ele>2967.8000488281</ele>
        <time>2019-05-05T13:24:59.000Z</time>
      </trkpt>
      <trkpt lat="42.83616" lon="0.11394">
        <ele>2967.8000488281</ele>
        <time>2019-05-05T13:25:00.000Z</time>
      </trkpt>
      <trkpt lat="42.83616" lon="0.11394">
        <ele>2967.8000488281</ele>
        <time>2019-05-05T13:25:01.000Z</time>
      </trkpt>
      <trkpt lat="42.83615" lon="0.11394">
        <ele>2967.6000976562</ele>
        <time>2019-05-05T13:25:32.000Z</time>
      </trkpt>
      <trkpt lat="42.83616" lon="0.11393">
        <ele>2967.8000488281</ele>
        <time>2019-05-05T13:25:50.000Z</time>
      </trkpt>
      <trkpt lat="42.83616" lon="0.11393">
        <ele>2968</ele>
        <time>2019-05-05T13:25:55.000Z</time>
      </trkpt>
      <trkpt lat="42.83616" lon="0.11393">
        <ele>2968</ele>
        <time>2019-05-05T13:25:59.000Z</time>
      </trkpt>
      <trkpt lat="42.83617" lon="0.11394">
        <ele>2968</ele>
        <time>2019-05-05T13:26:02.000Z</time>
      </trkpt>
      <trkpt lat="42.83617" lon="0.11394">
        <ele>2968</ele>
        <time>2019-05-05T13:26:25.000Z</time>
      </trkpt>
      <trkpt lat="42.83617" lon="0.11394">
        <ele>2968</ele>
        <time>2019-05-05T13:26:26.000Z</time>
      </trkpt>
      <trkpt lat="42.83617" lon="0.11394">
        <ele>2968</ele>
        <time>2019-05-05T13:26:27.000Z</time>
      </trkpt>
      <trkpt lat="42.83617" lon="0.11394">
        <ele>2968</ele>
        <time>2019-05-05T13:26:28.000Z</time>
      </trkpt>
      <trkpt lat="42.83617" lon="0.11394">
        <ele>2968</ele>
        <time>2019-05-05T13:26:29.000Z</time>
      </trkpt>
      <trkpt lat="42.83617" lon="0.11394">
        <ele>2968</ele>
        <time>2019-05-05T13:26:30.000Z</time>
      </trkpt>
      <trkpt lat="42.83617" lon="0.11394">
        <ele>2968</ele>
        <time>2019-05-05T13:26:31.000Z</time>
      </trkpt>
      <trkpt lat="42.83617" lon="0.11394">
        <ele>2968</ele>
        <time>2019-05-05T13:26:33.000Z</time>
      </trkpt>
      <trkpt lat="42.83617" lon="0.11394">
        <ele>2968</ele>
        <time>2019-05-05T13:26:35.000Z</time>
      </trkpt>
      <trkpt lat="42.83617" lon="0.11394">
        <ele>2968</ele>
        <time>2019-05-05T13:26:36.000Z</time>
      </trkpt>
      <trkpt lat="42.83617" lon="0.11394">
        <ele>2968</ele>
        <time>2019-05-05T13:26:37.000Z</time>
      </trkpt>
      <trkpt lat="42.83617" lon="0.11394">
        <ele>2968</ele>
        <time>2019-05-05T13:26:38.000Z</time>
      </trkpt>
      <trkpt lat="42.83617" lon="0.11394">
        <ele>2968</ele>
        <time>2019-05-05T13:26:39.000Z</time>
      </trkpt>
      <trkpt lat="42.83617" lon="0.11394">
        <ele>2968</ele>
        <time>2019-05-05T13:26:40.000Z</time>
      </trkpt>
      <trkpt lat="42.83617" lon="0.11394">
        <ele>2968</ele>
        <time>2019-05-05T13:26:41.000Z</time>
      </trkpt>
      <trkpt lat="42.83617" lon="0.11394">
        <ele>2968</ele>
        <time>2019-05-05T13:26:42.000Z</time>
      </trkpt>
      <trkpt lat="42.83617" lon="0.11395">
        <ele>2968</ele>
        <time>2019-05-05T13:26:43.000Z</time>
      </trkpt>
      <trkpt lat="42.83616" lon="0.11394">
        <ele>2967.8000488281</ele>
        <time>2019-05-05T13:26:47.000Z</time>
      </trkpt>
      <trkpt lat="42.83616" lon="0.11394">
        <ele>2968</ele>
        <time>2019-05-05T13:26:48.000Z</time>
      </trkpt>
      <trkpt lat="42.83616" lon="0.11393">
        <ele>2968</ele>
        <time>2019-05-05T13:26:49.000Z</time>
      </trkpt>
      <trkpt lat="42.83616" lon="0.11394">
        <ele>2968</ele>
        <time>2019-05-05T13:26:51.000Z</time>
      </trkpt>
      <trkpt lat="42.83617" lon="0.11394">
        <ele>2968</ele>
        <time>2019-05-05T13:26:53.000Z</time>
      </trkpt>
      <trkpt lat="42.83617" lon="0.11393">
        <ele>2968</ele>
        <time>2019-05-05T13:27:11.000Z</time>
      </trkpt>
      <trkpt lat="42.83617" lon="0.11394">
        <ele>2968</ele>
        <time>2019-05-05T13:27:16.000Z</time>
      </trkpt>
      <trkpt lat="42.83616" lon="0.11394">
        <ele>2968</ele>
        <time>2019-05-05T13:27:22.000Z</time>
      </trkpt>
      <trkpt lat="42.83616" lon="0.11394">
        <ele>2967.8000488281</ele>
        <time>2019-05-05T13:27:27.000Z</time>
      </trkpt>
      <trkpt lat="42.83616" lon="0.11394">
        <ele>2967.8000488281</ele>
        <time>2019-05-05T13:27:28.000Z</time>
      </trkpt>
      <trkpt lat="42.83614" lon="0.11394">
        <ele>2967.6000976562</ele>
        <time>2019-05-05T13:27:46.000Z</time>
      </trkpt>
      <trkpt lat="42.83615" lon="0.11394">
        <ele>2967.6000976562</ele>
        <time>2019-05-05T13:27:51.000Z</time>
      </trkpt>
      <trkpt lat="42.83614" lon="0.11394">
        <ele>2967.6000976562</ele>
        <time>2019-05-05T13:28:00.000Z</time>
      </trkpt>
      <trkpt lat="42.83615" lon="0.11395">
        <ele>2967.6000976562</ele>
        <time>2019-05-05T13:28:12.000Z</time>
      </trkpt>
      <trkpt lat="42.83615" lon="0.11395">
        <ele>2967.6000976562</ele>
        <time>2019-05-05T13:28:16.000Z</time>
      </trkpt>
      <trkpt lat="42.83615" lon="0.11395">
        <ele>2967.6000976562</ele>
        <time>2019-05-05T13:28:18.000Z</time>
      </trkpt>
      <trkpt lat="42.83615" lon="0.11395">
        <ele>2967.6000976562</ele>
        <time>2019-05-05T13:28:19.000Z</time>
      </trkpt>
      <trkpt lat="42.83615" lon="0.11395">
        <ele>2967.6000976562</ele>
        <time>2019-05-05T13:28:20.000Z</time>
      </trkpt>
      <trkpt lat="42.83615" lon="0.11395">
        <ele>2967.6000976562</ele>
        <time>2019-05-05T13:28:21.000Z</time>
      </trkpt>
      <trkpt lat="42.83615" lon="0.11395">
        <ele>2967.6000976562</ele>
        <time>2019-05-05T13:28:24.000Z</time>
      </trkpt>
      <trkpt lat="42.83616" lon="0.11395">
        <ele>2967.6000976562</ele>
        <time>2019-05-05T13:28:35.000Z</time>
      </trkpt>
      <trkpt lat="42.83616" lon="0.11395">
        <ele>2967.8000488281</ele>
        <time>2019-05-05T13:28:36.000Z</time>
      </trkpt>
      <trkpt lat="42.83616" lon="0.11395">
        <ele>2967.8000488281</ele>
        <time>2019-05-05T13:28:37.000Z</time>
      </trkpt>
      <trkpt lat="42.83616" lon="0.11395">
        <ele>2967.6000976562</ele>
        <time>2019-05-05T13:28:41.000Z</time>
      </trkpt>
      <trkpt lat="42.83615" lon="0.11395">
        <ele>2967.6000976562</ele>
        <time>2019-05-05T13:28:44.000Z</time>
      </trkpt>
      <trkpt lat="42.83615" lon="0.11395">
        <ele>2967.6000976562</ele>
        <time>2019-05-05T13:28:57.000Z</time>
      </trkpt>
      <trkpt lat="42.83614" lon="0.11394">
        <ele>2967.6000976562</ele>
        <time>2019-05-05T13:29:06.000Z</time>
      </trkpt>
      <trkpt lat="42.83615" lon="0.11394">
        <ele>2967.6000976562</ele>
        <time>2019-05-05T13:29:28.000Z</time>
      </trkpt>
      <trkpt lat="42.83615" lon="0.11393">
        <ele>2967.8000488281</ele>
        <time>2019-05-05T13:29:36.000Z</time>
      </trkpt>
      <trkpt lat="42.83615" lon="0.11394">
        <ele>2967.8000488281</ele>
        <time>2019-05-05T13:29:50.000Z</time>
      </trkpt>
      <trkpt lat="42.83615" lon="0.11394">
        <ele>2967.6000976562</ele>
        <time>2019-05-05T13:29:59.000Z</time>
      </trkpt>
      <trkpt lat="42.83615" lon="0.11394">
        <ele>2967.8000488281</ele>
        <time>2019-05-05T13:30:25.000Z</time>
      </trkpt>
      <trkpt lat="42.83615" lon="0.11394">
        <ele>2967.6000976562</ele>
        <time>2019-05-05T13:30:31.000Z</time>
      </trkpt>
      <trkpt lat="42.83615" lon="0.11395">
        <ele>2967.6000976562</ele>
        <time>2019-05-05T13:30:57.000Z</time>
      </trkpt>
      <trkpt lat="42.83615" lon="0.11395">
        <ele>2967.6000976562</ele>
        <time>2019-05-05T13:31:00.000Z</time>
      </trkpt>
      <trkpt lat="42.83615" lon="0.11395">
        <ele>2967.6000976562</ele>
        <time>2019-05-05T13:31:19.000Z</time>
      </trkpt>
      <trkpt lat="42.83615" lon="0.11395">
        <ele>2967.6000976562</ele>
        <time>2019-05-05T13:31:30.000Z</time>
      </trkpt>
      <trkpt lat="42.83614" lon="0.11394">
        <ele>2967.6000976562</ele>
        <time>2019-05-05T13:32:05.000Z</time>
      </trkpt>
      <trkpt lat="42.83614" lon="0.11394">
        <ele>2967.6000976562</ele>
        <time>2019-05-05T13:32:12.000Z</time>
      </trkpt>
      <trkpt lat="42.83615" lon="0.11393">
        <ele>2967.6000976562</ele>
        <time>2019-05-05T13:32:34.000Z</time>
      </trkpt>
      <trkpt lat="42.83615" lon="0.11393">
        <ele>2967.8000488281</ele>
        <time>2019-05-05T13:32:49.000Z</time>
      </trkpt>
      <trkpt lat="42.83615" lon="0.11391">
        <ele>2967.8000488281</ele>
        <time>2019-05-05T13:34:07.000Z</time>
      </trkpt>
      <trkpt lat="42.83615" lon="0.11393">
        <ele>2967.8000488281</ele>
        <time>2019-05-05T13:34:44.000Z</time>
      </trkpt>
      <trkpt lat="42.83615" lon="0.11394">
        <ele>2967.6000976562</ele>
        <time>2019-05-05T13:34:55.000Z</time>
      </trkpt>
      <trkpt lat="42.83615" lon="0.11394">
        <ele>2967.6000976562</ele>
        <time>2019-05-05T13:34:56.000Z</time>
      </trkpt>
      <trkpt lat="42.83615" lon="0.11394">
        <ele>2967.6000976562</ele>
        <time>2019-05-05T13:34:57.000Z</time>
      </trkpt>
      <trkpt lat="42.83615" lon="0.11394">
        <ele>2967.6000976562</ele>
        <time>2019-05-05T13:34:58.000Z</time>
      </trkpt>
      <trkpt lat="42.83616" lon="0.11393">
        <ele>2967.8000488281</ele>
        <time>2019-05-05T13:35:28.000Z</time>
      </trkpt>
      <trkpt lat="42.83616" lon="0.11393">
        <ele>2967.8000488281</ele>
        <time>2019-05-05T13:35:34.000Z</time>
      </trkpt>
      <trkpt lat="42.83616" lon="0.11392">
        <ele>2967.8000488281</ele>
        <time>2019-05-05T13:35:49.000Z</time>
      </trkpt>
      <trkpt lat="42.83615" lon="0.11393">
        <ele>2967.6000976562</ele>
        <time>2019-05-05T13:36:13.000Z</time>
      </trkpt>
      <trkpt lat="42.83614" lon="0.11394">
        <ele>2967.6000976562</ele>
        <time>2019-05-05T13:36:25.000Z</time>
      </trkpt>
      <trkpt lat="42.83614" lon="0.11394">
        <ele>2967.3999023438</ele>
        <time>2019-05-05T13:36:59.000Z</time>
      </trkpt>
      <trkpt lat="42.83614" lon="0.11394">
        <ele>2967.3999023438</ele>
        <time>2019-05-05T13:37:30.000Z</time>
      </trkpt>
      <trkpt lat="42.83614" lon="0.11394">
        <ele>2967.3999023438</ele>
        <time>2019-05-05T13:37:33.000Z</time>
      </trkpt>
      <trkpt lat="42.83614" lon="0.11394">
        <ele>2967.3999023438</ele>
        <time>2019-05-05T13:37:42.000Z</time>
      </trkpt>
      <trkpt lat="42.83614" lon="0.11394">
        <ele>2967.6000976562</ele>
        <time>2019-05-05T13:38:03.000Z</time>
      </trkpt>
      <trkpt lat="42.83614" lon="0.11394">
        <ele>2967.6000976562</ele>
        <time>2019-05-05T13:38:10.000Z</time>
      </trkpt>
      <trkpt lat="42.83614" lon="0.11394">
        <ele>2967.6000976562</ele>
        <time>2019-05-05T13:38:11.000Z</time>
      </trkpt>
      <trkpt lat="42.83614" lon="0.11394">
        <ele>2967.6000976562</ele>
        <time>2019-05-05T13:38:12.000Z</time>
      </trkpt>
      <trkpt lat="42.83614" lon="0.11394">
        <ele>2967.6000976562</ele>
        <time>2019-05-05T13:38:13.000Z</time>
      </trkpt>
      <trkpt lat="42.83614" lon="0.11394">
        <ele>2967.3999023438</ele>
        <time>2019-05-05T13:38:14.000Z</time>
      </trkpt>
      <trkpt lat="42.83614" lon="0.11394">
        <ele>2967.6000976562</ele>
        <time>2019-05-05T13:38:15.000Z</time>
      </trkpt>
      <trkpt lat="42.83614" lon="0.11394">
        <ele>2967.6000976562</ele>
        <time>2019-05-05T13:38:17.000Z</time>
      </trkpt>
      <trkpt lat="42.83614" lon="0.11393">
        <ele>2967.6000976562</ele>
        <time>2019-05-05T13:38:32.000Z</time>
      </trkpt>
      <trkpt lat="42.83615" lon="0.11393">
        <ele>2967.6000976562</ele>
        <time>2019-05-05T13:38:37.000Z</time>
      </trkpt>
      <trkpt lat="42.83611" lon="0.11394">
        <ele>2967</ele>
        <time>2019-05-05T13:39:02.000Z</time>
      </trkpt>
      <trkpt lat="42.83613" lon="0.11395">
        <ele>2967.1999511719</ele>
        <time>2019-05-05T13:42:19.000Z</time>
      </trkpt>
      <trkpt lat="42.83613" lon="0.11395">
        <ele>2967.1999511719</ele>
        <time>2019-05-05T13:42:20.000Z</time>
      </trkpt>
      <trkpt lat="42.83613" lon="0.11395">
        <ele>2967.1999511719</ele>
        <time>2019-05-05T13:42:21.000Z</time>
      </trkpt>
      <trkpt lat="42.83615" lon="0.11393">
        <ele>2967.6000976562</ele>
        <time>2019-05-05T13:42:50.000Z</time>
      </trkpt>
      <trkpt lat="42.83615" lon="0.11394">
        <ele>2967.6000976562</ele>
        <time>2019-05-05T13:43:08.000Z</time>
      </trkpt>
      <trkpt lat="42.83615" lon="0.11394">
        <ele>2967.6000976562</ele>
        <time>2019-05-05T13:43:13.000Z</time>
      </trkpt>
      <trkpt lat="42.83615" lon="0.11394">
        <ele>2967.6000976562</ele>
        <time>2019-05-05T13:43:24.000Z</time>
      </trkpt>
      <trkpt lat="42.83615" lon="0.11394">
        <ele>2967.6000976562</ele>
        <time>2019-05-05T13:43:36.000Z</time>
      </trkpt>
      <trkpt lat="42.83615" lon="0.11394">
        <ele>2967.6000976562</ele>
        <time>2019-05-05T13:43:44.000Z</time>
      </trkpt>
      <trkpt lat="42.83615" lon="0.11395">
        <ele>2967.6000976562</ele>
        <time>2019-05-05T13:44:00.000Z</time>
      </trkpt>
      <trkpt lat="42.83615" lon="0.11395">
        <ele>2967.6000976562</ele>
        <time>2019-05-05T13:44:06.000Z</time>
      </trkpt>
      <trkpt lat="42.83615" lon="0.11395">
        <ele>2967.6000976562</ele>
        <time>2019-05-05T13:44:07.000Z</time>
      </trkpt>
      <trkpt lat="42.83615" lon="0.11395">
        <ele>2967.6000976562</ele>
        <time>2019-05-05T13:44:10.000Z</time>
      </trkpt>
      <trkpt lat="42.83615" lon="0.11395">
        <ele>2967.6000976562</ele>
        <time>2019-05-05T13:44:12.000Z</time>
      </trkpt>
      <trkpt lat="42.83615" lon="0.11395">
        <ele>2967.6000976562</ele>
        <time>2019-05-05T13:44:13.000Z</time>
      </trkpt>
      <trkpt lat="42.83615" lon="0.11395">
        <ele>2967.6000976562</ele>
        <time>2019-05-05T13:44:14.000Z</time>
      </trkpt>
      <trkpt lat="42.83615" lon="0.11395">
        <ele>2967.6000976562</ele>
        <time>2019-05-05T13:44:19.000Z</time>
      </trkpt>
      <trkpt lat="42.83615" lon="0.11395">
        <ele>2967.6000976562</ele>
        <time>2019-05-05T13:44:21.000Z</time>
      </trkpt>
      <trkpt lat="42.83615" lon="0.11395">
        <ele>2967.6000976562</ele>
        <time>2019-05-05T13:44:22.000Z</time>
      </trkpt>
      <trkpt lat="42.83615" lon="0.11395">
        <ele>2967.6000976562</ele>
        <time>2019-05-05T13:44:23.000Z</time>
      </trkpt>
      <trkpt lat="42.83615" lon="0.11395">
        <ele>2967.6000976562</ele>
        <time>2019-05-05T13:44:28.000Z</time>
      </trkpt>
      <trkpt lat="42.83615" lon="0.11395">
        <ele>2967.6000976562</ele>
        <time>2019-05-05T13:44:30.000Z</time>
      </trkpt>
      <trkpt lat="42.83615" lon="0.11395">
        <ele>2967.6000976562</ele>
        <time>2019-05-05T13:44:31.000Z</time>
      </trkpt>
      <trkpt lat="42.83615" lon="0.11395">
        <ele>2967.6000976562</ele>
        <time>2019-05-05T13:44:37.000Z</time>
      </trkpt>
      <trkpt lat="42.83615" lon="0.11395">
        <ele>2967.6000976562</ele>
        <time>2019-05-05T13:44:38.000Z</time>
      </trkpt>
      <trkpt lat="42.83615" lon="0.11395">
        <ele>2967.6000976562</ele>
        <time>2019-05-05T13:44:41.000Z</time>
      </trkpt>
      <trkpt lat="42.83615" lon="0.11396">
        <ele>2967.6000976562</ele>
        <time>2019-05-05T13:44:43.000Z</time>
      </trkpt>
      <trkpt lat="42.83616" lon="0.11395">
        <ele>2967.8000488281</ele>
        <time>2019-05-05T13:44:59.000Z</time>
      </trkpt>
      <trkpt lat="42.83616" lon="0.11395">
        <ele>2967.8000488281</ele>
        <time>2019-05-05T13:45:11.000Z</time>
      </trkpt>
      <trkpt lat="42.83616" lon="0.11394">
        <ele>2967.8000488281</ele>
        <time>2019-05-05T13:45:33.000Z</time>
      </trkpt>
      <trkpt lat="42.83616" lon="0.11393">
        <ele>2967.8000488281</ele>
        <time>2019-05-05T13:45:46.000Z</time>
      </trkpt>
      <trkpt lat="42.83616" lon="0.11394">
        <ele>2967.8000488281</ele>
        <time>2019-05-05T13:45:50.000Z</time>
      </trkpt>
      <trkpt lat="42.83616" lon="0.11395">
        <ele>2967.8000488281</ele>
        <time>2019-05-05T13:45:51.000Z</time>
      </trkpt>
      <trkpt lat="42.83617" lon="0.11395">
        <ele>2967.8000488281</ele>
        <time>2019-05-05T13:45:56.000Z</time>
      </trkpt>
      <trkpt lat="42.83617" lon="0.11395">
        <ele>2968</ele>
        <time>2019-05-05T13:45:57.000Z</time>
      </trkpt>
      <trkpt lat="42.83617" lon="0.11395">
        <ele>2968</ele>
        <time>2019-05-05T13:45:58.000Z</time>
      </trkpt>
      <trkpt lat="42.83617" lon="0.11395">
        <ele>2968</ele>
        <time>2019-05-05T13:45:59.000Z</time>
      </trkpt>
      <trkpt lat="42.83617" lon="0.11394">
        <ele>2968</ele>
        <time>2019-05-05T13:46:15.000Z</time>
      </trkpt>
      <trkpt lat="42.83616" lon="0.11394">
        <ele>2967.8000488281</ele>
        <time>2019-05-05T13:46:21.000Z</time>
      </trkpt>
      <trkpt lat="42.83616" lon="0.11394">
        <ele>2967.8000488281</ele>
        <time>2019-05-05T13:46:27.000Z</time>
      </trkpt>
      <trkpt lat="42.83616" lon="0.11394">
        <ele>2967.8000488281</ele>
        <time>2019-05-05T13:46:34.000Z</time>
      </trkpt>
      <trkpt lat="42.83615" lon="0.11394">
        <ele>2967.6000976562</ele>
        <time>2019-05-05T13:46:45.000Z</time>
      </trkpt>
      <trkpt lat="42.83618" lon="0.1139">
        <ele>2968.3999023438</ele>
        <time>2019-05-05T13:46:55.000Z</time>
      </trkpt>
      <trkpt lat="42.83619" lon="0.11388">
        <ele>2968.8000488281</ele>
        <time>2019-05-05T13:46:56.000Z</time>
      </trkpt>
      <trkpt lat="42.83627" lon="0.11372">
        <ele>2969</ele>
        <time>2019-05-05T13:46:59.000Z</time>
      </trkpt>
      <trkpt lat="42.83642" lon="0.11365">
        <ele>2969.1999511719</ele>
        <time>2019-05-05T13:47:02.000Z</time>
      </trkpt>
      <trkpt lat="42.83653" lon="0.11358">
        <ele>2968.3999023438</ele>
        <time>2019-05-05T13:47:04.000Z</time>
      </trkpt>
      <trkpt lat="42.83658" lon="0.11359">
        <ele>2971.1999511719</ele>
        <time>2019-05-05T13:47:05.000Z</time>
      </trkpt>
      <trkpt lat="42.83664" lon="0.1136">
        <ele>2974.8000488281</ele>
        <time>2019-05-05T13:47:06.000Z</time>
      </trkpt>
      <trkpt lat="42.83677" lon="0.1135">
        <ele>2979</ele>
        <time>2019-05-05T13:47:08.000Z</time>
      </trkpt>
      <trkpt lat="42.83688" lon="0.11337">
        <ele>2974.8000488281</ele>
        <time>2019-05-05T13:47:10.000Z</time>
      </trkpt>
      <trkpt lat="42.83693" lon="0.1133">
        <ele>2973</ele>
        <time>2019-05-05T13:47:11.000Z</time>
      </trkpt>
      <trkpt lat="42.83702" lon="0.11317">
        <ele>2971.1999511719</ele>
        <time>2019-05-05T13:47:13.000Z</time>
      </trkpt>
      <trkpt lat="42.83708" lon="0.1131">
        <ele>2971.3999023438</ele>
        <time>2019-05-05T13:47:18.000Z</time>
      </trkpt>
      <trkpt lat="42.83709" lon="0.11309">
        <ele>2971.6000976562</ele>
        <time>2019-05-05T13:47:20.000Z</time>
      </trkpt>
      <trkpt lat="42.83708" lon="0.11307">
        <ele>2972.1999511719</ele>
        <time>2019-05-05T13:47:28.000Z</time>
      </trkpt>
      <trkpt lat="42.83711" lon="0.11306">
        <ele>2972</ele>
        <time>2019-05-05T13:47:33.000Z</time>
      </trkpt>
      <trkpt lat="42.83718" lon="0.11301">
        <ele>2971.3999023438</ele>
        <time>2019-05-05T13:47:36.000Z</time>
      </trkpt>
      <trkpt lat="42.83721" lon="0.11299">
        <ele>2971.3999023438</ele>
        <time>2019-05-05T13:47:37.000Z</time>
      </trkpt>
      <trkpt lat="42.83727" lon="0.11295">
        <ele>2971</ele>
        <time>2019-05-05T13:47:39.000Z</time>
      </trkpt>
      <trkpt lat="42.83731" lon="0.11292">
        <ele>2969.1999511719</ele>
        <time>2019-05-05T13:47:41.000Z</time>
      </trkpt>
      <trkpt lat="42.83733" lon="0.1129">
        <ele>2967.3999023438</ele>
        <time>2019-05-05T13:47:43.000Z</time>
      </trkpt>
      <trkpt lat="42.83734" lon="0.11289">
        <ele>2966.1999511719</ele>
        <time>2019-05-05T13:47:48.000Z</time>
      </trkpt>
      <trkpt lat="42.8374" lon="0.11287">
        <ele>2963</ele>
        <time>2019-05-05T13:48:01.000Z</time>
      </trkpt>
      <trkpt lat="42.83744" lon="0.11289">
        <ele>2963.3999023438</ele>
        <time>2019-05-05T13:48:04.000Z</time>
      </trkpt>
      <trkpt lat="42.83747" lon="0.11298">
        <ele>2965</ele>
        <time>2019-05-05T13:48:08.000Z</time>
      </trkpt>
      <trkpt lat="42.83754" lon="0.11302">
        <ele>2962.1999511719</ele>
        <time>2019-05-05T13:48:11.000Z</time>
      </trkpt>
      <trkpt lat="42.83757" lon="0.11308">
        <ele>2959</ele>
        <time>2019-05-05T13:48:14.000Z</time>
      </trkpt>
      <trkpt lat="42.83761" lon="0.11304">
        <ele>2957</ele>
        <time>2019-05-05T13:48:21.000Z</time>
      </trkpt>
      <trkpt lat="42.83764" lon="0.11309">
        <ele>2953.3999023438</ele>
        <time>2019-05-05T13:48:25.000Z</time>
      </trkpt>
      <trkpt lat="42.83765" lon="0.11325">
        <ele>2948</ele>
        <time>2019-05-05T13:48:29.000Z</time>
      </trkpt>
      <trkpt lat="42.83775" lon="0.11325">
        <ele>2940.3999023438</ele>
        <time>2019-05-05T13:48:31.000Z</time>
      </trkpt>
      <trkpt lat="42.83785" lon="0.11338">
        <ele>2928.8000488281</ele>
        <time>2019-05-05T13:48:34.000Z</time>
      </trkpt>
      <trkpt lat="42.83794" lon="0.11341">
        <ele>2920.6000976562</ele>
        <time>2019-05-05T13:48:36.000Z</time>
      </trkpt>
      <trkpt lat="42.83796" lon="0.11352">
        <ele>2916</ele>
        <time>2019-05-05T13:48:38.000Z</time>
      </trkpt>
      <trkpt lat="42.83799" lon="0.11361">
        <ele>2911.3999023438</ele>
        <time>2019-05-05T13:48:40.000Z</time>
      </trkpt>
      <trkpt lat="42.83804" lon="0.11371">
        <ele>2904.3999023438</ele>
        <time>2019-05-05T13:48:42.000Z</time>
      </trkpt>
      <trkpt lat="42.83813" lon="0.11381">
        <ele>2894.3999023438</ele>
        <time>2019-05-05T13:48:44.000Z</time>
      </trkpt>
      <trkpt lat="42.83821" lon="0.11393">
        <ele>2885.3999023438</ele>
        <time>2019-05-05T13:48:46.000Z</time>
      </trkpt>
      <trkpt lat="42.83827" lon="0.11405">
        <ele>2877.6000976562</ele>
        <time>2019-05-05T13:48:48.000Z</time>
      </trkpt>
      <trkpt lat="42.83831" lon="0.11409">
        <ele>2873.3999023438</ele>
        <time>2019-05-05T13:48:50.000Z</time>
      </trkpt>
      <trkpt lat="42.83829" lon="0.11394">
        <ele>2878.8000488281</ele>
        <time>2019-05-05T13:49:41.000Z</time>
      </trkpt>
      <trkpt lat="42.83828" lon="0.11393">
        <ele>2879.6000976562</ele>
        <time>2019-05-05T13:49:52.000Z</time>
      </trkpt>
      <trkpt lat="42.83827" lon="0.11393">
        <ele>2880.3999023438</ele>
        <time>2019-05-05T13:49:56.000Z</time>
      </trkpt>
      <trkpt lat="42.83826" lon="0.11393">
        <ele>2881.1999511719</ele>
        <time>2019-05-05T13:50:02.000Z</time>
      </trkpt>
      <trkpt lat="42.83826" lon="0.11392">
        <ele>2882</ele>
        <time>2019-05-05T13:50:07.000Z</time>
      </trkpt>
      <trkpt lat="42.83825" lon="0.11392">
        <ele>2882.1999511719</ele>
        <time>2019-05-05T13:50:12.000Z</time>
      </trkpt>
      <trkpt lat="42.83825" lon="0.11393">
        <ele>2882.6000976562</ele>
        <time>2019-05-05T13:50:21.000Z</time>
      </trkpt>
      <trkpt lat="42.83824" lon="0.11393">
        <ele>2882.8000488281</ele>
        <time>2019-05-05T13:50:28.000Z</time>
      </trkpt>
      <trkpt lat="42.83825" lon="0.11393">
        <ele>2882.6000976562</ele>
        <time>2019-05-05T13:50:35.000Z</time>
      </trkpt>
      <trkpt lat="42.83825" lon="0.11392">
        <ele>2882.8000488281</ele>
        <time>2019-05-05T13:50:39.000Z</time>
      </trkpt>
      <trkpt lat="42.83824" lon="0.11392">
        <ele>2882.8000488281</ele>
        <time>2019-05-05T13:50:44.000Z</time>
      </trkpt>
      <trkpt lat="42.83825" lon="0.11392">
        <ele>2882.6000976562</ele>
        <time>2019-05-05T13:50:49.000Z</time>
      </trkpt>
      <trkpt lat="42.83825" lon="0.11392">
        <ele>2882.6000976562</ele>
        <time>2019-05-05T13:50:56.000Z</time>
      </trkpt>
      <trkpt lat="42.83825" lon="0.11392">
        <ele>2882.6000976562</ele>
        <time>2019-05-05T13:50:57.000Z</time>
      </trkpt>
      <trkpt lat="42.83825" lon="0.11392">
        <ele>2882.6000976562</ele>
        <time>2019-05-05T13:50:58.000Z</time>
      </trkpt>
      <trkpt lat="42.83824" lon="0.11392">
        <ele>2882.8000488281</ele>
        <time>2019-05-05T13:51:09.000Z</time>
      </trkpt>
      <trkpt lat="42.83821" lon="0.11391">
        <ele>2885.6000976562</ele>
        <time>2019-05-05T13:51:16.000Z</time>
      </trkpt>
      <trkpt lat="42.8382" lon="0.11389">
        <ele>2887</ele>
        <time>2019-05-05T13:51:43.000Z</time>
      </trkpt>
      <trkpt lat="42.83821" lon="0.11387">
        <ele>2886.6000976562</ele>
        <time>2019-05-05T13:51:53.000Z</time>
      </trkpt>
      <trkpt lat="42.83821" lon="0.11387">
        <ele>2886.6000976562</ele>
        <time>2019-05-05T13:51:56.000Z</time>
      </trkpt>
      <trkpt lat="42.83821" lon="0.11387">
        <ele>2886.6000976562</ele>
        <time>2019-05-05T13:51:57.000Z</time>
      </trkpt>
      <trkpt lat="42.83821" lon="0.11387">
        <ele>2886.6000976562</ele>
        <time>2019-05-05T13:51:59.000Z</time>
      </trkpt>
      <trkpt lat="42.83821" lon="0.11387">
        <ele>2886.6000976562</ele>
        <time>2019-05-05T13:52:01.000Z</time>
      </trkpt>
      <trkpt lat="42.83821" lon="0.11387">
        <ele>2886.6000976562</ele>
        <time>2019-05-05T13:52:03.000Z</time>
      </trkpt>
      <trkpt lat="42.83821" lon="0.11386">
        <ele>2887</ele>
        <time>2019-05-05T13:52:08.000Z</time>
      </trkpt>
      <trkpt lat="42.83821" lon="0.11386">
        <ele>2887</ele>
        <time>2019-05-05T13:52:09.000Z</time>
      </trkpt>
      <trkpt lat="42.83821" lon="0.11385">
        <ele>2887.1999511719</ele>
        <time>2019-05-05T13:52:11.000Z</time>
      </trkpt>
      <trkpt lat="42.83821" lon="0.11386">
        <ele>2887.6000976562</ele>
        <time>2019-05-05T13:52:13.000Z</time>
      </trkpt>
      <trkpt lat="42.8382" lon="0.11385">
        <ele>2887.8000488281</ele>
        <time>2019-05-05T13:52:14.000Z</time>
      </trkpt>
      <trkpt lat="42.8382" lon="0.11385">
        <ele>2888</ele>
        <time>2019-05-05T13:52:16.000Z</time>
      </trkpt>
      <trkpt lat="42.8382" lon="0.11385">
        <ele>2888</ele>
        <time>2019-05-05T13:52:17.000Z</time>
      </trkpt>
      <trkpt lat="42.8382" lon="0.11386">
        <ele>2887.8000488281</ele>
        <time>2019-05-05T13:52:24.000Z</time>
      </trkpt>
      <trkpt lat="42.8382" lon="0.11386">
        <ele>2887.6000976562</ele>
        <time>2019-05-05T13:52:26.000Z</time>
      </trkpt>
      <trkpt lat="42.83822" lon="0.11388">
        <ele>2886.1999511719</ele>
        <time>2019-05-05T13:52:31.000Z</time>
      </trkpt>
      <trkpt lat="42.83822" lon="0.11389">
        <ele>2885.3999023438</ele>
        <time>2019-05-05T13:52:33.000Z</time>
      </trkpt>
      <trkpt lat="42.83822" lon="0.1139">
        <ele>2885</ele>
        <time>2019-05-05T13:52:34.000Z</time>
      </trkpt>
      <trkpt lat="42.83824" lon="0.11393">
        <ele>2882.8000488281</ele>
        <time>2019-05-05T13:52:43.000Z</time>
      </trkpt>
      <trkpt lat="42.83825" lon="0.11393">
        <ele>2882.3999023438</ele>
        <time>2019-05-05T13:52:44.000Z</time>
      </trkpt>
      <trkpt lat="42.83825" lon="0.11394">
        <ele>2882.1999511719</ele>
        <time>2019-05-05T13:52:47.000Z</time>
      </trkpt>
      <trkpt lat="42.83825" lon="0.11394">
        <ele>2882</ele>
        <time>2019-05-05T13:52:48.000Z</time>
      </trkpt>
      <trkpt lat="42.83825" lon="0.11394">
        <ele>2882</ele>
        <time>2019-05-05T13:52:49.000Z</time>
      </trkpt>
      <trkpt lat="42.83826" lon="0.11395">
        <ele>2881</ele>
        <time>2019-05-05T13:52:54.000Z</time>
      </trkpt>
      <trkpt lat="42.83826" lon="0.11396">
        <ele>2880.3999023438</ele>
        <time>2019-05-05T13:52:57.000Z</time>
      </trkpt>
      <trkpt lat="42.8383" lon="0.11398">
        <ele>2876.8000488281</ele>
        <time>2019-05-05T13:53:08.000Z</time>
      </trkpt>
      <trkpt lat="42.83829" lon="0.11402">
        <ele>2876.6000976562</ele>
        <time>2019-05-05T13:53:29.000Z</time>
      </trkpt>
      <trkpt lat="42.8383" lon="0.11403">
        <ele>2875.8000488281</ele>
        <time>2019-05-05T13:53:53.000Z</time>
      </trkpt>
      <trkpt lat="42.83831" lon="0.11404">
        <ele>2875</ele>
        <time>2019-05-05T13:54:00.000Z</time>
      </trkpt>
      <trkpt lat="42.83831" lon="0.11405">
        <ele>2874.6000976562</ele>
        <time>2019-05-05T13:54:02.000Z</time>
      </trkpt>
      <trkpt lat="42.83831" lon="0.11405">
        <ele>2874.8000488281</ele>
        <time>2019-05-05T13:54:04.000Z</time>
      </trkpt>
      <trkpt lat="42.83831" lon="0.11405">
        <ele>2875</ele>
        <time>2019-05-05T13:54:05.000Z</time>
      </trkpt>
      <trkpt lat="42.83829" lon="0.11405">
        <ele>2876.6000976562</ele>
        <time>2019-05-05T13:54:12.000Z</time>
      </trkpt>
      <trkpt lat="42.83828" lon="0.11404">
        <ele>2877.1999511719</ele>
        <time>2019-05-05T13:54:13.000Z</time>
      </trkpt>
      <trkpt lat="42.83827" lon="0.11403">
        <ele>2877.8000488281</ele>
        <time>2019-05-05T13:54:15.000Z</time>
      </trkpt>
      <trkpt lat="42.83827" lon="0.11403">
        <ele>2877.8000488281</ele>
        <time>2019-05-05T13:54:16.000Z</time>
      </trkpt>
      <trkpt lat="42.83827" lon="0.11403">
        <ele>2878</ele>
        <time>2019-05-05T13:54:17.000Z</time>
      </trkpt>
      <trkpt lat="42.83828" lon="0.11403">
        <ele>2877.8000488281</ele>
        <time>2019-05-05T13:54:19.000Z</time>
      </trkpt>
      <trkpt lat="42.83828" lon="0.11403">
        <ele>2877.1999511719</ele>
        <time>2019-05-05T13:54:21.000Z</time>
      </trkpt>
      <trkpt lat="42.83829" lon="0.11403">
        <ele>2877</ele>
        <time>2019-05-05T13:54:22.000Z</time>
      </trkpt>
      <trkpt lat="42.8383" lon="0.11403">
        <ele>2876</ele>
        <time>2019-05-05T13:54:27.000Z</time>
      </trkpt>
      <trkpt lat="42.8383" lon="0.11403">
        <ele>2876</ele>
        <time>2019-05-05T13:54:31.000Z</time>
      </trkpt>
      <trkpt lat="42.8383" lon="0.11401">
        <ele>2876.3999023438</ele>
        <time>2019-05-05T13:54:43.000Z</time>
      </trkpt>
      <trkpt lat="42.8383" lon="0.11399">
        <ele>2876.8000488281</ele>
        <time>2019-05-05T13:55:04.000Z</time>
      </trkpt>
      <trkpt lat="42.8383" lon="0.11399">
        <ele>2876.8000488281</ele>
        <time>2019-05-05T13:55:05.000Z</time>
      </trkpt>
      <trkpt lat="42.8383" lon="0.11398">
        <ele>2877.1999511719</ele>
        <time>2019-05-05T13:55:08.000Z</time>
      </trkpt>
      <trkpt lat="42.8383" lon="0.11398">
        <ele>2877.1999511719</ele>
        <time>2019-05-05T13:55:09.000Z</time>
      </trkpt>
      <trkpt lat="42.83829" lon="0.11397">
        <ele>2878.3999023438</ele>
        <time>2019-05-05T13:55:19.000Z</time>
      </trkpt>
      <trkpt lat="42.83829" lon="0.11398">
        <ele>2878</ele>
        <time>2019-05-05T13:55:20.000Z</time>
      </trkpt>
      <trkpt lat="42.83831" lon="0.11399">
        <ele>2875.8000488281</ele>
        <time>2019-05-05T13:55:22.000Z</time>
      </trkpt>
      <trkpt lat="42.83836" lon="0.114">
        <ele>2871.6000976562</ele>
        <time>2019-05-05T13:55:24.000Z</time>
      </trkpt>
      <trkpt lat="42.83853" lon="0.11406">
        <ele>2867.8000488281</ele>
        <time>2019-05-05T13:55:29.000Z</time>
      </trkpt>
      <trkpt lat="42.83855" lon="0.11411">
        <ele>2866.8000488281</ele>
        <time>2019-05-05T13:55:41.000Z</time>
      </trkpt>
      <trkpt lat="42.83855" lon="0.11412">
        <ele>2866.3999023438</ele>
        <time>2019-05-05T13:55:52.000Z</time>
      </trkpt>
      <trkpt lat="42.83855" lon="0.11411">
        <ele>2866.6000976562</ele>
        <time>2019-05-05T13:56:00.000Z</time>
      </trkpt>
      <trkpt lat="42.83855" lon="0.11411">
        <ele>2866.6000976562</ele>
        <time>2019-05-05T13:56:01.000Z</time>
      </trkpt>
      <trkpt lat="42.83855" lon="0.11411">
        <ele>2866.6000976562</ele>
        <time>2019-05-05T13:56:02.000Z</time>
      </trkpt>
      <trkpt lat="42.83855" lon="0.11415">
        <ele>2865.6000976562</ele>
        <time>2019-05-05T13:56:07.000Z</time>
      </trkpt>
      <trkpt lat="42.83861" lon="0.11429">
        <ele>2862.3999023438</ele>
        <time>2019-05-05T13:56:10.000Z</time>
      </trkpt>
      <trkpt lat="42.83866" lon="0.11441">
        <ele>2859.1999511719</ele>
        <time>2019-05-05T13:56:12.000Z</time>
      </trkpt>
      <trkpt lat="42.83873" lon="0.11465">
        <ele>2852.8000488281</ele>
        <time>2019-05-05T13:56:15.000Z</time>
      </trkpt>
      <trkpt lat="42.83879" lon="0.11481">
        <ele>2846.3999023438</ele>
        <time>2019-05-05T13:56:17.000Z</time>
      </trkpt>
      <trkpt lat="42.83887" lon="0.11494">
        <ele>2841.1999511719</ele>
        <time>2019-05-05T13:56:19.000Z</time>
      </trkpt>
      <trkpt lat="42.83894" lon="0.11511">
        <ele>2834.3999023438</ele>
        <time>2019-05-05T13:56:21.000Z</time>
      </trkpt>
      <trkpt lat="42.83898" lon="0.11531">
        <ele>2831.3999023438</ele>
        <time>2019-05-05T13:56:23.000Z</time>
      </trkpt>
      <trkpt lat="42.83905" lon="0.11553">
        <ele>2827.3999023438</ele>
        <time>2019-05-05T13:56:25.000Z</time>
      </trkpt>
      <trkpt lat="42.83914" lon="0.11569">
        <ele>2821</ele>
        <time>2019-05-05T13:56:27.000Z</time>
      </trkpt>
      <trkpt lat="42.83921" lon="0.11584">
        <ele>2815.6000976562</ele>
        <time>2019-05-05T13:56:29.000Z</time>
      </trkpt>
      <trkpt lat="42.83928" lon="0.11599">
        <ele>2811.1999511719</ele>
        <time>2019-05-05T13:56:31.000Z</time>
      </trkpt>
      <trkpt lat="42.83939" lon="0.11611">
        <ele>2806</ele>
        <time>2019-05-05T13:56:33.000Z</time>
      </trkpt>
      <trkpt lat="42.83951" lon="0.11623">
        <ele>2800.3999023438</ele>
        <time>2019-05-05T13:56:35.000Z</time>
      </trkpt>
      <trkpt lat="42.8396" lon="0.11637">
        <ele>2792.3999023438</ele>
        <time>2019-05-05T13:56:37.000Z</time>
      </trkpt>
      <trkpt lat="42.8397" lon="0.11655">
        <ele>2782</ele>
        <time>2019-05-05T13:56:39.000Z</time>
      </trkpt>
      <trkpt lat="42.83977" lon="0.11673">
        <ele>2771.8000488281</ele>
        <time>2019-05-05T13:56:41.000Z</time>
      </trkpt>
      <trkpt lat="42.83989" lon="0.11684">
        <ele>2763.8000488281</ele>
        <time>2019-05-05T13:56:43.000Z</time>
      </trkpt>
      <trkpt lat="42.83999" lon="0.11696">
        <ele>2755.1999511719</ele>
        <time>2019-05-05T13:56:45.000Z</time>
      </trkpt>
      <trkpt lat="42.8401" lon="0.11713">
        <ele>2746</ele>
        <time>2019-05-05T13:56:47.000Z</time>
      </trkpt>
      <trkpt lat="42.84021" lon="0.11736">
        <ele>2739.3999023438</ele>
        <time>2019-05-05T13:56:49.000Z</time>
      </trkpt>
      <trkpt lat="42.84032" lon="0.11765">
        <ele>2731.8000488281</ele>
        <time>2019-05-05T13:56:52.000Z</time>
      </trkpt>
      <trkpt lat="42.84034" lon="0.11776">
        <ele>2729.1999511719</ele>
        <time>2019-05-05T13:56:53.000Z</time>
      </trkpt>
      <trkpt lat="42.84035" lon="0.11797">
        <ele>2724.8000488281</ele>
        <time>2019-05-05T13:56:55.000Z</time>
      </trkpt>
      <trkpt lat="42.84041" lon="0.11817">
        <ele>2719.6000976562</ele>
        <time>2019-05-05T13:56:57.000Z</time>
      </trkpt>
      <trkpt lat="42.8405" lon="0.11837">
        <ele>2713.8000488281</ele>
        <time>2019-05-05T13:56:59.000Z</time>
      </trkpt>
      <trkpt lat="42.84058" lon="0.11856">
        <ele>2709</ele>
        <time>2019-05-05T13:57:01.000Z</time>
      </trkpt>
      <trkpt lat="42.84066" lon="0.11875">
        <ele>2704.6000976562</ele>
        <time>2019-05-05T13:57:03.000Z</time>
      </trkpt>
      <trkpt lat="42.84074" lon="0.1189">
        <ele>2700</ele>
        <time>2019-05-05T13:57:05.000Z</time>
      </trkpt>
      <trkpt lat="42.84081" lon="0.11904">
        <ele>2695.8000488281</ele>
        <time>2019-05-05T13:57:07.000Z</time>
      </trkpt>
      <trkpt lat="42.8408" lon="0.11922">
        <ele>2692.6000976562</ele>
        <time>2019-05-05T13:57:09.000Z</time>
      </trkpt>
      <trkpt lat="42.84071" lon="0.11939">
        <ele>2691</ele>
        <time>2019-05-05T13:57:11.000Z</time>
      </trkpt>
      <trkpt lat="42.84064" lon="0.11978">
        <ele>2688.6000976562</ele>
        <time>2019-05-05T13:57:14.000Z</time>
      </trkpt>
      <trkpt lat="42.8407" lon="0.12004">
        <ele>2681.3999023438</ele>
        <time>2019-05-05T13:57:16.000Z</time>
      </trkpt>
      <trkpt lat="42.84096" lon="0.1206">
        <ele>2663.6000976562</ele>
        <time>2019-05-05T13:57:21.000Z</time>
      </trkpt>
      <trkpt lat="42.84099" lon="0.12072">
        <ele>2661.3999023438</ele>
        <time>2019-05-05T13:57:22.000Z</time>
      </trkpt>
      <trkpt lat="42.8411" lon="0.12101">
        <ele>2655.3999023438</ele>
        <time>2019-05-05T13:57:26.000Z</time>
      </trkpt>
      <trkpt lat="42.84108" lon="0.12096">
        <ele>2656.6000976562</ele>
        <time>2019-05-05T13:57:46.000Z</time>
      </trkpt>
      <trkpt lat="42.84107" lon="0.12095">
        <ele>2656.6000976562</ele>
        <time>2019-05-05T13:58:12.000Z</time>
      </trkpt>
      <trkpt lat="42.84107" lon="0.12095">
        <ele>2656.6000976562</ele>
        <time>2019-05-05T13:58:51.000Z</time>
      </trkpt>
      <trkpt lat="42.84107" lon="0.12095">
        <ele>2656.6000976562</ele>
        <time>2019-05-05T13:58:55.000Z</time>
      </trkpt>
      <trkpt lat="42.84107" lon="0.12095">
        <ele>2656.6000976562</ele>
        <time>2019-05-05T13:58:58.000Z</time>
      </trkpt>
      <trkpt lat="42.84107" lon="0.12095">
        <ele>2656.6000976562</ele>
        <time>2019-05-05T13:59:00.000Z</time>
      </trkpt>
      <trkpt lat="42.84107" lon="0.12095">
        <ele>2656.6000976562</ele>
        <time>2019-05-05T13:59:08.000Z</time>
      </trkpt>
      <trkpt lat="42.84107" lon="0.12095">
        <ele>2656.6000976562</ele>
        <time>2019-05-05T13:59:11.000Z</time>
      </trkpt>
      <trkpt lat="42.84107" lon="0.12095">
        <ele>2656.6000976562</ele>
        <time>2019-05-05T13:59:27.000Z</time>
      </trkpt>
      <trkpt lat="42.84107" lon="0.12095">
        <ele>2656.6000976562</ele>
        <time>2019-05-05T13:59:34.000Z</time>
      </trkpt>
      <trkpt lat="42.84107" lon="0.12095">
        <ele>2656.6000976562</ele>
        <time>2019-05-05T13:59:36.000Z</time>
      </trkpt>
      <trkpt lat="42.84107" lon="0.12095">
        <ele>2656.6000976562</ele>
        <time>2019-05-05T13:59:38.000Z</time>
      </trkpt>
      <trkpt lat="42.84107" lon="0.12095">
        <ele>2656.6000976562</ele>
        <time>2019-05-05T13:59:43.000Z</time>
      </trkpt>
      <trkpt lat="42.84107" lon="0.12095">
        <ele>2656.6000976562</ele>
        <time>2019-05-05T13:59:50.000Z</time>
      </trkpt>
      <trkpt lat="42.84107" lon="0.12095">
        <ele>2656.6000976562</ele>
        <time>2019-05-05T13:59:55.000Z</time>
      </trkpt>
      <trkpt lat="42.84107" lon="0.12095">
        <ele>2656.6000976562</ele>
        <time>2019-05-05T13:59:59.000Z</time>
      </trkpt>
      <trkpt lat="42.84107" lon="0.12095">
        <ele>2656.6000976562</ele>
        <time>2019-05-05T14:00:02.000Z</time>
      </trkpt>
      <trkpt lat="42.84107" lon="0.12095">
        <ele>2656.6000976562</ele>
        <time>2019-05-05T14:00:04.000Z</time>
      </trkpt>
      <trkpt lat="42.84107" lon="0.12095">
        <ele>2656.6000976562</ele>
        <time>2019-05-05T14:00:30.000Z</time>
      </trkpt>
      <trkpt lat="42.84107" lon="0.12095">
        <ele>2656.6000976562</ele>
        <time>2019-05-05T14:00:43.000Z</time>
      </trkpt>
      <trkpt lat="42.84109" lon="0.12098">
        <ele>2656.1999511719</ele>
        <time>2019-05-05T14:01:04.000Z</time>
      </trkpt>
      <trkpt lat="42.84121" lon="0.12126">
        <ele>2650.3999023438</ele>
        <time>2019-05-05T14:01:09.000Z</time>
      </trkpt>
      <trkpt lat="42.84126" lon="0.12143">
        <ele>2644.3999023438</ele>
        <time>2019-05-05T14:01:11.000Z</time>
      </trkpt>
      <trkpt lat="42.84127" lon="0.12163">
        <ele>2637.6000976562</ele>
        <time>2019-05-05T14:01:13.000Z</time>
      </trkpt>
      <trkpt lat="42.84127" lon="0.12185">
        <ele>2631.1999511719</ele>
        <time>2019-05-05T14:01:15.000Z</time>
      </trkpt>
      <trkpt lat="42.84124" lon="0.12207">
        <ele>2625.1999511719</ele>
        <time>2019-05-05T14:01:17.000Z</time>
      </trkpt>
      <trkpt lat="42.8412" lon="0.12231">
        <ele>2618.3999023438</ele>
        <time>2019-05-05T14:01:19.000Z</time>
      </trkpt>
      <trkpt lat="42.84115" lon="0.12255">
        <ele>2611.8000488281</ele>
        <time>2019-05-05T14:01:21.000Z</time>
      </trkpt>
      <trkpt lat="42.8411" lon="0.12279">
        <ele>2605</ele>
        <time>2019-05-05T14:01:23.000Z</time>
      </trkpt>
      <trkpt lat="42.84109" lon="0.123">
        <ele>2598.6000976562</ele>
        <time>2019-05-05T14:01:25.000Z</time>
      </trkpt>
      <trkpt lat="42.84103" lon="0.12331">
        <ele>2590.8000488281</ele>
        <time>2019-05-05T14:01:28.000Z</time>
      </trkpt>
      <trkpt lat="42.841" lon="0.12343">
        <ele>2588.1999511719</ele>
        <time>2019-05-05T14:01:29.000Z</time>
      </trkpt>
      <trkpt lat="42.84096" lon="0.12355">
        <ele>2586.1999511719</ele>
        <time>2019-05-05T14:01:30.000Z</time>
      </trkpt>
      <trkpt lat="42.84092" lon="0.12368">
        <ele>2583.6000976562</ele>
        <time>2019-05-05T14:01:31.000Z</time>
      </trkpt>
      <trkpt lat="42.84086" lon="0.12394">
        <ele>2578.1999511719</ele>
        <time>2019-05-05T14:01:33.000Z</time>
      </trkpt>
      <trkpt lat="42.84083" lon="0.12404">
        <ele>2576.3999023438</ele>
        <time>2019-05-05T14:01:34.000Z</time>
      </trkpt>
      <trkpt lat="42.84079" lon="0.1243">
        <ele>2570</ele>
        <time>2019-05-05T14:01:37.000Z</time>
      </trkpt>
      <trkpt lat="42.84082" lon="0.12446">
        <ele>2564.1999511719</ele>
        <time>2019-05-05T14:01:39.000Z</time>
      </trkpt>
      <trkpt lat="42.8408" lon="0.1246">
        <ele>2560.1999511719</ele>
        <time>2019-05-05T14:01:41.000Z</time>
      </trkpt>
      <trkpt lat="42.84074" lon="0.12474">
        <ele>2557.6000976562</ele>
        <time>2019-05-05T14:01:43.000Z</time>
      </trkpt>
      <trkpt lat="42.84073" lon="0.12478">
        <ele>2556.6000976562</ele>
        <time>2019-05-05T14:01:44.000Z</time>
      </trkpt>
      <trkpt lat="42.8407" lon="0.12492">
        <ele>2553.1999511719</ele>
        <time>2019-05-05T14:01:46.000Z</time>
      </trkpt>
      <trkpt lat="42.84069" lon="0.125">
        <ele>2551</ele>
        <time>2019-05-05T14:01:47.000Z</time>
      </trkpt>
      <trkpt lat="42.84068" lon="0.12518">
        <ele>2545.6000976562</ele>
        <time>2019-05-05T14:01:49.000Z</time>
      </trkpt>
      <trkpt lat="42.84063" lon="0.1254">
        <ele>2539.8000488281</ele>
        <time>2019-05-05T14:01:51.000Z</time>
      </trkpt>
      <trkpt lat="42.8406" lon="0.12566">
        <ele>2532.8000488281</ele>
        <time>2019-05-05T14:01:53.000Z</time>
      </trkpt>
      <trkpt lat="42.84057" lon="0.12601">
        <ele>2522.6000976562</ele>
        <time>2019-05-05T14:01:56.000Z</time>
      </trkpt>
      <trkpt lat="42.84062" lon="0.12624">
        <ele>2514.8000488281</ele>
        <time>2019-05-05T14:01:58.000Z</time>
      </trkpt>
      <trkpt lat="42.84066" lon="0.12635">
        <ele>2509.3999023438</ele>
        <time>2019-05-05T14:01:59.000Z</time>
      </trkpt>
      <trkpt lat="42.84068" lon="0.12645">
        <ele>2504.6000976562</ele>
        <time>2019-05-05T14:02:00.000Z</time>
      </trkpt>
      <trkpt lat="42.84067" lon="0.12664">
        <ele>2498.1999511719</ele>
        <time>2019-05-05T14:02:02.000Z</time>
      </trkpt>
      <trkpt lat="42.84061" lon="0.12684">
        <ele>2493.8000488281</ele>
        <time>2019-05-05T14:02:05.000Z</time>
      </trkpt>
      <trkpt lat="42.84059" lon="0.12691">
        <ele>2493.1999511719</ele>
        <time>2019-05-05T14:02:06.000Z</time>
      </trkpt>
      <trkpt lat="42.84055" lon="0.12696">
        <ele>2493.6000976562</ele>
        <time>2019-05-05T14:02:07.000Z</time>
      </trkpt>
      <trkpt lat="42.84048" lon="0.127">
        <ele>2496.6000976562</ele>
        <time>2019-05-05T14:02:09.000Z</time>
      </trkpt>
      <trkpt lat="42.84041" lon="0.12695">
        <ele>2501.3999023438</ele>
        <time>2019-05-05T14:02:34.000Z</time>
      </trkpt>
      <trkpt lat="42.84022" lon="0.12726">
        <ele>2501.1999511719</ele>
        <time>2019-05-05T14:02:46.000Z</time>
      </trkpt>
      <trkpt lat="42.8401" lon="0.12745">
        <ele>2504.1999511719</ele>
        <time>2019-05-05T14:02:54.000Z</time>
      </trkpt>
      <trkpt lat="42.84006" lon="0.12751">
        <ele>2505.3999023438</ele>
        <time>2019-05-05T14:02:58.000Z</time>
      </trkpt>
      <trkpt lat="42.84005" lon="0.12752">
        <ele>2505.3999023438</ele>
        <time>2019-05-05T14:02:59.000Z</time>
      </trkpt>
      <trkpt lat="42.84003" lon="0.12755">
        <ele>2505.6000976562</ele>
        <time>2019-05-05T14:03:01.000Z</time>
      </trkpt>
      <trkpt lat="42.84" lon="0.12761">
        <ele>2505.1999511719</ele>
        <time>2019-05-05T14:03:04.000Z</time>
      </trkpt>
      <trkpt lat="42.8398" lon="0.12814">
        <ele>2502.3999023438</ele>
        <time>2019-05-05T14:03:21.000Z</time>
      </trkpt>
      <trkpt lat="42.83963" lon="0.12858">
        <ele>2498.6000976562</ele>
        <time>2019-05-05T14:03:40.000Z</time>
      </trkpt>
      <trkpt lat="42.83959" lon="0.12862">
        <ele>2498.8000488281</ele>
        <time>2019-05-05T14:03:52.000Z</time>
      </trkpt>
      <trkpt lat="42.83959" lon="0.12862">
        <ele>2498.8000488281</ele>
        <time>2019-05-05T14:04:13.000Z</time>
      </trkpt>
      <trkpt lat="42.83959" lon="0.12862">
        <ele>2498.8000488281</ele>
        <time>2019-05-05T14:05:01.000Z</time>
      </trkpt>
      <trkpt lat="42.83963" lon="0.12859">
        <ele>2498.3999023438</ele>
        <time>2019-05-05T14:05:11.000Z</time>
      </trkpt>
      <trkpt lat="42.83972" lon="0.12852">
        <ele>2497</ele>
        <time>2019-05-05T14:05:22.000Z</time>
      </trkpt>
      <trkpt lat="42.83975" lon="0.1286">
        <ele>2493.1999511719</ele>
        <time>2019-05-05T14:05:37.000Z</time>
      </trkpt>
      <trkpt lat="42.83961" lon="0.12871">
        <ele>2495.1999511719</ele>
        <time>2019-05-05T14:05:59.000Z</time>
      </trkpt>
      <trkpt lat="42.83937" lon="0.12909">
        <ele>2493.3999023438</ele>
        <time>2019-05-05T14:06:17.000Z</time>
      </trkpt>
      <trkpt lat="42.83934" lon="0.12917">
        <ele>2491.6000976562</ele>
        <time>2019-05-05T14:06:19.000Z</time>
      </trkpt>
      <trkpt lat="42.83937" lon="0.12931">
        <ele>2485.8000488281</ele>
        <time>2019-05-05T14:06:21.000Z</time>
      </trkpt>
      <trkpt lat="42.83939" lon="0.12948">
        <ele>2479</ele>
        <time>2019-05-05T14:06:23.000Z</time>
      </trkpt>
      <trkpt lat="42.83941" lon="0.12966">
        <ele>2472.6000976562</ele>
        <time>2019-05-05T14:06:25.000Z</time>
      </trkpt>
      <trkpt lat="42.83937" lon="0.1298">
        <ele>2470.3999023438</ele>
        <time>2019-05-05T14:06:27.000Z</time>
      </trkpt>
      <trkpt lat="42.83931" lon="0.13012">
        <ele>2464.3999023438</ele>
        <time>2019-05-05T14:06:30.000Z</time>
      </trkpt>
      <trkpt lat="42.83931" lon="0.13047">
        <ele>2455</ele>
        <time>2019-05-05T14:06:33.000Z</time>
      </trkpt>
      <trkpt lat="42.83928" lon="0.13065">
        <ele>2453.3999023438</ele>
        <time>2019-05-05T14:06:35.000Z</time>
      </trkpt>
      <trkpt lat="42.83926" lon="0.13088">
        <ele>2452.8000488281</ele>
        <time>2019-05-05T14:06:37.000Z</time>
      </trkpt>
      <trkpt lat="42.83922" lon="0.13114">
        <ele>2452.6000976562</ele>
        <time>2019-05-05T14:06:39.000Z</time>
      </trkpt>
      <trkpt lat="42.83912" lon="0.13152">
        <ele>2454.8000488281</ele>
        <time>2019-05-05T14:06:42.000Z</time>
      </trkpt>
      <trkpt lat="42.83912" lon="0.13172">
        <ele>2453.1999511719</ele>
        <time>2019-05-05T14:06:44.000Z</time>
      </trkpt>
      <trkpt lat="42.83917" lon="0.13189">
        <ele>2449</ele>
        <time>2019-05-05T14:06:46.000Z</time>
      </trkpt>
      <trkpt lat="42.83941" lon="0.13241">
        <ele>2433</ele>
        <time>2019-05-05T14:07:00.000Z</time>
      </trkpt>
      <trkpt lat="42.83939" lon="0.13252">
        <ele>2433.1999511719</ele>
        <time>2019-05-05T14:07:08.000Z</time>
      </trkpt>
      <trkpt lat="42.83936" lon="0.13269">
        <ele>2433.6000976562</ele>
        <time>2019-05-05T14:07:54.000Z</time>
      </trkpt>
      <trkpt lat="42.83935" lon="0.13285">
        <ele>2433</ele>
        <time>2019-05-05T14:08:00.000Z</time>
      </trkpt>
      <trkpt lat="42.83923" lon="0.13334">
        <ele>2433</ele>
        <time>2019-05-05T14:08:19.000Z</time>
      </trkpt>
      <trkpt lat="42.83921" lon="0.13339">
        <ele>2432.6000976562</ele>
        <time>2019-05-05T14:08:23.000Z</time>
      </trkpt>
      <trkpt lat="42.83921" lon="0.1334">
        <ele>2432.6000976562</ele>
        <time>2019-05-05T14:08:24.000Z</time>
      </trkpt>
      <trkpt lat="42.83921" lon="0.1334">
        <ele>2432.8000488281</ele>
        <time>2019-05-05T14:08:25.000Z</time>
      </trkpt>
      <trkpt lat="42.83921" lon="0.1334">
        <ele>2432.8000488281</ele>
        <time>2019-05-05T14:08:26.000Z</time>
      </trkpt>
      <trkpt lat="42.83922" lon="0.13336">
        <ele>2433</ele>
        <time>2019-05-05T14:08:32.000Z</time>
      </trkpt>
      <trkpt lat="42.83923" lon="0.13335">
        <ele>2433</ele>
        <time>2019-05-05T14:08:35.000Z</time>
      </trkpt>
      <trkpt lat="42.83923" lon="0.13336">
        <ele>2432.8000488281</ele>
        <time>2019-05-05T14:08:36.000Z</time>
      </trkpt>
      <trkpt lat="42.83929" lon="0.13344">
        <ele>2430.3999023438</ele>
        <time>2019-05-05T14:09:21.000Z</time>
      </trkpt>
      <trkpt lat="42.83929" lon="0.13341">
        <ele>2430.8000488281</ele>
        <time>2019-05-05T14:09:36.000Z</time>
      </trkpt>
      <trkpt lat="42.83928" lon="0.13337">
        <ele>2431.6000976562</ele>
        <time>2019-05-05T14:10:45.000Z</time>
      </trkpt>
      <trkpt lat="42.83928" lon="0.13337">
        <ele>2431.6000976562</ele>
        <time>2019-05-05T14:10:56.000Z</time>
      </trkpt>
      <trkpt lat="42.83928" lon="0.13339">
        <ele>2431.1999511719</ele>
        <time>2019-05-05T14:11:11.000Z</time>
      </trkpt>
      <trkpt lat="42.83928" lon="0.13339">
        <ele>2431.1999511719</ele>
        <time>2019-05-05T14:11:15.000Z</time>
      </trkpt>
      <trkpt lat="42.83928" lon="0.13339">
        <ele>2431.1999511719</ele>
        <time>2019-05-05T14:11:16.000Z</time>
      </trkpt>
      <trkpt lat="42.83928" lon="0.13339">
        <ele>2431.1999511719</ele>
        <time>2019-05-05T14:11:20.000Z</time>
      </trkpt>
      <trkpt lat="42.83928" lon="0.13339">
        <ele>2431.1999511719</ele>
        <time>2019-05-05T14:11:21.000Z</time>
      </trkpt>
      <trkpt lat="42.83929" lon="0.13339">
        <ele>2431.1999511719</ele>
        <time>2019-05-05T14:11:27.000Z</time>
      </trkpt>
      <trkpt lat="42.83929" lon="0.13339">
        <ele>2431.1999511719</ele>
        <time>2019-05-05T14:11:28.000Z</time>
      </trkpt>
      <trkpt lat="42.83929" lon="0.13339">
        <ele>2431.1999511719</ele>
        <time>2019-05-05T14:11:31.000Z</time>
      </trkpt>
      <trkpt lat="42.83928" lon="0.13339">
        <ele>2431.1999511719</ele>
        <time>2019-05-05T14:11:43.000Z</time>
      </trkpt>
      <trkpt lat="42.83928" lon="0.13338">
        <ele>2431.3999023438</ele>
        <time>2019-05-05T14:11:54.000Z</time>
      </trkpt>
      <trkpt lat="42.83927" lon="0.13338">
        <ele>2431.6000976562</ele>
        <time>2019-05-05T14:11:58.000Z</time>
      </trkpt>
      <trkpt lat="42.83928" lon="0.13338">
        <ele>2431.3999023438</ele>
        <time>2019-05-05T14:12:05.000Z</time>
      </trkpt>
      <trkpt lat="42.83929" lon="0.1334">
        <ele>2431</ele>
        <time>2019-05-05T14:12:22.000Z</time>
      </trkpt>
      <trkpt lat="42.83929" lon="0.13339">
        <ele>2431</ele>
        <time>2019-05-05T14:12:31.000Z</time>
      </trkpt>
      <trkpt lat="42.83929" lon="0.13343">
        <ele>2430.6000976562</ele>
        <time>2019-05-05T14:12:40.000Z</time>
      </trkpt>
      <trkpt lat="42.83929" lon="0.13345">
        <ele>2430.3999023438</ele>
        <time>2019-05-05T14:12:42.000Z</time>
      </trkpt>
      <trkpt lat="42.83928" lon="0.13348">
        <ele>2430.1999511719</ele>
        <time>2019-05-05T14:12:45.000Z</time>
      </trkpt>
      <trkpt lat="42.83925" lon="0.13359">
        <ele>2429.3999023438</ele>
        <time>2019-05-05T14:12:49.000Z</time>
      </trkpt>
      <trkpt lat="42.83924" lon="0.13365">
        <ele>2429</ele>
        <time>2019-05-05T14:12:53.000Z</time>
      </trkpt>
      <trkpt lat="42.83924" lon="0.13365">
        <ele>2429.1999511719</ele>
        <time>2019-05-05T14:12:54.000Z</time>
      </trkpt>
      <trkpt lat="42.83923" lon="0.13367">
        <ele>2429.1999511719</ele>
        <time>2019-05-05T14:12:58.000Z</time>
      </trkpt>
      <trkpt lat="42.83916" lon="0.13386">
        <ele>2422.8000488281</ele>
        <time>2019-05-05T14:13:03.000Z</time>
      </trkpt>
      <trkpt lat="42.83914" lon="0.13387">
        <ele>2421.8000488281</ele>
        <time>2019-05-05T14:13:04.000Z</time>
      </trkpt>
      <trkpt lat="42.83913" lon="0.13387">
        <ele>2421.6000976562</ele>
        <time>2019-05-05T14:13:05.000Z</time>
      </trkpt>
      <trkpt lat="42.83911" lon="0.13386">
        <ele>2421.8000488281</ele>
        <time>2019-05-05T14:13:07.000Z</time>
      </trkpt>
      <trkpt lat="42.83908" lon="0.13387">
        <ele>2420.8000488281</ele>
        <time>2019-05-05T14:13:09.000Z</time>
      </trkpt>
      <trkpt lat="42.83888" lon="0.13394">
        <ele>2414.3999023438</ele>
        <time>2019-05-05T14:13:13.000Z</time>
      </trkpt>
      <trkpt lat="42.83874" lon="0.134">
        <ele>2409</ele>
        <time>2019-05-05T14:13:16.000Z</time>
      </trkpt>
      <trkpt lat="42.83861" lon="0.13406">
        <ele>2404.3999023438</ele>
        <time>2019-05-05T14:13:19.000Z</time>
      </trkpt>
      <trkpt lat="42.83834" lon="0.13406">
        <ele>2402</ele>
        <time>2019-05-05T14:13:28.000Z</time>
      </trkpt>
      <trkpt lat="42.83823" lon="0.13409">
        <ele>2399</ele>
        <time>2019-05-05T14:13:30.000Z</time>
      </trkpt>
      <trkpt lat="42.83809" lon="0.13414">
        <ele>2394.8000488281</ele>
        <time>2019-05-05T14:13:32.000Z</time>
      </trkpt>
      <trkpt lat="42.83796" lon="0.13414">
        <ele>2392.8000488281</ele>
        <time>2019-05-05T14:13:34.000Z</time>
      </trkpt>
      <trkpt lat="42.83798" lon="0.13415">
        <ele>2392.8000488281</ele>
        <time>2019-05-05T14:14:22.000Z</time>
      </trkpt>
      <trkpt lat="42.83798" lon="0.13415">
        <ele>2392.8000488281</ele>
        <time>2019-05-05T14:14:34.000Z</time>
      </trkpt>
      <trkpt lat="42.83798" lon="0.13415">
        <ele>2392.8000488281</ele>
        <time>2019-05-05T14:14:55.000Z</time>
      </trkpt>
      <trkpt lat="42.83798" lon="0.13415">
        <ele>2392.8000488281</ele>
        <time>2019-05-05T14:14:58.000Z</time>
      </trkpt>
      <trkpt lat="42.8379" lon="0.13417">
        <ele>2391</ele>
        <time>2019-05-05T14:15:01.000Z</time>
      </trkpt>
      <trkpt lat="42.83775" lon="0.13419">
        <ele>2388.8000488281</ele>
        <time>2019-05-05T14:15:05.000Z</time>
      </trkpt>
      <trkpt lat="42.83765" lon="0.13426">
        <ele>2385.3999023438</ele>
        <time>2019-05-05T14:15:08.000Z</time>
      </trkpt>
      <trkpt lat="42.83756" lon="0.13436">
        <ele>2380.6000976562</ele>
        <time>2019-05-05T14:15:10.000Z</time>
      </trkpt>
      <trkpt lat="42.83736" lon="0.13435">
        <ele>2375.6000976562</ele>
        <time>2019-05-05T14:15:14.000Z</time>
      </trkpt>
      <trkpt lat="42.83722" lon="0.1344">
        <ele>2370.6000976562</ele>
        <time>2019-05-05T14:15:16.000Z</time>
      </trkpt>
      <trkpt lat="42.83702" lon="0.1344">
        <ele>2365.6000976562</ele>
        <time>2019-05-05T14:15:19.000Z</time>
      </trkpt>
      <trkpt lat="42.8369" lon="0.13438">
        <ele>2363.6000976562</ele>
        <time>2019-05-05T14:15:21.000Z</time>
      </trkpt>
      <trkpt lat="42.83676" lon="0.13435">
        <ele>2361.6000976562</ele>
        <time>2019-05-05T14:15:24.000Z</time>
      </trkpt>
      <trkpt lat="42.83656" lon="0.13433">
        <ele>2357.6000976562</ele>
        <time>2019-05-05T14:15:29.000Z</time>
      </trkpt>
      <trkpt lat="42.8365" lon="0.13434">
        <ele>2355.8000488281</ele>
        <time>2019-05-05T14:15:58.000Z</time>
      </trkpt>
      <trkpt lat="42.83639" lon="0.13423">
        <ele>2357.1999511719</ele>
        <time>2019-05-05T14:16:51.000Z</time>
      </trkpt>
      <trkpt lat="42.83637" lon="0.13422">
        <ele>2357.1999511719</ele>
        <time>2019-05-05T14:17:34.000Z</time>
      </trkpt>
      <trkpt lat="42.83627" lon="0.13411">
        <ele>2359.3999023438</ele>
        <time>2019-05-05T14:17:40.000Z</time>
      </trkpt>
      <trkpt lat="42.83619" lon="0.13417">
        <ele>2355.1999511719</ele>
        <time>2019-05-05T14:17:42.000Z</time>
      </trkpt>
      <trkpt lat="42.8361" lon="0.13427">
        <ele>2350.3999023438</ele>
        <time>2019-05-05T14:17:44.000Z</time>
      </trkpt>
      <trkpt lat="42.83599" lon="0.13432">
        <ele>2346.3999023438</ele>
        <time>2019-05-05T14:17:46.000Z</time>
      </trkpt>
      <trkpt lat="42.83593" lon="0.13431">
        <ele>2345.6000976562</ele>
        <time>2019-05-05T14:17:59.000Z</time>
      </trkpt>
      <trkpt lat="42.83592" lon="0.13434">
        <ele>2344.6000976562</ele>
        <time>2019-05-05T14:18:13.000Z</time>
      </trkpt>
      <trkpt lat="42.83579" lon="0.13463">
        <ele>2332</ele>
        <time>2019-05-05T14:18:18.000Z</time>
      </trkpt>
      <trkpt lat="42.83575" lon="0.13476">
        <ele>2325.1999511719</ele>
        <time>2019-05-05T14:18:20.000Z</time>
      </trkpt>
      <trkpt lat="42.83567" lon="0.13487">
        <ele>2319</ele>
        <time>2019-05-05T14:18:22.000Z</time>
      </trkpt>
      <trkpt lat="42.83554" lon="0.1349">
        <ele>2315</ele>
        <time>2019-05-05T14:18:24.000Z</time>
      </trkpt>
      <trkpt lat="42.83546" lon="0.13493">
        <ele>2311.8000488281</ele>
        <time>2019-05-05T14:18:29.000Z</time>
      </trkpt>
      <trkpt lat="42.83545" lon="0.13494">
        <ele>2311.3999023438</ele>
        <time>2019-05-05T14:18:31.000Z</time>
      </trkpt>
      <trkpt lat="42.83545" lon="0.13495">
        <ele>2311.1999511719</ele>
        <time>2019-05-05T14:18:34.000Z</time>
      </trkpt>
      <trkpt lat="42.83545" lon="0.13495">
        <ele>2311.1999511719</ele>
        <time>2019-05-05T14:18:38.000Z</time>
      </trkpt>
      <trkpt lat="42.83545" lon="0.13495">
        <ele>2311.1999511719</ele>
        <time>2019-05-05T14:18:41.000Z</time>
      </trkpt>
      <trkpt lat="42.83542" lon="0.13497">
        <ele>2309.6000976562</ele>
        <time>2019-05-05T14:18:45.000Z</time>
      </trkpt>
      <trkpt lat="42.83527" lon="0.13497">
        <ele>2309.3999023438</ele>
        <time>2019-05-05T14:18:48.000Z</time>
      </trkpt>
      <trkpt lat="42.83515" lon="0.13498">
        <ele>2308.8000488281</ele>
        <time>2019-05-05T14:18:50.000Z</time>
      </trkpt>
      <trkpt lat="42.83504" lon="0.13509">
        <ele>2305.6000976562</ele>
        <time>2019-05-05T14:18:52.000Z</time>
      </trkpt>
      <trkpt lat="42.835" lon="0.13533">
        <ele>2298.6000976562</ele>
        <time>2019-05-05T14:18:55.000Z</time>
      </trkpt>
      <trkpt lat="42.835" lon="0.13541">
        <ele>2296.1999511719</ele>
        <time>2019-05-05T14:18:56.000Z</time>
      </trkpt>
      <trkpt lat="42.83496" lon="0.13554">
        <ele>2293</ele>
        <time>2019-05-05T14:18:58.000Z</time>
      </trkpt>
      <trkpt lat="42.83492" lon="0.1357">
        <ele>2289</ele>
        <time>2019-05-05T14:19:00.000Z</time>
      </trkpt>
      <trkpt lat="42.83487" lon="0.13597">
        <ele>2282</ele>
        <time>2019-05-05T14:19:03.000Z</time>
      </trkpt>
      <trkpt lat="42.8349" lon="0.13617">
        <ele>2276.3999023438</ele>
        <time>2019-05-05T14:19:05.000Z</time>
      </trkpt>
      <trkpt lat="42.83488" lon="0.13636">
        <ele>2273.3999023438</ele>
        <time>2019-05-05T14:19:07.000Z</time>
      </trkpt>
      <trkpt lat="42.83501" lon="0.13657">
        <ele>2269.6000976562</ele>
        <time>2019-05-05T14:19:10.000Z</time>
      </trkpt>
      <trkpt lat="42.83513" lon="0.13683">
        <ele>2263.3999023438</ele>
        <time>2019-05-05T14:19:13.000Z</time>
      </trkpt>
      <trkpt lat="42.83522" lon="0.13714">
        <ele>2256.1999511719</ele>
        <time>2019-05-05T14:19:16.000Z</time>
      </trkpt>
      <trkpt lat="42.83527" lon="0.13729">
        <ele>2251.3999023438</ele>
        <time>2019-05-05T14:19:18.000Z</time>
      </trkpt>
      <trkpt lat="42.83529" lon="0.13725">
        <ele>2251.6000976562</ele>
        <time>2019-05-05T14:19:55.000Z</time>
      </trkpt>
      <trkpt lat="42.83529" lon="0.13725">
        <ele>2251.6000976562</ele>
        <time>2019-05-05T14:19:57.000Z</time>
      </trkpt>
      <trkpt lat="42.83528" lon="0.13725">
        <ele>2251.8000488281</ele>
        <time>2019-05-05T14:20:11.000Z</time>
      </trkpt>
      <trkpt lat="42.83528" lon="0.13725">
        <ele>2251.8000488281</ele>
        <time>2019-05-05T14:20:17.000Z</time>
      </trkpt>
      <trkpt lat="42.83528" lon="0.13725">
        <ele>2251.8000488281</ele>
        <time>2019-05-05T14:20:25.000Z</time>
      </trkpt>
      <trkpt lat="42.83528" lon="0.13725">
        <ele>2251.8000488281</ele>
        <time>2019-05-05T14:20:26.000Z</time>
      </trkpt>
      <trkpt lat="42.83528" lon="0.13725">
        <ele>2251.8000488281</ele>
        <time>2019-05-05T14:20:27.000Z</time>
      </trkpt>
      <trkpt lat="42.83528" lon="0.13725">
        <ele>2251.8000488281</ele>
        <time>2019-05-05T14:20:29.000Z</time>
      </trkpt>
      <trkpt lat="42.83528" lon="0.13725">
        <ele>2251.8000488281</ele>
        <time>2019-05-05T14:20:40.000Z</time>
      </trkpt>
      <trkpt lat="42.83528" lon="0.13725">
        <ele>2251.8000488281</ele>
        <time>2019-05-05T14:20:44.000Z</time>
      </trkpt>
      <trkpt lat="42.83528" lon="0.13725">
        <ele>2251.8000488281</ele>
        <time>2019-05-05T14:20:52.000Z</time>
      </trkpt>
      <trkpt lat="42.83528" lon="0.13725">
        <ele>2251.8000488281</ele>
        <time>2019-05-05T14:21:06.000Z</time>
      </trkpt>
      <trkpt lat="42.83528" lon="0.13725">
        <ele>2251.8000488281</ele>
        <time>2019-05-05T14:21:12.000Z</time>
      </trkpt>
      <trkpt lat="42.83528" lon="0.13725">
        <ele>2251.8000488281</ele>
        <time>2019-05-05T14:21:18.000Z</time>
      </trkpt>
      <trkpt lat="42.83528" lon="0.13725">
        <ele>2251.8000488281</ele>
        <time>2019-05-05T14:21:24.000Z</time>
      </trkpt>
      <trkpt lat="42.83528" lon="0.13725">
        <ele>2251.8000488281</ele>
        <time>2019-05-05T14:21:41.000Z</time>
      </trkpt>
      <trkpt lat="42.83528" lon="0.13725">
        <ele>2251.8000488281</ele>
        <time>2019-05-05T14:21:47.000Z</time>
      </trkpt>
      <trkpt lat="42.83528" lon="0.13725">
        <ele>2251.8000488281</ele>
        <time>2019-05-05T14:21:50.000Z</time>
      </trkpt>
      <trkpt lat="42.83528" lon="0.13725">
        <ele>2251.8000488281</ele>
        <time>2019-05-05T14:21:53.000Z</time>
      </trkpt>
      <trkpt lat="42.83528" lon="0.13725">
        <ele>2251.8000488281</ele>
        <time>2019-05-05T14:21:55.000Z</time>
      </trkpt>
      <trkpt lat="42.83528" lon="0.13725">
        <ele>2251.8000488281</ele>
        <time>2019-05-05T14:21:59.000Z</time>
      </trkpt>
      <trkpt lat="42.83528" lon="0.13725">
        <ele>2251.8000488281</ele>
        <time>2019-05-05T14:22:03.000Z</time>
      </trkpt>
      <trkpt lat="42.83528" lon="0.13725">
        <ele>2251.8000488281</ele>
        <time>2019-05-05T14:22:07.000Z</time>
      </trkpt>
      <trkpt lat="42.83528" lon="0.13725">
        <ele>2251.8000488281</ele>
        <time>2019-05-05T14:22:19.000Z</time>
      </trkpt>
      <trkpt lat="42.83528" lon="0.13724">
        <ele>2252.1999511719</ele>
        <time>2019-05-05T14:22:36.000Z</time>
      </trkpt>
      <trkpt lat="42.83528" lon="0.13724">
        <ele>2252.1999511719</ele>
        <time>2019-05-05T14:22:57.000Z</time>
      </trkpt>
      <trkpt lat="42.83528" lon="0.13724">
        <ele>2252.1999511719</ele>
        <time>2019-05-05T14:23:03.000Z</time>
      </trkpt>
      <trkpt lat="42.83528" lon="0.13724">
        <ele>2252.1999511719</ele>
        <time>2019-05-05T14:23:04.000Z</time>
      </trkpt>
      <trkpt lat="42.83528" lon="0.13724">
        <ele>2252.1999511719</ele>
        <time>2019-05-05T14:23:06.000Z</time>
      </trkpt>
      <trkpt lat="42.83528" lon="0.13724">
        <ele>2252.1999511719</ele>
        <time>2019-05-05T14:23:08.000Z</time>
      </trkpt>
      <trkpt lat="42.83528" lon="0.13724">
        <ele>2252.1999511719</ele>
        <time>2019-05-05T14:23:12.000Z</time>
      </trkpt>
      <trkpt lat="42.83528" lon="0.13724">
        <ele>2252.1999511719</ele>
        <time>2019-05-05T14:23:14.000Z</time>
      </trkpt>
      <trkpt lat="42.83528" lon="0.13724">
        <ele>2252.1999511719</ele>
        <time>2019-05-05T14:23:15.000Z</time>
      </trkpt>
      <trkpt lat="42.83528" lon="0.13724">
        <ele>2252.1999511719</ele>
        <time>2019-05-05T14:23:17.000Z</time>
      </trkpt>
      <trkpt lat="42.83528" lon="0.13724">
        <ele>2252.1999511719</ele>
        <time>2019-05-05T14:23:25.000Z</time>
      </trkpt>
      <trkpt lat="42.83531" lon="0.13726">
        <ele>2250.3999023438</ele>
        <time>2019-05-05T14:23:34.000Z</time>
      </trkpt>
      <trkpt lat="42.8354" lon="0.13718">
        <ele>2247.6000976562</ele>
        <time>2019-05-05T14:23:44.000Z</time>
      </trkpt>
      <trkpt lat="42.83542" lon="0.13719">
        <ele>2246.8000488281</ele>
        <time>2019-05-05T14:23:45.000Z</time>
      </trkpt>
      <trkpt lat="42.83545" lon="0.13722">
        <ele>2245.1999511719</ele>
        <time>2019-05-05T14:23:46.000Z</time>
      </trkpt>
      <trkpt lat="42.83553" lon="0.13748">
        <ele>2237</ele>
        <time>2019-05-05T14:23:53.000Z</time>
      </trkpt>
      <trkpt lat="42.83552" lon="0.1376">
        <ele>2235</ele>
        <time>2019-05-05T14:23:55.000Z</time>
      </trkpt>
      <trkpt lat="42.83554" lon="0.1376">
        <ele>2234.1999511719</ele>
        <time>2019-05-05T14:24:07.000Z</time>
      </trkpt>
      <trkpt lat="42.83554" lon="0.1376">
        <ele>2234.1999511719</ele>
        <time>2019-05-05T14:24:11.000Z</time>
      </trkpt>
      <trkpt lat="42.83554" lon="0.13764">
        <ele>2233.3999023438</ele>
        <time>2019-05-05T14:24:13.000Z</time>
      </trkpt>
      <trkpt lat="42.83553" lon="0.1377">
        <ele>2232.1999511719</ele>
        <time>2019-05-05T14:24:20.000Z</time>
      </trkpt>
      <trkpt lat="42.83552" lon="0.13772">
        <ele>2231.8000488281</ele>
        <time>2019-05-05T14:24:23.000Z</time>
      </trkpt>
      <trkpt lat="42.83534" lon="0.13822">
        <ele>2231.6000976562</ele>
        <time>2019-05-05T14:24:39.000Z</time>
      </trkpt>
      <trkpt lat="42.83532" lon="0.13836">
        <ele>2230.8000488281</ele>
        <time>2019-05-05T14:24:41.000Z</time>
      </trkpt>
      <trkpt lat="42.83536" lon="0.13835">
        <ele>2229.3999023438</ele>
        <time>2019-05-05T14:25:15.000Z</time>
      </trkpt>
      <trkpt lat="42.83538" lon="0.13854">
        <ele>2227</ele>
        <time>2019-05-05T14:25:19.000Z</time>
      </trkpt>
      <trkpt lat="42.83556" lon="0.13872">
        <ele>2219</ele>
        <time>2019-05-05T14:25:22.000Z</time>
      </trkpt>
      <trkpt lat="42.8357" lon="0.13883">
        <ele>2213.1999511719</ele>
        <time>2019-05-05T14:25:24.000Z</time>
      </trkpt>
      <trkpt lat="42.83593" lon="0.13892">
        <ele>2205</ele>
        <time>2019-05-05T14:25:27.000Z</time>
      </trkpt>
      <trkpt lat="42.83603" lon="0.13906">
        <ele>2201.6000976562</ele>
        <time>2019-05-05T14:25:29.000Z</time>
      </trkpt>
      <trkpt lat="42.83612" lon="0.13922">
        <ele>2198.3999023438</ele>
        <time>2019-05-05T14:25:31.000Z</time>
      </trkpt>
      <trkpt lat="42.83619" lon="0.13938">
        <ele>2195.8000488281</ele>
        <time>2019-05-05T14:25:33.000Z</time>
      </trkpt>
      <trkpt lat="42.83629" lon="0.13949">
        <ele>2192.8000488281</ele>
        <time>2019-05-05T14:25:35.000Z</time>
      </trkpt>
      <trkpt lat="42.83641" lon="0.13957">
        <ele>2189.8000488281</ele>
        <time>2019-05-05T14:25:37.000Z</time>
      </trkpt>
      <trkpt lat="42.83651" lon="0.13969">
        <ele>2185.1999511719</ele>
        <time>2019-05-05T14:25:39.000Z</time>
      </trkpt>
      <trkpt lat="42.8366" lon="0.13983">
        <ele>2179.6000976562</ele>
        <time>2019-05-05T14:25:41.000Z</time>
      </trkpt>
      <trkpt lat="42.83667" lon="0.13999">
        <ele>2174</ele>
        <time>2019-05-05T14:25:43.000Z</time>
      </trkpt>
      <trkpt lat="42.83672" lon="0.14013">
        <ele>2169.3999023438</ele>
        <time>2019-05-05T14:25:45.000Z</time>
      </trkpt>
      <trkpt lat="42.83677" lon="0.14026">
        <ele>2164.8000488281</ele>
        <time>2019-05-05T14:25:47.000Z</time>
      </trkpt>
      <trkpt lat="42.83683" lon="0.14035">
        <ele>2161.1999511719</ele>
        <time>2019-05-05T14:25:49.000Z</time>
      </trkpt>
      <trkpt lat="42.83693" lon="0.14035">
        <ele>2159</ele>
        <time>2019-05-05T14:25:51.000Z</time>
      </trkpt>
      <trkpt lat="42.83692" lon="0.14041">
        <ele>2157.8000488281</ele>
        <time>2019-05-05T14:26:00.000Z</time>
      </trkpt>
      <trkpt lat="42.83692" lon="0.14041">
        <ele>2157.8000488281</ele>
        <time>2019-05-05T14:26:26.000Z</time>
      </trkpt>
      <trkpt lat="42.83692" lon="0.14041">
        <ele>2157.8000488281</ele>
        <time>2019-05-05T14:26:58.000Z</time>
      </trkpt>
      <trkpt lat="42.83692" lon="0.14041">
        <ele>2157.8000488281</ele>
        <time>2019-05-05T14:27:04.000Z</time>
      </trkpt>
      <trkpt lat="42.83692" lon="0.14041">
        <ele>2157.8000488281</ele>
        <time>2019-05-05T14:27:11.000Z</time>
      </trkpt>
      <trkpt lat="42.83691" lon="0.1404">
        <ele>2158</ele>
        <time>2019-05-05T14:27:23.000Z</time>
      </trkpt>
      <trkpt lat="42.83691" lon="0.1404">
        <ele>2158</ele>
        <time>2019-05-05T14:27:39.000Z</time>
      </trkpt>
      <trkpt lat="42.83691" lon="0.1404">
        <ele>2158</ele>
        <time>2019-05-05T14:27:43.000Z</time>
      </trkpt>
      <trkpt lat="42.83691" lon="0.1404">
        <ele>2158</ele>
        <time>2019-05-05T14:27:57.000Z</time>
      </trkpt>
      <trkpt lat="42.83691" lon="0.1404">
        <ele>2158</ele>
        <time>2019-05-05T14:28:19.000Z</time>
      </trkpt>
      <trkpt lat="42.83691" lon="0.1404">
        <ele>2158</ele>
        <time>2019-05-05T14:28:50.000Z</time>
      </trkpt>
      <trkpt lat="42.83691" lon="0.1404">
        <ele>2158</ele>
        <time>2019-05-05T14:29:27.000Z</time>
      </trkpt>
      <trkpt lat="42.83691" lon="0.1404">
        <ele>2158</ele>
        <time>2019-05-05T14:29:39.000Z</time>
      </trkpt>
      <trkpt lat="42.83691" lon="0.1404">
        <ele>2158</ele>
        <time>2019-05-05T14:29:51.000Z</time>
      </trkpt>
      <trkpt lat="42.83691" lon="0.1404">
        <ele>2158</ele>
        <time>2019-05-05T14:29:53.000Z</time>
      </trkpt>
      <trkpt lat="42.83691" lon="0.1404">
        <ele>2158</ele>
        <time>2019-05-05T14:29:59.000Z</time>
      </trkpt>
      <trkpt lat="42.83691" lon="0.1404">
        <ele>2158.1999511719</ele>
        <time>2019-05-05T14:30:10.000Z</time>
      </trkpt>
      <trkpt lat="42.83691" lon="0.1404">
        <ele>2158.1999511719</ele>
        <time>2019-05-05T14:30:14.000Z</time>
      </trkpt>
      <trkpt lat="42.83691" lon="0.1404">
        <ele>2158.3999023438</ele>
        <time>2019-05-05T14:30:19.000Z</time>
      </trkpt>
      <trkpt lat="42.8369" lon="0.14037">
        <ele>2159.3999023438</ele>
        <time>2019-05-05T14:31:50.000Z</time>
      </trkpt>
      <trkpt lat="42.8369" lon="0.14036">
        <ele>2159.3999023438</ele>
        <time>2019-05-05T14:31:56.000Z</time>
      </trkpt>
      <trkpt lat="42.83685" lon="0.14042">
        <ele>2159</ele>
        <time>2019-05-05T14:32:48.000Z</time>
      </trkpt>
      <trkpt lat="42.83682" lon="0.14044">
        <ele>2159</ele>
        <time>2019-05-05T14:33:55.000Z</time>
      </trkpt>
      <trkpt lat="42.83682" lon="0.14044">
        <ele>2159</ele>
        <time>2019-05-05T14:33:57.000Z</time>
      </trkpt>
      <trkpt lat="42.83682" lon="0.14044">
        <ele>2159</ele>
        <time>2019-05-05T14:33:58.000Z</time>
      </trkpt>
      <trkpt lat="42.83682" lon="0.14044">
        <ele>2159</ele>
        <time>2019-05-05T14:33:59.000Z</time>
      </trkpt>
      <trkpt lat="42.83681" lon="0.14046">
        <ele>2159</ele>
        <time>2019-05-05T14:34:38.000Z</time>
      </trkpt>
      <trkpt lat="42.83695" lon="0.14056">
        <ele>2155.1999511719</ele>
        <time>2019-05-05T14:34:41.000Z</time>
      </trkpt>
      <trkpt lat="42.83704" lon="0.14068">
        <ele>2152</ele>
        <time>2019-05-05T14:34:43.000Z</time>
      </trkpt>
      <trkpt lat="42.83709" lon="0.14083">
        <ele>2149</ele>
        <time>2019-05-05T14:34:45.000Z</time>
      </trkpt>
      <trkpt lat="42.83709" lon="0.14108">
        <ele>2144.3999023438</ele>
        <time>2019-05-05T14:34:48.000Z</time>
      </trkpt>
      <trkpt lat="42.8371" lon="0.14125">
        <ele>2140.8000488281</ele>
        <time>2019-05-05T14:34:50.000Z</time>
      </trkpt>
      <trkpt lat="42.83713" lon="0.14134">
        <ele>2139.3999023438</ele>
        <time>2019-05-05T14:34:51.000Z</time>
      </trkpt>
      <trkpt lat="42.83715" lon="0.14156">
        <ele>2136.8000488281</ele>
        <time>2019-05-05T14:34:53.000Z</time>
      </trkpt>
      <trkpt lat="42.83713" lon="0.14178">
        <ele>2133.6000976562</ele>
        <time>2019-05-05T14:34:55.000Z</time>
      </trkpt>
      <trkpt lat="42.83713" lon="0.14189">
        <ele>2131.1999511719</ele>
        <time>2019-05-05T14:34:56.000Z</time>
      </trkpt>
      <trkpt lat="42.83713" lon="0.14199">
        <ele>2129.1999511719</ele>
        <time>2019-05-05T14:34:57.000Z</time>
      </trkpt>
      <trkpt lat="42.83716" lon="0.14217">
        <ele>2126.1999511719</ele>
        <time>2019-05-05T14:34:59.000Z</time>
      </trkpt>
      <trkpt lat="42.83714" lon="0.14232">
        <ele>2125.8000488281</ele>
        <time>2019-05-05T14:35:01.000Z</time>
      </trkpt>
      <trkpt lat="42.83715" lon="0.14241">
        <ele>2125.3999023438</ele>
        <time>2019-05-05T14:35:02.000Z</time>
      </trkpt>
      <trkpt lat="42.83715" lon="0.14253">
        <ele>2125</ele>
        <time>2019-05-05T14:35:03.000Z</time>
      </trkpt>
      <trkpt lat="42.83708" lon="0.14268">
        <ele>2121</ele>
        <time>2019-05-05T14:35:05.000Z</time>
      </trkpt>
      <trkpt lat="42.83701" lon="0.14279">
        <ele>2117.6000976562</ele>
        <time>2019-05-05T14:35:07.000Z</time>
      </trkpt>
      <trkpt lat="42.83695" lon="0.1429">
        <ele>2114.1999511719</ele>
        <time>2019-05-05T14:35:09.000Z</time>
      </trkpt>
      <trkpt lat="42.83691" lon="0.14299">
        <ele>2112.6000976562</ele>
        <time>2019-05-05T14:35:10.000Z</time>
      </trkpt>
      <trkpt lat="42.83685" lon="0.14313">
        <ele>2110</ele>
        <time>2019-05-05T14:35:12.000Z</time>
      </trkpt>
      <trkpt lat="42.83675" lon="0.14327">
        <ele>2106.6000976562</ele>
        <time>2019-05-05T14:35:14.000Z</time>
      </trkpt>
      <trkpt lat="42.83666" lon="0.14339">
        <ele>2104.8000488281</ele>
        <time>2019-05-05T14:35:17.000Z</time>
      </trkpt>
      <trkpt lat="42.83664" lon="0.14356">
        <ele>2102.8000488281</ele>
        <time>2019-05-05T14:35:19.000Z</time>
      </trkpt>
      <trkpt lat="42.83662" lon="0.14366">
        <ele>2101.6000976562</ele>
        <time>2019-05-05T14:35:20.000Z</time>
      </trkpt>
      <trkpt lat="42.83658" lon="0.14375">
        <ele>2099.6000976562</ele>
        <time>2019-05-05T14:35:21.000Z</time>
      </trkpt>
      <trkpt lat="42.83654" lon="0.14382">
        <ele>2098.3999023438</ele>
        <time>2019-05-05T14:35:22.000Z</time>
      </trkpt>
      <trkpt lat="42.83633" lon="0.14388">
        <ele>2096.3999023438</ele>
        <time>2019-05-05T14:35:26.000Z</time>
      </trkpt>
      <trkpt lat="42.8363" lon="0.14404">
        <ele>2095</ele>
        <time>2019-05-05T14:35:28.000Z</time>
      </trkpt>
      <trkpt lat="42.83624" lon="0.14416">
        <ele>2093.6000976562</ele>
        <time>2019-05-05T14:35:30.000Z</time>
      </trkpt>
      <trkpt lat="42.83616" lon="0.14432">
        <ele>2091.8000488281</ele>
        <time>2019-05-05T14:35:32.000Z</time>
      </trkpt>
      <trkpt lat="42.83611" lon="0.14448">
        <ele>2090</ele>
        <time>2019-05-05T14:35:34.000Z</time>
      </trkpt>
      <trkpt lat="42.83612" lon="0.14467">
        <ele>2089.3999023438</ele>
        <time>2019-05-05T14:35:36.000Z</time>
      </trkpt>
      <trkpt lat="42.83614" lon="0.14489">
        <ele>2090.8000488281</ele>
        <time>2019-05-05T14:35:39.000Z</time>
      </trkpt>
      <trkpt lat="42.83609" lon="0.14488">
        <ele>2089.8000488281</ele>
        <time>2019-05-05T14:35:42.000Z</time>
      </trkpt>
      <trkpt lat="42.83609" lon="0.14487">
        <ele>2090</ele>
        <time>2019-05-05T14:35:43.000Z</time>
      </trkpt>
      <trkpt lat="42.8361" lon="0.14487">
        <ele>2090.1999511719</ele>
        <time>2019-05-05T14:35:45.000Z</time>
      </trkpt>
      <trkpt lat="42.8361" lon="0.14487">
        <ele>2090.1999511719</ele>
        <time>2019-05-05T14:35:46.000Z</time>
      </trkpt>
      <trkpt lat="42.8361" lon="0.14487">
        <ele>2090.1999511719</ele>
        <time>2019-05-05T14:35:47.000Z</time>
      </trkpt>
      <trkpt lat="42.8361" lon="0.14487">
        <ele>2090.1999511719</ele>
        <time>2019-05-05T14:35:54.000Z</time>
      </trkpt>
      <trkpt lat="42.8361" lon="0.14487">
        <ele>2090.1999511719</ele>
        <time>2019-05-05T14:36:10.000Z</time>
      </trkpt>
      <trkpt lat="42.8361" lon="0.14487">
        <ele>2090.1999511719</ele>
        <time>2019-05-05T14:36:26.000Z</time>
      </trkpt>
      <trkpt lat="42.8361" lon="0.14487">
        <ele>2090.1999511719</ele>
        <time>2019-05-05T14:36:28.000Z</time>
      </trkpt>
      <trkpt lat="42.8361" lon="0.14487">
        <ele>2090.1999511719</ele>
        <time>2019-05-05T14:36:40.000Z</time>
      </trkpt>
      <trkpt lat="42.8361" lon="0.14487">
        <ele>2090.1999511719</ele>
        <time>2019-05-05T14:36:44.000Z</time>
      </trkpt>
      <trkpt lat="42.8361" lon="0.14487">
        <ele>2090.1999511719</ele>
        <time>2019-05-05T14:37:07.000Z</time>
      </trkpt>
      <trkpt lat="42.8361" lon="0.14487">
        <ele>2090.1999511719</ele>
        <time>2019-05-05T14:37:15.000Z</time>
      </trkpt>
      <trkpt lat="42.8361" lon="0.14487">
        <ele>2090.1999511719</ele>
        <time>2019-05-05T14:37:25.000Z</time>
      </trkpt>
      <trkpt lat="42.8361" lon="0.14487">
        <ele>2090.1999511719</ele>
        <time>2019-05-05T14:37:30.000Z</time>
      </trkpt>
      <trkpt lat="42.83611" lon="0.14486">
        <ele>2090.1999511719</ele>
        <time>2019-05-05T14:37:35.000Z</time>
      </trkpt>
      <trkpt lat="42.83611" lon="0.14486">
        <ele>2090.1999511719</ele>
        <time>2019-05-05T14:37:39.000Z</time>
      </trkpt>
      <trkpt lat="42.83611" lon="0.14486">
        <ele>2090.1999511719</ele>
        <time>2019-05-05T14:37:48.000Z</time>
      </trkpt>
      <trkpt lat="42.83611" lon="0.14486">
        <ele>2090.1999511719</ele>
        <time>2019-05-05T14:37:49.000Z</time>
      </trkpt>
      <trkpt lat="42.83611" lon="0.14486">
        <ele>2090.1999511719</ele>
        <time>2019-05-05T14:37:51.000Z</time>
      </trkpt>
      <trkpt lat="42.83611" lon="0.14486">
        <ele>2090.1999511719</ele>
        <time>2019-05-05T14:37:53.000Z</time>
      </trkpt>
      <trkpt lat="42.83611" lon="0.14486">
        <ele>2090.1999511719</ele>
        <time>2019-05-05T14:37:55.000Z</time>
      </trkpt>
      <trkpt lat="42.83611" lon="0.14486">
        <ele>2090.1999511719</ele>
        <time>2019-05-05T14:37:56.000Z</time>
      </trkpt>
      <trkpt lat="42.83611" lon="0.14486">
        <ele>2090.1999511719</ele>
        <time>2019-05-05T14:38:05.000Z</time>
      </trkpt>
      <trkpt lat="42.83611" lon="0.14486">
        <ele>2090.1999511719</ele>
        <time>2019-05-05T14:38:07.000Z</time>
      </trkpt>
      <trkpt lat="42.83611" lon="0.14486">
        <ele>2090.1999511719</ele>
        <time>2019-05-05T14:38:09.000Z</time>
      </trkpt>
      <trkpt lat="42.83611" lon="0.14486">
        <ele>2090.1999511719</ele>
        <time>2019-05-05T14:38:30.000Z</time>
      </trkpt>
      <trkpt lat="42.83611" lon="0.14486">
        <ele>2090.3999023438</ele>
        <time>2019-05-05T14:38:45.000Z</time>
      </trkpt>
      <trkpt lat="42.83611" lon="0.14486">
        <ele>2090.3999023438</ele>
        <time>2019-05-05T14:39:19.000Z</time>
      </trkpt>
      <trkpt lat="42.83611" lon="0.14485">
        <ele>2090.3999023438</ele>
        <time>2019-05-05T14:39:59.000Z</time>
      </trkpt>
      <trkpt lat="42.8361" lon="0.14487">
        <ele>2090.1999511719</ele>
        <time>2019-05-05T14:40:09.000Z</time>
      </trkpt>
      <trkpt lat="42.83609" lon="0.14488">
        <ele>2090</ele>
        <time>2019-05-05T14:40:29.000Z</time>
      </trkpt>
      <trkpt lat="42.83609" lon="0.14487">
        <ele>2090</ele>
        <time>2019-05-05T14:40:37.000Z</time>
      </trkpt>
      <trkpt lat="42.8361" lon="0.14487">
        <ele>2090</ele>
        <time>2019-05-05T14:40:40.000Z</time>
      </trkpt>
      <trkpt lat="42.8361" lon="0.14487">
        <ele>2090</ele>
        <time>2019-05-05T14:40:43.000Z</time>
      </trkpt>
      <trkpt lat="42.8361" lon="0.14487">
        <ele>2090</ele>
        <time>2019-05-05T14:40:44.000Z</time>
      </trkpt>
      <trkpt lat="42.83609" lon="0.14488">
        <ele>2090</ele>
        <time>2019-05-05T14:40:46.000Z</time>
      </trkpt>
      <trkpt lat="42.8361" lon="0.14488">
        <ele>2090</ele>
        <time>2019-05-05T14:40:51.000Z</time>
      </trkpt>
      <trkpt lat="42.83609" lon="0.14489">
        <ele>2089.8000488281</ele>
        <time>2019-05-05T14:40:54.000Z</time>
      </trkpt>
      <trkpt lat="42.83609" lon="0.14488">
        <ele>2090</ele>
        <time>2019-05-05T14:40:55.000Z</time>
      </trkpt>
      <trkpt lat="42.83609" lon="0.14488">
        <ele>2090</ele>
        <time>2019-05-05T14:41:03.000Z</time>
      </trkpt>
      <trkpt lat="42.83609" lon="0.14488">
        <ele>2090</ele>
        <time>2019-05-05T14:41:07.000Z</time>
      </trkpt>
      <trkpt lat="42.83609" lon="0.14487">
        <ele>2090</ele>
        <time>2019-05-05T14:41:10.000Z</time>
      </trkpt>
      <trkpt lat="42.83611" lon="0.14489">
        <ele>2090.3999023438</ele>
        <time>2019-05-05T14:41:12.000Z</time>
      </trkpt>
      <trkpt lat="42.83612" lon="0.14494">
        <ele>2090.3999023438</ele>
        <time>2019-05-05T14:41:14.000Z</time>
      </trkpt>
      <trkpt lat="42.8362" lon="0.14531">
        <ele>2091</ele>
        <time>2019-05-05T14:41:25.000Z</time>
      </trkpt>
      <trkpt lat="42.83629" lon="0.14546">
        <ele>2092.8000488281</ele>
        <time>2019-05-05T14:41:31.000Z</time>
      </trkpt>
      <trkpt lat="42.83631" lon="0.1455">
        <ele>2094</ele>
        <time>2019-05-05T14:41:32.000Z</time>
      </trkpt>
      <trkpt lat="42.83633" lon="0.14553">
        <ele>2095.3999023438</ele>
        <time>2019-05-05T14:41:33.000Z</time>
      </trkpt>
      <trkpt lat="42.83634" lon="0.14556">
        <ele>2096.3999023438</ele>
        <time>2019-05-05T14:41:34.000Z</time>
      </trkpt>
      <trkpt lat="42.83635" lon="0.14558">
        <ele>2097.1999511719</ele>
        <time>2019-05-05T14:41:35.000Z</time>
      </trkpt>
      <trkpt lat="42.83636" lon="0.14577">
        <ele>2102.3999023438</ele>
        <time>2019-05-05T14:41:42.000Z</time>
      </trkpt>
      <trkpt lat="42.83638" lon="0.14588">
        <ele>2106</ele>
        <time>2019-05-05T14:42:16.000Z</time>
      </trkpt>
      <trkpt lat="42.83638" lon="0.14588">
        <ele>2106</ele>
        <time>2019-05-05T14:42:19.000Z</time>
      </trkpt>
      <trkpt lat="42.83638" lon="0.14588">
        <ele>2106</ele>
        <time>2019-05-05T14:42:23.000Z</time>
      </trkpt>
      <trkpt lat="42.83638" lon="0.14588">
        <ele>2106</ele>
        <time>2019-05-05T14:42:28.000Z</time>
      </trkpt>
      <trkpt lat="42.83638" lon="0.14588">
        <ele>2106</ele>
        <time>2019-05-05T14:42:36.000Z</time>
      </trkpt>
      <trkpt lat="42.83638" lon="0.14588">
        <ele>2106</ele>
        <time>2019-05-05T14:42:40.000Z</time>
      </trkpt>
      <trkpt lat="42.83638" lon="0.14588">
        <ele>2106</ele>
        <time>2019-05-05T14:42:45.000Z</time>
      </trkpt>
      <trkpt lat="42.83637" lon="0.14588">
        <ele>2105.8000488281</ele>
        <time>2019-05-05T14:42:52.000Z</time>
      </trkpt>
      <trkpt lat="42.83637" lon="0.14588">
        <ele>2105.8000488281</ele>
        <time>2019-05-05T14:42:55.000Z</time>
      </trkpt>
      <trkpt lat="42.83637" lon="0.14588">
        <ele>2105.8000488281</ele>
        <time>2019-05-05T14:43:14.000Z</time>
      </trkpt>
      <trkpt lat="42.83637" lon="0.14588">
        <ele>2105.8000488281</ele>
        <time>2019-05-05T14:43:21.000Z</time>
      </trkpt>
      <trkpt lat="42.83637" lon="0.14588">
        <ele>2105.8000488281</ele>
        <time>2019-05-05T14:43:24.000Z</time>
      </trkpt>
      <trkpt lat="42.83637" lon="0.14588">
        <ele>2105.8000488281</ele>
        <time>2019-05-05T14:43:26.000Z</time>
      </trkpt>
      <trkpt lat="42.83637" lon="0.14588">
        <ele>2105.8000488281</ele>
        <time>2019-05-05T14:43:27.000Z</time>
      </trkpt>
      <trkpt lat="42.83637" lon="0.14588">
        <ele>2105.8000488281</ele>
        <time>2019-05-05T14:43:29.000Z</time>
      </trkpt>
      <trkpt lat="42.83637" lon="0.14588">
        <ele>2105.8000488281</ele>
        <time>2019-05-05T14:43:30.000Z</time>
      </trkpt>
      <trkpt lat="42.83637" lon="0.14588">
        <ele>2105.8000488281</ele>
        <time>2019-05-05T14:43:31.000Z</time>
      </trkpt>
      <trkpt lat="42.83637" lon="0.14588">
        <ele>2105.8000488281</ele>
        <time>2019-05-05T14:43:38.000Z</time>
      </trkpt>
      <trkpt lat="42.83637" lon="0.14588">
        <ele>2105.8000488281</ele>
        <time>2019-05-05T14:43:40.000Z</time>
      </trkpt>
      <trkpt lat="42.83637" lon="0.14588">
        <ele>2105.8000488281</ele>
        <time>2019-05-05T14:43:41.000Z</time>
      </trkpt>
      <trkpt lat="42.83637" lon="0.14588">
        <ele>2105.8000488281</ele>
        <time>2019-05-05T14:43:44.000Z</time>
      </trkpt>
      <trkpt lat="42.83637" lon="0.14588">
        <ele>2105.8000488281</ele>
        <time>2019-05-05T14:43:46.000Z</time>
      </trkpt>
      <trkpt lat="42.83637" lon="0.14588">
        <ele>2105.8000488281</ele>
        <time>2019-05-05T14:43:47.000Z</time>
      </trkpt>
      <trkpt lat="42.83637" lon="0.14588">
        <ele>2105.8000488281</ele>
        <time>2019-05-05T14:43:53.000Z</time>
      </trkpt>
      <trkpt lat="42.83637" lon="0.14588">
        <ele>2105.8000488281</ele>
        <time>2019-05-05T14:43:58.000Z</time>
      </trkpt>
      <trkpt lat="42.83637" lon="0.14588">
        <ele>2105.8000488281</ele>
        <time>2019-05-05T14:44:02.000Z</time>
      </trkpt>
      <trkpt lat="42.83637" lon="0.14588">
        <ele>2105.8000488281</ele>
        <time>2019-05-05T14:44:03.000Z</time>
      </trkpt>
      <trkpt lat="42.83637" lon="0.14588">
        <ele>2105.8000488281</ele>
        <time>2019-05-05T14:44:09.000Z</time>
      </trkpt>
      <trkpt lat="42.83637" lon="0.14588">
        <ele>2105.8000488281</ele>
        <time>2019-05-05T14:44:13.000Z</time>
      </trkpt>
      <trkpt lat="42.83637" lon="0.14588">
        <ele>2105.8000488281</ele>
        <time>2019-05-05T14:44:14.000Z</time>
      </trkpt>
      <trkpt lat="42.83637" lon="0.14588">
        <ele>2105.8000488281</ele>
        <time>2019-05-05T14:44:17.000Z</time>
      </trkpt>
      <trkpt lat="42.83637" lon="0.14588">
        <ele>2105.8000488281</ele>
        <time>2019-05-05T14:45:39.000Z</time>
      </trkpt>
      <trkpt lat="42.83637" lon="0.14588">
        <ele>2105.8000488281</ele>
        <time>2019-05-05T14:45:43.000Z</time>
      </trkpt>
      <trkpt lat="42.83618" lon="0.14538">
        <ele>2090.3999023438</ele>
        <time>2019-05-05T14:46:49.000Z</time>
      </trkpt>
      <trkpt lat="42.83618" lon="0.14532">
        <ele>2090.3999023438</ele>
        <time>2019-05-05T14:46:54.000Z</time>
      </trkpt>
      <trkpt lat="42.83618" lon="0.14536">
        <ele>2090.3999023438</ele>
        <time>2019-05-05T14:46:56.000Z</time>
      </trkpt>
      <trkpt lat="42.83619" lon="0.14541">
        <ele>2090.3999023438</ele>
        <time>2019-05-05T14:46:58.000Z</time>
      </trkpt>
      <trkpt lat="42.83621" lon="0.14544">
        <ele>2090.8000488281</ele>
        <time>2019-05-05T14:47:05.000Z</time>
      </trkpt>
      <trkpt lat="42.83621" lon="0.14544">
        <ele>2090.8000488281</ele>
        <time>2019-05-05T14:47:08.000Z</time>
      </trkpt>
      <trkpt lat="42.83621" lon="0.14545">
        <ele>2090.8000488281</ele>
        <time>2019-05-05T14:47:10.000Z</time>
      </trkpt>
      <trkpt lat="42.83621" lon="0.14545">
        <ele>2090.8000488281</ele>
        <time>2019-05-05T14:47:13.000Z</time>
      </trkpt>
      <trkpt lat="42.83621" lon="0.14545">
        <ele>2091</ele>
        <time>2019-05-05T14:47:17.000Z</time>
      </trkpt>
      <trkpt lat="42.83621" lon="0.14545">
        <ele>2091</ele>
        <time>2019-05-05T14:47:20.000Z</time>
      </trkpt>
      <trkpt lat="42.83621" lon="0.14545">
        <ele>2091</ele>
        <time>2019-05-05T14:47:22.000Z</time>
      </trkpt>
      <trkpt lat="42.8362" lon="0.14545">
        <ele>2090.8000488281</ele>
        <time>2019-05-05T14:47:23.000Z</time>
      </trkpt>
      <trkpt lat="42.8362" lon="0.14545">
        <ele>2091</ele>
        <time>2019-05-05T14:47:24.000Z</time>
      </trkpt>
      <trkpt lat="42.8362" lon="0.14545">
        <ele>2091</ele>
        <time>2019-05-05T14:47:25.000Z</time>
      </trkpt>
      <trkpt lat="42.83621" lon="0.1455">
        <ele>2092.3999023438</ele>
        <time>2019-05-05T14:47:35.000Z</time>
      </trkpt>
      <trkpt lat="42.83625" lon="0.14572">
        <ele>2099.1999511719</ele>
        <time>2019-05-05T14:47:55.000Z</time>
      </trkpt>
      <trkpt lat="42.83625" lon="0.14572">
        <ele>2099.1999511719</ele>
        <time>2019-05-05T14:47:56.000Z</time>
      </trkpt>
      <trkpt lat="42.83624" lon="0.14576">
        <ele>2100</ele>
        <time>2019-05-05T14:47:58.000Z</time>
      </trkpt>
      <trkpt lat="42.83624" lon="0.14576">
        <ele>2100</ele>
        <time>2019-05-05T14:47:59.000Z</time>
      </trkpt>
      <trkpt lat="42.83625" lon="0.14575">
        <ele>2099.8000488281</ele>
        <time>2019-05-05T14:48:00.000Z</time>
      </trkpt>
      <trkpt lat="42.83623" lon="0.14576">
        <ele>2099.8000488281</ele>
        <time>2019-05-05T14:48:02.000Z</time>
      </trkpt>
      <trkpt lat="42.83622" lon="0.14576">
        <ele>2099.6000976562</ele>
        <time>2019-05-05T14:48:03.000Z</time>
      </trkpt>
      <trkpt lat="42.8362" lon="0.14574">
        <ele>2098.8000488281</ele>
        <time>2019-05-05T14:48:19.000Z</time>
      </trkpt>
      <trkpt lat="42.83623" lon="0.1457">
        <ele>2098.1999511719</ele>
        <time>2019-05-05T14:48:28.000Z</time>
      </trkpt>
      <trkpt lat="42.83623" lon="0.1457">
        <ele>2098.1999511719</ele>
        <time>2019-05-05T14:48:29.000Z</time>
      </trkpt>
      <trkpt lat="42.83623" lon="0.14569">
        <ele>2098.1999511719</ele>
        <time>2019-05-05T14:48:30.000Z</time>
      </trkpt>
      <trkpt lat="42.83623" lon="0.14569">
        <ele>2098.1999511719</ele>
        <time>2019-05-05T14:48:31.000Z</time>
      </trkpt>
      <trkpt lat="42.83623" lon="0.14571">
        <ele>2098.3999023438</ele>
        <time>2019-05-05T14:48:40.000Z</time>
      </trkpt>
      <trkpt lat="42.83623" lon="0.14571">
        <ele>2098.3999023438</ele>
        <time>2019-05-05T14:48:41.000Z</time>
      </trkpt>
      <trkpt lat="42.83623" lon="0.14571">
        <ele>2098.3999023438</ele>
        <time>2019-05-05T14:48:42.000Z</time>
      </trkpt>
      <trkpt lat="42.83623" lon="0.14572">
        <ele>2098.8000488281</ele>
        <time>2019-05-05T14:48:45.000Z</time>
      </trkpt>
      <trkpt lat="42.83624" lon="0.14571">
        <ele>2098.8000488281</ele>
        <time>2019-05-05T14:48:47.000Z</time>
      </trkpt>
      <trkpt lat="42.83623" lon="0.14574">
        <ele>2099.3999023438</ele>
        <time>2019-05-05T14:48:52.000Z</time>
      </trkpt>
      <trkpt lat="42.83623" lon="0.14575">
        <ele>2099.8000488281</ele>
        <time>2019-05-05T14:48:54.000Z</time>
      </trkpt>
      <trkpt lat="42.83619" lon="0.14578">
        <ele>2099.1999511719</ele>
        <time>2019-05-05T14:48:59.000Z</time>
      </trkpt>
      <trkpt lat="42.83612" lon="0.14594">
        <ele>2099</ele>
        <time>2019-05-05T14:49:13.000Z</time>
      </trkpt>
      <trkpt lat="42.83609" lon="0.14598">
        <ele>2098.8000488281</ele>
        <time>2019-05-05T14:49:15.000Z</time>
      </trkpt>
      <trkpt lat="42.83606" lon="0.14603">
        <ele>2098.3999023438</ele>
        <time>2019-05-05T14:49:19.000Z</time>
      </trkpt>
      <trkpt lat="42.83606" lon="0.14608">
        <ele>2098.8000488281</ele>
        <time>2019-05-05T14:49:30.000Z</time>
      </trkpt>
      <trkpt lat="42.83606" lon="0.14608">
        <ele>2098.8000488281</ele>
        <time>2019-05-05T14:49:31.000Z</time>
      </trkpt>
      <trkpt lat="42.83606" lon="0.14608">
        <ele>2098.8000488281</ele>
        <time>2019-05-05T14:49:32.000Z</time>
      </trkpt>
      <trkpt lat="42.83606" lon="0.14608">
        <ele>2098.8000488281</ele>
        <time>2019-05-05T14:49:33.000Z</time>
      </trkpt>
      <trkpt lat="42.83606" lon="0.14608">
        <ele>2098.8000488281</ele>
        <time>2019-05-05T14:49:34.000Z</time>
      </trkpt>
      <trkpt lat="42.83606" lon="0.14608">
        <ele>2099</ele>
        <time>2019-05-05T14:49:35.000Z</time>
      </trkpt>
      <trkpt lat="42.83606" lon="0.14609">
        <ele>2099</ele>
        <time>2019-05-05T14:49:36.000Z</time>
      </trkpt>
      <trkpt lat="42.83605" lon="0.1461">
        <ele>2099</ele>
        <time>2019-05-05T14:49:37.000Z</time>
      </trkpt>
      <trkpt lat="42.83605" lon="0.1461">
        <ele>2098.8000488281</ele>
        <time>2019-05-05T14:49:38.000Z</time>
      </trkpt>
      <trkpt lat="42.83604" lon="0.14612">
        <ele>2099</ele>
        <time>2019-05-05T14:49:40.000Z</time>
      </trkpt>
      <trkpt lat="42.83604" lon="0.14613">
        <ele>2098.8000488281</ele>
        <time>2019-05-05T14:49:41.000Z</time>
      </trkpt>
      <trkpt lat="42.83603" lon="0.14613">
        <ele>2098.8000488281</ele>
        <time>2019-05-05T14:49:42.000Z</time>
      </trkpt>
      <trkpt lat="42.83603" lon="0.14613">
        <ele>2098.6000976562</ele>
        <time>2019-05-05T14:49:43.000Z</time>
      </trkpt>
      <trkpt lat="42.836" lon="0.14612">
        <ele>2097.6000976562</ele>
        <time>2019-05-05T14:49:47.000Z</time>
      </trkpt>
      <trkpt lat="42.83599" lon="0.14611">
        <ele>2097.1999511719</ele>
        <time>2019-05-05T14:49:49.000Z</time>
      </trkpt>
      <trkpt lat="42.83597" lon="0.14613">
        <ele>2096.6000976562</ele>
        <time>2019-05-05T14:49:52.000Z</time>
      </trkpt>
      <trkpt lat="42.83595" lon="0.14612">
        <ele>2095.8000488281</ele>
        <time>2019-05-05T14:49:54.000Z</time>
      </trkpt>
      <trkpt lat="42.83593" lon="0.14613">
        <ele>2095.3999023438</ele>
        <time>2019-05-05T14:49:55.000Z</time>
      </trkpt>
      <trkpt lat="42.83592" lon="0.14614">
        <ele>2095.1999511719</ele>
        <time>2019-05-05T14:49:56.000Z</time>
      </trkpt>
      <trkpt lat="42.83591" lon="0.14615">
        <ele>2094.8000488281</ele>
        <time>2019-05-05T14:49:57.000Z</time>
      </trkpt>
      <trkpt lat="42.8359" lon="0.14616">
        <ele>2094.8000488281</ele>
        <time>2019-05-05T14:49:58.000Z</time>
      </trkpt>
      <trkpt lat="42.83591" lon="0.14618">
        <ele>2095.3999023438</ele>
        <time>2019-05-05T14:50:00.000Z</time>
      </trkpt>
      <trkpt lat="42.83587" lon="0.14624">
        <ele>2095.3999023438</ele>
        <time>2019-05-05T14:50:06.000Z</time>
      </trkpt>
      <trkpt lat="42.83586" lon="0.14624">
        <ele>2095.3999023438</ele>
        <time>2019-05-05T14:50:07.000Z</time>
      </trkpt>
      <trkpt lat="42.83585" lon="0.14628">
        <ele>2095.1999511719</ele>
        <time>2019-05-05T14:50:08.000Z</time>
      </trkpt>
      <trkpt lat="42.83582" lon="0.14634">
        <ele>2096</ele>
        <time>2019-05-05T14:50:12.000Z</time>
      </trkpt>
      <trkpt lat="42.83575" lon="0.14641">
        <ele>2096</ele>
        <time>2019-05-05T14:50:20.000Z</time>
      </trkpt>
      <trkpt lat="42.83573" lon="0.1465">
        <ele>2097.6000976562</ele>
        <time>2019-05-05T14:50:28.000Z</time>
      </trkpt>
      <trkpt lat="42.83572" lon="0.1466">
        <ele>2099.8000488281</ele>
        <time>2019-05-05T14:50:36.000Z</time>
      </trkpt>
      <trkpt lat="42.83572" lon="0.14664">
        <ele>2100.3999023438</ele>
        <time>2019-05-05T14:50:37.000Z</time>
      </trkpt>
      <trkpt lat="42.83569" lon="0.14668">
        <ele>2100.6000976562</ele>
        <time>2019-05-05T14:50:40.000Z</time>
      </trkpt>
      <trkpt lat="42.83561" lon="0.14672">
        <ele>2100</ele>
        <time>2019-05-05T14:50:49.000Z</time>
      </trkpt>
      <trkpt lat="42.83557" lon="0.14681">
        <ele>2100.8000488281</ele>
        <time>2019-05-05T14:50:54.000Z</time>
      </trkpt>
      <trkpt lat="42.83553" lon="0.14681">
        <ele>2099.3999023438</ele>
        <time>2019-05-05T14:51:00.000Z</time>
      </trkpt>
      <trkpt lat="42.8355" lon="0.14699">
        <ele>2099.8000488281</ele>
        <time>2019-05-05T14:51:11.000Z</time>
      </trkpt>
      <trkpt lat="42.8355" lon="0.147">
        <ele>2100</ele>
        <time>2019-05-05T14:51:12.000Z</time>
      </trkpt>
      <trkpt lat="42.8355" lon="0.14699">
        <ele>2099.8000488281</ele>
        <time>2019-05-05T14:51:13.000Z</time>
      </trkpt>
      <trkpt lat="42.83549" lon="0.14698">
        <ele>2099.6000976562</ele>
        <time>2019-05-05T14:51:14.000Z</time>
      </trkpt>
      <trkpt lat="42.83549" lon="0.14698">
        <ele>2099.3999023438</ele>
        <time>2019-05-05T14:51:15.000Z</time>
      </trkpt>
      <trkpt lat="42.83548" lon="0.14697">
        <ele>2099.1999511719</ele>
        <time>2019-05-05T14:51:16.000Z</time>
      </trkpt>
      <trkpt lat="42.83548" lon="0.14696">
        <ele>2099</ele>
        <time>2019-05-05T14:51:17.000Z</time>
      </trkpt>
      <trkpt lat="42.83548" lon="0.14695">
        <ele>2099</ele>
        <time>2019-05-05T14:51:18.000Z</time>
      </trkpt>
      <trkpt lat="42.83547" lon="0.14694">
        <ele>2098.3999023438</ele>
        <time>2019-05-05T14:51:21.000Z</time>
      </trkpt>
      <trkpt lat="42.83546" lon="0.14699">
        <ele>2098.6000976562</ele>
        <time>2019-05-05T14:51:23.000Z</time>
      </trkpt>
      <trkpt lat="42.83545" lon="0.14702">
        <ele>2098.3999023438</ele>
        <time>2019-05-05T14:51:26.000Z</time>
      </trkpt>
      <trkpt lat="42.83543" lon="0.14702">
        <ele>2097.8000488281</ele>
        <time>2019-05-05T14:51:29.000Z</time>
      </trkpt>
      <trkpt lat="42.83541" lon="0.14702">
        <ele>2097.1999511719</ele>
        <time>2019-05-05T14:51:31.000Z</time>
      </trkpt>
      <trkpt lat="42.83538" lon="0.14703">
        <ele>2096.1999511719</ele>
        <time>2019-05-05T14:51:38.000Z</time>
      </trkpt>
      <trkpt lat="42.83536" lon="0.14704">
        <ele>2095.6000976562</ele>
        <time>2019-05-05T14:51:44.000Z</time>
      </trkpt>
      <trkpt lat="42.83535" lon="0.14704">
        <ele>2095.1999511719</ele>
        <time>2019-05-05T14:51:45.000Z</time>
      </trkpt>
      <trkpt lat="42.83534" lon="0.14704">
        <ele>2095</ele>
        <time>2019-05-05T14:51:46.000Z</time>
      </trkpt>
      <trkpt lat="42.83534" lon="0.14704">
        <ele>2095</ele>
        <time>2019-05-05T14:51:47.000Z</time>
      </trkpt>
      <trkpt lat="42.83534" lon="0.14704">
        <ele>2095</ele>
        <time>2019-05-05T14:51:48.000Z</time>
      </trkpt>
      <trkpt lat="42.83533" lon="0.14705">
        <ele>2094.8000488281</ele>
        <time>2019-05-05T14:51:50.000Z</time>
      </trkpt>
      <trkpt lat="42.83531" lon="0.14707">
        <ele>2094.3999023438</ele>
        <time>2019-05-05T14:51:53.000Z</time>
      </trkpt>
      <trkpt lat="42.8353" lon="0.14711">
        <ele>2094.1999511719</ele>
        <time>2019-05-05T14:51:55.000Z</time>
      </trkpt>
      <trkpt lat="42.83528" lon="0.14713">
        <ele>2094.1999511719</ele>
        <time>2019-05-05T14:51:57.000Z</time>
      </trkpt>
      <trkpt lat="42.83528" lon="0.14714">
        <ele>2094.3999023438</ele>
        <time>2019-05-05T14:51:58.000Z</time>
      </trkpt>
      <trkpt lat="42.83524" lon="0.14721">
        <ele>2094.8000488281</ele>
        <time>2019-05-05T14:52:12.000Z</time>
      </trkpt>
      <trkpt lat="42.83523" lon="0.1472">
        <ele>2094.3999023438</ele>
        <time>2019-05-05T14:52:17.000Z</time>
      </trkpt>
      <trkpt lat="42.83524" lon="0.1474">
        <ele>2099.3999023438</ele>
        <time>2019-05-05T14:52:23.000Z</time>
      </trkpt>
      <trkpt lat="42.83511" lon="0.1476">
        <ele>2097.8000488281</ele>
        <time>2019-05-05T14:53:01.000Z</time>
      </trkpt>
      <trkpt lat="42.83493" lon="0.14781">
        <ele>2099.1999511719</ele>
        <time>2019-05-05T14:53:34.000Z</time>
      </trkpt>
      <trkpt lat="42.83489" lon="0.14784">
        <ele>2098.8000488281</ele>
        <time>2019-05-05T14:53:38.000Z</time>
      </trkpt>
      <trkpt lat="42.8348" lon="0.14792">
        <ele>2097.1999511719</ele>
        <time>2019-05-05T14:53:47.000Z</time>
      </trkpt>
      <trkpt lat="42.83461" lon="0.14802">
        <ele>2096.3999023438</ele>
        <time>2019-05-05T14:54:10.000Z</time>
      </trkpt>
      <trkpt lat="42.83457" lon="0.14804">
        <ele>2096.3999023438</ele>
        <time>2019-05-05T14:54:19.000Z</time>
      </trkpt>
      <trkpt lat="42.83452" lon="0.1482">
        <ele>2100.3999023438</ele>
        <time>2019-05-05T14:54:35.000Z</time>
      </trkpt>
      <trkpt lat="42.83449" lon="0.14824">
        <ele>2100.8000488281</ele>
        <time>2019-05-05T14:54:38.000Z</time>
      </trkpt>
      <trkpt lat="42.83447" lon="0.14828">
        <ele>2101</ele>
        <time>2019-05-05T14:54:41.000Z</time>
      </trkpt>
      <trkpt lat="42.83442" lon="0.14833">
        <ele>2100.3999023438</ele>
        <time>2019-05-05T14:54:46.000Z</time>
      </trkpt>
      <trkpt lat="42.83434" lon="0.14836">
        <ele>2098.6000976562</ele>
        <time>2019-05-05T14:54:58.000Z</time>
      </trkpt>
      <trkpt lat="42.83431" lon="0.14836">
        <ele>2097.8000488281</ele>
        <time>2019-05-05T14:55:07.000Z</time>
      </trkpt>
      <trkpt lat="42.83429" lon="0.14838">
        <ele>2097.3999023438</ele>
        <time>2019-05-05T14:55:10.000Z</time>
      </trkpt>
      <trkpt lat="42.83426" lon="0.14841">
        <ele>2097.1999511719</ele>
        <time>2019-05-05T14:55:16.000Z</time>
      </trkpt>
      <trkpt lat="42.83423" lon="0.14842">
        <ele>2096.3999023438</ele>
        <time>2019-05-05T14:55:19.000Z</time>
      </trkpt>
      <trkpt lat="42.83421" lon="0.14845">
        <ele>2096.8000488281</ele>
        <time>2019-05-05T14:55:22.000Z</time>
      </trkpt>
      <trkpt lat="42.8342" lon="0.14845">
        <ele>2097</ele>
        <time>2019-05-05T14:55:23.000Z</time>
      </trkpt>
      <trkpt lat="42.83413" lon="0.1485">
        <ele>2098.1999511719</ele>
        <time>2019-05-05T14:55:32.000Z</time>
      </trkpt>
      <trkpt lat="42.83395" lon="0.14877">
        <ele>2097.6000976562</ele>
        <time>2019-05-05T14:55:55.000Z</time>
      </trkpt>
      <trkpt lat="42.83384" lon="0.14885">
        <ele>2096.3999023438</ele>
        <time>2019-05-05T14:56:08.000Z</time>
      </trkpt>
      <trkpt lat="42.83365" lon="0.14904">
        <ele>2095.8000488281</ele>
        <time>2019-05-05T14:56:43.000Z</time>
      </trkpt>
      <trkpt lat="42.83351" lon="0.14935">
        <ele>2094.8000488281</ele>
        <time>2019-05-05T14:57:51.000Z</time>
      </trkpt>
      <trkpt lat="42.83345" lon="0.14947">
        <ele>2094.3999023438</ele>
        <time>2019-05-05T14:58:04.000Z</time>
      </trkpt>
      <trkpt lat="42.83339" lon="0.14959">
        <ele>2093.8000488281</ele>
        <time>2019-05-05T14:58:16.000Z</time>
      </trkpt>
      <trkpt lat="42.83331" lon="0.14984">
        <ele>2095.3999023438</ele>
        <time>2019-05-05T14:58:35.000Z</time>
      </trkpt>
      <trkpt lat="42.83318" lon="0.14998">
        <ele>2096</ele>
        <time>2019-05-05T14:58:52.000Z</time>
      </trkpt>
      <trkpt lat="42.83316" lon="0.15003">
        <ele>2096.1999511719</ele>
        <time>2019-05-05T14:58:55.000Z</time>
      </trkpt>
      <trkpt lat="42.83316" lon="0.15005">
        <ele>2096.3999023438</ele>
        <time>2019-05-05T14:58:57.000Z</time>
      </trkpt>
      <trkpt lat="42.83314" lon="0.1501">
        <ele>2096.6000976562</ele>
        <time>2019-05-05T14:59:03.000Z</time>
      </trkpt>
      <trkpt lat="42.83313" lon="0.15011">
        <ele>2096.6000976562</ele>
        <time>2019-05-05T14:59:04.000Z</time>
      </trkpt>
      <trkpt lat="42.83313" lon="0.15014">
        <ele>2097</ele>
        <time>2019-05-05T14:59:07.000Z</time>
      </trkpt>
      <trkpt lat="42.83314" lon="0.15015">
        <ele>2097</ele>
        <time>2019-05-05T14:59:08.000Z</time>
      </trkpt>
      <trkpt lat="42.83313" lon="0.15017">
        <ele>2097.1999511719</ele>
        <time>2019-05-05T14:59:09.000Z</time>
      </trkpt>
      <trkpt lat="42.83312" lon="0.15024">
        <ele>2096.8000488281</ele>
        <time>2019-05-05T14:59:14.000Z</time>
      </trkpt>
      <trkpt lat="42.83312" lon="0.15025">
        <ele>2096.8000488281</ele>
        <time>2019-05-05T14:59:15.000Z</time>
      </trkpt>
      <trkpt lat="42.83311" lon="0.15029">
        <ele>2096.6000976562</ele>
        <time>2019-05-05T14:59:18.000Z</time>
      </trkpt>
      <trkpt lat="42.8331" lon="0.15038">
        <ele>2096</ele>
        <time>2019-05-05T14:59:26.000Z</time>
      </trkpt>
      <trkpt lat="42.83308" lon="0.15046">
        <ele>2095.3999023438</ele>
        <time>2019-05-05T14:59:32.000Z</time>
      </trkpt>
      <trkpt lat="42.83302" lon="0.15071">
        <ele>2092.8000488281</ele>
        <time>2019-05-05T14:59:52.000Z</time>
      </trkpt>
      <trkpt lat="42.83301" lon="0.15084">
        <ele>2091.6000976562</ele>
        <time>2019-05-05T15:00:02.000Z</time>
      </trkpt>
      <trkpt lat="42.83298" lon="0.15096">
        <ele>2091</ele>
        <time>2019-05-05T15:00:15.000Z</time>
      </trkpt>
      <trkpt lat="42.83296" lon="0.1511">
        <ele>2090.6000976562</ele>
        <time>2019-05-05T15:00:27.000Z</time>
      </trkpt>
      <trkpt lat="42.83286" lon="0.15147">
        <ele>2088.6000976562</ele>
        <time>2019-05-05T15:00:59.000Z</time>
      </trkpt>
      <trkpt lat="42.83284" lon="0.15157">
        <ele>2088</ele>
        <time>2019-05-05T15:01:06.000Z</time>
      </trkpt>
      <trkpt lat="42.83283" lon="0.15175">
        <ele>2087</ele>
        <time>2019-05-05T15:01:20.000Z</time>
      </trkpt>
      <trkpt lat="42.83288" lon="0.1521">
        <ele>2085.8000488281</ele>
        <time>2019-05-05T15:01:47.000Z</time>
      </trkpt>
      <trkpt lat="42.83293" lon="0.15238">
        <ele>2084.8000488281</ele>
        <time>2019-05-05T15:02:10.000Z</time>
      </trkpt>
      <trkpt lat="42.83296" lon="0.15239">
        <ele>2085</ele>
        <time>2019-05-05T15:02:13.000Z</time>
      </trkpt>
      <trkpt lat="42.83317" lon="0.1525">
        <ele>2086.1999511719</ele>
        <time>2019-05-05T15:02:42.000Z</time>
      </trkpt>
      <trkpt lat="42.83324" lon="0.1526">
        <ele>2086.3999023438</ele>
        <time>2019-05-05T15:02:54.000Z</time>
      </trkpt>
      <trkpt lat="42.83341" lon="0.15295">
        <ele>2086.6000976562</ele>
        <time>2019-05-05T15:03:24.000Z</time>
      </trkpt>
      <trkpt lat="42.83342" lon="0.15296">
        <ele>2086.6000976562</ele>
        <time>2019-05-05T15:03:25.000Z</time>
      </trkpt>
      <trkpt lat="42.83343" lon="0.153">
        <ele>2087</ele>
        <time>2019-05-05T15:03:27.000Z</time>
      </trkpt>
      <trkpt lat="42.83344" lon="0.15301">
        <ele>2087</ele>
        <time>2019-05-05T15:03:28.000Z</time>
      </trkpt>
      <trkpt lat="42.83344" lon="0.15305">
        <ele>2087.1999511719</ele>
        <time>2019-05-05T15:03:30.000Z</time>
      </trkpt>
      <trkpt lat="42.83346" lon="0.15308">
        <ele>2087.6000976562</ele>
        <time>2019-05-05T15:03:33.000Z</time>
      </trkpt>
      <trkpt lat="42.83347" lon="0.15309">
        <ele>2087.6000976562</ele>
        <time>2019-05-05T15:03:34.000Z</time>
      </trkpt>
      <trkpt lat="42.83347" lon="0.15312">
        <ele>2087.8000488281</ele>
        <time>2019-05-05T15:03:36.000Z</time>
      </trkpt>
      <trkpt lat="42.8335" lon="0.15315">
        <ele>2088.3999023438</ele>
        <time>2019-05-05T15:03:40.000Z</time>
      </trkpt>
      <trkpt lat="42.83351" lon="0.15316">
        <ele>2088.6000976562</ele>
        <time>2019-05-05T15:03:42.000Z</time>
      </trkpt>
      <trkpt lat="42.83352" lon="0.15317">
        <ele>2089</ele>
        <time>2019-05-05T15:03:44.000Z</time>
      </trkpt>
      <trkpt lat="42.83353" lon="0.15321">
        <ele>2089.1999511719</ele>
        <time>2019-05-05T15:03:47.000Z</time>
      </trkpt>
      <trkpt lat="42.83354" lon="0.15322">
        <ele>2089.1999511719</ele>
        <time>2019-05-05T15:03:49.000Z</time>
      </trkpt>
      <trkpt lat="42.83355" lon="0.15324">
        <ele>2089.6000976562</ele>
        <time>2019-05-05T15:03:53.000Z</time>
      </trkpt>
      <trkpt lat="42.83356" lon="0.15323">
        <ele>2089.6000976562</ele>
        <time>2019-05-05T15:03:55.000Z</time>
      </trkpt>
      <trkpt lat="42.83357" lon="0.15325">
        <ele>2090</ele>
        <time>2019-05-05T15:04:00.000Z</time>
      </trkpt>
      <trkpt lat="42.83367" lon="0.15346">
        <ele>2092.1999511719</ele>
        <time>2019-05-05T15:04:20.000Z</time>
      </trkpt>
      <trkpt lat="42.8337" lon="0.15354">
        <ele>2092.6000976562</ele>
        <time>2019-05-05T15:04:27.000Z</time>
      </trkpt>
      <trkpt lat="42.83367" lon="0.15358">
        <ele>2092</ele>
        <time>2019-05-05T15:04:39.000Z</time>
      </trkpt>
      <trkpt lat="42.83367" lon="0.1536">
        <ele>2092</ele>
        <time>2019-05-05T15:04:48.000Z</time>
      </trkpt>
      <trkpt lat="42.83373" lon="0.15371">
        <ele>2093.3999023438</ele>
        <time>2019-05-05T15:05:03.000Z</time>
      </trkpt>
      <trkpt lat="42.83378" lon="0.15376">
        <ele>2094.3999023438</ele>
        <time>2019-05-05T15:05:08.000Z</time>
      </trkpt>
      <trkpt lat="42.83388" lon="0.15392">
        <ele>2096.6000976562</ele>
        <time>2019-05-05T15:05:30.000Z</time>
      </trkpt>
      <trkpt lat="42.83392" lon="0.15404">
        <ele>2097.3999023438</ele>
        <time>2019-05-05T15:05:41.000Z</time>
      </trkpt>
      <trkpt lat="42.83394" lon="0.15415">
        <ele>2097.6000976562</ele>
        <time>2019-05-05T15:06:01.000Z</time>
      </trkpt>
      <trkpt lat="42.83392" lon="0.15429">
        <ele>2097.1999511719</ele>
        <time>2019-05-05T15:06:15.000Z</time>
      </trkpt>
      <trkpt lat="42.83399" lon="0.15454">
        <ele>2098.3999023438</ele>
        <time>2019-05-05T15:06:46.000Z</time>
      </trkpt>
      <trkpt lat="42.83392" lon="0.15481">
        <ele>2096.8000488281</ele>
        <time>2019-05-05T15:07:22.000Z</time>
      </trkpt>
      <trkpt lat="42.8339" lon="0.15492">
        <ele>2096.6000976562</ele>
        <time>2019-05-05T15:07:41.000Z</time>
      </trkpt>
      <trkpt lat="42.8339" lon="0.15505">
        <ele>2096.8000488281</ele>
        <time>2019-05-05T15:07:56.000Z</time>
      </trkpt>
      <trkpt lat="42.83393" lon="0.15553">
        <ele>2098.1999511719</ele>
        <time>2019-05-05T15:08:54.000Z</time>
      </trkpt>
      <trkpt lat="42.83388" lon="0.15598">
        <ele>2096.6000976562</ele>
        <time>2019-05-05T15:09:55.000Z</time>
      </trkpt>
      <trkpt lat="42.83382" lon="0.15606">
        <ele>2095</ele>
        <time>2019-05-05T15:10:03.000Z</time>
      </trkpt>
      <trkpt lat="42.83381" lon="0.15607">
        <ele>2094.8000488281</ele>
        <time>2019-05-05T15:10:04.000Z</time>
      </trkpt>
      <trkpt lat="42.8338" lon="0.15609">
        <ele>2094.6000976562</ele>
        <time>2019-05-05T15:10:05.000Z</time>
      </trkpt>
      <trkpt lat="42.83379" lon="0.15609">
        <ele>2094.3999023438</ele>
        <time>2019-05-05T15:10:06.000Z</time>
      </trkpt>
      <trkpt lat="42.83378" lon="0.1561">
        <ele>2094.1999511719</ele>
        <time>2019-05-05T15:10:08.000Z</time>
      </trkpt>
      <trkpt lat="42.83377" lon="0.15612">
        <ele>2093.8000488281</ele>
        <time>2019-05-05T15:10:11.000Z</time>
      </trkpt>
      <trkpt lat="42.83376" lon="0.15613">
        <ele>2093.6000976562</ele>
        <time>2019-05-05T15:10:13.000Z</time>
      </trkpt>
      <trkpt lat="42.83376" lon="0.15617">
        <ele>2093.6000976562</ele>
        <time>2019-05-05T15:10:17.000Z</time>
      </trkpt>
      <trkpt lat="42.83372" lon="0.1563">
        <ele>2092.3999023438</ele>
        <time>2019-05-05T15:10:31.000Z</time>
      </trkpt>
      <trkpt lat="42.8337" lon="0.15634">
        <ele>2091.8000488281</ele>
        <time>2019-05-05T15:10:35.000Z</time>
      </trkpt>
      <trkpt lat="42.83368" lon="0.15637">
        <ele>2091.1999511719</ele>
        <time>2019-05-05T15:10:39.000Z</time>
      </trkpt>
      <trkpt lat="42.83368" lon="0.1564">
        <ele>2091</ele>
        <time>2019-05-05T15:10:43.000Z</time>
      </trkpt>
      <trkpt lat="42.83367" lon="0.1564">
        <ele>2090.8000488281</ele>
        <time>2019-05-05T15:10:45.000Z</time>
      </trkpt>
      <trkpt lat="42.83367" lon="0.15641">
        <ele>2090.8000488281</ele>
        <time>2019-05-05T15:10:46.000Z</time>
      </trkpt>
      <trkpt lat="42.83367" lon="0.1565">
        <ele>2090.3999023438</ele>
        <time>2019-05-05T15:10:53.000Z</time>
      </trkpt>
      <trkpt lat="42.83367" lon="0.15663">
        <ele>2089.6000976562</ele>
        <time>2019-05-05T15:11:04.000Z</time>
      </trkpt>
      <trkpt lat="42.83372" lon="0.15677">
        <ele>2089.6000976562</ele>
        <time>2019-05-05T15:11:20.000Z</time>
      </trkpt>
      <trkpt lat="42.83374" lon="0.15681">
        <ele>2090</ele>
        <time>2019-05-05T15:11:26.000Z</time>
      </trkpt>
      <trkpt lat="42.83383" lon="0.15709">
        <ele>2090.1999511719</ele>
        <time>2019-05-05T15:12:21.000Z</time>
      </trkpt>
      <trkpt lat="42.83382" lon="0.15709">
        <ele>2090</ele>
        <time>2019-05-05T15:12:31.000Z</time>
      </trkpt>
      <trkpt lat="42.83382" lon="0.15709">
        <ele>2090</ele>
        <time>2019-05-05T15:12:36.000Z</time>
      </trkpt>
      <trkpt lat="42.83382" lon="0.15709">
        <ele>2090</ele>
        <time>2019-05-05T15:12:37.000Z</time>
      </trkpt>
      <trkpt lat="42.83382" lon="0.15709">
        <ele>2090</ele>
        <time>2019-05-05T15:12:41.000Z</time>
      </trkpt>
      <trkpt lat="42.83382" lon="0.15708">
        <ele>2090</ele>
        <time>2019-05-05T15:12:57.000Z</time>
      </trkpt>
      <trkpt lat="42.83382" lon="0.15708">
        <ele>2090</ele>
        <time>2019-05-05T15:13:05.000Z</time>
      </trkpt>
      <trkpt lat="42.83382" lon="0.15709">
        <ele>2090</ele>
        <time>2019-05-05T15:13:18.000Z</time>
      </trkpt>
      <trkpt lat="42.83382" lon="0.15708">
        <ele>2090</ele>
        <time>2019-05-05T15:13:24.000Z</time>
      </trkpt>
      <trkpt lat="42.83382" lon="0.15708">
        <ele>2090</ele>
        <time>2019-05-05T15:13:31.000Z</time>
      </trkpt>
      <trkpt lat="42.83382" lon="0.15708">
        <ele>2090</ele>
        <time>2019-05-05T15:13:36.000Z</time>
      </trkpt>
      <trkpt lat="42.83382" lon="0.15709">
        <ele>2090</ele>
        <time>2019-05-05T15:13:38.000Z</time>
      </trkpt>
      <trkpt lat="42.83382" lon="0.15709">
        <ele>2089.8000488281</ele>
        <time>2019-05-05T15:13:39.000Z</time>
      </trkpt>
      <trkpt lat="42.83382" lon="0.15709">
        <ele>2090</ele>
        <time>2019-05-05T15:13:48.000Z</time>
      </trkpt>
      <trkpt lat="42.83383" lon="0.15712">
        <ele>2090.1999511719</ele>
        <time>2019-05-05T15:13:53.000Z</time>
      </trkpt>
      <trkpt lat="42.83376" lon="0.15714">
        <ele>2088.3999023438</ele>
        <time>2019-05-05T15:14:02.000Z</time>
      </trkpt>
      <trkpt lat="42.8337" lon="0.15714">
        <ele>2087</ele>
        <time>2019-05-05T15:14:09.000Z</time>
      </trkpt>
      <trkpt lat="42.83369" lon="0.15713">
        <ele>2086.6000976562</ele>
        <time>2019-05-05T15:14:13.000Z</time>
      </trkpt>
      <trkpt lat="42.83367" lon="0.15713">
        <ele>2086.1999511719</ele>
        <time>2019-05-05T15:14:15.000Z</time>
      </trkpt>
      <trkpt lat="42.83365" lon="0.15714">
        <ele>2085.8000488281</ele>
        <time>2019-05-05T15:14:17.000Z</time>
      </trkpt>
      <trkpt lat="42.83364" lon="0.15714">
        <ele>2085.6000976562</ele>
        <time>2019-05-05T15:14:18.000Z</time>
      </trkpt>
      <trkpt lat="42.83363" lon="0.15715">
        <ele>2085.3999023438</ele>
        <time>2019-05-05T15:14:20.000Z</time>
      </trkpt>
      <trkpt lat="42.83359" lon="0.15721">
        <ele>2084.3999023438</ele>
        <time>2019-05-05T15:14:27.000Z</time>
      </trkpt>
      <trkpt lat="42.83358" lon="0.15722">
        <ele>2084.1999511719</ele>
        <time>2019-05-05T15:14:29.000Z</time>
      </trkpt>
      <trkpt lat="42.83355" lon="0.15724">
        <ele>2083.8000488281</ele>
        <time>2019-05-05T15:14:38.000Z</time>
      </trkpt>
      <trkpt lat="42.83354" lon="0.15725">
        <ele>2083.3999023438</ele>
        <time>2019-05-05T15:14:41.000Z</time>
      </trkpt>
      <trkpt lat="42.83354" lon="0.15725">
        <ele>2083.3999023438</ele>
        <time>2019-05-05T15:14:42.000Z</time>
      </trkpt>
      <trkpt lat="42.83353" lon="0.15725">
        <ele>2083</ele>
        <time>2019-05-05T15:14:43.000Z</time>
      </trkpt>
      <trkpt lat="42.83352" lon="0.15726">
        <ele>2083</ele>
        <time>2019-05-05T15:14:44.000Z</time>
      </trkpt>
      <trkpt lat="42.83352" lon="0.15725">
        <ele>2082.8000488281</ele>
        <time>2019-05-05T15:14:45.000Z</time>
      </trkpt>
      <trkpt lat="42.83352" lon="0.15727">
        <ele>2082.8000488281</ele>
        <time>2019-05-05T15:14:46.000Z</time>
      </trkpt>
      <trkpt lat="42.83352" lon="0.15728">
        <ele>2082.6000976562</ele>
        <time>2019-05-05T15:14:47.000Z</time>
      </trkpt>
      <trkpt lat="42.83352" lon="0.15729">
        <ele>2082.6000976562</ele>
        <time>2019-05-05T15:14:48.000Z</time>
      </trkpt>
      <trkpt lat="42.83352" lon="0.15734">
        <ele>2082.6000976562</ele>
        <time>2019-05-05T15:14:51.000Z</time>
      </trkpt>
      <trkpt lat="42.83353" lon="0.15735">
        <ele>2082.6000976562</ele>
        <time>2019-05-05T15:14:52.000Z</time>
      </trkpt>
      <trkpt lat="42.83353" lon="0.15738">
        <ele>2082.8000488281</ele>
        <time>2019-05-05T15:14:54.000Z</time>
      </trkpt>
      <trkpt lat="42.83353" lon="0.15741">
        <ele>2082.8000488281</ele>
        <time>2019-05-05T15:14:58.000Z</time>
      </trkpt>
      <trkpt lat="42.83354" lon="0.15741">
        <ele>2083</ele>
        <time>2019-05-05T15:14:59.000Z</time>
      </trkpt>
      <trkpt lat="42.83355" lon="0.15742">
        <ele>2083.1999511719</ele>
        <time>2019-05-05T15:15:01.000Z</time>
      </trkpt>
      <trkpt lat="42.83355" lon="0.15744">
        <ele>2083.3999023438</ele>
        <time>2019-05-05T15:15:03.000Z</time>
      </trkpt>
      <trkpt lat="42.83356" lon="0.15746">
        <ele>2083.3999023438</ele>
        <time>2019-05-05T15:15:04.000Z</time>
      </trkpt>
      <trkpt lat="42.83356" lon="0.15747">
        <ele>2083.3999023438</ele>
        <time>2019-05-05T15:15:05.000Z</time>
      </trkpt>
      <trkpt lat="42.83356" lon="0.15748">
        <ele>2083.3999023438</ele>
        <time>2019-05-05T15:15:06.000Z</time>
      </trkpt>
      <trkpt lat="42.83356" lon="0.15751">
        <ele>2083.1999511719</ele>
        <time>2019-05-05T15:15:08.000Z</time>
      </trkpt>
      <trkpt lat="42.83356" lon="0.15753">
        <ele>2083</ele>
        <time>2019-05-05T15:15:10.000Z</time>
      </trkpt>
      <trkpt lat="42.83353" lon="0.15757">
        <ele>2082</ele>
        <time>2019-05-05T15:15:15.000Z</time>
      </trkpt>
      <trkpt lat="42.83352" lon="0.15759">
        <ele>2081.6000976562</ele>
        <time>2019-05-05T15:15:17.000Z</time>
      </trkpt>
      <trkpt lat="42.83351" lon="0.1576">
        <ele>2081.3999023438</ele>
        <time>2019-05-05T15:15:18.000Z</time>
      </trkpt>
      <trkpt lat="42.83349" lon="0.15765">
        <ele>2080.3999023438</ele>
        <time>2019-05-05T15:15:22.000Z</time>
      </trkpt>
      <trkpt lat="42.83348" lon="0.15766">
        <ele>2080</ele>
        <time>2019-05-05T15:15:23.000Z</time>
      </trkpt>
      <trkpt lat="42.83346" lon="0.15769">
        <ele>2079.1999511719</ele>
        <time>2019-05-05T15:15:25.000Z</time>
      </trkpt>
      <trkpt lat="42.83343" lon="0.15772">
        <ele>2078.1999511719</ele>
        <time>2019-05-05T15:15:27.000Z</time>
      </trkpt>
      <trkpt lat="42.83341" lon="0.15775">
        <ele>2077.6000976562</ele>
        <time>2019-05-05T15:15:30.000Z</time>
      </trkpt>
      <trkpt lat="42.83336" lon="0.15788">
        <ele>2076</ele>
        <time>2019-05-05T15:15:42.000Z</time>
      </trkpt>
      <trkpt lat="42.83334" lon="0.15795">
        <ele>2075.1999511719</ele>
        <time>2019-05-05T15:15:53.000Z</time>
      </trkpt>
      <trkpt lat="42.83335" lon="0.15796">
        <ele>2075.1999511719</ele>
        <time>2019-05-05T15:15:58.000Z</time>
      </trkpt>
      <trkpt lat="42.83335" lon="0.15797">
        <ele>2075.3999023438</ele>
        <time>2019-05-05T15:16:02.000Z</time>
      </trkpt>
      <trkpt lat="42.83336" lon="0.158">
        <ele>2075.8000488281</ele>
        <time>2019-05-05T15:16:04.000Z</time>
      </trkpt>
      <trkpt lat="42.83337" lon="0.15802">
        <ele>2076</ele>
        <time>2019-05-05T15:16:06.000Z</time>
      </trkpt>
      <trkpt lat="42.83336" lon="0.15808">
        <ele>2076.1999511719</ele>
        <time>2019-05-05T15:16:12.000Z</time>
      </trkpt>
      <trkpt lat="42.8333" lon="0.15817">
        <ele>2075.6000976562</ele>
        <time>2019-05-05T15:16:21.000Z</time>
      </trkpt>
      <trkpt lat="42.83328" lon="0.1582">
        <ele>2075.3999023438</ele>
        <time>2019-05-05T15:16:24.000Z</time>
      </trkpt>
      <trkpt lat="42.8332" lon="0.15831">
        <ele>2074.3999023438</ele>
        <time>2019-05-05T15:16:35.000Z</time>
      </trkpt>
      <trkpt lat="42.83315" lon="0.15845">
        <ele>2074</ele>
        <time>2019-05-05T15:16:47.000Z</time>
      </trkpt>
      <trkpt lat="42.83311" lon="0.15846">
        <ele>2073.3999023438</ele>
        <time>2019-05-05T15:17:01.000Z</time>
      </trkpt>
      <trkpt lat="42.83308" lon="0.15846">
        <ele>2073</ele>
        <time>2019-05-05T15:17:14.000Z</time>
      </trkpt>
      <trkpt lat="42.83303" lon="0.15848">
        <ele>2071.1999511719</ele>
        <time>2019-05-05T15:17:18.000Z</time>
      </trkpt>
      <trkpt lat="42.83291" lon="0.15847">
        <ele>2067.3999023438</ele>
        <time>2019-05-05T15:17:29.000Z</time>
      </trkpt>
      <trkpt lat="42.83287" lon="0.15878">
        <ele>2063</ele>
        <time>2019-05-05T15:18:13.000Z</time>
      </trkpt>
      <trkpt lat="42.83286" lon="0.15879">
        <ele>2063</ele>
        <time>2019-05-05T15:18:14.000Z</time>
      </trkpt>
      <trkpt lat="42.83278" lon="0.15894">
        <ele>2061</ele>
        <time>2019-05-05T15:18:26.000Z</time>
      </trkpt>
      <trkpt lat="42.83275" lon="0.15895">
        <ele>2060</ele>
        <time>2019-05-05T15:18:30.000Z</time>
      </trkpt>
      <trkpt lat="42.83264" lon="0.15909">
        <ele>2055.3999023438</ele>
        <time>2019-05-05T15:18:50.000Z</time>
      </trkpt>
      <trkpt lat="42.83252" lon="0.15904">
        <ele>2051.1999511719</ele>
        <time>2019-05-05T15:19:13.000Z</time>
      </trkpt>
      <trkpt lat="42.83235" lon="0.15895">
        <ele>2048</ele>
        <time>2019-05-05T15:19:53.000Z</time>
      </trkpt>
      <trkpt lat="42.83225" lon="0.15904">
        <ele>2045.4000244141</ele>
        <time>2019-05-05T15:20:35.000Z</time>
      </trkpt>
      <trkpt lat="42.83222" lon="0.15906">
        <ele>2044.8000488281</ele>
        <time>2019-05-05T15:20:37.000Z</time>
      </trkpt>
      <trkpt lat="42.83208" lon="0.15907">
        <ele>2041.5999755859</ele>
        <time>2019-05-05T15:20:46.000Z</time>
      </trkpt>
      <trkpt lat="42.83203" lon="0.15909">
        <ele>2040.5999755859</ele>
        <time>2019-05-05T15:21:05.000Z</time>
      </trkpt>
      <trkpt lat="42.83203" lon="0.1591">
        <ele>2040.4000244141</ele>
        <time>2019-05-05T15:21:31.000Z</time>
      </trkpt>
      <trkpt lat="42.83204" lon="0.1591">
        <ele>2040.5999755859</ele>
        <time>2019-05-05T15:21:36.000Z</time>
      </trkpt>
      <trkpt lat="42.83205" lon="0.15909">
        <ele>2040.8000488281</ele>
        <time>2019-05-05T15:21:40.000Z</time>
      </trkpt>
      <trkpt lat="42.83205" lon="0.15909">
        <ele>2040.8000488281</ele>
        <time>2019-05-05T15:21:41.000Z</time>
      </trkpt>
      <trkpt lat="42.83205" lon="0.15909">
        <ele>2041</ele>
        <time>2019-05-05T15:21:45.000Z</time>
      </trkpt>
      <trkpt lat="42.83205" lon="0.15909">
        <ele>2040.8000488281</ele>
        <time>2019-05-05T15:22:01.000Z</time>
      </trkpt>
      <trkpt lat="42.83205" lon="0.15909">
        <ele>2041</ele>
        <time>2019-05-05T15:22:50.000Z</time>
      </trkpt>
      <trkpt lat="42.83203" lon="0.15908">
        <ele>2040.5999755859</ele>
        <time>2019-05-05T15:23:11.000Z</time>
      </trkpt>
      <trkpt lat="42.83202" lon="0.15908">
        <ele>2040.1999511719</ele>
        <time>2019-05-05T15:23:24.000Z</time>
      </trkpt>
      <trkpt lat="42.83202" lon="0.1591">
        <ele>2040</ele>
        <time>2019-05-05T15:23:27.000Z</time>
      </trkpt>
      <trkpt lat="42.83202" lon="0.15911">
        <ele>2039.8000488281</ele>
        <time>2019-05-05T15:23:28.000Z</time>
      </trkpt>
      <trkpt lat="42.83203" lon="0.1592">
        <ele>2039.1999511719</ele>
        <time>2019-05-05T15:23:34.000Z</time>
      </trkpt>
      <trkpt lat="42.83203" lon="0.15924">
        <ele>2038.5999755859</ele>
        <time>2019-05-05T15:23:37.000Z</time>
      </trkpt>
      <trkpt lat="42.83203" lon="0.15925">
        <ele>2038.5999755859</ele>
        <time>2019-05-05T15:23:38.000Z</time>
      </trkpt>
      <trkpt lat="42.83203" lon="0.15926">
        <ele>2038.4000244141</ele>
        <time>2019-05-05T15:23:39.000Z</time>
      </trkpt>
      <trkpt lat="42.83203" lon="0.15927">
        <ele>2038.4000244141</ele>
        <time>2019-05-05T15:23:40.000Z</time>
      </trkpt>
      <trkpt lat="42.83204" lon="0.15932">
        <ele>2037.8000488281</ele>
        <time>2019-05-05T15:23:43.000Z</time>
      </trkpt>
      <trkpt lat="42.8321" lon="0.15944">
        <ele>2038.4000244141</ele>
        <time>2019-05-05T15:23:51.000Z</time>
      </trkpt>
      <trkpt lat="42.8321" lon="0.15945">
        <ele>2038.1999511719</ele>
        <time>2019-05-05T15:23:53.000Z</time>
      </trkpt>
      <trkpt lat="42.83211" lon="0.15946">
        <ele>2038.4000244141</ele>
        <time>2019-05-05T15:23:55.000Z</time>
      </trkpt>
      <trkpt lat="42.83211" lon="0.15948">
        <ele>2038.1999511719</ele>
        <time>2019-05-05T15:23:57.000Z</time>
      </trkpt>
      <trkpt lat="42.83211" lon="0.15949">
        <ele>2038</ele>
        <time>2019-05-05T15:23:58.000Z</time>
      </trkpt>
      <trkpt lat="42.83211" lon="0.1595">
        <ele>2037.8000488281</ele>
        <time>2019-05-05T15:23:59.000Z</time>
      </trkpt>
      <trkpt lat="42.83211" lon="0.15951">
        <ele>2037.8000488281</ele>
        <time>2019-05-05T15:24:00.000Z</time>
      </trkpt>
      <trkpt lat="42.83208" lon="0.15957">
        <ele>2036.1999511719</ele>
        <time>2019-05-05T15:24:06.000Z</time>
      </trkpt>
      <trkpt lat="42.83209" lon="0.15955">
        <ele>2037</ele>
        <time>2019-05-05T15:24:15.000Z</time>
      </trkpt>
      <trkpt lat="42.83209" lon="0.15957">
        <ele>2036.4000244141</ele>
        <time>2019-05-05T15:24:21.000Z</time>
      </trkpt>
      <trkpt lat="42.83208" lon="0.16018">
        <ele>2036.5999755859</ele>
        <time>2019-05-05T15:24:55.000Z</time>
      </trkpt>
      <trkpt lat="42.83201" lon="0.16057">
        <ele>2035.5999755859</ele>
        <time>2019-05-05T15:25:14.000Z</time>
      </trkpt>
      <trkpt lat="42.83192" lon="0.16081">
        <ele>2033.4000244141</ele>
        <time>2019-05-05T15:25:30.000Z</time>
      </trkpt>
      <trkpt lat="42.83183" lon="0.16113">
        <ele>2028</ele>
        <time>2019-05-05T15:25:49.000Z</time>
      </trkpt>
      <trkpt lat="42.83164" lon="0.16169">
        <ele>2023.1999511719</ele>
        <time>2019-05-05T15:26:24.000Z</time>
      </trkpt>
      <trkpt lat="42.83149" lon="0.16227">
        <ele>2021.1999511719</ele>
        <time>2019-05-05T15:26:59.000Z</time>
      </trkpt>
      <trkpt lat="42.83136" lon="0.16286">
        <ele>2021.1999511719</ele>
        <time>2019-05-05T15:27:32.000Z</time>
      </trkpt>
      <trkpt lat="42.83129" lon="0.16326">
        <ele>2018.5999755859</ele>
        <time>2019-05-05T15:27:54.000Z</time>
      </trkpt>
      <trkpt lat="42.83122" lon="0.16361">
        <ele>2014</ele>
        <time>2019-05-05T15:28:15.000Z</time>
      </trkpt>
      <trkpt lat="42.83114" lon="0.16391">
        <ele>2011.1999511719</ele>
        <time>2019-05-05T15:28:34.000Z</time>
      </trkpt>
      <trkpt lat="42.83103" lon="0.16444">
        <ele>2006</ele>
        <time>2019-05-05T15:29:04.000Z</time>
      </trkpt>
      <trkpt lat="42.83085" lon="0.16501">
        <ele>1992.8000488281</ele>
        <time>2019-05-05T15:29:38.000Z</time>
      </trkpt>
      <trkpt lat="42.83078" lon="0.16523">
        <ele>1987.5999755859</ele>
        <time>2019-05-05T15:29:51.000Z</time>
      </trkpt>
      <trkpt lat="42.83065" lon="0.16577">
        <ele>1978</ele>
        <time>2019-05-05T15:30:24.000Z</time>
      </trkpt>
      <trkpt lat="42.8307" lon="0.16624">
        <ele>1980</ele>
        <time>2019-05-05T15:30:54.000Z</time>
      </trkpt>
      <trkpt lat="42.83072" lon="0.16633">
        <ele>1978.8000488281</ele>
        <time>2019-05-05T15:30:59.000Z</time>
      </trkpt>
      <trkpt lat="42.83073" lon="0.16661">
        <ele>1971</ele>
        <time>2019-05-05T15:31:13.000Z</time>
      </trkpt>
      <trkpt lat="42.83073" lon="0.16723">
        <ele>1959.1999511719</ele>
        <time>2019-05-05T15:31:49.000Z</time>
      </trkpt>
      <trkpt lat="42.83073" lon="0.16728">
        <ele>1960.1999511719</ele>
        <time>2019-05-05T15:31:52.000Z</time>
      </trkpt>
      <trkpt lat="42.83074" lon="0.16734">
        <ele>1961</ele>
        <time>2019-05-05T15:31:55.000Z</time>
      </trkpt>
      <trkpt lat="42.83077" lon="0.16795">
        <ele>1968.1999511719</ele>
        <time>2019-05-05T15:32:28.000Z</time>
      </trkpt>
      <trkpt lat="42.83076" lon="0.16857">
        <ele>1972.4000244141</ele>
        <time>2019-05-05T15:33:01.000Z</time>
      </trkpt>
      <trkpt lat="42.83068" lon="0.16904">
        <ele>1973.5999755859</ele>
        <time>2019-05-05T15:33:25.000Z</time>
      </trkpt>
      <trkpt lat="42.83065" lon="0.16928">
        <ele>1977</ele>
        <time>2019-05-05T15:33:38.000Z</time>
      </trkpt>
      <trkpt lat="42.83064" lon="0.1694">
        <ele>1978.8000488281</ele>
        <time>2019-05-05T15:33:45.000Z</time>
      </trkpt>
      <trkpt lat="42.83059" lon="0.16969">
        <ele>1975.8000488281</ele>
        <time>2019-05-05T15:34:01.000Z</time>
      </trkpt>
      <trkpt lat="42.83052" lon="0.1702">
        <ele>1970.1999511719</ele>
        <time>2019-05-05T15:34:29.000Z</time>
      </trkpt>
      <trkpt lat="42.83042" lon="0.17048">
        <ele>1967.4000244141</ele>
        <time>2019-05-05T15:34:46.000Z</time>
      </trkpt>
      <trkpt lat="42.83041" lon="0.1706">
        <ele>1967.1999511719</ele>
        <time>2019-05-05T15:34:54.000Z</time>
      </trkpt>
      <trkpt lat="42.83024" lon="0.17098">
        <ele>1961</ele>
        <time>2019-05-05T15:35:18.000Z</time>
      </trkpt>
      <trkpt lat="42.82993" lon="0.17119">
        <ele>1948.1999511719</ele>
        <time>2019-05-05T15:35:55.000Z</time>
      </trkpt>
      <trkpt lat="42.82986" lon="0.17116">
        <ele>1944.8000488281</ele>
        <time>2019-05-05T15:36:03.000Z</time>
      </trkpt>
      <trkpt lat="42.82983" lon="0.17116">
        <ele>1943.8000488281</ele>
        <time>2019-05-05T15:36:07.000Z</time>
      </trkpt>
      <trkpt lat="42.82979" lon="0.17108">
        <ele>1940.1999511719</ele>
        <time>2019-05-05T15:36:18.000Z</time>
      </trkpt>
      <trkpt lat="42.82978" lon="0.17105">
        <ele>1938.8000488281</ele>
        <time>2019-05-05T15:36:33.000Z</time>
      </trkpt>
      <trkpt lat="42.82978" lon="0.1711">
        <ele>1940.1999511719</ele>
        <time>2019-05-05T15:37:07.000Z</time>
      </trkpt>
      <trkpt lat="42.82975" lon="0.1711">
        <ele>1939</ele>
        <time>2019-05-05T15:37:18.000Z</time>
      </trkpt>
      <trkpt lat="42.82963" lon="0.17108">
        <ele>1934</ele>
        <time>2019-05-05T15:37:29.000Z</time>
      </trkpt>
      <trkpt lat="42.82957" lon="0.17102">
        <ele>1930.1999511719</ele>
        <time>2019-05-05T15:37:39.000Z</time>
      </trkpt>
      <trkpt lat="42.82952" lon="0.17097">
        <ele>1927.1999511719</ele>
        <time>2019-05-05T15:37:45.000Z</time>
      </trkpt>
      <trkpt lat="42.8295" lon="0.17093">
        <ele>1925.4000244141</ele>
        <time>2019-05-05T15:37:48.000Z</time>
      </trkpt>
      <trkpt lat="42.8295" lon="0.17092">
        <ele>1925</ele>
        <time>2019-05-05T15:37:49.000Z</time>
      </trkpt>
      <trkpt lat="42.82949" lon="0.17091">
        <ele>1924.4000244141</ele>
        <time>2019-05-05T15:37:50.000Z</time>
      </trkpt>
      <trkpt lat="42.82944" lon="0.17086">
        <ele>1921.5999755859</ele>
        <time>2019-05-05T15:37:58.000Z</time>
      </trkpt>
      <trkpt lat="42.82943" lon="0.17085">
        <ele>1920.5999755859</ele>
        <time>2019-05-05T15:38:00.000Z</time>
      </trkpt>
      <trkpt lat="42.82937" lon="0.17078">
        <ele>1916.5999755859</ele>
        <time>2019-05-05T15:38:08.000Z</time>
      </trkpt>
      <trkpt lat="42.82932" lon="0.1707">
        <ele>1912.8000488281</ele>
        <time>2019-05-05T15:38:20.000Z</time>
      </trkpt>
      <trkpt lat="42.82931" lon="0.17066">
        <ele>1911.4000244141</ele>
        <time>2019-05-05T15:38:43.000Z</time>
      </trkpt>
      <trkpt lat="42.82931" lon="0.1706">
        <ele>1910</ele>
        <time>2019-05-05T15:38:53.000Z</time>
      </trkpt>
      <trkpt lat="42.82931" lon="0.17057">
        <ele>1909.4000244141</ele>
        <time>2019-05-05T15:38:56.000Z</time>
      </trkpt>
      <trkpt lat="42.8293" lon="0.17054">
        <ele>1908.1999511719</ele>
        <time>2019-05-05T15:39:00.000Z</time>
      </trkpt>
      <trkpt lat="42.82926" lon="0.17053">
        <ele>1906.5999755859</ele>
        <time>2019-05-05T15:39:04.000Z</time>
      </trkpt>
      <trkpt lat="42.82928" lon="0.17044">
        <ele>1905.1999511719</ele>
        <time>2019-05-05T15:39:09.000Z</time>
      </trkpt>
      <trkpt lat="42.82929" lon="0.17042">
        <ele>1905.1999511719</ele>
        <time>2019-05-05T15:39:11.000Z</time>
      </trkpt>
      <trkpt lat="42.82929" lon="0.17041">
        <ele>1904.8000488281</ele>
        <time>2019-05-05T15:39:12.000Z</time>
      </trkpt>
      <trkpt lat="42.82928" lon="0.17039">
        <ele>1904.1999511719</ele>
        <time>2019-05-05T15:39:13.000Z</time>
      </trkpt>
      <trkpt lat="42.82928" lon="0.17038">
        <ele>1904</ele>
        <time>2019-05-05T15:39:14.000Z</time>
      </trkpt>
      <trkpt lat="42.82928" lon="0.17036">
        <ele>1903.5999755859</ele>
        <time>2019-05-05T15:39:15.000Z</time>
      </trkpt>
      <trkpt lat="42.82928" lon="0.17028">
        <ele>1901.4000244141</ele>
        <time>2019-05-05T15:39:20.000Z</time>
      </trkpt>
      <trkpt lat="42.82928" lon="0.17024">
        <ele>1900.8000488281</ele>
        <time>2019-05-05T15:39:23.000Z</time>
      </trkpt>
      <trkpt lat="42.82929" lon="0.17019">
        <ele>1900.1999511719</ele>
        <time>2019-05-05T15:39:26.000Z</time>
      </trkpt>
      <trkpt lat="42.82938" lon="0.16997">
        <ele>1899</ele>
        <time>2019-05-05T15:39:47.000Z</time>
      </trkpt>
      <trkpt lat="42.82932" lon="0.16991">
        <ele>1895</ele>
        <time>2019-05-05T15:39:54.000Z</time>
      </trkpt>
      <trkpt lat="42.8293" lon="0.16987">
        <ele>1893.4000244141</ele>
        <time>2019-05-05T15:39:58.000Z</time>
      </trkpt>
      <trkpt lat="42.8293" lon="0.16985">
        <ele>1892.8000488281</ele>
        <time>2019-05-05T15:40:00.000Z</time>
      </trkpt>
      <trkpt lat="42.8293" lon="0.16983">
        <ele>1892.1999511719</ele>
        <time>2019-05-05T15:40:02.000Z</time>
      </trkpt>
      <trkpt lat="42.82928" lon="0.16984">
        <ele>1891.5999755859</ele>
        <time>2019-05-05T15:40:07.000Z</time>
      </trkpt>
      <trkpt lat="42.82928" lon="0.16984">
        <ele>1891.5999755859</ele>
        <time>2019-05-05T15:40:10.000Z</time>
      </trkpt>
      <trkpt lat="42.82928" lon="0.16979">
        <ele>1890.4000244141</ele>
        <time>2019-05-05T15:40:21.000Z</time>
      </trkpt>
      <trkpt lat="42.82928" lon="0.16978">
        <ele>1890.1999511719</ele>
        <time>2019-05-05T15:40:22.000Z</time>
      </trkpt>
      <trkpt lat="42.82927" lon="0.16978">
        <ele>1889.8000488281</ele>
        <time>2019-05-05T15:40:23.000Z</time>
      </trkpt>
      <trkpt lat="42.82924" lon="0.16975">
        <ele>1888</ele>
        <time>2019-05-05T15:40:26.000Z</time>
      </trkpt>
      <trkpt lat="42.82923" lon="0.16974">
        <ele>1887.4000244141</ele>
        <time>2019-05-05T15:40:27.000Z</time>
      </trkpt>
      <trkpt lat="42.8292" lon="0.16973">
        <ele>1886.1999511719</ele>
        <time>2019-05-05T15:40:30.000Z</time>
      </trkpt>
      <trkpt lat="42.82918" lon="0.16972">
        <ele>1885.8000488281</ele>
        <time>2019-05-05T15:40:32.000Z</time>
      </trkpt>
      <trkpt lat="42.82916" lon="0.16971">
        <ele>1885.1999511719</ele>
        <time>2019-05-05T15:40:34.000Z</time>
      </trkpt>
      <trkpt lat="42.82915" lon="0.1697">
        <ele>1885</ele>
        <time>2019-05-05T15:40:35.000Z</time>
      </trkpt>
      <trkpt lat="42.82912" lon="0.16971">
        <ele>1884.5999755859</ele>
        <time>2019-05-05T15:40:39.000Z</time>
      </trkpt>
      <trkpt lat="42.8291" lon="0.1697">
        <ele>1884.4000244141</ele>
        <time>2019-05-05T15:40:42.000Z</time>
      </trkpt>
      <trkpt lat="42.82895" lon="0.16966">
        <ele>1881.1999511719</ele>
        <time>2019-05-05T15:40:55.000Z</time>
      </trkpt>
      <trkpt lat="42.82891" lon="0.16964">
        <ele>1880</ele>
        <time>2019-05-05T15:40:58.000Z</time>
      </trkpt>
      <trkpt lat="42.82888" lon="0.16962">
        <ele>1879.1999511719</ele>
        <time>2019-05-05T15:41:01.000Z</time>
      </trkpt>
      <trkpt lat="42.82883" lon="0.16955">
        <ele>1877.4000244141</ele>
        <time>2019-05-05T15:41:09.000Z</time>
      </trkpt>
      <trkpt lat="42.82881" lon="0.16954">
        <ele>1877</ele>
        <time>2019-05-05T15:41:11.000Z</time>
      </trkpt>
      <trkpt lat="42.82874" lon="0.16956">
        <ele>1876.4000244141</ele>
        <time>2019-05-05T15:41:19.000Z</time>
      </trkpt>
      <trkpt lat="42.82865" lon="0.16956">
        <ele>1875</ele>
        <time>2019-05-05T15:41:25.000Z</time>
      </trkpt>
      <trkpt lat="42.8286" lon="0.16958">
        <ele>1874.5999755859</ele>
        <time>2019-05-05T15:41:31.000Z</time>
      </trkpt>
      <trkpt lat="42.82857" lon="0.16958">
        <ele>1874.1999511719</ele>
        <time>2019-05-05T15:41:35.000Z</time>
      </trkpt>
      <trkpt lat="42.82852" lon="0.16958">
        <ele>1873.4000244141</ele>
        <time>2019-05-05T15:41:38.000Z</time>
      </trkpt>
      <trkpt lat="42.8285" lon="0.1696">
        <ele>1873.4000244141</ele>
        <time>2019-05-05T15:41:41.000Z</time>
      </trkpt>
      <trkpt lat="42.82849" lon="0.1696">
        <ele>1873.4000244141</ele>
        <time>2019-05-05T15:41:42.000Z</time>
      </trkpt>
      <trkpt lat="42.82841" lon="0.1696">
        <ele>1872.1999511719</ele>
        <time>2019-05-05T15:41:51.000Z</time>
      </trkpt>
      <trkpt lat="42.82837" lon="0.1695">
        <ele>1870.1999511719</ele>
        <time>2019-05-05T15:42:01.000Z</time>
      </trkpt>
      <trkpt lat="42.8284" lon="0.16948">
        <ele>1870.1999511719</ele>
        <time>2019-05-05T15:42:25.000Z</time>
      </trkpt>
      <trkpt lat="42.82842" lon="0.16951">
        <ele>1871</ele>
        <time>2019-05-05T15:42:42.000Z</time>
      </trkpt>
      <trkpt lat="42.82839" lon="0.16954">
        <ele>1871</ele>
        <time>2019-05-05T15:42:47.000Z</time>
      </trkpt>
      <trkpt lat="42.82816" lon="0.16952">
        <ele>1870.1999511719</ele>
        <time>2019-05-05T15:43:02.000Z</time>
      </trkpt>
      <trkpt lat="42.82772" lon="0.16946">
        <ele>1871</ele>
        <time>2019-05-05T15:43:36.000Z</time>
      </trkpt>
      <trkpt lat="42.82748" lon="0.16952">
        <ele>1876.4000244141</ele>
        <time>2019-05-05T15:43:58.000Z</time>
      </trkpt>
      <trkpt lat="42.82747" lon="0.16953">
        <ele>1877</ele>
        <time>2019-05-05T15:44:00.000Z</time>
      </trkpt>
      <trkpt lat="42.82746" lon="0.16953">
        <ele>1877.1999511719</ele>
        <time>2019-05-05T15:44:01.000Z</time>
      </trkpt>
      <trkpt lat="42.82745" lon="0.16953">
        <ele>1877.4000244141</ele>
        <time>2019-05-05T15:44:02.000Z</time>
      </trkpt>
      <trkpt lat="42.82744" lon="0.16953">
        <ele>1877.8000488281</ele>
        <time>2019-05-05T15:44:03.000Z</time>
      </trkpt>
      <trkpt lat="42.82743" lon="0.16953">
        <ele>1878.1999511719</ele>
        <time>2019-05-05T15:44:04.000Z</time>
      </trkpt>
      <trkpt lat="42.82741" lon="0.16953">
        <ele>1878.4000244141</ele>
        <time>2019-05-05T15:44:05.000Z</time>
      </trkpt>
      <trkpt lat="42.82729" lon="0.16943">
        <ele>1879</ele>
        <time>2019-05-05T15:44:17.000Z</time>
      </trkpt>
      <trkpt lat="42.82725" lon="0.1694">
        <ele>1879</ele>
        <time>2019-05-05T15:44:21.000Z</time>
      </trkpt>
      <trkpt lat="42.82724" lon="0.16938">
        <ele>1879</ele>
        <time>2019-05-05T15:44:22.000Z</time>
      </trkpt>
      <trkpt lat="42.82718" lon="0.16931">
        <ele>1878.4000244141</ele>
        <time>2019-05-05T15:44:30.000Z</time>
      </trkpt>
      <trkpt lat="42.82703" lon="0.16905">
        <ele>1875</ele>
        <time>2019-05-05T15:44:48.000Z</time>
      </trkpt>
      <trkpt lat="42.82691" lon="0.16895">
        <ele>1875.4000244141</ele>
        <time>2019-05-05T15:45:00.000Z</time>
      </trkpt>
      <trkpt lat="42.82689" lon="0.16891">
        <ele>1874.8000488281</ele>
        <time>2019-05-05T15:45:03.000Z</time>
      </trkpt>
      <trkpt lat="42.8268" lon="0.16886">
        <ele>1876</ele>
        <time>2019-05-05T15:45:08.000Z</time>
      </trkpt>
      <trkpt lat="42.82679" lon="0.16885">
        <ele>1876</ele>
        <time>2019-05-05T15:45:09.000Z</time>
      </trkpt>
      <trkpt lat="42.82677" lon="0.16884">
        <ele>1876.4000244141</ele>
        <time>2019-05-05T15:45:10.000Z</time>
      </trkpt>
      <trkpt lat="42.8266" lon="0.16868">
        <ele>1872</ele>
        <time>2019-05-05T15:45:25.000Z</time>
      </trkpt>
      <trkpt lat="42.8263" lon="0.1685">
        <ele>1863.8000488281</ele>
        <time>2019-05-05T15:45:51.000Z</time>
      </trkpt>
      <trkpt lat="42.82616" lon="0.1686">
        <ele>1863</ele>
        <time>2019-05-05T15:46:01.000Z</time>
      </trkpt>
      <trkpt lat="42.8259" lon="0.16907">
        <ele>1862.4000244141</ele>
        <time>2019-05-05T15:46:35.000Z</time>
      </trkpt>
      <trkpt lat="42.82589" lon="0.16907">
        <ele>1862</ele>
        <time>2019-05-05T15:46:36.000Z</time>
      </trkpt>
      <trkpt lat="42.82587" lon="0.16909">
        <ele>1861.8000488281</ele>
        <time>2019-05-05T15:46:38.000Z</time>
      </trkpt>
      <trkpt lat="42.82582" lon="0.1691">
        <ele>1861.1999511719</ele>
        <time>2019-05-05T15:46:41.000Z</time>
      </trkpt>
      <trkpt lat="42.82567" lon="0.16905">
        <ele>1858.8000488281</ele>
        <time>2019-05-05T15:46:52.000Z</time>
      </trkpt>
      <trkpt lat="42.82563" lon="0.16905">
        <ele>1858.1999511719</ele>
        <time>2019-05-05T15:46:55.000Z</time>
      </trkpt>
      <trkpt lat="42.82548" lon="0.16905">
        <ele>1856</ele>
        <time>2019-05-05T15:47:06.000Z</time>
      </trkpt>
      <trkpt lat="42.82544" lon="0.16905">
        <ele>1855.5999755859</ele>
        <time>2019-05-05T15:47:09.000Z</time>
      </trkpt>
      <trkpt lat="42.8254" lon="0.16905">
        <ele>1854.8000488281</ele>
        <time>2019-05-05T15:47:13.000Z</time>
      </trkpt>
      <trkpt lat="42.8253" lon="0.16901">
        <ele>1853.4000244141</ele>
        <time>2019-05-05T15:47:21.000Z</time>
      </trkpt>
      <trkpt lat="42.82506" lon="0.16898">
        <ele>1846.1999511719</ele>
        <time>2019-05-05T15:47:42.000Z</time>
      </trkpt>
      <trkpt lat="42.82504" lon="0.16933">
        <ele>1841</ele>
        <time>2019-05-05T15:48:05.000Z</time>
      </trkpt>
      <trkpt lat="42.82503" lon="0.1694">
        <ele>1840.5999755859</ele>
        <time>2019-05-05T15:48:10.000Z</time>
      </trkpt>
      <trkpt lat="42.82494" lon="0.16986">
        <ele>1837.4000244141</ele>
        <time>2019-05-05T15:48:36.000Z</time>
      </trkpt>
      <trkpt lat="42.82493" lon="0.16987">
        <ele>1837.4000244141</ele>
        <time>2019-05-05T15:48:37.000Z</time>
      </trkpt>
      <trkpt lat="42.82489" lon="0.16989">
        <ele>1838</ele>
        <time>2019-05-05T15:48:40.000Z</time>
      </trkpt>
      <trkpt lat="42.82487" lon="0.16989">
        <ele>1838.4000244141</ele>
        <time>2019-05-05T15:48:41.000Z</time>
      </trkpt>
      <trkpt lat="42.82485" lon="0.1699">
        <ele>1838.5999755859</ele>
        <time>2019-05-05T15:48:42.000Z</time>
      </trkpt>
      <trkpt lat="42.82449" lon="0.16977">
        <ele>1844</ele>
        <time>2019-05-05T15:49:19.000Z</time>
      </trkpt>
      <trkpt lat="42.82439" lon="0.16984">
        <ele>1843.1999511719</ele>
        <time>2019-05-05T15:49:29.000Z</time>
      </trkpt>
      <trkpt lat="42.82437" lon="0.16985">
        <ele>1842.5999755859</ele>
        <time>2019-05-05T15:49:31.000Z</time>
      </trkpt>
      <trkpt lat="42.82426" lon="0.1699">
        <ele>1838.4000244141</ele>
        <time>2019-05-05T15:49:44.000Z</time>
      </trkpt>
      <trkpt lat="42.82421" lon="0.16996">
        <ele>1836.4000244141</ele>
        <time>2019-05-05T15:49:50.000Z</time>
      </trkpt>
      <trkpt lat="42.82417" lon="0.17004">
        <ele>1837.8000488281</ele>
        <time>2019-05-05T15:49:57.000Z</time>
      </trkpt>
      <trkpt lat="42.82414" lon="0.17013">
        <ele>1838.1999511719</ele>
        <time>2019-05-05T15:50:08.000Z</time>
      </trkpt>
      <trkpt lat="42.82413" lon="0.17018">
        <ele>1837.4000244141</ele>
        <time>2019-05-05T15:50:13.000Z</time>
      </trkpt>
      <trkpt lat="42.82407" lon="0.17024">
        <ele>1840.5999755859</ele>
        <time>2019-05-05T15:50:20.000Z</time>
      </trkpt>
      <trkpt lat="42.82405" lon="0.17032">
        <ele>1838.4000244141</ele>
        <time>2019-05-05T15:50:26.000Z</time>
      </trkpt>
      <trkpt lat="42.82394" lon="0.17041">
        <ele>1837.5999755859</ele>
        <time>2019-05-05T15:50:42.000Z</time>
      </trkpt>
      <trkpt lat="42.82388" lon="0.17043">
        <ele>1838.8000488281</ele>
        <time>2019-05-05T15:50:47.000Z</time>
      </trkpt>
      <trkpt lat="42.82387" lon="0.17046">
        <ele>1838.8000488281</ele>
        <time>2019-05-05T15:50:50.000Z</time>
      </trkpt>
      <trkpt lat="42.82381" lon="0.17053">
        <ele>1841.4000244141</ele>
        <time>2019-05-05T15:50:57.000Z</time>
      </trkpt>
      <trkpt lat="42.82373" lon="0.17073">
        <ele>1844</ele>
        <time>2019-05-05T15:51:13.000Z</time>
      </trkpt>
      <trkpt lat="42.82367" lon="0.17087">
        <ele>1842</ele>
        <time>2019-05-05T15:51:29.000Z</time>
      </trkpt>
      <trkpt lat="42.8236" lon="0.17097">
        <ele>1840.4000244141</ele>
        <time>2019-05-05T15:51:41.000Z</time>
      </trkpt>
      <trkpt lat="42.82359" lon="0.17099">
        <ele>1839.5999755859</ele>
        <time>2019-05-05T15:51:43.000Z</time>
      </trkpt>
      <trkpt lat="42.82345" lon="0.17121">
        <ele>1835.8000488281</ele>
        <time>2019-05-05T15:52:07.000Z</time>
      </trkpt>
      <trkpt lat="42.82342" lon="0.17125">
        <ele>1834.8000488281</ele>
        <time>2019-05-05T15:52:11.000Z</time>
      </trkpt>
      <trkpt lat="42.82334" lon="0.17148">
        <ele>1835.1999511719</ele>
        <time>2019-05-05T15:52:33.000Z</time>
      </trkpt>
      <trkpt lat="42.82327" lon="0.1716">
        <ele>1839.1999511719</ele>
        <time>2019-05-05T15:52:46.000Z</time>
      </trkpt>
      <trkpt lat="42.82324" lon="0.17163">
        <ele>1841.5999755859</ele>
        <time>2019-05-05T15:52:52.000Z</time>
      </trkpt>
      <trkpt lat="42.82319" lon="0.17179">
        <ele>1842.8000488281</ele>
        <time>2019-05-05T15:53:11.000Z</time>
      </trkpt>
      <trkpt lat="42.8232" lon="0.17184">
        <ele>1840.8000488281</ele>
        <time>2019-05-05T15:53:16.000Z</time>
      </trkpt>
      <trkpt lat="42.82318" lon="0.17187">
        <ele>1841.1999511719</ele>
        <time>2019-05-05T15:53:20.000Z</time>
      </trkpt>
      <trkpt lat="42.82312" lon="0.172">
        <ele>1842</ele>
        <time>2019-05-05T15:53:37.000Z</time>
      </trkpt>
      <trkpt lat="42.8231" lon="0.17204">
        <ele>1841.5999755859</ele>
        <time>2019-05-05T15:53:40.000Z</time>
      </trkpt>
      <trkpt lat="42.82305" lon="0.17211">
        <ele>1843</ele>
        <time>2019-05-05T15:53:47.000Z</time>
      </trkpt>
      <trkpt lat="42.82299" lon="0.17227">
        <ele>1847.4000244141</ele>
        <time>2019-05-05T15:54:09.000Z</time>
      </trkpt>
      <trkpt lat="42.823" lon="0.17229">
        <ele>1846.4000244141</ele>
        <time>2019-05-05T15:54:14.000Z</time>
      </trkpt>
      <trkpt lat="42.82292" lon="0.17265">
        <ele>1846.1999511719</ele>
        <time>2019-05-05T15:54:43.000Z</time>
      </trkpt>
      <trkpt lat="42.82279" lon="0.17295">
        <ele>1839.1999511719</ele>
        <time>2019-05-05T15:55:09.000Z</time>
      </trkpt>
      <trkpt lat="42.82277" lon="0.17295">
        <ele>1839.8000488281</ele>
        <time>2019-05-05T15:55:12.000Z</time>
      </trkpt>
      <trkpt lat="42.82276" lon="0.17298">
        <ele>1841.1999511719</ele>
        <time>2019-05-05T15:55:17.000Z</time>
      </trkpt>
      <trkpt lat="42.8227" lon="0.17307">
        <ele>1846.8000488281</ele>
        <time>2019-05-05T15:55:28.000Z</time>
      </trkpt>
      <trkpt lat="42.8227" lon="0.1731">
        <ele>1847</ele>
        <time>2019-05-05T15:55:30.000Z</time>
      </trkpt>
      <trkpt lat="42.82269" lon="0.1733">
        <ele>1840.8000488281</ele>
        <time>2019-05-05T15:55:46.000Z</time>
      </trkpt>
      <trkpt lat="42.82268" lon="0.17339">
        <ele>1838.1999511719</ele>
        <time>2019-05-05T15:55:52.000Z</time>
      </trkpt>
      <trkpt lat="42.82262" lon="0.17357">
        <ele>1831.4000244141</ele>
        <time>2019-05-05T15:56:06.000Z</time>
      </trkpt>
      <trkpt lat="42.82257" lon="0.17366">
        <ele>1827.8000488281</ele>
        <time>2019-05-05T15:56:17.000Z</time>
      </trkpt>
      <trkpt lat="42.82259" lon="0.17398">
        <ele>1820.1999511719</ele>
        <time>2019-05-05T15:56:39.000Z</time>
      </trkpt>
      <trkpt lat="42.82253" lon="0.17418">
        <ele>1813.4000244141</ele>
        <time>2019-05-05T15:56:54.000Z</time>
      </trkpt>
      <trkpt lat="42.8225" lon="0.17427">
        <ele>1812.4000244141</ele>
        <time>2019-05-05T15:57:02.000Z</time>
      </trkpt>
      <trkpt lat="42.82246" lon="0.17453">
        <ele>1806.4000244141</ele>
        <time>2019-05-05T15:57:25.000Z</time>
      </trkpt>
      <trkpt lat="42.82242" lon="0.1746">
        <ele>1804.4000244141</ele>
        <time>2019-05-05T15:57:31.000Z</time>
      </trkpt>
      <trkpt lat="42.82241" lon="0.17472">
        <ele>1801.8000488281</ele>
        <time>2019-05-05T15:57:37.000Z</time>
      </trkpt>
      <trkpt lat="42.82203" lon="0.17499">
        <ele>1805.4000244141</ele>
        <time>2019-05-05T15:58:10.000Z</time>
      </trkpt>
      <trkpt lat="42.82208" lon="0.17522">
        <ele>1795.5999755859</ele>
        <time>2019-05-05T15:58:46.000Z</time>
      </trkpt>
      <trkpt lat="42.82213" lon="0.17514">
        <ele>1798</ele>
        <time>2019-05-05T15:58:52.000Z</time>
      </trkpt>
      <trkpt lat="42.82234" lon="0.17503">
        <ele>1796</ele>
        <time>2019-05-05T15:59:10.000Z</time>
      </trkpt>
      <trkpt lat="42.82237" lon="0.17504">
        <ele>1795</ele>
        <time>2019-05-05T15:59:13.000Z</time>
      </trkpt>
      <trkpt lat="42.82221" lon="0.17531">
        <ele>1790</ele>
        <time>2019-05-05T15:59:36.000Z</time>
      </trkpt>
      <trkpt lat="42.82214" lon="0.17536">
        <ele>1789.1999511719</ele>
        <time>2019-05-05T15:59:50.000Z</time>
      </trkpt>
      <trkpt lat="42.82212" lon="0.17541">
        <ele>1787.4000244141</ele>
        <time>2019-05-05T16:00:01.000Z</time>
      </trkpt>
      <trkpt lat="42.82212" lon="0.17549">
        <ele>1785.4000244141</ele>
        <time>2019-05-05T16:00:11.000Z</time>
      </trkpt>
      <trkpt lat="42.82211" lon="0.17555">
        <ele>1784.5999755859</ele>
        <time>2019-05-05T16:00:15.000Z</time>
      </trkpt>
      <trkpt lat="42.82212" lon="0.1756">
        <ele>1783.4000244141</ele>
        <time>2019-05-05T16:00:20.000Z</time>
      </trkpt>
      <trkpt lat="42.82203" lon="0.17588">
        <ele>1777.8000488281</ele>
        <time>2019-05-05T16:00:55.000Z</time>
      </trkpt>
      <trkpt lat="42.82205" lon="0.17599">
        <ele>1774.1999511719</ele>
        <time>2019-05-05T16:01:09.000Z</time>
      </trkpt>
      <trkpt lat="42.822" lon="0.17606">
        <ele>1772</ele>
        <time>2019-05-05T16:01:15.000Z</time>
      </trkpt>
      <trkpt lat="42.82198" lon="0.1761">
        <ele>1771</ele>
        <time>2019-05-05T16:01:19.000Z</time>
      </trkpt>
      <trkpt lat="42.82196" lon="0.17617">
        <ele>1768.5999755859</ele>
        <time>2019-05-05T16:01:29.000Z</time>
      </trkpt>
      <trkpt lat="42.82193" lon="0.17629">
        <ele>1765.5999755859</ele>
        <time>2019-05-05T16:01:42.000Z</time>
      </trkpt>
      <trkpt lat="42.82189" lon="0.17634">
        <ele>1766.5999755859</ele>
        <time>2019-05-05T16:01:47.000Z</time>
      </trkpt>
      <trkpt lat="42.82188" lon="0.17636">
        <ele>1767</ele>
        <time>2019-05-05T16:01:50.000Z</time>
      </trkpt>
      <trkpt lat="42.82186" lon="0.17637">
        <ele>1767.4000244141</ele>
        <time>2019-05-05T16:01:52.000Z</time>
      </trkpt>
      <trkpt lat="42.82181" lon="0.17645">
        <ele>1765.5999755859</ele>
        <time>2019-05-05T16:02:05.000Z</time>
      </trkpt>
      <trkpt lat="42.82183" lon="0.1765">
        <ele>1765.4000244141</ele>
        <time>2019-05-05T16:02:09.000Z</time>
      </trkpt>
      <trkpt lat="42.82182" lon="0.17661">
        <ele>1762.4000244141</ele>
        <time>2019-05-05T16:02:22.000Z</time>
      </trkpt>
      <trkpt lat="42.82181" lon="0.17666">
        <ele>1761</ele>
        <time>2019-05-05T16:02:25.000Z</time>
      </trkpt>
      <trkpt lat="42.82181" lon="0.17679">
        <ele>1757.8000488281</ele>
        <time>2019-05-05T16:02:38.000Z</time>
      </trkpt>
      <trkpt lat="42.82181" lon="0.17683">
        <ele>1756.8000488281</ele>
        <time>2019-05-05T16:02:41.000Z</time>
      </trkpt>
      <trkpt lat="42.82179" lon="0.17702">
        <ele>1752.1999511719</ele>
        <time>2019-05-05T16:03:01.000Z</time>
      </trkpt>
      <trkpt lat="42.82176" lon="0.17714">
        <ele>1749</ele>
        <time>2019-05-05T16:03:10.000Z</time>
      </trkpt>
      <trkpt lat="42.8217" lon="0.17729">
        <ele>1746.5999755859</ele>
        <time>2019-05-05T16:03:19.000Z</time>
      </trkpt>
      <trkpt lat="42.82159" lon="0.17734">
        <ele>1750</ele>
        <time>2019-05-05T16:03:30.000Z</time>
      </trkpt>
      <trkpt lat="42.82157" lon="0.17736">
        <ele>1750.1999511719</ele>
        <time>2019-05-05T16:03:33.000Z</time>
      </trkpt>
      <trkpt lat="42.82148" lon="0.17761">
        <ele>1751.8000488281</ele>
        <time>2019-05-05T16:04:08.000Z</time>
      </trkpt>
      <trkpt lat="42.82147" lon="0.17766">
        <ele>1752</ele>
        <time>2019-05-05T16:04:19.000Z</time>
      </trkpt>
      <trkpt lat="42.82147" lon="0.17788">
        <ele>1753</ele>
        <time>2019-05-05T16:04:39.000Z</time>
      </trkpt>
      <trkpt lat="42.82145" lon="0.17798">
        <ele>1754.1999511719</ele>
        <time>2019-05-05T16:05:22.000Z</time>
      </trkpt>
      <trkpt lat="42.82136" lon="0.17826">
        <ele>1760.8000488281</ele>
        <time>2019-05-05T16:05:43.000Z</time>
      </trkpt>
      <trkpt lat="42.82125" lon="0.17861">
        <ele>1767.5999755859</ele>
        <time>2019-05-05T16:06:06.000Z</time>
      </trkpt>
      <trkpt lat="42.82122" lon="0.17907">
        <ele>1770</ele>
        <time>2019-05-05T16:06:36.000Z</time>
      </trkpt>
      <trkpt lat="42.82126" lon="0.17925">
        <ele>1768.1999511719</ele>
        <time>2019-05-05T16:06:47.000Z</time>
      </trkpt>
      <trkpt lat="42.82136" lon="0.17984">
        <ele>1762.1999511719</ele>
        <time>2019-05-05T16:07:23.000Z</time>
      </trkpt>
      <trkpt lat="42.82134" lon="0.18019">
        <ele>1760.5999755859</ele>
        <time>2019-05-05T16:07:43.000Z</time>
      </trkpt>
      <trkpt lat="42.82134" lon="0.18028">
        <ele>1760.4000244141</ele>
        <time>2019-05-05T16:07:48.000Z</time>
      </trkpt>
      <trkpt lat="42.82131" lon="0.1804">
        <ele>1760.8000488281</ele>
        <time>2019-05-05T16:07:55.000Z</time>
      </trkpt>
      <trkpt lat="42.82128" lon="0.18052">
        <ele>1761</ele>
        <time>2019-05-05T16:08:01.000Z</time>
      </trkpt>
      <trkpt lat="42.82127" lon="0.18114">
        <ele>1754.5999755859</ele>
        <time>2019-05-05T16:08:35.000Z</time>
      </trkpt>
      <trkpt lat="42.82129" lon="0.18132">
        <ele>1751.8000488281</ele>
        <time>2019-05-05T16:08:45.000Z</time>
      </trkpt>
      <trkpt lat="42.82128" lon="0.18141">
        <ele>1751.1999511719</ele>
        <time>2019-05-05T16:08:51.000Z</time>
      </trkpt>
      <trkpt lat="42.8213" lon="0.18202">
        <ele>1740.1999511719</ele>
        <time>2019-05-05T16:09:27.000Z</time>
      </trkpt>
      <trkpt lat="42.82127" lon="0.18241">
        <ele>1735.5999755859</ele>
        <time>2019-05-05T16:10:07.000Z</time>
      </trkpt>
      <trkpt lat="42.82135" lon="0.18299">
        <ele>1721.4000244141</ele>
        <time>2019-05-05T16:10:40.000Z</time>
      </trkpt>
      <trkpt lat="42.8214" lon="0.1831">
        <ele>1719.4000244141</ele>
        <time>2019-05-05T16:10:49.000Z</time>
      </trkpt>
      <trkpt lat="42.82141" lon="0.1833">
        <ele>1717</ele>
        <time>2019-05-05T16:11:00.000Z</time>
      </trkpt>
      <trkpt lat="42.8214" lon="0.18334">
        <ele>1716.8000488281</ele>
        <time>2019-05-05T16:11:03.000Z</time>
      </trkpt>
      <trkpt lat="42.82143" lon="0.18346">
        <ele>1715</ele>
        <time>2019-05-05T16:11:13.000Z</time>
      </trkpt>
      <trkpt lat="42.82146" lon="0.18371">
        <ele>1707.1999511719</ele>
        <time>2019-05-05T16:11:31.000Z</time>
      </trkpt>
      <trkpt lat="42.82146" lon="0.18373">
        <ele>1706.5999755859</ele>
        <time>2019-05-05T16:11:32.000Z</time>
      </trkpt>
      <trkpt lat="42.82143" lon="0.18389">
        <ele>1705.5999755859</ele>
        <time>2019-05-05T16:11:42.000Z</time>
      </trkpt>
      <trkpt lat="42.82139" lon="0.18397">
        <ele>1706.1999511719</ele>
        <time>2019-05-05T16:11:51.000Z</time>
      </trkpt>
      <trkpt lat="42.82117" lon="0.1841">
        <ele>1704</ele>
        <time>2019-05-05T16:12:11.000Z</time>
      </trkpt>
      <trkpt lat="42.82114" lon="0.1841">
        <ele>1702.5999755859</ele>
        <time>2019-05-05T16:12:14.000Z</time>
      </trkpt>
      <trkpt lat="42.82095" lon="0.18426">
        <ele>1688.8000488281</ele>
        <time>2019-05-05T16:12:32.000Z</time>
      </trkpt>
      <trkpt lat="42.82072" lon="0.18453">
        <ele>1681.1999511719</ele>
        <time>2019-05-05T16:13:04.000Z</time>
      </trkpt>
      <trkpt lat="42.82068" lon="0.18459">
        <ele>1680</ele>
        <time>2019-05-05T16:13:18.000Z</time>
      </trkpt>
      <trkpt lat="42.82046" lon="0.18482">
        <ele>1683.5999755859</ele>
        <time>2019-05-05T16:13:38.000Z</time>
      </trkpt>
      <trkpt lat="42.82041" lon="0.18485">
        <ele>1684.5999755859</ele>
        <time>2019-05-05T16:13:49.000Z</time>
      </trkpt>
      <trkpt lat="42.82042" lon="0.1849">
        <ele>1684.5999755859</ele>
        <time>2019-05-05T16:13:55.000Z</time>
      </trkpt>
      <trkpt lat="42.82037" lon="0.18498">
        <ele>1684.4000244141</ele>
        <time>2019-05-05T16:14:04.000Z</time>
      </trkpt>
      <trkpt lat="42.82029" lon="0.18515">
        <ele>1678.4000244141</ele>
        <time>2019-05-05T16:14:19.000Z</time>
      </trkpt>
      <trkpt lat="42.82024" lon="0.18544">
        <ele>1669.5999755859</ele>
        <time>2019-05-05T16:14:43.000Z</time>
      </trkpt>
      <trkpt lat="42.82004" lon="0.18561">
        <ele>1666.1999511719</ele>
        <time>2019-05-05T16:15:01.000Z</time>
      </trkpt>
      <trkpt lat="42.81989" lon="0.18617">
        <ele>1669</ele>
        <time>2019-05-05T16:15:38.000Z</time>
      </trkpt>
      <trkpt lat="42.81988" lon="0.18619">
        <ele>1669</ele>
        <time>2019-05-05T16:15:40.000Z</time>
      </trkpt>
      <trkpt lat="42.81986" lon="0.18651">
        <ele>1664.1999511719</ele>
        <time>2019-05-05T16:16:02.000Z</time>
      </trkpt>
      <trkpt lat="42.81985" lon="0.18657">
        <ele>1663.4000244141</ele>
        <time>2019-05-05T16:16:06.000Z</time>
      </trkpt>
      <trkpt lat="42.81983" lon="0.1867">
        <ele>1662</ele>
        <time>2019-05-05T16:16:14.000Z</time>
      </trkpt>
      <trkpt lat="42.81988" lon="0.18676">
        <ele>1659</ele>
        <time>2019-05-05T16:16:24.000Z</time>
      </trkpt>
      <trkpt lat="42.81987" lon="0.1867">
        <ele>1660.4000244141</ele>
        <time>2019-05-05T16:16:48.000Z</time>
      </trkpt>
      <trkpt lat="42.81987" lon="0.1867">
        <ele>1660.1999511719</ele>
        <time>2019-05-05T16:16:53.000Z</time>
      </trkpt>
      <trkpt lat="42.81981" lon="0.18682">
        <ele>1661.4000244141</ele>
        <time>2019-05-05T16:17:16.000Z</time>
      </trkpt>
      <trkpt lat="42.8198" lon="0.18689">
        <ele>1660</ele>
        <time>2019-05-05T16:17:20.000Z</time>
      </trkpt>
      <trkpt lat="42.81979" lon="0.18692">
        <ele>1659.8000488281</ele>
        <time>2019-05-05T16:17:22.000Z</time>
      </trkpt>
      <trkpt lat="42.81975" lon="0.18694">
        <ele>1660.4000244141</ele>
        <time>2019-05-05T16:17:26.000Z</time>
      </trkpt>
      <trkpt lat="42.81975" lon="0.18694">
        <ele>1660.4000244141</ele>
        <time>2019-05-05T16:17:33.000Z</time>
      </trkpt>
      <trkpt lat="42.81974" lon="0.18694">
        <ele>1660.4000244141</ele>
        <time>2019-05-05T16:17:36.000Z</time>
      </trkpt>
      <trkpt lat="42.81973" lon="0.18697">
        <ele>1660.1999511719</ele>
        <time>2019-05-05T16:17:40.000Z</time>
      </trkpt>
      <trkpt lat="42.81973" lon="0.18698">
        <ele>1659.8000488281</ele>
        <time>2019-05-05T16:17:41.000Z</time>
      </trkpt>
      <trkpt lat="42.81972" lon="0.18701">
        <ele>1659.4000244141</ele>
        <time>2019-05-05T16:17:43.000Z</time>
      </trkpt>
      <trkpt lat="42.81971" lon="0.18702">
        <ele>1659.4000244141</ele>
        <time>2019-05-05T16:17:44.000Z</time>
      </trkpt>
      <trkpt lat="42.81969" lon="0.18703">
        <ele>1659.5999755859</ele>
        <time>2019-05-05T16:17:45.000Z</time>
      </trkpt>
      <trkpt lat="42.81968" lon="0.18704">
        <ele>1660</ele>
        <time>2019-05-05T16:17:47.000Z</time>
      </trkpt>
      <trkpt lat="42.81966" lon="0.18704">
        <ele>1660.4000244141</ele>
        <time>2019-05-05T16:17:48.000Z</time>
      </trkpt>
      <trkpt lat="42.81962" lon="0.18702">
        <ele>1662.4000244141</ele>
        <time>2019-05-05T16:17:59.000Z</time>
      </trkpt>
      <trkpt lat="42.81964" lon="0.18702">
        <ele>1662</ele>
        <time>2019-05-05T16:18:11.000Z</time>
      </trkpt>
      <trkpt lat="42.81966" lon="0.18701">
        <ele>1661.5999755859</ele>
        <time>2019-05-05T16:18:19.000Z</time>
      </trkpt>
      <trkpt lat="42.81968" lon="0.18705">
        <ele>1659.1999511719</ele>
        <time>2019-05-05T16:18:22.000Z</time>
      </trkpt>
      <trkpt lat="42.81959" lon="0.18765">
        <ele>1654.8000488281</ele>
        <time>2019-05-05T16:18:56.000Z</time>
      </trkpt>
      <trkpt lat="42.81958" lon="0.18767">
        <ele>1654.5999755859</ele>
        <time>2019-05-05T16:18:58.000Z</time>
      </trkpt>
      <trkpt lat="42.81951" lon="0.18815">
        <ele>1651.4000244141</ele>
        <time>2019-05-05T16:19:25.000Z</time>
      </trkpt>
      <trkpt lat="42.81947" lon="0.18839">
        <ele>1648.8000488281</ele>
        <time>2019-05-05T16:20:04.000Z</time>
      </trkpt>
      <trkpt lat="42.8195" lon="0.18844">
        <ele>1647.5999755859</ele>
        <time>2019-05-05T16:20:44.000Z</time>
      </trkpt>
    </trkseg>
  </trk>
</gpx>